<?xml version="1.0" encoding="UTF-8" standalone="no" ?>
<gpx xmlns="http://www.topografix.com/GPX/1/1" xmlns:xsi="http://www.w3.org/2001/XMLSchema-instance" xsi:schemaLocation="http://www.topografix.com/GPX/1/1 http://www.topografix.com/GPX/1/1/gpx.xsd" version="1.1" creator="VisuGPX - https://www.visugpx.com">
  <metadata>
    <name>Laudun - Camp de César</name>
    <desc><![CDATA[VTT-Gard Laudun - Camp de César 25km]]></desc>
  </metadata>
  <trk>
    <name><![CDATA[--Laudun-l'Ardoise-- OR-5722148:Sortie du 14-02-16]]></name>
    <trkseg>
      <trkpt lat="44.11523" lon="4.65009">
        <ele>205</ele>
        <time>2016-03-06T10:03:57Z</time>
      </trkpt>
      <trkpt lat="44.11505" lon="4.65017">
        <ele>201</ele>
        <time>2016-03-06T10:05:57Z</time>
      </trkpt>
      <trkpt lat="44.11473" lon="4.65048">
        <ele>196</ele>
        <time>2016-03-06T10:07:57Z</time>
      </trkpt>
      <trkpt lat="44.11439" lon="4.65071">
        <ele>192</ele>
        <time>2016-03-06T10:09:57Z</time>
      </trkpt>
      <trkpt lat="44.11418" lon="4.65098">
        <ele>187</ele>
        <time>2016-03-06T10:11:57Z</time>
      </trkpt>
      <trkpt lat="44.11406" lon="4.65106">
        <ele>184</ele>
        <time>2016-03-06T10:13:57Z</time>
      </trkpt>
      <trkpt lat="44.1135" lon="4.65106">
        <ele>178</ele>
        <time>2016-03-06T10:15:57Z</time>
      </trkpt>
      <trkpt lat="44.11314" lon="4.65108">
        <ele>175</ele>
        <time>2016-03-06T10:17:57Z</time>
      </trkpt>
      <trkpt lat="44.11296" lon="4.65118">
        <ele>173</ele>
        <time>2016-03-06T10:19:57Z</time>
      </trkpt>
      <trkpt lat="44.11273" lon="4.65141">
        <ele>171</ele>
        <time>2016-03-06T10:21:57Z</time>
      </trkpt>
      <trkpt lat="44.11259" lon="4.65164">
        <ele>170</ele>
        <time>2016-03-06T10:23:57Z</time>
      </trkpt>
      <trkpt lat="44.1124" lon="4.65189">
        <ele>167</ele>
        <time>2016-03-06T10:25:57Z</time>
      </trkpt>
      <trkpt lat="44.11216" lon="4.65208">
        <ele>165</ele>
        <time>2016-03-06T10:27:57Z</time>
      </trkpt>
      <trkpt lat="44.11166" lon="4.65268">
        <ele>158</ele>
        <time>2016-03-06T10:29:57Z</time>
      </trkpt>
      <trkpt lat="44.11156" lon="4.65286">
        <ele>156</ele>
        <time>2016-03-06T10:31:57Z</time>
      </trkpt>
      <trkpt lat="44.11099" lon="4.6532">
        <ele>152</ele>
        <time>2016-03-06T10:33:57Z</time>
      </trkpt>
      <trkpt lat="44.11072" lon="4.65337">
        <ele>149</ele>
        <time>2016-03-06T10:35:57Z</time>
      </trkpt>
      <trkpt lat="44.11074" lon="4.65333">
        <ele>149</ele>
        <time>2016-03-06T10:37:57Z</time>
      </trkpt>
      <trkpt lat="44.11074" lon="4.65332">
        <ele>149</ele>
        <time>2016-03-06T10:39:57Z</time>
      </trkpt>
      <trkpt lat="44.11074" lon="4.65332">
        <ele>149</ele>
        <time>2016-03-06T10:41:57Z</time>
      </trkpt>
      <trkpt lat="44.11076" lon="4.6533">
        <ele>150</ele>
        <time>2016-03-06T10:43:57Z</time>
      </trkpt>
      <trkpt lat="44.11076" lon="4.65326">
        <ele>150</ele>
        <time>2016-03-06T10:45:57Z</time>
      </trkpt>
      <trkpt lat="44.11074" lon="4.65319">
        <ele>151</ele>
        <time>2016-03-06T10:47:57Z</time>
      </trkpt>
      <trkpt lat="44.11072" lon="4.65315">
        <ele>152</ele>
        <time>2016-03-06T10:49:57Z</time>
      </trkpt>
      <trkpt lat="44.11071" lon="4.65313">
        <ele>152</ele>
        <time>2016-03-06T10:51:57Z</time>
      </trkpt>
      <trkpt lat="44.11071" lon="4.65309">
        <ele>152</ele>
        <time>2016-03-06T10:53:57Z</time>
      </trkpt>
      <trkpt lat="44.11072" lon="4.65301">
        <ele>154</ele>
        <time>2016-03-06T10:55:57Z</time>
      </trkpt>
      <trkpt lat="44.1107" lon="4.65293">
        <ele>155</ele>
        <time>2016-03-06T10:57:57Z</time>
      </trkpt>
      <trkpt lat="44.11066" lon="4.65289">
        <ele>155</ele>
        <time>2016-03-06T10:59:57Z</time>
      </trkpt>
      <trkpt lat="44.11059" lon="4.65284">
        <ele>154</ele>
        <time>2016-03-06T11:01:57Z</time>
      </trkpt>
      <trkpt lat="44.11055" lon="4.65271">
        <ele>156</ele>
        <time>2016-03-06T11:03:57Z</time>
      </trkpt>
      <trkpt lat="44.11054" lon="4.65269">
        <ele>156</ele>
        <time>2016-03-06T11:05:57Z</time>
      </trkpt>
      <trkpt lat="44.11051" lon="4.65261">
        <ele>156</ele>
        <time>2016-03-06T11:07:57Z</time>
      </trkpt>
      <trkpt lat="44.11049" lon="4.6526">
        <ele>156</ele>
        <time>2016-03-06T11:09:57Z</time>
      </trkpt>
      <trkpt lat="44.11043" lon="4.65258">
        <ele>156</ele>
        <time>2016-03-06T11:11:57Z</time>
      </trkpt>
      <trkpt lat="44.11036" lon="4.65253">
        <ele>155</ele>
        <time>2016-03-06T11:13:57Z</time>
      </trkpt>
      <trkpt lat="44.11036" lon="4.6524">
        <ele>156</ele>
        <time>2016-03-06T11:15:57Z</time>
      </trkpt>
      <trkpt lat="44.11034" lon="4.65234">
        <ele>156</ele>
        <time>2016-03-06T11:17:57Z</time>
      </trkpt>
      <trkpt lat="44.11032" lon="4.65231">
        <ele>156</ele>
        <time>2016-03-06T11:19:57Z</time>
      </trkpt>
      <trkpt lat="44.11028" lon="4.65226">
        <ele>156</ele>
        <time>2016-03-06T11:21:57Z</time>
      </trkpt>
      <trkpt lat="44.11013" lon="4.6522">
        <ele>154</ele>
        <time>2016-03-06T11:23:57Z</time>
      </trkpt>
      <trkpt lat="44.11008" lon="4.65216">
        <ele>154</ele>
        <time>2016-03-06T11:25:57Z</time>
      </trkpt>
      <trkpt lat="44.11005" lon="4.65213">
        <ele>153</ele>
        <time>2016-03-06T11:27:57Z</time>
      </trkpt>
      <trkpt lat="44.10995" lon="4.65205">
        <ele>152</ele>
        <time>2016-03-06T11:29:57Z</time>
      </trkpt>
      <trkpt lat="44.10982" lon="4.65184">
        <ele>152</ele>
        <time>2016-03-06T11:31:57Z</time>
      </trkpt>
      <trkpt lat="44.10975" lon="4.65176">
        <ele>152</ele>
        <time>2016-03-06T11:33:57Z</time>
      </trkpt>
      <trkpt lat="44.10966" lon="4.65154">
        <ele>153</ele>
        <time>2016-03-06T11:35:57Z</time>
      </trkpt>
      <trkpt lat="44.10967" lon="4.65138">
        <ele>154</ele>
        <time>2016-03-06T11:37:57Z</time>
      </trkpt>
      <trkpt lat="44.10967" lon="4.65134">
        <ele>154</ele>
        <time>2016-03-06T11:39:57Z</time>
      </trkpt>
      <trkpt lat="44.10968" lon="4.65127">
        <ele>155</ele>
        <time>2016-03-06T11:41:57Z</time>
      </trkpt>
      <trkpt lat="44.10968" lon="4.6512">
        <ele>156</ele>
        <time>2016-03-06T11:43:57Z</time>
      </trkpt>
      <trkpt lat="44.10965" lon="4.65101">
        <ele>157</ele>
        <time>2016-03-06T11:45:57Z</time>
      </trkpt>
      <trkpt lat="44.10965" lon="4.65094">
        <ele>157</ele>
        <time>2016-03-06T11:47:57Z</time>
      </trkpt>
      <trkpt lat="44.1096" lon="4.65085">
        <ele>158</ele>
        <time>2016-03-06T11:49:57Z</time>
      </trkpt>
      <trkpt lat="44.10959" lon="4.65082">
        <ele>158</ele>
        <time>2016-03-06T11:51:57Z</time>
      </trkpt>
      <trkpt lat="44.10957" lon="4.65077">
        <ele>157</ele>
        <time>2016-03-06T11:53:57Z</time>
      </trkpt>
      <trkpt lat="44.10957" lon="4.65077">
        <ele>157</ele>
        <time>2016-03-06T11:55:57Z</time>
      </trkpt>
      <trkpt lat="44.10949" lon="4.65071">
        <ele>157</ele>
        <time>2016-03-06T11:57:57Z</time>
      </trkpt>
      <trkpt lat="44.10943" lon="4.65068">
        <ele>156</ele>
        <time>2016-03-06T11:59:57Z</time>
      </trkpt>
      <trkpt lat="44.10941" lon="4.65068">
        <ele>156</ele>
        <time>2016-03-06T12:01:57Z</time>
      </trkpt>
      <trkpt lat="44.10934" lon="4.6507">
        <ele>157</ele>
        <time>2016-03-06T12:03:57Z</time>
      </trkpt>
      <trkpt lat="44.10932" lon="4.65069">
        <ele>157</ele>
        <time>2016-03-06T12:05:57Z</time>
      </trkpt>
      <trkpt lat="44.10928" lon="4.65066">
        <ele>156</ele>
        <time>2016-03-06T12:07:57Z</time>
      </trkpt>
      <trkpt lat="44.10922" lon="4.65064">
        <ele>156</ele>
        <time>2016-03-06T12:09:57Z</time>
      </trkpt>
      <trkpt lat="44.10921" lon="4.65064">
        <ele>156</ele>
        <time>2016-03-06T12:11:57Z</time>
      </trkpt>
      <trkpt lat="44.10917" lon="4.65062">
        <ele>156</ele>
        <time>2016-03-06T12:13:57Z</time>
      </trkpt>
      <trkpt lat="44.10916" lon="4.65061">
        <ele>156</ele>
        <time>2016-03-06T12:15:57Z</time>
      </trkpt>
      <trkpt lat="44.10914" lon="4.65059">
        <ele>156</ele>
        <time>2016-03-06T12:17:57Z</time>
      </trkpt>
      <trkpt lat="44.10912" lon="4.65057">
        <ele>155</ele>
        <time>2016-03-06T12:19:57Z</time>
      </trkpt>
      <trkpt lat="44.10908" lon="4.65057">
        <ele>155</ele>
        <time>2016-03-06T12:21:57Z</time>
      </trkpt>
      <trkpt lat="44.10905" lon="4.6506">
        <ele>155</ele>
        <time>2016-03-06T12:23:57Z</time>
      </trkpt>
      <trkpt lat="44.10901" lon="4.65061">
        <ele>154</ele>
        <time>2016-03-06T12:25:57Z</time>
      </trkpt>
      <trkpt lat="44.10898" lon="4.65061">
        <ele>154</ele>
        <time>2016-03-06T12:27:57Z</time>
      </trkpt>
      <trkpt lat="44.10894" lon="4.65059">
        <ele>153</ele>
        <time>2016-03-06T12:29:57Z</time>
      </trkpt>
      <trkpt lat="44.10887" lon="4.65051">
        <ele>152</ele>
        <time>2016-03-06T12:31:57Z</time>
      </trkpt>
      <trkpt lat="44.10886" lon="4.65047">
        <ele>152</ele>
        <time>2016-03-06T12:33:57Z</time>
      </trkpt>
      <trkpt lat="44.10886" lon="4.6504">
        <ele>152</ele>
        <time>2016-03-06T12:35:57Z</time>
      </trkpt>
      <trkpt lat="44.10883" lon="4.65034">
        <ele>151</ele>
        <time>2016-03-06T12:37:57Z</time>
      </trkpt>
      <trkpt lat="44.10881" lon="4.65031">
        <ele>151</ele>
        <time>2016-03-06T12:39:57Z</time>
      </trkpt>
      <trkpt lat="44.10881" lon="4.6503">
        <ele>151</ele>
        <time>2016-03-06T12:41:57Z</time>
      </trkpt>
      <trkpt lat="44.10881" lon="4.65029">
        <ele>151</ele>
        <time>2016-03-06T12:43:57Z</time>
      </trkpt>
      <trkpt lat="44.10876" lon="4.65019">
        <ele>150</ele>
        <time>2016-03-06T12:45:57Z</time>
      </trkpt>
      <trkpt lat="44.10873" lon="4.65015">
        <ele>150</ele>
        <time>2016-03-06T12:47:57Z</time>
      </trkpt>
      <trkpt lat="44.10872" lon="4.65013">
        <ele>149</ele>
        <time>2016-03-06T12:49:57Z</time>
      </trkpt>
      <trkpt lat="44.10872" lon="4.6501">
        <ele>149</ele>
        <time>2016-03-06T12:51:57Z</time>
      </trkpt>
      <trkpt lat="44.10872" lon="4.65007">
        <ele>149</ele>
        <time>2016-03-06T12:53:57Z</time>
      </trkpt>
      <trkpt lat="44.10876" lon="4.65004">
        <ele>150</ele>
        <time>2016-03-06T12:55:57Z</time>
      </trkpt>
      <trkpt lat="44.10877" lon="4.65003">
        <ele>150</ele>
        <time>2016-03-06T12:57:57Z</time>
      </trkpt>
      <trkpt lat="44.10877" lon="4.65001">
        <ele>150</ele>
        <time>2016-03-06T12:59:57Z</time>
      </trkpt>
      <trkpt lat="44.10879" lon="4.64997">
        <ele>149</ele>
        <time>2016-03-06T13:01:57Z</time>
      </trkpt>
      <trkpt lat="44.10879" lon="4.64989">
        <ele>148</ele>
        <time>2016-03-06T13:03:57Z</time>
      </trkpt>
      <trkpt lat="44.10878" lon="4.64987">
        <ele>147</ele>
        <time>2016-03-06T13:05:57Z</time>
      </trkpt>
      <trkpt lat="44.10878" lon="4.64982">
        <ele>146</ele>
        <time>2016-03-06T13:07:57Z</time>
      </trkpt>
      <trkpt lat="44.10877" lon="4.64979">
        <ele>146</ele>
        <time>2016-03-06T13:09:57Z</time>
      </trkpt>
      <trkpt lat="44.10875" lon="4.64969">
        <ele>143</ele>
        <time>2016-03-06T13:11:57Z</time>
      </trkpt>
      <trkpt lat="44.10875" lon="4.64967">
        <ele>143</ele>
        <time>2016-03-06T13:13:57Z</time>
      </trkpt>
      <trkpt lat="44.10875" lon="4.64965">
        <ele>143</ele>
        <time>2016-03-06T13:15:57Z</time>
      </trkpt>
      <trkpt lat="44.10877" lon="4.64957">
        <ele>141</ele>
        <time>2016-03-06T13:17:57Z</time>
      </trkpt>
      <trkpt lat="44.10877" lon="4.64954">
        <ele>141</ele>
        <time>2016-03-06T13:19:57Z</time>
      </trkpt>
      <trkpt lat="44.10877" lon="4.64949">
        <ele>140</ele>
        <time>2016-03-06T13:21:57Z</time>
      </trkpt>
      <trkpt lat="44.10878" lon="4.64948">
        <ele>139</ele>
        <time>2016-03-06T13:23:57Z</time>
      </trkpt>
      <trkpt lat="44.10879" lon="4.64944">
        <ele>139</ele>
        <time>2016-03-06T13:25:57Z</time>
      </trkpt>
      <trkpt lat="44.10878" lon="4.6494">
        <ele>138</ele>
        <time>2016-03-06T13:27:57Z</time>
      </trkpt>
      <trkpt lat="44.10877" lon="4.64936">
        <ele>137</ele>
        <time>2016-03-06T13:29:57Z</time>
      </trkpt>
      <trkpt lat="44.10878" lon="4.64933">
        <ele>136</ele>
        <time>2016-03-06T13:31:57Z</time>
      </trkpt>
      <trkpt lat="44.10879" lon="4.64931">
        <ele>136</ele>
        <time>2016-03-06T13:33:57Z</time>
      </trkpt>
      <trkpt lat="44.10878" lon="4.64929">
        <ele>136</ele>
        <time>2016-03-06T13:35:57Z</time>
      </trkpt>
      <trkpt lat="44.10877" lon="4.64921">
        <ele>134</ele>
        <time>2016-03-06T13:37:57Z</time>
      </trkpt>
      <trkpt lat="44.10875" lon="4.64919">
        <ele>133</ele>
        <time>2016-03-06T13:39:57Z</time>
      </trkpt>
      <trkpt lat="44.10874" lon="4.64916">
        <ele>133</ele>
        <time>2016-03-06T13:41:57Z</time>
      </trkpt>
      <trkpt lat="44.10865" lon="4.64904">
        <ele>130</ele>
        <time>2016-03-06T13:43:57Z</time>
      </trkpt>
      <trkpt lat="44.10864" lon="4.64901">
        <ele>129</ele>
        <time>2016-03-06T13:45:57Z</time>
      </trkpt>
      <trkpt lat="44.10864" lon="4.64897">
        <ele>129</ele>
        <time>2016-03-06T13:47:57Z</time>
      </trkpt>
      <trkpt lat="44.10863" lon="4.64892">
        <ele>128</ele>
        <time>2016-03-06T13:49:57Z</time>
      </trkpt>
      <trkpt lat="44.10861" lon="4.64889">
        <ele>127</ele>
        <time>2016-03-06T13:51:57Z</time>
      </trkpt>
      <trkpt lat="44.10859" lon="4.64887">
        <ele>127</ele>
        <time>2016-03-06T13:53:57Z</time>
      </trkpt>
      <trkpt lat="44.10848" lon="4.64879">
        <ele>124</ele>
        <time>2016-03-06T13:55:57Z</time>
      </trkpt>
      <trkpt lat="44.10844" lon="4.64878">
        <ele>124</ele>
        <time>2016-03-06T13:57:57Z</time>
      </trkpt>
      <trkpt lat="44.1084" lon="4.64874">
        <ele>123</ele>
        <time>2016-03-06T13:59:57Z</time>
      </trkpt>
      <trkpt lat="44.10836" lon="4.64872">
        <ele>122</ele>
        <time>2016-03-06T14:01:57Z</time>
      </trkpt>
      <trkpt lat="44.10833" lon="4.64869">
        <ele>121</ele>
        <time>2016-03-06T14:03:57Z</time>
      </trkpt>
      <trkpt lat="44.10828" lon="4.64867">
        <ele>120</ele>
        <time>2016-03-06T14:05:57Z</time>
      </trkpt>
      <trkpt lat="44.10826" lon="4.64866">
        <ele>119</ele>
        <time>2016-03-06T14:07:57Z</time>
      </trkpt>
      <trkpt lat="44.10822" lon="4.64866">
        <ele>118</ele>
        <time>2016-03-06T14:09:57Z</time>
      </trkpt>
      <trkpt lat="44.10818" lon="4.64866">
        <ele>117</ele>
        <time>2016-03-06T14:11:57Z</time>
      </trkpt>
      <trkpt lat="44.10815" lon="4.64862">
        <ele>116</ele>
        <time>2016-03-06T14:13:57Z</time>
      </trkpt>
      <trkpt lat="44.10814" lon="4.64854">
        <ele>115</ele>
        <time>2016-03-06T14:15:57Z</time>
      </trkpt>
      <trkpt lat="44.10811" lon="4.64848">
        <ele>113</ele>
        <time>2016-03-06T14:17:57Z</time>
      </trkpt>
      <trkpt lat="44.1081" lon="4.64843">
        <ele>113</ele>
        <time>2016-03-06T14:19:57Z</time>
      </trkpt>
      <trkpt lat="44.10811" lon="4.64841">
        <ele>113</ele>
        <time>2016-03-06T14:21:57Z</time>
      </trkpt>
      <trkpt lat="44.10815" lon="4.64838">
        <ele>113</ele>
        <time>2016-03-06T14:23:57Z</time>
      </trkpt>
      <trkpt lat="44.10816" lon="4.64837">
        <ele>113</ele>
        <time>2016-03-06T14:25:57Z</time>
      </trkpt>
      <trkpt lat="44.10812" lon="4.64835">
        <ele>112</ele>
        <time>2016-03-06T14:27:57Z</time>
      </trkpt>
      <trkpt lat="44.10813" lon="4.64835">
        <ele>112</ele>
        <time>2016-03-06T14:29:57Z</time>
      </trkpt>
      <trkpt lat="44.10813" lon="4.64835">
        <ele>112</ele>
        <time>2016-03-06T14:31:57Z</time>
      </trkpt>
      <trkpt lat="44.10813" lon="4.64835">
        <ele>112</ele>
        <time>2016-03-06T14:33:57Z</time>
      </trkpt>
      <trkpt lat="44.10813" lon="4.64835">
        <ele>112</ele>
        <time>2016-03-06T14:35:57Z</time>
      </trkpt>
      <trkpt lat="44.10813" lon="4.64834">
        <ele>112</ele>
        <time>2016-03-06T14:37:57Z</time>
      </trkpt>
      <trkpt lat="44.10818" lon="4.64831">
        <ele>113</ele>
        <time>2016-03-06T14:39:57Z</time>
      </trkpt>
      <trkpt lat="44.1083" lon="4.64827">
        <ele>114</ele>
        <time>2016-03-06T14:41:57Z</time>
      </trkpt>
      <trkpt lat="44.10843" lon="4.64824">
        <ele>115</ele>
        <time>2016-03-06T14:43:57Z</time>
      </trkpt>
      <trkpt lat="44.10871" lon="4.64815">
        <ele>116</ele>
        <time>2016-03-06T14:45:57Z</time>
      </trkpt>
      <trkpt lat="44.10882" lon="4.64814">
        <ele>117</ele>
        <time>2016-03-06T14:47:57Z</time>
      </trkpt>
      <trkpt lat="44.10911" lon="4.64809">
        <ele>118</ele>
        <time>2016-03-06T14:49:57Z</time>
      </trkpt>
      <trkpt lat="44.10915" lon="4.6481">
        <ele>119</ele>
        <time>2016-03-06T14:51:57Z</time>
      </trkpt>
      <trkpt lat="44.1092" lon="4.64812">
        <ele>119</ele>
        <time>2016-03-06T14:53:57Z</time>
      </trkpt>
      <trkpt lat="44.10934" lon="4.64818">
        <ele>119</ele>
        <time>2016-03-06T14:55:57Z</time>
      </trkpt>
      <trkpt lat="44.10942" lon="4.6482">
        <ele>119</ele>
        <time>2016-03-06T14:57:57Z</time>
      </trkpt>
      <trkpt lat="44.10947" lon="4.64821">
        <ele>119</ele>
        <time>2016-03-06T14:59:57Z</time>
      </trkpt>
      <trkpt lat="44.10952" lon="4.64822">
        <ele>119</ele>
        <time>2016-03-06T15:01:57Z</time>
      </trkpt>
      <trkpt lat="44.10954" lon="4.64821">
        <ele>119</ele>
        <time>2016-03-06T15:03:57Z</time>
      </trkpt>
      <trkpt lat="44.10955" lon="4.64817">
        <ele>118</ele>
        <time>2016-03-06T15:05:57Z</time>
      </trkpt>
      <trkpt lat="44.10954" lon="4.64817">
        <ele>118</ele>
        <time>2016-03-06T15:07:57Z</time>
      </trkpt>
      <trkpt lat="44.10956" lon="4.64825">
        <ele>119</ele>
        <time>2016-03-06T15:09:57Z</time>
      </trkpt>
      <trkpt lat="44.10956" lon="4.64827">
        <ele>119</ele>
        <time>2016-03-06T15:11:57Z</time>
      </trkpt>
      <trkpt lat="44.10956" lon="4.64829">
        <ele>119</ele>
        <time>2016-03-06T15:13:57Z</time>
      </trkpt>
      <trkpt lat="44.10958" lon="4.64833">
        <ele>119</ele>
        <time>2016-03-06T15:15:57Z</time>
      </trkpt>
      <trkpt lat="44.10959" lon="4.64835">
        <ele>120</ele>
        <time>2016-03-06T15:17:57Z</time>
      </trkpt>
      <trkpt lat="44.10959" lon="4.64838">
        <ele>120</ele>
        <time>2016-03-06T15:19:57Z</time>
      </trkpt>
      <trkpt lat="44.10957" lon="4.6485">
        <ele>122</ele>
        <time>2016-03-06T15:21:57Z</time>
      </trkpt>
      <trkpt lat="44.10958" lon="4.64857">
        <ele>123</ele>
        <time>2016-03-06T15:23:57Z</time>
      </trkpt>
      <trkpt lat="44.1096" lon="4.64866">
        <ele>125</ele>
        <time>2016-03-06T15:25:57Z</time>
      </trkpt>
      <trkpt lat="44.10962" lon="4.64869">
        <ele>125</ele>
        <time>2016-03-06T15:27:57Z</time>
      </trkpt>
      <trkpt lat="44.10964" lon="4.6487">
        <ele>125</ele>
        <time>2016-03-06T15:29:57Z</time>
      </trkpt>
      <trkpt lat="44.10967" lon="4.64874">
        <ele>125</ele>
        <time>2016-03-06T15:31:57Z</time>
      </trkpt>
      <trkpt lat="44.10969" lon="4.64876">
        <ele>126</ele>
        <time>2016-03-06T15:33:57Z</time>
      </trkpt>
      <trkpt lat="44.10972" lon="4.64884">
        <ele>127</ele>
        <time>2016-03-06T15:35:57Z</time>
      </trkpt>
      <trkpt lat="44.10979" lon="4.64896">
        <ele>128</ele>
        <time>2016-03-06T15:37:57Z</time>
      </trkpt>
      <trkpt lat="44.10987" lon="4.64905">
        <ele>128</ele>
        <time>2016-03-06T15:39:57Z</time>
      </trkpt>
      <trkpt lat="44.10989" lon="4.64906">
        <ele>128</ele>
        <time>2016-03-06T15:41:57Z</time>
      </trkpt>
      <trkpt lat="44.1099" lon="4.64906">
        <ele>128</ele>
        <time>2016-03-06T15:43:57Z</time>
      </trkpt>
      <trkpt lat="44.11002" lon="4.649">
        <ele>127</ele>
        <time>2016-03-06T15:45:57Z</time>
      </trkpt>
      <trkpt lat="44.11015" lon="4.64897">
        <ele>127</ele>
        <time>2016-03-06T15:47:57Z</time>
      </trkpt>
      <trkpt lat="44.11034" lon="4.64902">
        <ele>129</ele>
        <time>2016-03-06T15:49:57Z</time>
      </trkpt>
      <trkpt lat="44.11037" lon="4.64904">
        <ele>130</ele>
        <time>2016-03-06T15:51:57Z</time>
      </trkpt>
      <trkpt lat="44.11052" lon="4.64909">
        <ele>131</ele>
        <time>2016-03-06T15:53:57Z</time>
      </trkpt>
      <trkpt lat="44.11069" lon="4.64913">
        <ele>133</ele>
        <time>2016-03-06T15:55:57Z</time>
      </trkpt>
      <trkpt lat="44.11072" lon="4.64913">
        <ele>133</ele>
        <time>2016-03-06T15:57:57Z</time>
      </trkpt>
      <trkpt lat="44.11086" lon="4.64907">
        <ele>134</ele>
        <time>2016-03-06T15:59:57Z</time>
      </trkpt>
      <trkpt lat="44.11096" lon="4.64896">
        <ele>134</ele>
        <time>2016-03-06T16:01:57Z</time>
      </trkpt>
      <trkpt lat="44.11098" lon="4.64894">
        <ele>134</ele>
        <time>2016-03-06T16:03:57Z</time>
      </trkpt>
      <trkpt lat="44.11101" lon="4.64879">
        <ele>133</ele>
        <time>2016-03-06T16:05:57Z</time>
      </trkpt>
      <trkpt lat="44.111" lon="4.64865">
        <ele>132</ele>
        <time>2016-03-06T16:07:57Z</time>
      </trkpt>
      <trkpt lat="44.111" lon="4.6486">
        <ele>131</ele>
        <time>2016-03-06T16:09:57Z</time>
      </trkpt>
      <trkpt lat="44.11097" lon="4.64843">
        <ele>129</ele>
        <time>2016-03-06T16:11:57Z</time>
      </trkpt>
      <trkpt lat="44.11101" lon="4.64825">
        <ele>128</ele>
        <time>2016-03-06T16:13:57Z</time>
      </trkpt>
      <trkpt lat="44.11112" lon="4.64814">
        <ele>129</ele>
        <time>2016-03-06T16:15:57Z</time>
      </trkpt>
      <trkpt lat="44.11127" lon="4.64808">
        <ele>131</ele>
        <time>2016-03-06T16:17:57Z</time>
      </trkpt>
      <trkpt lat="44.1114" lon="4.64799">
        <ele>132</ele>
        <time>2016-03-06T16:19:57Z</time>
      </trkpt>
      <trkpt lat="44.11151" lon="4.64795">
        <ele>133</ele>
        <time>2016-03-06T16:21:57Z</time>
      </trkpt>
      <trkpt lat="44.11155" lon="4.64792">
        <ele>133</ele>
        <time>2016-03-06T16:23:57Z</time>
      </trkpt>
      <trkpt lat="44.11165" lon="4.64782">
        <ele>133</ele>
        <time>2016-03-06T16:25:57Z</time>
      </trkpt>
      <trkpt lat="44.11177" lon="4.64769">
        <ele>133</ele>
        <time>2016-03-06T16:27:57Z</time>
      </trkpt>
      <trkpt lat="44.11179" lon="4.64766">
        <ele>133</ele>
        <time>2016-03-06T16:29:57Z</time>
      </trkpt>
      <trkpt lat="44.11179" lon="4.64766">
        <ele>133</ele>
        <time>2016-03-06T16:31:57Z</time>
      </trkpt>
      <trkpt lat="44.11179" lon="4.64765">
        <ele>133</ele>
        <time>2016-03-06T16:33:57Z</time>
      </trkpt>
      <trkpt lat="44.11184" lon="4.64764">
        <ele>134</ele>
        <time>2016-03-06T16:35:57Z</time>
      </trkpt>
      <trkpt lat="44.11195" lon="4.64757">
        <ele>134</ele>
        <time>2016-03-06T16:37:57Z</time>
      </trkpt>
      <trkpt lat="44.11206" lon="4.64753">
        <ele>135</ele>
        <time>2016-03-06T16:39:57Z</time>
      </trkpt>
      <trkpt lat="44.11215" lon="4.64746">
        <ele>136</ele>
        <time>2016-03-06T16:41:57Z</time>
      </trkpt>
      <trkpt lat="44.11224" lon="4.64739">
        <ele>136</ele>
        <time>2016-03-06T16:43:57Z</time>
      </trkpt>
      <trkpt lat="44.11227" lon="4.64739">
        <ele>137</ele>
        <time>2016-03-06T16:45:57Z</time>
      </trkpt>
      <trkpt lat="44.11232" lon="4.64736">
        <ele>137</ele>
        <time>2016-03-06T16:47:57Z</time>
      </trkpt>
      <trkpt lat="44.11235" lon="4.64733">
        <ele>137</ele>
        <time>2016-03-06T16:49:57Z</time>
      </trkpt>
      <trkpt lat="44.11247" lon="4.64725">
        <ele>138</ele>
        <time>2016-03-06T16:51:57Z</time>
      </trkpt>
      <trkpt lat="44.11255" lon="4.64724">
        <ele>139</ele>
        <time>2016-03-06T16:53:57Z</time>
      </trkpt>
      <trkpt lat="44.1126" lon="4.64722">
        <ele>139</ele>
        <time>2016-03-06T16:55:57Z</time>
      </trkpt>
      <trkpt lat="44.11267" lon="4.64717">
        <ele>139</ele>
        <time>2016-03-06T16:57:57Z</time>
      </trkpt>
      <trkpt lat="44.11269" lon="4.64716">
        <ele>140</ele>
        <time>2016-03-06T16:59:57Z</time>
      </trkpt>
      <trkpt lat="44.11274" lon="4.64712">
        <ele>140</ele>
        <time>2016-03-06T17:01:57Z</time>
      </trkpt>
      <trkpt lat="44.11278" lon="4.64709">
        <ele>140</ele>
        <time>2016-03-06T17:03:57Z</time>
      </trkpt>
      <trkpt lat="44.11285" lon="4.64708">
        <ele>140</ele>
        <time>2016-03-06T17:05:57Z</time>
      </trkpt>
      <trkpt lat="44.11287" lon="4.647">
        <ele>140</ele>
        <time>2016-03-06T17:07:57Z</time>
      </trkpt>
      <trkpt lat="44.11292" lon="4.64693">
        <ele>139</ele>
        <time>2016-03-06T17:09:57Z</time>
      </trkpt>
      <trkpt lat="44.11295" lon="4.64692">
        <ele>139</ele>
        <time>2016-03-06T17:11:57Z</time>
      </trkpt>
      <trkpt lat="44.11301" lon="4.64692">
        <ele>140</ele>
        <time>2016-03-06T17:13:57Z</time>
      </trkpt>
      <trkpt lat="44.11304" lon="4.64694">
        <ele>141</ele>
        <time>2016-03-06T17:15:57Z</time>
      </trkpt>
      <trkpt lat="44.11316" lon="4.64692">
        <ele>141</ele>
        <time>2016-03-06T17:17:57Z</time>
      </trkpt>
      <trkpt lat="44.1132" lon="4.64693">
        <ele>142</ele>
        <time>2016-03-06T17:19:57Z</time>
      </trkpt>
      <trkpt lat="44.11322" lon="4.64693">
        <ele>142</ele>
        <time>2016-03-06T17:21:57Z</time>
      </trkpt>
      <trkpt lat="44.11326" lon="4.64693">
        <ele>143</ele>
        <time>2016-03-06T17:23:57Z</time>
      </trkpt>
      <trkpt lat="44.1133" lon="4.6469">
        <ele>143</ele>
        <time>2016-03-06T17:25:57Z</time>
      </trkpt>
      <trkpt lat="44.11342" lon="4.6468">
        <ele>142</ele>
        <time>2016-03-06T17:27:57Z</time>
      </trkpt>
      <trkpt lat="44.11352" lon="4.64675">
        <ele>142</ele>
        <time>2016-03-06T17:29:57Z</time>
      </trkpt>
      <trkpt lat="44.11354" lon="4.64675">
        <ele>142</ele>
        <time>2016-03-06T17:31:57Z</time>
      </trkpt>
      <trkpt lat="44.11364" lon="4.64674">
        <ele>143</ele>
        <time>2016-03-06T17:33:57Z</time>
      </trkpt>
      <trkpt lat="44.1138" lon="4.64667">
        <ele>143</ele>
        <time>2016-03-06T17:35:57Z</time>
      </trkpt>
      <trkpt lat="44.11391" lon="4.64663">
        <ele>144</ele>
        <time>2016-03-06T17:37:57Z</time>
      </trkpt>
      <trkpt lat="44.11395" lon="4.64664">
        <ele>144</ele>
        <time>2016-03-06T17:39:57Z</time>
      </trkpt>
      <trkpt lat="44.114" lon="4.64669">
        <ele>145</ele>
        <time>2016-03-06T17:41:57Z</time>
      </trkpt>
      <trkpt lat="44.11402" lon="4.64673">
        <ele>146</ele>
        <time>2016-03-06T17:43:57Z</time>
      </trkpt>
      <trkpt lat="44.11403" lon="4.64675">
        <ele>146</ele>
        <time>2016-03-06T17:45:57Z</time>
      </trkpt>
      <trkpt lat="44.11406" lon="4.6468">
        <ele>147</ele>
        <time>2016-03-06T17:47:57Z</time>
      </trkpt>
      <trkpt lat="44.11406" lon="4.64683">
        <ele>148</ele>
        <time>2016-03-06T17:49:57Z</time>
      </trkpt>
      <trkpt lat="44.11407" lon="4.64686">
        <ele>148</ele>
        <time>2016-03-06T17:51:57Z</time>
      </trkpt>
      <trkpt lat="44.1141" lon="4.64702">
        <ele>151</ele>
        <time>2016-03-06T17:53:57Z</time>
      </trkpt>
      <trkpt lat="44.1141" lon="4.64709">
        <ele>152</ele>
        <time>2016-03-06T17:55:57Z</time>
      </trkpt>
      <trkpt lat="44.1141" lon="4.64714">
        <ele>152</ele>
        <time>2016-03-06T17:57:57Z</time>
      </trkpt>
      <trkpt lat="44.11409" lon="4.64722">
        <ele>153</ele>
        <time>2016-03-06T17:59:57Z</time>
      </trkpt>
      <trkpt lat="44.11409" lon="4.64728">
        <ele>154</ele>
        <time>2016-03-06T18:01:57Z</time>
      </trkpt>
      <trkpt lat="44.11407" lon="4.64738">
        <ele>156</ele>
        <time>2016-03-06T18:03:57Z</time>
      </trkpt>
      <trkpt lat="44.11404" lon="4.64744">
        <ele>156</ele>
        <time>2016-03-06T18:05:57Z</time>
      </trkpt>
      <trkpt lat="44.11399" lon="4.64748">
        <ele>157</ele>
        <time>2016-03-06T18:07:57Z</time>
      </trkpt>
      <trkpt lat="44.11386" lon="4.64753">
        <ele>157</ele>
        <time>2016-03-06T18:09:57Z</time>
      </trkpt>
      <trkpt lat="44.11379" lon="4.64757">
        <ele>157</ele>
        <time>2016-03-06T18:11:57Z</time>
      </trkpt>
      <trkpt lat="44.11368" lon="4.64768">
        <ele>158</ele>
        <time>2016-03-06T18:13:57Z</time>
      </trkpt>
      <trkpt lat="44.11356" lon="4.64786">
        <ele>161</ele>
        <time>2016-03-06T18:15:57Z</time>
      </trkpt>
      <trkpt lat="44.11353" lon="4.64789">
        <ele>161</ele>
        <time>2016-03-06T18:17:57Z</time>
      </trkpt>
      <trkpt lat="44.11346" lon="4.64798">
        <ele>163</ele>
        <time>2016-03-06T18:19:57Z</time>
      </trkpt>
      <trkpt lat="44.11343" lon="4.64802">
        <ele>163</ele>
        <time>2016-03-06T18:21:57Z</time>
      </trkpt>
      <trkpt lat="44.11338" lon="4.64812">
        <ele>165</ele>
        <time>2016-03-06T18:23:57Z</time>
      </trkpt>
      <trkpt lat="44.11333" lon="4.64818">
        <ele>165</ele>
        <time>2016-03-06T18:25:57Z</time>
      </trkpt>
      <trkpt lat="44.11331" lon="4.64821">
        <ele>165</ele>
        <time>2016-03-06T18:27:57Z</time>
      </trkpt>
      <trkpt lat="44.11329" lon="4.64828">
        <ele>166</ele>
        <time>2016-03-06T18:29:57Z</time>
      </trkpt>
      <trkpt lat="44.11328" lon="4.64832">
        <ele>167</ele>
        <time>2016-03-06T18:31:57Z</time>
      </trkpt>
      <trkpt lat="44.11324" lon="4.64846">
        <ele>168</ele>
        <time>2016-03-06T18:33:57Z</time>
      </trkpt>
      <trkpt lat="44.1132" lon="4.64857">
        <ele>169</ele>
        <time>2016-03-06T18:35:57Z</time>
      </trkpt>
      <trkpt lat="44.11316" lon="4.64868">
        <ele>170</ele>
        <time>2016-03-06T18:37:57Z</time>
      </trkpt>
      <trkpt lat="44.11313" lon="4.64875">
        <ele>170</ele>
        <time>2016-03-06T18:39:57Z</time>
      </trkpt>
      <trkpt lat="44.11311" lon="4.6488">
        <ele>170</ele>
        <time>2016-03-06T18:41:57Z</time>
      </trkpt>
      <trkpt lat="44.11308" lon="4.64895">
        <ele>172</ele>
        <time>2016-03-06T18:43:57Z</time>
      </trkpt>
      <trkpt lat="44.11307" lon="4.64901">
        <ele>172</ele>
        <time>2016-03-06T18:45:57Z</time>
      </trkpt>
      <trkpt lat="44.11304" lon="4.64906">
        <ele>172</ele>
        <time>2016-03-06T18:47:57Z</time>
      </trkpt>
      <trkpt lat="44.113" lon="4.64918">
        <ele>173</ele>
        <time>2016-03-06T18:49:57Z</time>
      </trkpt>
      <trkpt lat="44.11299" lon="4.6493">
        <ele>173</ele>
        <time>2016-03-06T18:51:57Z</time>
      </trkpt>
      <trkpt lat="44.11299" lon="4.64931">
        <ele>173</ele>
        <time>2016-03-06T18:53:57Z</time>
      </trkpt>
      <trkpt lat="44.11297" lon="4.64939">
        <ele>173</ele>
        <time>2016-03-06T18:55:57Z</time>
      </trkpt>
      <trkpt lat="44.11296" lon="4.64943">
        <ele>173</ele>
        <time>2016-03-06T18:57:57Z</time>
      </trkpt>
      <trkpt lat="44.11295" lon="4.64954">
        <ele>173</ele>
        <time>2016-03-06T18:59:57Z</time>
      </trkpt>
      <trkpt lat="44.11294" lon="4.64955">
        <ele>173</ele>
        <time>2016-03-06T19:01:57Z</time>
      </trkpt>
      <trkpt lat="44.11292" lon="4.64965">
        <ele>173</ele>
        <time>2016-03-06T19:03:57Z</time>
      </trkpt>
      <trkpt lat="44.11289" lon="4.64972">
        <ele>173</ele>
        <time>2016-03-06T19:05:57Z</time>
      </trkpt>
      <trkpt lat="44.11289" lon="4.64977">
        <ele>173</ele>
        <time>2016-03-06T19:07:57Z</time>
      </trkpt>
      <trkpt lat="44.11286" lon="4.64988">
        <ele>173</ele>
        <time>2016-03-06T19:09:57Z</time>
      </trkpt>
      <trkpt lat="44.11286" lon="4.65005">
        <ele>174</ele>
        <time>2016-03-06T19:11:57Z</time>
      </trkpt>
      <trkpt lat="44.11285" lon="4.65021">
        <ele>174</ele>
        <time>2016-03-06T19:13:57Z</time>
      </trkpt>
      <trkpt lat="44.11286" lon="4.65038">
        <ele>174</ele>
        <time>2016-03-06T19:15:57Z</time>
      </trkpt>
      <trkpt lat="44.11288" lon="4.65041">
        <ele>175</ele>
        <time>2016-03-06T19:17:57Z</time>
      </trkpt>
      <trkpt lat="44.11292" lon="4.65041">
        <ele>175</ele>
        <time>2016-03-06T19:19:57Z</time>
      </trkpt>
      <trkpt lat="44.11293" lon="4.6504">
        <ele>175</ele>
        <time>2016-03-06T19:21:57Z</time>
      </trkpt>
      <trkpt lat="44.11296" lon="4.65045">
        <ele>176</ele>
        <time>2016-03-06T19:23:57Z</time>
      </trkpt>
      <trkpt lat="44.11296" lon="4.65046">
        <ele>176</ele>
        <time>2016-03-06T19:25:57Z</time>
      </trkpt>
      <trkpt lat="44.11296" lon="4.65046">
        <ele>176</ele>
        <time>2016-03-06T19:27:57Z</time>
      </trkpt>
      <trkpt lat="44.11296" lon="4.65046">
        <ele>176</ele>
        <time>2016-03-06T19:29:57Z</time>
      </trkpt>
      <trkpt lat="44.11296" lon="4.65046">
        <ele>176</ele>
        <time>2016-03-06T19:31:57Z</time>
      </trkpt>
      <trkpt lat="44.11296" lon="4.65047">
        <ele>176</ele>
        <time>2016-03-06T19:33:57Z</time>
      </trkpt>
      <trkpt lat="44.113" lon="4.65049">
        <ele>176</ele>
        <time>2016-03-06T19:35:57Z</time>
      </trkpt>
      <trkpt lat="44.11306" lon="4.65047">
        <ele>177</ele>
        <time>2016-03-06T19:37:57Z</time>
      </trkpt>
      <trkpt lat="44.11309" lon="4.65046">
        <ele>177</ele>
        <time>2016-03-06T19:39:57Z</time>
      </trkpt>
      <trkpt lat="44.1131" lon="4.65047">
        <ele>178</ele>
        <time>2016-03-06T19:41:57Z</time>
      </trkpt>
      <trkpt lat="44.1131" lon="4.65049">
        <ele>178</ele>
        <time>2016-03-06T19:43:57Z</time>
      </trkpt>
      <trkpt lat="44.11312" lon="4.65051">
        <ele>178</ele>
        <time>2016-03-06T19:45:57Z</time>
      </trkpt>
      <trkpt lat="44.11314" lon="4.65052">
        <ele>178</ele>
        <time>2016-03-06T19:47:57Z</time>
      </trkpt>
      <trkpt lat="44.1132" lon="4.65056">
        <ele>179</ele>
        <time>2016-03-06T19:49:57Z</time>
      </trkpt>
      <trkpt lat="44.11328" lon="4.6506">
        <ele>179</ele>
        <time>2016-03-06T19:51:57Z</time>
      </trkpt>
      <trkpt lat="44.1133" lon="4.6506">
        <ele>179</ele>
        <time>2016-03-06T19:53:57Z</time>
      </trkpt>
      <trkpt lat="44.11338" lon="4.65065">
        <ele>180</ele>
        <time>2016-03-06T19:55:57Z</time>
      </trkpt>
      <trkpt lat="44.11349" lon="4.65077">
        <ele>181</ele>
        <time>2016-03-06T19:57:57Z</time>
      </trkpt>
      <trkpt lat="44.11351" lon="4.65079">
        <ele>181</ele>
        <time>2016-03-06T19:59:57Z</time>
      </trkpt>
      <trkpt lat="44.11359" lon="4.65083">
        <ele>182</ele>
        <time>2016-03-06T20:01:57Z</time>
      </trkpt>
      <trkpt lat="44.11367" lon="4.65086">
        <ele>183</ele>
        <time>2016-03-06T20:03:57Z</time>
      </trkpt>
      <trkpt lat="44.11369" lon="4.65087">
        <ele>183</ele>
        <time>2016-03-06T20:05:57Z</time>
      </trkpt>
      <trkpt lat="44.11376" lon="4.65089">
        <ele>183</ele>
        <time>2016-03-06T20:07:57Z</time>
      </trkpt>
      <trkpt lat="44.11391" lon="4.65088">
        <ele>185</ele>
        <time>2016-03-06T20:09:57Z</time>
      </trkpt>
      <trkpt lat="44.11398" lon="4.65088">
        <ele>186</ele>
        <time>2016-03-06T20:11:57Z</time>
      </trkpt>
      <trkpt lat="44.11405" lon="4.65087">
        <ele>187</ele>
        <time>2016-03-06T20:13:57Z</time>
      </trkpt>
      <trkpt lat="44.1141" lon="4.65087">
        <ele>188</ele>
        <time>2016-03-06T20:15:57Z</time>
      </trkpt>
      <trkpt lat="44.11416" lon="4.65085">
        <ele>189</ele>
        <time>2016-03-06T20:17:57Z</time>
      </trkpt>
      <trkpt lat="44.11421" lon="4.65079">
        <ele>190</ele>
        <time>2016-03-06T20:19:57Z</time>
      </trkpt>
      <trkpt lat="44.11427" lon="4.65072">
        <ele>191</ele>
        <time>2016-03-06T20:21:57Z</time>
      </trkpt>
      <trkpt lat="44.11429" lon="4.6507">
        <ele>191</ele>
        <time>2016-03-06T20:23:57Z</time>
      </trkpt>
      <trkpt lat="44.11431" lon="4.65069">
        <ele>191</ele>
        <time>2016-03-06T20:25:57Z</time>
      </trkpt>
      <trkpt lat="44.11442" lon="4.65059">
        <ele>193</ele>
        <time>2016-03-06T20:27:57Z</time>
      </trkpt>
      <trkpt lat="44.11449" lon="4.65056">
        <ele>194</ele>
        <time>2016-03-06T20:29:57Z</time>
      </trkpt>
      <trkpt lat="44.11456" lon="4.65051">
        <ele>195</ele>
        <time>2016-03-06T20:31:57Z</time>
      </trkpt>
      <trkpt lat="44.11463" lon="4.65046">
        <ele>195</ele>
        <time>2016-03-06T20:33:57Z</time>
      </trkpt>
      <trkpt lat="44.11467" lon="4.65043">
        <ele>196</ele>
        <time>2016-03-06T20:35:57Z</time>
      </trkpt>
      <trkpt lat="44.11474" lon="4.65038">
        <ele>197</ele>
        <time>2016-03-06T20:37:57Z</time>
      </trkpt>
      <trkpt lat="44.11478" lon="4.65034">
        <ele>197</ele>
        <time>2016-03-06T20:39:57Z</time>
      </trkpt>
      <trkpt lat="44.11482" lon="4.6503">
        <ele>198</ele>
        <time>2016-03-06T20:41:57Z</time>
      </trkpt>
      <trkpt lat="44.11492" lon="4.65021">
        <ele>199</ele>
        <time>2016-03-06T20:43:57Z</time>
      </trkpt>
      <trkpt lat="44.11502" lon="4.65013">
        <ele>200</ele>
        <time>2016-03-06T20:45:57Z</time>
      </trkpt>
      <trkpt lat="44.11505" lon="4.65011">
        <ele>201</ele>
        <time>2016-03-06T20:47:57Z</time>
      </trkpt>
      <trkpt lat="44.11511" lon="4.65008">
        <ele>203</ele>
        <time>2016-03-06T20:49:57Z</time>
      </trkpt>
      <trkpt lat="44.11514" lon="4.65007">
        <ele>203</ele>
        <time>2016-03-06T20:51:57Z</time>
      </trkpt>
      <trkpt lat="44.11513" lon="4.65007">
        <ele>203</ele>
        <time>2016-03-06T20:53:57Z</time>
      </trkpt>
      <trkpt lat="44.11512" lon="4.65007">
        <ele>203</ele>
        <time>2016-03-06T20:55:57Z</time>
      </trkpt>
      <trkpt lat="44.11514" lon="4.65009">
        <ele>203</ele>
        <time>2016-03-06T20:57:57Z</time>
      </trkpt>
      <trkpt lat="44.11514" lon="4.65011">
        <ele>203</ele>
        <time>2016-03-06T20:59:57Z</time>
      </trkpt>
      <trkpt lat="44.11516" lon="4.65014">
        <ele>203</ele>
        <time>2016-03-06T21:01:57Z</time>
      </trkpt>
      <trkpt lat="44.11517" lon="4.65015">
        <ele>203</ele>
        <time>2016-03-06T21:03:57Z</time>
      </trkpt>
      <trkpt lat="44.11518" lon="4.65016">
        <ele>204</ele>
        <time>2016-03-06T21:05:57Z</time>
      </trkpt>
      <trkpt lat="44.11521" lon="4.65019">
        <ele>204</ele>
        <time>2016-03-06T21:07:57Z</time>
      </trkpt>
      <trkpt lat="44.1153" lon="4.65032">
        <ele>205</ele>
        <time>2016-03-06T21:09:57Z</time>
      </trkpt>
      <trkpt lat="44.11531" lon="4.65034">
        <ele>206</ele>
        <time>2016-03-06T21:11:57Z</time>
      </trkpt>
      <trkpt lat="44.11537" lon="4.65045">
        <ele>207</ele>
        <time>2016-03-06T21:13:57Z</time>
      </trkpt>
      <trkpt lat="44.11538" lon="4.65047">
        <ele>207</ele>
        <time>2016-03-06T21:15:57Z</time>
      </trkpt>
      <trkpt lat="44.11542" lon="4.65054">
        <ele>207</ele>
        <time>2016-03-06T21:17:57Z</time>
      </trkpt>
      <trkpt lat="44.11544" lon="4.65059">
        <ele>208</ele>
        <time>2016-03-06T21:19:57Z</time>
      </trkpt>
      <trkpt lat="44.11545" lon="4.65062">
        <ele>208</ele>
        <time>2016-03-06T21:21:57Z</time>
      </trkpt>
      <trkpt lat="44.1155" lon="4.65071">
        <ele>209</ele>
        <time>2016-03-06T21:23:57Z</time>
      </trkpt>
      <trkpt lat="44.11552" lon="4.65075">
        <ele>210</ele>
        <time>2016-03-06T21:25:57Z</time>
      </trkpt>
      <trkpt lat="44.11559" lon="4.65088">
        <ele>211</ele>
        <time>2016-03-06T21:27:57Z</time>
      </trkpt>
      <trkpt lat="44.11565" lon="4.65094">
        <ele>211</ele>
        <time>2016-03-06T21:29:57Z</time>
      </trkpt>
      <trkpt lat="44.11568" lon="4.651">
        <ele>211</ele>
        <time>2016-03-06T21:31:57Z</time>
      </trkpt>
      <trkpt lat="44.11573" lon="4.65105">
        <ele>212</ele>
        <time>2016-03-06T21:33:57Z</time>
      </trkpt>
      <trkpt lat="44.1158" lon="4.65116">
        <ele>212</ele>
        <time>2016-03-06T21:35:57Z</time>
      </trkpt>
      <trkpt lat="44.11585" lon="4.65123">
        <ele>212</ele>
        <time>2016-03-06T21:37:57Z</time>
      </trkpt>
      <trkpt lat="44.11595" lon="4.65134">
        <ele>213</ele>
        <time>2016-03-06T21:39:57Z</time>
      </trkpt>
      <trkpt lat="44.11606" lon="4.65145">
        <ele>215</ele>
        <time>2016-03-06T21:41:57Z</time>
      </trkpt>
      <trkpt lat="44.11614" lon="4.6515">
        <ele>217</ele>
        <time>2016-03-06T21:43:57Z</time>
      </trkpt>
      <trkpt lat="44.11616" lon="4.65151">
        <ele>218</ele>
        <time>2016-03-06T21:45:57Z</time>
      </trkpt>
      <trkpt lat="44.11619" lon="4.65154">
        <ele>218</ele>
        <time>2016-03-06T21:47:57Z</time>
      </trkpt>
      <trkpt lat="44.11632" lon="4.65162">
        <ele>222</ele>
        <time>2016-03-06T21:49:57Z</time>
      </trkpt>
      <trkpt lat="44.11635" lon="4.65164">
        <ele>222</ele>
        <time>2016-03-06T21:51:57Z</time>
      </trkpt>
      <trkpt lat="44.11639" lon="4.65167">
        <ele>223</ele>
        <time>2016-03-06T21:53:57Z</time>
      </trkpt>
      <trkpt lat="44.11647" lon="4.65175">
        <ele>224</ele>
        <time>2016-03-06T21:55:57Z</time>
      </trkpt>
      <trkpt lat="44.11656" lon="4.65184">
        <ele>225</ele>
        <time>2016-03-06T21:57:57Z</time>
      </trkpt>
      <trkpt lat="44.11658" lon="4.65185">
        <ele>226</ele>
        <time>2016-03-06T21:59:57Z</time>
      </trkpt>
      <trkpt lat="44.1166" lon="4.65189">
        <ele>225</ele>
        <time>2016-03-06T22:01:57Z</time>
      </trkpt>
      <trkpt lat="44.11663" lon="4.65191">
        <ele>226</ele>
        <time>2016-03-06T22:03:57Z</time>
      </trkpt>
      <trkpt lat="44.11672" lon="4.65203">
        <ele>226</ele>
        <time>2016-03-06T22:05:57Z</time>
      </trkpt>
      <trkpt lat="44.11686" lon="4.65219">
        <ele>226</ele>
        <time>2016-03-06T22:07:57Z</time>
      </trkpt>
      <trkpt lat="44.11691" lon="4.65226">
        <ele>226</ele>
        <time>2016-03-06T22:09:57Z</time>
      </trkpt>
      <trkpt lat="44.11698" lon="4.65233">
        <ele>227</ele>
        <time>2016-03-06T22:11:57Z</time>
      </trkpt>
      <trkpt lat="44.11701" lon="4.65237">
        <ele>227</ele>
        <time>2016-03-06T22:13:57Z</time>
      </trkpt>
      <trkpt lat="44.11708" lon="4.65245">
        <ele>228</ele>
        <time>2016-03-06T22:15:57Z</time>
      </trkpt>
      <trkpt lat="44.11716" lon="4.65256">
        <ele>228</ele>
        <time>2016-03-06T22:17:57Z</time>
      </trkpt>
      <trkpt lat="44.1173" lon="4.65279">
        <ele>228</ele>
        <time>2016-03-06T22:19:57Z</time>
      </trkpt>
      <trkpt lat="44.11733" lon="4.65283">
        <ele>228</ele>
        <time>2016-03-06T22:21:57Z</time>
      </trkpt>
      <trkpt lat="44.11743" lon="4.65295">
        <ele>229</ele>
        <time>2016-03-06T22:23:57Z</time>
      </trkpt>
      <trkpt lat="44.11749" lon="4.653">
        <ele>229</ele>
        <time>2016-03-06T22:25:57Z</time>
      </trkpt>
      <trkpt lat="44.11752" lon="4.65304">
        <ele>229</ele>
        <time>2016-03-06T22:27:57Z</time>
      </trkpt>
      <trkpt lat="44.11758" lon="4.6531">
        <ele>229</ele>
        <time>2016-03-06T22:29:57Z</time>
      </trkpt>
      <trkpt lat="44.11766" lon="4.65316">
        <ele>230</ele>
        <time>2016-03-06T22:31:57Z</time>
      </trkpt>
      <trkpt lat="44.11772" lon="4.65322">
        <ele>231</ele>
        <time>2016-03-06T22:33:57Z</time>
      </trkpt>
      <trkpt lat="44.11773" lon="4.65322">
        <ele>231</ele>
        <time>2016-03-06T22:35:57Z</time>
      </trkpt>
      <trkpt lat="44.11779" lon="4.65327">
        <ele>232</ele>
        <time>2016-03-06T22:37:57Z</time>
      </trkpt>
      <trkpt lat="44.11783" lon="4.6533">
        <ele>232</ele>
        <time>2016-03-06T22:39:57Z</time>
      </trkpt>
      <trkpt lat="44.11795" lon="4.65339">
        <ele>234</ele>
        <time>2016-03-06T22:41:57Z</time>
      </trkpt>
      <trkpt lat="44.11796" lon="4.6534">
        <ele>234</ele>
        <time>2016-03-06T22:43:57Z</time>
      </trkpt>
      <trkpt lat="44.11798" lon="4.65341">
        <ele>234</ele>
        <time>2016-03-06T22:45:57Z</time>
      </trkpt>
      <trkpt lat="44.11802" lon="4.65343">
        <ele>235</ele>
        <time>2016-03-06T22:47:57Z</time>
      </trkpt>
      <trkpt lat="44.1182" lon="4.65356">
        <ele>237</ele>
        <time>2016-03-06T22:49:57Z</time>
      </trkpt>
      <trkpt lat="44.11829" lon="4.65364">
        <ele>238</ele>
        <time>2016-03-06T22:51:57Z</time>
      </trkpt>
      <trkpt lat="44.11832" lon="4.65368">
        <ele>238</ele>
        <time>2016-03-06T22:53:57Z</time>
      </trkpt>
      <trkpt lat="44.11838" lon="4.65373">
        <ele>238</ele>
        <time>2016-03-06T22:55:57Z</time>
      </trkpt>
      <trkpt lat="44.11846" lon="4.65379">
        <ele>238</ele>
        <time>2016-03-06T22:57:57Z</time>
      </trkpt>
      <trkpt lat="44.11852" lon="4.65382">
        <ele>238</ele>
        <time>2016-03-06T22:59:57Z</time>
      </trkpt>
      <trkpt lat="44.11861" lon="4.65389">
        <ele>239</ele>
        <time>2016-03-06T23:01:57Z</time>
      </trkpt>
      <trkpt lat="44.11866" lon="4.65391">
        <ele>239</ele>
        <time>2016-03-06T23:03:57Z</time>
      </trkpt>
      <trkpt lat="44.1187" lon="4.65393">
        <ele>240</ele>
        <time>2016-03-06T23:05:57Z</time>
      </trkpt>
      <trkpt lat="44.11875" lon="4.65398">
        <ele>240</ele>
        <time>2016-03-06T23:07:57Z</time>
      </trkpt>
      <trkpt lat="44.11878" lon="4.65399">
        <ele>241</ele>
        <time>2016-03-06T23:09:57Z</time>
      </trkpt>
      <trkpt lat="44.11884" lon="4.65401">
        <ele>242</ele>
        <time>2016-03-06T23:11:57Z</time>
      </trkpt>
      <trkpt lat="44.11893" lon="4.65402">
        <ele>244</ele>
        <time>2016-03-06T23:13:57Z</time>
      </trkpt>
      <trkpt lat="44.11895" lon="4.65402">
        <ele>244</ele>
        <time>2016-03-06T23:15:57Z</time>
      </trkpt>
      <trkpt lat="44.11902" lon="4.65397">
        <ele>246</ele>
        <time>2016-03-06T23:17:57Z</time>
      </trkpt>
      <trkpt lat="44.11904" lon="4.65394">
        <ele>247</ele>
        <time>2016-03-06T23:19:57Z</time>
      </trkpt>
      <trkpt lat="44.11906" lon="4.65392">
        <ele>247</ele>
        <time>2016-03-06T23:21:57Z</time>
      </trkpt>
      <trkpt lat="44.11906" lon="4.65391">
        <ele>247</ele>
        <time>2016-03-06T23:23:57Z</time>
      </trkpt>
      <trkpt lat="44.11906" lon="4.65392">
        <ele>247</ele>
        <time>2016-03-06T23:25:57Z</time>
      </trkpt>
      <trkpt lat="44.11906" lon="4.65392">
        <ele>247</ele>
        <time>2016-03-06T23:27:57Z</time>
      </trkpt>
      <trkpt lat="44.11925" lon="4.65386">
        <ele>250</ele>
        <time>2016-03-06T23:29:57Z</time>
      </trkpt>
      <trkpt lat="44.11935" lon="4.65383">
        <ele>250</ele>
        <time>2016-03-06T23:31:57Z</time>
      </trkpt>
      <trkpt lat="44.11947" lon="4.65379">
        <ele>251</ele>
        <time>2016-03-06T23:33:57Z</time>
      </trkpt>
      <trkpt lat="44.11966" lon="4.6538">
        <ele>251</ele>
        <time>2016-03-06T23:35:57Z</time>
      </trkpt>
      <trkpt lat="44.11971" lon="4.65388">
        <ele>252</ele>
        <time>2016-03-06T23:37:57Z</time>
      </trkpt>
      <trkpt lat="44.11973" lon="4.65392">
        <ele>252</ele>
        <time>2016-03-06T23:39:57Z</time>
      </trkpt>
      <trkpt lat="44.11976" lon="4.65399">
        <ele>253</ele>
        <time>2016-03-06T23:41:57Z</time>
      </trkpt>
      <trkpt lat="44.11982" lon="4.65405">
        <ele>254</ele>
        <time>2016-03-06T23:43:57Z</time>
      </trkpt>
      <trkpt lat="44.11983" lon="4.65407">
        <ele>254</ele>
        <time>2016-03-06T23:45:57Z</time>
      </trkpt>
      <trkpt lat="44.11985" lon="4.6542">
        <ele>255</ele>
        <time>2016-03-06T23:47:57Z</time>
      </trkpt>
      <trkpt lat="44.11989" lon="4.65431">
        <ele>255</ele>
        <time>2016-03-06T23:49:57Z</time>
      </trkpt>
      <trkpt lat="44.11992" lon="4.65439">
        <ele>256</ele>
        <time>2016-03-06T23:51:57Z</time>
      </trkpt>
      <trkpt lat="44.11995" lon="4.65442">
        <ele>256</ele>
        <time>2016-03-06T23:53:57Z</time>
      </trkpt>
      <trkpt lat="44.12005" lon="4.65448">
        <ele>257</ele>
        <time>2016-03-06T23:55:57Z</time>
      </trkpt>
      <trkpt lat="44.12012" lon="4.65454">
        <ele>257</ele>
        <time>2016-03-06T23:57:57Z</time>
      </trkpt>
      <trkpt lat="44.12022" lon="4.65458">
        <ele>258</ele>
        <time>2016-03-06T23:59:57Z</time>
      </trkpt>
      <trkpt lat="44.12025" lon="4.6546">
        <ele>258</ele>
        <time>2016-03-07T00:01:57Z</time>
      </trkpt>
      <trkpt lat="44.12031" lon="4.65463">
        <ele>258</ele>
        <time>2016-03-07T00:03:57Z</time>
      </trkpt>
      <trkpt lat="44.12037" lon="4.65467">
        <ele>258</ele>
        <time>2016-03-07T00:05:57Z</time>
      </trkpt>
      <trkpt lat="44.12037" lon="4.65467">
        <ele>258</ele>
        <time>2016-03-07T00:07:57Z</time>
      </trkpt>
      <trkpt lat="44.12037" lon="4.65467">
        <ele>258</ele>
        <time>2016-03-07T00:09:57Z</time>
      </trkpt>
      <trkpt lat="44.12037" lon="4.65475">
        <ele>258</ele>
        <time>2016-03-07T00:11:57Z</time>
      </trkpt>
      <trkpt lat="44.12037" lon="4.65496">
        <ele>258</ele>
        <time>2016-03-07T00:13:57Z</time>
      </trkpt>
      <trkpt lat="44.12035" lon="4.65511">
        <ele>256</ele>
        <time>2016-03-07T00:15:57Z</time>
      </trkpt>
      <trkpt lat="44.12034" lon="4.65514">
        <ele>256</ele>
        <time>2016-03-07T00:17:57Z</time>
      </trkpt>
      <trkpt lat="44.12023" lon="4.65528">
        <ele>253</ele>
        <time>2016-03-07T00:19:57Z</time>
      </trkpt>
      <trkpt lat="44.12022" lon="4.65535">
        <ele>251</ele>
        <time>2016-03-07T00:21:57Z</time>
      </trkpt>
      <trkpt lat="44.12024" lon="4.65538">
        <ele>251</ele>
        <time>2016-03-07T00:23:57Z</time>
      </trkpt>
      <trkpt lat="44.1203" lon="4.65539">
        <ele>251</ele>
        <time>2016-03-07T00:25:57Z</time>
      </trkpt>
      <trkpt lat="44.12033" lon="4.65539">
        <ele>251</ele>
        <time>2016-03-07T00:27:57Z</time>
      </trkpt>
      <trkpt lat="44.12045" lon="4.65539">
        <ele>251</ele>
        <time>2016-03-07T00:29:57Z</time>
      </trkpt>
      <trkpt lat="44.12047" lon="4.6554">
        <ele>251</ele>
        <time>2016-03-07T00:31:57Z</time>
      </trkpt>
      <trkpt lat="44.12057" lon="4.6554">
        <ele>251</ele>
        <time>2016-03-07T00:33:57Z</time>
      </trkpt>
      <trkpt lat="44.12066" lon="4.65542">
        <ele>251</ele>
        <time>2016-03-07T00:35:57Z</time>
      </trkpt>
      <trkpt lat="44.12075" lon="4.65547">
        <ele>251</ele>
        <time>2016-03-07T00:37:57Z</time>
      </trkpt>
      <trkpt lat="44.12096" lon="4.65555">
        <ele>250</ele>
        <time>2016-03-07T00:39:57Z</time>
      </trkpt>
      <trkpt lat="44.12114" lon="4.65562">
        <ele>250</ele>
        <time>2016-03-07T00:41:57Z</time>
      </trkpt>
      <trkpt lat="44.12128" lon="4.6557">
        <ele>250</ele>
        <time>2016-03-07T00:43:57Z</time>
      </trkpt>
      <trkpt lat="44.12137" lon="4.65576">
        <ele>249</ele>
        <time>2016-03-07T00:45:57Z</time>
      </trkpt>
      <trkpt lat="44.12152" lon="4.65583">
        <ele>250</ele>
        <time>2016-03-07T00:47:57Z</time>
      </trkpt>
      <trkpt lat="44.12181" lon="4.65603">
        <ele>246</ele>
        <time>2016-03-07T00:49:57Z</time>
      </trkpt>
      <trkpt lat="44.12199" lon="4.65614">
        <ele>245</ele>
        <time>2016-03-07T00:51:57Z</time>
      </trkpt>
      <trkpt lat="44.12221" lon="4.65626">
        <ele>245</ele>
        <time>2016-03-07T00:53:57Z</time>
      </trkpt>
      <trkpt lat="44.12228" lon="4.65629">
        <ele>245</ele>
        <time>2016-03-07T00:55:57Z</time>
      </trkpt>
      <trkpt lat="44.12259" lon="4.65638">
        <ele>246</ele>
        <time>2016-03-07T00:57:57Z</time>
      </trkpt>
      <trkpt lat="44.12263" lon="4.65636">
        <ele>246</ele>
        <time>2016-03-07T00:59:57Z</time>
      </trkpt>
      <trkpt lat="44.12274" lon="4.65623">
        <ele>248</ele>
        <time>2016-03-07T01:01:57Z</time>
      </trkpt>
      <trkpt lat="44.12276" lon="4.65619">
        <ele>249</ele>
        <time>2016-03-07T01:03:57Z</time>
      </trkpt>
      <trkpt lat="44.12283" lon="4.65599">
        <ele>252</ele>
        <time>2016-03-07T01:05:57Z</time>
      </trkpt>
      <trkpt lat="44.12282" lon="4.65591">
        <ele>254</ele>
        <time>2016-03-07T01:07:57Z</time>
      </trkpt>
      <trkpt lat="44.12281" lon="4.65589">
        <ele>254</ele>
        <time>2016-03-07T01:09:57Z</time>
      </trkpt>
      <trkpt lat="44.12279" lon="4.65588">
        <ele>254</ele>
        <time>2016-03-07T01:11:57Z</time>
      </trkpt>
      <trkpt lat="44.12276" lon="4.65584">
        <ele>255</ele>
        <time>2016-03-07T01:13:57Z</time>
      </trkpt>
      <trkpt lat="44.12266" lon="4.65588">
        <ele>254</ele>
        <time>2016-03-07T01:15:57Z</time>
      </trkpt>
      <trkpt lat="44.12261" lon="4.65588">
        <ele>254</ele>
        <time>2016-03-07T01:17:57Z</time>
      </trkpt>
      <trkpt lat="44.1226" lon="4.65586">
        <ele>254</ele>
        <time>2016-03-07T01:19:57Z</time>
      </trkpt>
      <trkpt lat="44.12253" lon="4.6557">
        <ele>253</ele>
        <time>2016-03-07T01:21:57Z</time>
      </trkpt>
      <trkpt lat="44.12251" lon="4.65565">
        <ele>252</ele>
        <time>2016-03-07T01:23:57Z</time>
      </trkpt>
      <trkpt lat="44.12245" lon="4.65559">
        <ele>252</ele>
        <time>2016-03-07T01:25:57Z</time>
      </trkpt>
      <trkpt lat="44.12239" lon="4.65552">
        <ele>251</ele>
        <time>2016-03-07T01:27:57Z</time>
      </trkpt>
      <trkpt lat="44.12234" lon="4.65547">
        <ele>251</ele>
        <time>2016-03-07T01:29:57Z</time>
      </trkpt>
      <trkpt lat="44.12229" lon="4.65548">
        <ele>251</ele>
        <time>2016-03-07T01:31:57Z</time>
      </trkpt>
      <trkpt lat="44.12224" lon="4.65551">
        <ele>252</ele>
        <time>2016-03-07T01:33:57Z</time>
      </trkpt>
      <trkpt lat="44.12216" lon="4.65551">
        <ele>252</ele>
        <time>2016-03-07T01:35:57Z</time>
      </trkpt>
      <trkpt lat="44.12203" lon="4.65549">
        <ele>252</ele>
        <time>2016-03-07T01:37:57Z</time>
      </trkpt>
      <trkpt lat="44.12195" lon="4.65544">
        <ele>252</ele>
        <time>2016-03-07T01:39:57Z</time>
      </trkpt>
      <trkpt lat="44.12186" lon="4.6554">
        <ele>252</ele>
        <time>2016-03-07T01:41:57Z</time>
      </trkpt>
      <trkpt lat="44.12178" lon="4.65539">
        <ele>252</ele>
        <time>2016-03-07T01:43:57Z</time>
      </trkpt>
      <trkpt lat="44.12176" lon="4.65537">
        <ele>252</ele>
        <time>2016-03-07T01:45:57Z</time>
      </trkpt>
      <trkpt lat="44.12176" lon="4.65537">
        <ele>252</ele>
        <time>2016-03-07T01:47:57Z</time>
      </trkpt>
      <trkpt lat="44.12176" lon="4.65537">
        <ele>252</ele>
        <time>2016-03-07T01:49:57Z</time>
      </trkpt>
      <trkpt lat="44.12176" lon="4.65529">
        <ele>253</ele>
        <time>2016-03-07T01:51:57Z</time>
      </trkpt>
      <trkpt lat="44.1218" lon="4.65517">
        <ele>253</ele>
        <time>2016-03-07T01:53:57Z</time>
      </trkpt>
      <trkpt lat="44.12179" lon="4.65514">
        <ele>253</ele>
        <time>2016-03-07T01:55:57Z</time>
      </trkpt>
      <trkpt lat="44.12177" lon="4.65506">
        <ele>253</ele>
        <time>2016-03-07T01:57:57Z</time>
      </trkpt>
      <trkpt lat="44.12179" lon="4.65495">
        <ele>253</ele>
        <time>2016-03-07T01:59:57Z</time>
      </trkpt>
      <trkpt lat="44.12174" lon="4.65483">
        <ele>254</ele>
        <time>2016-03-07T02:01:57Z</time>
      </trkpt>
      <trkpt lat="44.12172" lon="4.65479">
        <ele>254</ele>
        <time>2016-03-07T02:03:57Z</time>
      </trkpt>
      <trkpt lat="44.1217" lon="4.65478">
        <ele>254</ele>
        <time>2016-03-07T02:05:57Z</time>
      </trkpt>
      <trkpt lat="44.12166" lon="4.65473">
        <ele>255</ele>
        <time>2016-03-07T02:07:57Z</time>
      </trkpt>
      <trkpt lat="44.12165" lon="4.6547">
        <ele>255</ele>
        <time>2016-03-07T02:09:57Z</time>
      </trkpt>
      <trkpt lat="44.12165" lon="4.65467">
        <ele>255</ele>
        <time>2016-03-07T02:11:57Z</time>
      </trkpt>
      <trkpt lat="44.12172" lon="4.65445">
        <ele>255</ele>
        <time>2016-03-07T02:13:57Z</time>
      </trkpt>
      <trkpt lat="44.1218" lon="4.65438">
        <ele>254</ele>
        <time>2016-03-07T02:15:57Z</time>
      </trkpt>
      <trkpt lat="44.12185" lon="4.65437">
        <ele>253</ele>
        <time>2016-03-07T02:17:57Z</time>
      </trkpt>
      <trkpt lat="44.12192" lon="4.65437">
        <ele>252</ele>
        <time>2016-03-07T02:19:57Z</time>
      </trkpt>
      <trkpt lat="44.12204" lon="4.65433">
        <ele>250</ele>
        <time>2016-03-07T02:21:57Z</time>
      </trkpt>
      <trkpt lat="44.12206" lon="4.65431">
        <ele>250</ele>
        <time>2016-03-07T02:23:57Z</time>
      </trkpt>
      <trkpt lat="44.12212" lon="4.65415">
        <ele>249</ele>
        <time>2016-03-07T02:25:57Z</time>
      </trkpt>
      <trkpt lat="44.12213" lon="4.65411">
        <ele>248</ele>
        <time>2016-03-07T02:27:57Z</time>
      </trkpt>
      <trkpt lat="44.12213" lon="4.65408">
        <ele>248</ele>
        <time>2016-03-07T02:29:57Z</time>
      </trkpt>
      <trkpt lat="44.12215" lon="4.65404">
        <ele>248</ele>
        <time>2016-03-07T02:31:57Z</time>
      </trkpt>
      <trkpt lat="44.12219" lon="4.65403">
        <ele>247</ele>
        <time>2016-03-07T02:33:57Z</time>
      </trkpt>
      <trkpt lat="44.12223" lon="4.65401">
        <ele>246</ele>
        <time>2016-03-07T02:35:57Z</time>
      </trkpt>
      <trkpt lat="44.12224" lon="4.654">
        <ele>246</ele>
        <time>2016-03-07T02:37:57Z</time>
      </trkpt>
      <trkpt lat="44.12224" lon="4.654">
        <ele>246</ele>
        <time>2016-03-07T02:39:57Z</time>
      </trkpt>
      <trkpt lat="44.12224" lon="4.65399">
        <ele>246</ele>
        <time>2016-03-07T02:41:57Z</time>
      </trkpt>
      <trkpt lat="44.12224" lon="4.65392">
        <ele>246</ele>
        <time>2016-03-07T02:43:57Z</time>
      </trkpt>
      <trkpt lat="44.12227" lon="4.65385">
        <ele>245</ele>
        <time>2016-03-07T02:45:57Z</time>
      </trkpt>
      <trkpt lat="44.1223" lon="4.65384">
        <ele>244</ele>
        <time>2016-03-07T02:47:57Z</time>
      </trkpt>
      <trkpt lat="44.12232" lon="4.65372">
        <ele>244</ele>
        <time>2016-03-07T02:49:57Z</time>
      </trkpt>
      <trkpt lat="44.12223" lon="4.65358">
        <ele>245</ele>
        <time>2016-03-07T02:51:57Z</time>
      </trkpt>
      <trkpt lat="44.12222" lon="4.65354">
        <ele>245</ele>
        <time>2016-03-07T02:53:57Z</time>
      </trkpt>
      <trkpt lat="44.12223" lon="4.65336">
        <ele>244</ele>
        <time>2016-03-07T02:55:57Z</time>
      </trkpt>
      <trkpt lat="44.12225" lon="4.65315">
        <ele>243</ele>
        <time>2016-03-07T02:57:57Z</time>
      </trkpt>
      <trkpt lat="44.12227" lon="4.65307">
        <ele>243</ele>
        <time>2016-03-07T02:59:57Z</time>
      </trkpt>
      <trkpt lat="44.12228" lon="4.65301">
        <ele>242</ele>
        <time>2016-03-07T03:01:57Z</time>
      </trkpt>
      <trkpt lat="44.12231" lon="4.65297">
        <ele>242</ele>
        <time>2016-03-07T03:03:57Z</time>
      </trkpt>
      <trkpt lat="44.12233" lon="4.65293">
        <ele>242</ele>
        <time>2016-03-07T03:05:57Z</time>
      </trkpt>
      <trkpt lat="44.12237" lon="4.65289">
        <ele>241</ele>
        <time>2016-03-07T03:07:57Z</time>
      </trkpt>
      <trkpt lat="44.1224" lon="4.65288">
        <ele>241</ele>
        <time>2016-03-07T03:09:57Z</time>
      </trkpt>
      <trkpt lat="44.12241" lon="4.65286">
        <ele>241</ele>
        <time>2016-03-07T03:11:57Z</time>
      </trkpt>
      <trkpt lat="44.12244" lon="4.65279">
        <ele>241</ele>
        <time>2016-03-07T03:13:57Z</time>
      </trkpt>
      <trkpt lat="44.12244" lon="4.65276">
        <ele>240</ele>
        <time>2016-03-07T03:15:57Z</time>
      </trkpt>
      <trkpt lat="44.12242" lon="4.65271">
        <ele>241</ele>
        <time>2016-03-07T03:17:57Z</time>
      </trkpt>
      <trkpt lat="44.12244" lon="4.65262">
        <ele>240</ele>
        <time>2016-03-07T03:19:57Z</time>
      </trkpt>
      <trkpt lat="44.1225" lon="4.65256">
        <ele>240</ele>
        <time>2016-03-07T03:21:57Z</time>
      </trkpt>
      <trkpt lat="44.12251" lon="4.65251">
        <ele>240</ele>
        <time>2016-03-07T03:23:57Z</time>
      </trkpt>
      <trkpt lat="44.12252" lon="4.65238">
        <ele>239</ele>
        <time>2016-03-07T03:25:57Z</time>
      </trkpt>
      <trkpt lat="44.12257" lon="4.65235">
        <ele>236</ele>
        <time>2016-03-07T03:27:57Z</time>
      </trkpt>
      <trkpt lat="44.12255" lon="4.65227">
        <ele>237</ele>
        <time>2016-03-07T03:29:57Z</time>
      </trkpt>
      <trkpt lat="44.1226" lon="4.65223">
        <ele>235</ele>
        <time>2016-03-07T03:31:57Z</time>
      </trkpt>
      <trkpt lat="44.12267" lon="4.65213">
        <ele>231</ele>
        <time>2016-03-07T03:33:57Z</time>
      </trkpt>
      <trkpt lat="44.12277" lon="4.65199">
        <ele>226</ele>
        <time>2016-03-07T03:35:57Z</time>
      </trkpt>
      <trkpt lat="44.12279" lon="4.652">
        <ele>226</ele>
        <time>2016-03-07T03:37:57Z</time>
      </trkpt>
      <trkpt lat="44.12284" lon="4.652">
        <ele>224</ele>
        <time>2016-03-07T03:39:57Z</time>
      </trkpt>
      <trkpt lat="44.12287" lon="4.65199">
        <ele>223</ele>
        <time>2016-03-07T03:41:57Z</time>
      </trkpt>
      <trkpt lat="44.12295" lon="4.652">
        <ele>220</ele>
        <time>2016-03-07T03:43:57Z</time>
      </trkpt>
      <trkpt lat="44.12302" lon="4.65198">
        <ele>217</ele>
        <time>2016-03-07T03:45:57Z</time>
      </trkpt>
      <trkpt lat="44.12305" lon="4.65193">
        <ele>215</ele>
        <time>2016-03-07T03:47:57Z</time>
      </trkpt>
      <trkpt lat="44.12306" lon="4.6519">
        <ele>215</ele>
        <time>2016-03-07T03:49:57Z</time>
      </trkpt>
      <trkpt lat="44.12306" lon="4.65186">
        <ele>214</ele>
        <time>2016-03-07T03:51:57Z</time>
      </trkpt>
      <trkpt lat="44.12308" lon="4.65179">
        <ele>213</ele>
        <time>2016-03-07T03:53:57Z</time>
      </trkpt>
      <trkpt lat="44.12307" lon="4.65175">
        <ele>213</ele>
        <time>2016-03-07T03:55:57Z</time>
      </trkpt>
      <trkpt lat="44.12304" lon="4.65158">
        <ele>212</ele>
        <time>2016-03-07T03:57:57Z</time>
      </trkpt>
      <trkpt lat="44.12294" lon="4.65144">
        <ele>213</ele>
        <time>2016-03-07T03:59:57Z</time>
      </trkpt>
      <trkpt lat="44.12289" lon="4.65135">
        <ele>213</ele>
        <time>2016-03-07T04:01:57Z</time>
      </trkpt>
      <trkpt lat="44.12282" lon="4.65117">
        <ele>211</ele>
        <time>2016-03-07T04:03:57Z</time>
      </trkpt>
      <trkpt lat="44.12272" lon="4.65116">
        <ele>214</ele>
        <time>2016-03-07T04:05:57Z</time>
      </trkpt>
      <trkpt lat="44.12265" lon="4.65122">
        <ele>218</ele>
        <time>2016-03-07T04:07:57Z</time>
      </trkpt>
      <trkpt lat="44.12263" lon="4.65123">
        <ele>219</ele>
        <time>2016-03-07T04:09:57Z</time>
      </trkpt>
      <trkpt lat="44.12257" lon="4.65131">
        <ele>223</ele>
        <time>2016-03-07T04:11:57Z</time>
      </trkpt>
      <trkpt lat="44.12256" lon="4.65133">
        <ele>224</ele>
        <time>2016-03-07T04:13:57Z</time>
      </trkpt>
      <trkpt lat="44.12251" lon="4.65139">
        <ele>227</ele>
        <time>2016-03-07T04:15:57Z</time>
      </trkpt>
      <trkpt lat="44.1224" lon="4.65148">
        <ele>230</ele>
        <time>2016-03-07T04:17:57Z</time>
      </trkpt>
      <trkpt lat="44.12236" lon="4.65155">
        <ele>232</ele>
        <time>2016-03-07T04:19:57Z</time>
      </trkpt>
      <trkpt lat="44.12235" lon="4.65157">
        <ele>232</ele>
        <time>2016-03-07T04:21:57Z</time>
      </trkpt>
      <trkpt lat="44.12226" lon="4.65163">
        <ele>234</ele>
        <time>2016-03-07T04:23:57Z</time>
      </trkpt>
      <trkpt lat="44.12218" lon="4.65164">
        <ele>234</ele>
        <time>2016-03-07T04:25:57Z</time>
      </trkpt>
      <trkpt lat="44.12211" lon="4.65167">
        <ele>235</ele>
        <time>2016-03-07T04:27:57Z</time>
      </trkpt>
      <trkpt lat="44.12208" lon="4.65165">
        <ele>234</ele>
        <time>2016-03-07T04:29:57Z</time>
      </trkpt>
      <trkpt lat="44.12202" lon="4.65165">
        <ele>234</ele>
        <time>2016-03-07T04:31:57Z</time>
      </trkpt>
      <trkpt lat="44.12198" lon="4.65167">
        <ele>234</ele>
        <time>2016-03-07T04:33:57Z</time>
      </trkpt>
      <trkpt lat="44.12193" lon="4.65173">
        <ele>235</ele>
        <time>2016-03-07T04:35:57Z</time>
      </trkpt>
      <trkpt lat="44.12189" lon="4.65175">
        <ele>235</ele>
        <time>2016-03-07T04:37:57Z</time>
      </trkpt>
      <trkpt lat="44.12185" lon="4.65172">
        <ele>235</ele>
        <time>2016-03-07T04:39:57Z</time>
      </trkpt>
      <trkpt lat="44.12178" lon="4.65169">
        <ele>234</ele>
        <time>2016-03-07T04:41:57Z</time>
      </trkpt>
      <trkpt lat="44.12175" lon="4.65169">
        <ele>234</ele>
        <time>2016-03-07T04:43:57Z</time>
      </trkpt>
      <trkpt lat="44.12167" lon="4.65172">
        <ele>235</ele>
        <time>2016-03-07T04:45:57Z</time>
      </trkpt>
      <trkpt lat="44.12165" lon="4.65173">
        <ele>235</ele>
        <time>2016-03-07T04:47:57Z</time>
      </trkpt>
      <trkpt lat="44.12161" lon="4.65179">
        <ele>235</ele>
        <time>2016-03-07T04:49:57Z</time>
      </trkpt>
      <trkpt lat="44.12152" lon="4.65185">
        <ele>236</ele>
        <time>2016-03-07T04:51:57Z</time>
      </trkpt>
      <trkpt lat="44.1215" lon="4.65185">
        <ele>236</ele>
        <time>2016-03-07T04:53:57Z</time>
      </trkpt>
      <trkpt lat="44.1214" lon="4.65189">
        <ele>235</ele>
        <time>2016-03-07T04:55:57Z</time>
      </trkpt>
      <trkpt lat="44.1213" lon="4.652">
        <ele>236</ele>
        <time>2016-03-07T04:57:57Z</time>
      </trkpt>
      <trkpt lat="44.12123" lon="4.65202">
        <ele>236</ele>
        <time>2016-03-07T04:59:57Z</time>
      </trkpt>
      <trkpt lat="44.12121" lon="4.65204">
        <ele>236</ele>
        <time>2016-03-07T05:01:57Z</time>
      </trkpt>
      <trkpt lat="44.12115" lon="4.65208">
        <ele>236</ele>
        <time>2016-03-07T05:03:57Z</time>
      </trkpt>
      <trkpt lat="44.1211" lon="4.65212">
        <ele>237</ele>
        <time>2016-03-07T05:05:57Z</time>
      </trkpt>
      <trkpt lat="44.12109" lon="4.65216">
        <ele>237</ele>
        <time>2016-03-07T05:07:57Z</time>
      </trkpt>
      <trkpt lat="44.12106" lon="4.65239">
        <ele>239</ele>
        <time>2016-03-07T05:09:57Z</time>
      </trkpt>
      <trkpt lat="44.12102" lon="4.65252">
        <ele>241</ele>
        <time>2016-03-07T05:11:57Z</time>
      </trkpt>
      <trkpt lat="44.12101" lon="4.65255">
        <ele>241</ele>
        <time>2016-03-07T05:13:57Z</time>
      </trkpt>
      <trkpt lat="44.121" lon="4.65257">
        <ele>241</ele>
        <time>2016-03-07T05:15:57Z</time>
      </trkpt>
      <trkpt lat="44.12098" lon="4.65262">
        <ele>242</ele>
        <time>2016-03-07T05:17:57Z</time>
      </trkpt>
      <trkpt lat="44.12093" lon="4.65272">
        <ele>242</ele>
        <time>2016-03-07T05:19:57Z</time>
      </trkpt>
      <trkpt lat="44.12093" lon="4.65275">
        <ele>243</ele>
        <time>2016-03-07T05:21:57Z</time>
      </trkpt>
      <trkpt lat="44.12091" lon="4.65284">
        <ele>244</ele>
        <time>2016-03-07T05:23:57Z</time>
      </trkpt>
      <trkpt lat="44.12039" lon="4.65345">
        <ele>250</ele>
        <time>2016-03-07T05:25:57Z</time>
      </trkpt>
      <trkpt lat="44.12034" lon="4.65343">
        <ele>250</ele>
        <time>2016-03-07T05:27:57Z</time>
      </trkpt>
      <trkpt lat="44.12028" lon="4.65341">
        <ele>249</ele>
        <time>2016-03-07T05:29:57Z</time>
      </trkpt>
      <trkpt lat="44.12023" lon="4.65339">
        <ele>249</ele>
        <time>2016-03-07T05:31:57Z</time>
      </trkpt>
      <trkpt lat="44.12017" lon="4.65341">
        <ele>249</ele>
        <time>2016-03-07T05:33:57Z</time>
      </trkpt>
      <trkpt lat="44.12007" lon="4.6535">
        <ele>250</ele>
        <time>2016-03-07T05:35:57Z</time>
      </trkpt>
      <trkpt lat="44.11997" lon="4.65353">
        <ele>250</ele>
        <time>2016-03-07T05:37:57Z</time>
      </trkpt>
      <trkpt lat="44.11992" lon="4.65355">
        <ele>250</ele>
        <time>2016-03-07T05:39:57Z</time>
      </trkpt>
      <trkpt lat="44.11978" lon="4.65357">
        <ele>250</ele>
        <time>2016-03-07T05:41:57Z</time>
      </trkpt>
      <trkpt lat="44.11969" lon="4.65358">
        <ele>250</ele>
        <time>2016-03-07T05:43:57Z</time>
      </trkpt>
      <trkpt lat="44.11964" lon="4.6536">
        <ele>250</ele>
        <time>2016-03-07T05:45:57Z</time>
      </trkpt>
      <trkpt lat="44.11956" lon="4.65368">
        <ele>251</ele>
        <time>2016-03-07T05:47:57Z</time>
      </trkpt>
      <trkpt lat="44.11942" lon="4.65381">
        <ele>251</ele>
        <time>2016-03-07T05:49:57Z</time>
      </trkpt>
      <trkpt lat="44.11934" lon="4.65385">
        <ele>250</ele>
        <time>2016-03-07T05:51:57Z</time>
      </trkpt>
      <trkpt lat="44.1192" lon="4.6539">
        <ele>250</ele>
        <time>2016-03-07T05:53:57Z</time>
      </trkpt>
      <trkpt lat="44.11915" lon="4.65392">
        <ele>249</ele>
        <time>2016-03-07T05:55:57Z</time>
      </trkpt>
      <trkpt lat="44.11904" lon="4.654">
        <ele>247</ele>
        <time>2016-03-07T05:57:57Z</time>
      </trkpt>
      <trkpt lat="44.11897" lon="4.65403">
        <ele>245</ele>
        <time>2016-03-07T05:59:57Z</time>
      </trkpt>
      <trkpt lat="44.11891" lon="4.65402">
        <ele>243</ele>
        <time>2016-03-07T06:01:57Z</time>
      </trkpt>
      <trkpt lat="44.11885" lon="4.65401">
        <ele>242</ele>
        <time>2016-03-07T06:03:57Z</time>
      </trkpt>
      <trkpt lat="44.11872" lon="4.65395">
        <ele>240</ele>
        <time>2016-03-07T06:05:57Z</time>
      </trkpt>
      <trkpt lat="44.11852" lon="4.65382">
        <ele>238</ele>
        <time>2016-03-07T06:07:57Z</time>
      </trkpt>
      <trkpt lat="44.11849" lon="4.65383">
        <ele>238</ele>
        <time>2016-03-07T06:09:57Z</time>
      </trkpt>
      <trkpt lat="44.11847" lon="4.65383">
        <ele>237</ele>
        <time>2016-03-07T06:11:57Z</time>
      </trkpt>
      <trkpt lat="44.11842" lon="4.65385">
        <ele>236</ele>
        <time>2016-03-07T06:13:57Z</time>
      </trkpt>
      <trkpt lat="44.11836" lon="4.65386">
        <ele>234</ele>
        <time>2016-03-07T06:15:57Z</time>
      </trkpt>
      <trkpt lat="44.11833" lon="4.65387">
        <ele>234</ele>
        <time>2016-03-07T06:17:57Z</time>
      </trkpt>
      <trkpt lat="44.11831" lon="4.65387">
        <ele>233</ele>
        <time>2016-03-07T06:19:57Z</time>
      </trkpt>
      <trkpt lat="44.11828" lon="4.65386">
        <ele>233</ele>
        <time>2016-03-07T06:21:57Z</time>
      </trkpt>
      <trkpt lat="44.1182" lon="4.65385">
        <ele>231</ele>
        <time>2016-03-07T06:23:57Z</time>
      </trkpt>
      <trkpt lat="44.11816" lon="4.65385">
        <ele>230</ele>
        <time>2016-03-07T06:25:57Z</time>
      </trkpt>
      <trkpt lat="44.11812" lon="4.65384">
        <ele>229</ele>
        <time>2016-03-07T06:27:57Z</time>
      </trkpt>
      <trkpt lat="44.11805" lon="4.65381">
        <ele>228</ele>
        <time>2016-03-07T06:29:57Z</time>
      </trkpt>
      <trkpt lat="44.11801" lon="4.6538">
        <ele>227</ele>
        <time>2016-03-07T06:31:57Z</time>
      </trkpt>
      <trkpt lat="44.11794" lon="4.6538">
        <ele>225</ele>
        <time>2016-03-07T06:33:57Z</time>
      </trkpt>
      <trkpt lat="44.1179" lon="4.65382">
        <ele>223</ele>
        <time>2016-03-07T06:35:57Z</time>
      </trkpt>
      <trkpt lat="44.11782" lon="4.65383">
        <ele>221</ele>
        <time>2016-03-07T06:37:57Z</time>
      </trkpt>
      <trkpt lat="44.11771" lon="4.65382">
        <ele>218</ele>
        <time>2016-03-07T06:39:57Z</time>
      </trkpt>
      <trkpt lat="44.11767" lon="4.65381">
        <ele>217</ele>
        <time>2016-03-07T06:41:57Z</time>
      </trkpt>
      <trkpt lat="44.11762" lon="4.65379">
        <ele>216</ele>
        <time>2016-03-07T06:43:57Z</time>
      </trkpt>
      <trkpt lat="44.11755" lon="4.65379">
        <ele>215</ele>
        <time>2016-03-07T06:45:57Z</time>
      </trkpt>
      <trkpt lat="44.11753" lon="4.65381">
        <ele>214</ele>
        <time>2016-03-07T06:47:57Z</time>
      </trkpt>
      <trkpt lat="44.1175" lon="4.65384">
        <ele>212</ele>
        <time>2016-03-07T06:49:57Z</time>
      </trkpt>
      <trkpt lat="44.11744" lon="4.65388">
        <ele>210</ele>
        <time>2016-03-07T06:51:57Z</time>
      </trkpt>
      <trkpt lat="44.11737" lon="4.6539">
        <ele>208</ele>
        <time>2016-03-07T06:53:57Z</time>
      </trkpt>
      <trkpt lat="44.11731" lon="4.65393">
        <ele>206</ele>
        <time>2016-03-07T06:55:57Z</time>
      </trkpt>
      <trkpt lat="44.11728" lon="4.65397">
        <ele>204</ele>
        <time>2016-03-07T06:57:57Z</time>
      </trkpt>
      <trkpt lat="44.11717" lon="4.65397">
        <ele>202</ele>
        <time>2016-03-07T06:59:57Z</time>
      </trkpt>
      <trkpt lat="44.11713" lon="4.65398">
        <ele>201</ele>
        <time>2016-03-07T07:01:57Z</time>
      </trkpt>
      <trkpt lat="44.11702" lon="4.65406">
        <ele>197</ele>
        <time>2016-03-07T07:03:57Z</time>
      </trkpt>
      <trkpt lat="44.11699" lon="4.6541">
        <ele>195</ele>
        <time>2016-03-07T07:05:57Z</time>
      </trkpt>
      <trkpt lat="44.11694" lon="4.65414">
        <ele>194</ele>
        <time>2016-03-07T07:07:57Z</time>
      </trkpt>
      <trkpt lat="44.11685" lon="4.6542">
        <ele>191</ele>
        <time>2016-03-07T07:09:57Z</time>
      </trkpt>
      <trkpt lat="44.11681" lon="4.65423">
        <ele>190</ele>
        <time>2016-03-07T07:11:57Z</time>
      </trkpt>
      <trkpt lat="44.11679" lon="4.65424">
        <ele>189</ele>
        <time>2016-03-07T07:13:57Z</time>
      </trkpt>
      <trkpt lat="44.11678" lon="4.65426">
        <ele>189</ele>
        <time>2016-03-07T07:15:57Z</time>
      </trkpt>
      <trkpt lat="44.1168" lon="4.65426">
        <ele>189</ele>
        <time>2016-03-07T07:17:57Z</time>
      </trkpt>
      <trkpt lat="44.11684" lon="4.65431">
        <ele>190</ele>
        <time>2016-03-07T07:19:57Z</time>
      </trkpt>
      <trkpt lat="44.1169" lon="4.65451">
        <ele>189</ele>
        <time>2016-03-07T07:21:57Z</time>
      </trkpt>
      <trkpt lat="44.117" lon="4.65468">
        <ele>189</ele>
        <time>2016-03-07T07:23:57Z</time>
      </trkpt>
      <trkpt lat="44.11705" lon="4.65473">
        <ele>189</ele>
        <time>2016-03-07T07:25:57Z</time>
      </trkpt>
      <trkpt lat="44.11708" lon="4.65478">
        <ele>189</ele>
        <time>2016-03-07T07:27:57Z</time>
      </trkpt>
      <trkpt lat="44.11711" lon="4.65482">
        <ele>189</ele>
        <time>2016-03-07T07:29:57Z</time>
      </trkpt>
      <trkpt lat="44.11715" lon="4.65484">
        <ele>189</ele>
        <time>2016-03-07T07:31:57Z</time>
      </trkpt>
      <trkpt lat="44.11727" lon="4.65484">
        <ele>190</ele>
        <time>2016-03-07T07:33:57Z</time>
      </trkpt>
      <trkpt lat="44.11733" lon="4.65486">
        <ele>190</ele>
        <time>2016-03-07T07:35:57Z</time>
      </trkpt>
      <trkpt lat="44.11747" lon="4.655">
        <ele>189</ele>
        <time>2016-03-07T07:37:57Z</time>
      </trkpt>
      <trkpt lat="44.11752" lon="4.65509">
        <ele>188</ele>
        <time>2016-03-07T07:39:57Z</time>
      </trkpt>
      <trkpt lat="44.11756" lon="4.65517">
        <ele>188</ele>
        <time>2016-03-07T07:41:57Z</time>
      </trkpt>
      <trkpt lat="44.1176" lon="4.65527">
        <ele>188</ele>
        <time>2016-03-07T07:43:57Z</time>
      </trkpt>
      <trkpt lat="44.11763" lon="4.65535">
        <ele>187</ele>
        <time>2016-03-07T07:45:57Z</time>
      </trkpt>
      <trkpt lat="44.11777" lon="4.65566">
        <ele>186</ele>
        <time>2016-03-07T07:47:57Z</time>
      </trkpt>
      <trkpt lat="44.1178" lon="4.65572">
        <ele>186</ele>
        <time>2016-03-07T07:49:57Z</time>
      </trkpt>
      <trkpt lat="44.1179" lon="4.65587">
        <ele>187</ele>
        <time>2016-03-07T07:51:57Z</time>
      </trkpt>
      <trkpt lat="44.11794" lon="4.6559">
        <ele>187</ele>
        <time>2016-03-07T07:53:57Z</time>
      </trkpt>
      <trkpt lat="44.118" lon="4.65598">
        <ele>188</ele>
        <time>2016-03-07T07:55:57Z</time>
      </trkpt>
      <trkpt lat="44.11803" lon="4.65603">
        <ele>188</ele>
        <time>2016-03-07T07:57:57Z</time>
      </trkpt>
      <trkpt lat="44.11805" lon="4.65606">
        <ele>188</ele>
        <time>2016-03-07T07:59:57Z</time>
      </trkpt>
      <trkpt lat="44.1181" lon="4.65614">
        <ele>188</ele>
        <time>2016-03-07T08:01:57Z</time>
      </trkpt>
      <trkpt lat="44.11816" lon="4.65625">
        <ele>188</ele>
        <time>2016-03-07T08:03:57Z</time>
      </trkpt>
      <trkpt lat="44.11821" lon="4.65632">
        <ele>188</ele>
        <time>2016-03-07T08:05:57Z</time>
      </trkpt>
      <trkpt lat="44.11834" lon="4.65644">
        <ele>189</ele>
        <time>2016-03-07T08:07:57Z</time>
      </trkpt>
      <trkpt lat="44.1184" lon="4.65645">
        <ele>190</ele>
        <time>2016-03-07T08:09:57Z</time>
      </trkpt>
      <trkpt lat="44.11841" lon="4.65648">
        <ele>189</ele>
        <time>2016-03-07T08:11:57Z</time>
      </trkpt>
      <trkpt lat="44.11843" lon="4.65652">
        <ele>189</ele>
        <time>2016-03-07T08:13:57Z</time>
      </trkpt>
      <trkpt lat="44.11851" lon="4.65664">
        <ele>188</ele>
        <time>2016-03-07T08:15:57Z</time>
      </trkpt>
      <trkpt lat="44.11854" lon="4.65666">
        <ele>188</ele>
        <time>2016-03-07T08:17:57Z</time>
      </trkpt>
      <trkpt lat="44.11859" lon="4.65669">
        <ele>188</ele>
        <time>2016-03-07T08:19:57Z</time>
      </trkpt>
      <trkpt lat="44.11879" lon="4.65672">
        <ele>191</ele>
        <time>2016-03-07T08:21:57Z</time>
      </trkpt>
      <trkpt lat="44.11882" lon="4.65673">
        <ele>191</ele>
        <time>2016-03-07T08:23:57Z</time>
      </trkpt>
      <trkpt lat="44.11901" lon="4.65678">
        <ele>192</ele>
        <time>2016-03-07T08:25:57Z</time>
      </trkpt>
      <trkpt lat="44.11907" lon="4.65683">
        <ele>192</ele>
        <time>2016-03-07T08:27:57Z</time>
      </trkpt>
      <trkpt lat="44.11919" lon="4.65689">
        <ele>191</ele>
        <time>2016-03-07T08:29:57Z</time>
      </trkpt>
      <trkpt lat="44.11924" lon="4.65691">
        <ele>191</ele>
        <time>2016-03-07T08:31:57Z</time>
      </trkpt>
      <trkpt lat="44.11946" lon="4.65695">
        <ele>191</ele>
        <time>2016-03-07T08:33:57Z</time>
      </trkpt>
      <trkpt lat="44.11956" lon="4.65695">
        <ele>192</ele>
        <time>2016-03-07T08:35:57Z</time>
      </trkpt>
      <trkpt lat="44.11964" lon="4.65696">
        <ele>192</ele>
        <time>2016-03-07T08:37:57Z</time>
      </trkpt>
      <trkpt lat="44.11978" lon="4.65698">
        <ele>192</ele>
        <time>2016-03-07T08:39:57Z</time>
      </trkpt>
      <trkpt lat="44.1199" lon="4.65701">
        <ele>192</ele>
        <time>2016-03-07T08:41:57Z</time>
      </trkpt>
      <trkpt lat="44.12001" lon="4.65707">
        <ele>191</ele>
        <time>2016-03-07T08:43:57Z</time>
      </trkpt>
      <trkpt lat="44.12013" lon="4.65712">
        <ele>190</ele>
        <time>2016-03-07T08:45:57Z</time>
      </trkpt>
      <trkpt lat="44.12023" lon="4.65712">
        <ele>191</ele>
        <time>2016-03-07T08:47:57Z</time>
      </trkpt>
      <trkpt lat="44.12024" lon="4.65713">
        <ele>191</ele>
        <time>2016-03-07T08:49:57Z</time>
      </trkpt>
      <trkpt lat="44.12034" lon="4.65715">
        <ele>191</ele>
        <time>2016-03-07T08:51:57Z</time>
      </trkpt>
      <trkpt lat="44.12039" lon="4.65717">
        <ele>191</ele>
        <time>2016-03-07T08:53:57Z</time>
      </trkpt>
      <trkpt lat="44.12048" lon="4.65721">
        <ele>190</ele>
        <time>2016-03-07T08:55:57Z</time>
      </trkpt>
      <trkpt lat="44.12062" lon="4.65727">
        <ele>189</ele>
        <time>2016-03-07T08:57:57Z</time>
      </trkpt>
      <trkpt lat="44.12065" lon="4.65727">
        <ele>190</ele>
        <time>2016-03-07T08:59:57Z</time>
      </trkpt>
      <trkpt lat="44.1207" lon="4.65726">
        <ele>191</ele>
        <time>2016-03-07T09:01:57Z</time>
      </trkpt>
      <trkpt lat="44.12094" lon="4.65731">
        <ele>192</ele>
        <time>2016-03-07T09:03:57Z</time>
      </trkpt>
      <trkpt lat="44.12106" lon="4.65742">
        <ele>189</ele>
        <time>2016-03-07T09:05:57Z</time>
      </trkpt>
      <trkpt lat="44.12115" lon="4.65752">
        <ele>187</ele>
        <time>2016-03-07T09:07:57Z</time>
      </trkpt>
      <trkpt lat="44.12131" lon="4.65764">
        <ele>185</ele>
        <time>2016-03-07T09:09:57Z</time>
      </trkpt>
      <trkpt lat="44.12134" lon="4.65765">
        <ele>186</ele>
        <time>2016-03-07T09:11:57Z</time>
      </trkpt>
      <trkpt lat="44.12147" lon="4.65774">
        <ele>185</ele>
        <time>2016-03-07T09:13:57Z</time>
      </trkpt>
      <trkpt lat="44.12156" lon="4.65781">
        <ele>184</ele>
        <time>2016-03-07T09:15:57Z</time>
      </trkpt>
      <trkpt lat="44.1216" lon="4.65787">
        <ele>183</ele>
        <time>2016-03-07T09:17:57Z</time>
      </trkpt>
      <trkpt lat="44.1217" lon="4.65797">
        <ele>181</ele>
        <time>2016-03-07T09:19:57Z</time>
      </trkpt>
      <trkpt lat="44.12177" lon="4.65803">
        <ele>180</ele>
        <time>2016-03-07T09:21:57Z</time>
      </trkpt>
      <trkpt lat="44.12182" lon="4.6581">
        <ele>178</ele>
        <time>2016-03-07T09:23:57Z</time>
      </trkpt>
      <trkpt lat="44.12185" lon="4.65819">
        <ele>176</ele>
        <time>2016-03-07T09:25:57Z</time>
      </trkpt>
      <trkpt lat="44.12188" lon="4.65821">
        <ele>176</ele>
        <time>2016-03-07T09:27:57Z</time>
      </trkpt>
      <trkpt lat="44.122" lon="4.65826">
        <ele>175</ele>
        <time>2016-03-07T09:29:57Z</time>
      </trkpt>
      <trkpt lat="44.12207" lon="4.65837">
        <ele>173</ele>
        <time>2016-03-07T09:31:57Z</time>
      </trkpt>
      <trkpt lat="44.12209" lon="4.65843">
        <ele>172</ele>
        <time>2016-03-07T09:33:57Z</time>
      </trkpt>
      <trkpt lat="44.12212" lon="4.65848">
        <ele>171</ele>
        <time>2016-03-07T09:35:57Z</time>
      </trkpt>
      <trkpt lat="44.12216" lon="4.65854">
        <ele>169</ele>
        <time>2016-03-07T09:37:57Z</time>
      </trkpt>
      <trkpt lat="44.12221" lon="4.65858">
        <ele>169</ele>
        <time>2016-03-07T09:39:57Z</time>
      </trkpt>
      <trkpt lat="44.12244" lon="4.65865">
        <ele>169</ele>
        <time>2016-03-07T09:41:57Z</time>
      </trkpt>
      <trkpt lat="44.12258" lon="4.65875">
        <ele>167</ele>
        <time>2016-03-07T09:43:57Z</time>
      </trkpt>
      <trkpt lat="44.12276" lon="4.65879">
        <ele>167</ele>
        <time>2016-03-07T09:45:57Z</time>
      </trkpt>
      <trkpt lat="44.12302" lon="4.65882">
        <ele>167</ele>
        <time>2016-03-07T09:47:57Z</time>
      </trkpt>
      <trkpt lat="44.12314" lon="4.65884">
        <ele>167</ele>
        <time>2016-03-07T09:49:57Z</time>
      </trkpt>
      <trkpt lat="44.12327" lon="4.65886">
        <ele>167</ele>
        <time>2016-03-07T09:51:57Z</time>
      </trkpt>
      <trkpt lat="44.1235" lon="4.65886">
        <ele>167</ele>
        <time>2016-03-07T09:53:57Z</time>
      </trkpt>
      <trkpt lat="44.12362" lon="4.65887">
        <ele>166</ele>
        <time>2016-03-07T09:55:57Z</time>
      </trkpt>
      <trkpt lat="44.12368" lon="4.65888">
        <ele>166</ele>
        <time>2016-03-07T09:57:57Z</time>
      </trkpt>
      <trkpt lat="44.12387" lon="4.65888">
        <ele>165</ele>
        <time>2016-03-07T09:59:57Z</time>
      </trkpt>
      <trkpt lat="44.12394" lon="4.65889">
        <ele>165</ele>
        <time>2016-03-07T10:01:57Z</time>
      </trkpt>
      <trkpt lat="44.12394" lon="4.6589">
        <ele>165</ele>
        <time>2016-03-07T10:03:57Z</time>
      </trkpt>
      <trkpt lat="44.12395" lon="4.65888">
        <ele>165</ele>
        <time>2016-03-07T10:05:57Z</time>
      </trkpt>
      <trkpt lat="44.12399" lon="4.65877">
        <ele>167</ele>
        <time>2016-03-07T10:07:57Z</time>
      </trkpt>
      <trkpt lat="44.12406" lon="4.65871">
        <ele>168</ele>
        <time>2016-03-07T10:09:57Z</time>
      </trkpt>
      <trkpt lat="44.12408" lon="4.65869">
        <ele>168</ele>
        <time>2016-03-07T10:11:57Z</time>
      </trkpt>
      <trkpt lat="44.12424" lon="4.65862">
        <ele>168</ele>
        <time>2016-03-07T10:13:57Z</time>
      </trkpt>
      <trkpt lat="44.12432" lon="4.65857">
        <ele>167</ele>
        <time>2016-03-07T10:15:57Z</time>
      </trkpt>
      <trkpt lat="44.12446" lon="4.6585">
        <ele>166</ele>
        <time>2016-03-07T10:17:57Z</time>
      </trkpt>
      <trkpt lat="44.12476" lon="4.65832">
        <ele>162</ele>
        <time>2016-03-07T10:19:57Z</time>
      </trkpt>
      <trkpt lat="44.12484" lon="4.65825">
        <ele>161</ele>
        <time>2016-03-07T10:21:57Z</time>
      </trkpt>
      <trkpt lat="44.12488" lon="4.65823">
        <ele>161</ele>
        <time>2016-03-07T10:23:57Z</time>
      </trkpt>
      <trkpt lat="44.12498" lon="4.65821">
        <ele>159</ele>
        <time>2016-03-07T10:25:57Z</time>
      </trkpt>
      <trkpt lat="44.12505" lon="4.65817">
        <ele>158</ele>
        <time>2016-03-07T10:27:57Z</time>
      </trkpt>
      <trkpt lat="44.12507" lon="4.65813">
        <ele>159</ele>
        <time>2016-03-07T10:29:57Z</time>
      </trkpt>
      <trkpt lat="44.12514" lon="4.65792">
        <ele>160</ele>
        <time>2016-03-07T10:31:57Z</time>
      </trkpt>
      <trkpt lat="44.12518" lon="4.6578">
        <ele>161</ele>
        <time>2016-03-07T10:33:57Z</time>
      </trkpt>
      <trkpt lat="44.1252" lon="4.65767">
        <ele>162</ele>
        <time>2016-03-07T10:35:57Z</time>
      </trkpt>
      <trkpt lat="44.12525" lon="4.65753">
        <ele>163</ele>
        <time>2016-03-07T10:37:57Z</time>
      </trkpt>
      <trkpt lat="44.12535" lon="4.65744">
        <ele>162</ele>
        <time>2016-03-07T10:39:57Z</time>
      </trkpt>
      <trkpt lat="44.12546" lon="4.65726">
        <ele>162</ele>
        <time>2016-03-07T10:41:57Z</time>
      </trkpt>
      <trkpt lat="44.12549" lon="4.65713">
        <ele>163</ele>
        <time>2016-03-07T10:43:57Z</time>
      </trkpt>
      <trkpt lat="44.12549" lon="4.65709">
        <ele>164</ele>
        <time>2016-03-07T10:45:57Z</time>
      </trkpt>
      <trkpt lat="44.12548" lon="4.65709">
        <ele>164</ele>
        <time>2016-03-07T10:47:57Z</time>
      </trkpt>
      <trkpt lat="44.12554" lon="4.65701">
        <ele>164</ele>
        <time>2016-03-07T10:49:57Z</time>
      </trkpt>
      <trkpt lat="44.12563" lon="4.65683">
        <ele>163</ele>
        <time>2016-03-07T10:51:57Z</time>
      </trkpt>
      <trkpt lat="44.12567" lon="4.65675">
        <ele>163</ele>
        <time>2016-03-07T10:53:57Z</time>
      </trkpt>
      <trkpt lat="44.12573" lon="4.65656">
        <ele>163</ele>
        <time>2016-03-07T10:55:57Z</time>
      </trkpt>
      <trkpt lat="44.12573" lon="4.65633">
        <ele>163</ele>
        <time>2016-03-07T10:57:57Z</time>
      </trkpt>
      <trkpt lat="44.12579" lon="4.65629">
        <ele>161</ele>
        <time>2016-03-07T10:59:57Z</time>
      </trkpt>
      <trkpt lat="44.12588" lon="4.65632">
        <ele>159</ele>
        <time>2016-03-07T11:01:57Z</time>
      </trkpt>
      <trkpt lat="44.12594" lon="4.65633">
        <ele>158</ele>
        <time>2016-03-07T11:03:57Z</time>
      </trkpt>
      <trkpt lat="44.12605" lon="4.65636">
        <ele>156</ele>
        <time>2016-03-07T11:05:57Z</time>
      </trkpt>
      <trkpt lat="44.12609" lon="4.65639">
        <ele>155</ele>
        <time>2016-03-07T11:07:57Z</time>
      </trkpt>
      <trkpt lat="44.12613" lon="4.65639">
        <ele>155</ele>
        <time>2016-03-07T11:09:57Z</time>
      </trkpt>
      <trkpt lat="44.12621" lon="4.65637">
        <ele>153</ele>
        <time>2016-03-07T11:11:57Z</time>
      </trkpt>
      <trkpt lat="44.12625" lon="4.65634">
        <ele>153</ele>
        <time>2016-03-07T11:13:57Z</time>
      </trkpt>
      <trkpt lat="44.12629" lon="4.65632">
        <ele>152</ele>
        <time>2016-03-07T11:15:57Z</time>
      </trkpt>
      <trkpt lat="44.12633" lon="4.65625">
        <ele>151</ele>
        <time>2016-03-07T11:17:57Z</time>
      </trkpt>
      <trkpt lat="44.12634" lon="4.65613">
        <ele>150</ele>
        <time>2016-03-07T11:19:57Z</time>
      </trkpt>
      <trkpt lat="44.12633" lon="4.65604">
        <ele>150</ele>
        <time>2016-03-07T11:21:57Z</time>
      </trkpt>
      <trkpt lat="44.12629" lon="4.65591">
        <ele>150</ele>
        <time>2016-03-07T11:23:57Z</time>
      </trkpt>
      <trkpt lat="44.12626" lon="4.65588">
        <ele>151</ele>
        <time>2016-03-07T11:25:57Z</time>
      </trkpt>
      <trkpt lat="44.12615" lon="4.65584">
        <ele>153</ele>
        <time>2016-03-07T11:27:57Z</time>
      </trkpt>
      <trkpt lat="44.12612" lon="4.65581">
        <ele>153</ele>
        <time>2016-03-07T11:29:57Z</time>
      </trkpt>
      <trkpt lat="44.12611" lon="4.65579">
        <ele>153</ele>
        <time>2016-03-07T11:31:57Z</time>
      </trkpt>
      <trkpt lat="44.1261" lon="4.65575">
        <ele>153</ele>
        <time>2016-03-07T11:33:57Z</time>
      </trkpt>
      <trkpt lat="44.12608" lon="4.65571">
        <ele>153</ele>
        <time>2016-03-07T11:35:57Z</time>
      </trkpt>
      <trkpt lat="44.12604" lon="4.6556">
        <ele>153</ele>
        <time>2016-03-07T11:37:57Z</time>
      </trkpt>
      <trkpt lat="44.12602" lon="4.65549">
        <ele>153</ele>
        <time>2016-03-07T11:39:57Z</time>
      </trkpt>
      <trkpt lat="44.126" lon="4.65537">
        <ele>152</ele>
        <time>2016-03-07T11:41:57Z</time>
      </trkpt>
      <trkpt lat="44.12595" lon="4.65519">
        <ele>152</ele>
        <time>2016-03-07T11:43:57Z</time>
      </trkpt>
      <trkpt lat="44.12595" lon="4.65512">
        <ele>152</ele>
        <time>2016-03-07T11:45:57Z</time>
      </trkpt>
      <trkpt lat="44.12603" lon="4.65507">
        <ele>150</ele>
        <time>2016-03-07T11:47:57Z</time>
      </trkpt>
      <trkpt lat="44.12607" lon="4.65505">
        <ele>148</ele>
        <time>2016-03-07T11:49:57Z</time>
      </trkpt>
      <trkpt lat="44.1261" lon="4.65502">
        <ele>147</ele>
        <time>2016-03-07T11:51:57Z</time>
      </trkpt>
      <trkpt lat="44.12611" lon="4.65497">
        <ele>147</ele>
        <time>2016-03-07T11:53:57Z</time>
      </trkpt>
      <trkpt lat="44.1261" lon="4.65476">
        <ele>144</ele>
        <time>2016-03-07T11:55:57Z</time>
      </trkpt>
      <trkpt lat="44.1261" lon="4.65465">
        <ele>143</ele>
        <time>2016-03-07T11:57:57Z</time>
      </trkpt>
      <trkpt lat="44.12609" lon="4.65457">
        <ele>142</ele>
        <time>2016-03-07T11:59:57Z</time>
      </trkpt>
      <trkpt lat="44.12607" lon="4.65448">
        <ele>141</ele>
        <time>2016-03-07T12:01:57Z</time>
      </trkpt>
      <trkpt lat="44.12605" lon="4.6543">
        <ele>140</ele>
        <time>2016-03-07T12:03:57Z</time>
      </trkpt>
      <trkpt lat="44.12603" lon="4.65421">
        <ele>139</ele>
        <time>2016-03-07T12:05:57Z</time>
      </trkpt>
      <trkpt lat="44.12599" lon="4.65412">
        <ele>139</ele>
        <time>2016-03-07T12:07:57Z</time>
      </trkpt>
      <trkpt lat="44.12598" lon="4.6541">
        <ele>139</ele>
        <time>2016-03-07T12:09:57Z</time>
      </trkpt>
      <trkpt lat="44.12597" lon="4.65404">
        <ele>139</ele>
        <time>2016-03-07T12:11:57Z</time>
      </trkpt>
      <trkpt lat="44.12597" lon="4.65401">
        <ele>139</ele>
        <time>2016-03-07T12:13:57Z</time>
      </trkpt>
      <trkpt lat="44.12597" lon="4.65399">
        <ele>138</ele>
        <time>2016-03-07T12:15:57Z</time>
      </trkpt>
      <trkpt lat="44.12596" lon="4.65396">
        <ele>138</ele>
        <time>2016-03-07T12:17:57Z</time>
      </trkpt>
      <trkpt lat="44.12592" lon="4.65384">
        <ele>138</ele>
        <time>2016-03-07T12:19:57Z</time>
      </trkpt>
      <trkpt lat="44.1259" lon="4.65379">
        <ele>138</ele>
        <time>2016-03-07T12:21:57Z</time>
      </trkpt>
      <trkpt lat="44.12582" lon="4.6536">
        <ele>138</ele>
        <time>2016-03-07T12:23:57Z</time>
      </trkpt>
      <trkpt lat="44.12579" lon="4.65354">
        <ele>139</ele>
        <time>2016-03-07T12:25:57Z</time>
      </trkpt>
      <trkpt lat="44.12576" lon="4.65347">
        <ele>139</ele>
        <time>2016-03-07T12:27:57Z</time>
      </trkpt>
      <trkpt lat="44.12573" lon="4.6534">
        <ele>139</ele>
        <time>2016-03-07T12:29:57Z</time>
      </trkpt>
      <trkpt lat="44.12571" lon="4.65322">
        <ele>139</ele>
        <time>2016-03-07T12:31:57Z</time>
      </trkpt>
      <trkpt lat="44.1258" lon="4.65295">
        <ele>137</ele>
        <time>2016-03-07T12:33:57Z</time>
      </trkpt>
      <trkpt lat="44.12589" lon="4.65285">
        <ele>137</ele>
        <time>2016-03-07T12:35:57Z</time>
      </trkpt>
      <trkpt lat="44.12593" lon="4.65291">
        <ele>136</ele>
        <time>2016-03-07T12:37:57Z</time>
      </trkpt>
      <trkpt lat="44.12599" lon="4.65298">
        <ele>136</ele>
        <time>2016-03-07T12:39:57Z</time>
      </trkpt>
      <trkpt lat="44.12605" lon="4.65296">
        <ele>136</ele>
        <time>2016-03-07T12:41:57Z</time>
      </trkpt>
      <trkpt lat="44.1261" lon="4.65293">
        <ele>136</ele>
        <time>2016-03-07T12:43:57Z</time>
      </trkpt>
      <trkpt lat="44.12625" lon="4.65287">
        <ele>137</ele>
        <time>2016-03-07T12:45:57Z</time>
      </trkpt>
      <trkpt lat="44.12652" lon="4.65281">
        <ele>138</ele>
        <time>2016-03-07T12:47:57Z</time>
      </trkpt>
      <trkpt lat="44.12659" lon="4.6528">
        <ele>138</ele>
        <time>2016-03-07T12:49:57Z</time>
      </trkpt>
      <trkpt lat="44.12668" lon="4.65282">
        <ele>138</ele>
        <time>2016-03-07T12:51:57Z</time>
      </trkpt>
      <trkpt lat="44.12684" lon="4.65291">
        <ele>137</ele>
        <time>2016-03-07T12:53:57Z</time>
      </trkpt>
      <trkpt lat="44.12703" lon="4.65297">
        <ele>137</ele>
        <time>2016-03-07T12:55:57Z</time>
      </trkpt>
      <trkpt lat="44.12722" lon="4.65298">
        <ele>138</ele>
        <time>2016-03-07T12:57:57Z</time>
      </trkpt>
      <trkpt lat="44.1276" lon="4.65306">
        <ele>138</ele>
        <time>2016-03-07T12:59:57Z</time>
      </trkpt>
      <trkpt lat="44.12782" lon="4.6531">
        <ele>139</ele>
        <time>2016-03-07T13:01:57Z</time>
      </trkpt>
      <trkpt lat="44.128" lon="4.65315">
        <ele>139</ele>
        <time>2016-03-07T13:03:57Z</time>
      </trkpt>
      <trkpt lat="44.12818" lon="4.65321">
        <ele>138</ele>
        <time>2016-03-07T13:05:57Z</time>
      </trkpt>
      <trkpt lat="44.12831" lon="4.65329">
        <ele>137</ele>
        <time>2016-03-07T13:07:57Z</time>
      </trkpt>
      <trkpt lat="44.12834" lon="4.6533">
        <ele>137</ele>
        <time>2016-03-07T13:09:57Z</time>
      </trkpt>
      <trkpt lat="44.12835" lon="4.65329">
        <ele>137</ele>
        <time>2016-03-07T13:11:57Z</time>
      </trkpt>
      <trkpt lat="44.12835" lon="4.65329">
        <ele>137</ele>
        <time>2016-03-07T13:13:57Z</time>
      </trkpt>
      <trkpt lat="44.12834" lon="4.65329">
        <ele>137</ele>
        <time>2016-03-07T13:15:57Z</time>
      </trkpt>
      <trkpt lat="44.12835" lon="4.65329">
        <ele>137</ele>
        <time>2016-03-07T13:17:57Z</time>
      </trkpt>
      <trkpt lat="44.12834" lon="4.6533">
        <ele>137</ele>
        <time>2016-03-07T13:19:57Z</time>
      </trkpt>
      <trkpt lat="44.12835" lon="4.65331">
        <ele>137</ele>
        <time>2016-03-07T13:21:57Z</time>
      </trkpt>
      <trkpt lat="44.12836" lon="4.65331">
        <ele>137</ele>
        <time>2016-03-07T13:23:57Z</time>
      </trkpt>
      <trkpt lat="44.12835" lon="4.65331">
        <ele>137</ele>
        <time>2016-03-07T13:25:57Z</time>
      </trkpt>
      <trkpt lat="44.12834" lon="4.65332">
        <ele>136</ele>
        <time>2016-03-07T13:27:57Z</time>
      </trkpt>
      <trkpt lat="44.12835" lon="4.65333">
        <ele>136</ele>
        <time>2016-03-07T13:29:57Z</time>
      </trkpt>
      <trkpt lat="44.12834" lon="4.65333">
        <ele>136</ele>
        <time>2016-03-07T13:31:57Z</time>
      </trkpt>
      <trkpt lat="44.12835" lon="4.65333">
        <ele>136</ele>
        <time>2016-03-07T13:33:57Z</time>
      </trkpt>
      <trkpt lat="44.12834" lon="4.65333">
        <ele>136</ele>
        <time>2016-03-07T13:35:57Z</time>
      </trkpt>
      <trkpt lat="44.12833" lon="4.65333">
        <ele>136</ele>
        <time>2016-03-07T13:37:57Z</time>
      </trkpt>
      <trkpt lat="44.12832" lon="4.65335">
        <ele>136</ele>
        <time>2016-03-07T13:39:57Z</time>
      </trkpt>
      <trkpt lat="44.1283" lon="4.65334">
        <ele>136</ele>
        <time>2016-03-07T13:41:57Z</time>
      </trkpt>
      <trkpt lat="44.12829" lon="4.65333">
        <ele>136</ele>
        <time>2016-03-07T13:43:57Z</time>
      </trkpt>
      <trkpt lat="44.12829" lon="4.65333">
        <ele>136</ele>
        <time>2016-03-07T13:45:57Z</time>
      </trkpt>
      <trkpt lat="44.12829" lon="4.65334">
        <ele>136</ele>
        <time>2016-03-07T13:47:57Z</time>
      </trkpt>
      <trkpt lat="44.12828" lon="4.65334">
        <ele>136</ele>
        <time>2016-03-07T13:49:57Z</time>
      </trkpt>
      <trkpt lat="44.1283" lon="4.65335">
        <ele>135</ele>
        <time>2016-03-07T13:51:57Z</time>
      </trkpt>
      <trkpt lat="44.12836" lon="4.65336">
        <ele>135</ele>
        <time>2016-03-07T13:53:57Z</time>
      </trkpt>
      <trkpt lat="44.12849" lon="4.65343">
        <ele>134</ele>
        <time>2016-03-07T13:55:57Z</time>
      </trkpt>
      <trkpt lat="44.12874" lon="4.65354">
        <ele>133</ele>
        <time>2016-03-07T13:57:57Z</time>
      </trkpt>
      <trkpt lat="44.12898" lon="4.65359">
        <ele>133</ele>
        <time>2016-03-07T13:59:57Z</time>
      </trkpt>
      <trkpt lat="44.12933" lon="4.65364">
        <ele>134</ele>
        <time>2016-03-07T14:01:57Z</time>
      </trkpt>
      <trkpt lat="44.12946" lon="4.65368">
        <ele>134</ele>
        <time>2016-03-07T14:03:57Z</time>
      </trkpt>
      <trkpt lat="44.12964" lon="4.65375">
        <ele>135</ele>
        <time>2016-03-07T14:05:57Z</time>
      </trkpt>
      <trkpt lat="44.12986" lon="4.65386">
        <ele>134</ele>
        <time>2016-03-07T14:07:57Z</time>
      </trkpt>
      <trkpt lat="44.13005" lon="4.65398">
        <ele>134</ele>
        <time>2016-03-07T14:09:57Z</time>
      </trkpt>
      <trkpt lat="44.13011" lon="4.65401">
        <ele>134</ele>
        <time>2016-03-07T14:11:57Z</time>
      </trkpt>
      <trkpt lat="44.13029" lon="4.65414">
        <ele>133</ele>
        <time>2016-03-07T14:13:57Z</time>
      </trkpt>
      <trkpt lat="44.13038" lon="4.65419">
        <ele>133</ele>
        <time>2016-03-07T14:15:57Z</time>
      </trkpt>
      <trkpt lat="44.1305" lon="4.65429">
        <ele>133</ele>
        <time>2016-03-07T14:17:57Z</time>
      </trkpt>
      <trkpt lat="44.13054" lon="4.65433">
        <ele>132</ele>
        <time>2016-03-07T14:19:57Z</time>
      </trkpt>
      <trkpt lat="44.13071" lon="4.65447">
        <ele>132</ele>
        <time>2016-03-07T14:21:57Z</time>
      </trkpt>
      <trkpt lat="44.13095" lon="4.65465">
        <ele>132</ele>
        <time>2016-03-07T14:23:57Z</time>
      </trkpt>
      <trkpt lat="44.13124" lon="4.65483">
        <ele>133</ele>
        <time>2016-03-07T14:25:57Z</time>
      </trkpt>
      <trkpt lat="44.13151" lon="4.65502">
        <ele>132</ele>
        <time>2016-03-07T14:27:57Z</time>
      </trkpt>
      <trkpt lat="44.13162" lon="4.65506">
        <ele>132</ele>
        <time>2016-03-07T14:29:57Z</time>
      </trkpt>
      <trkpt lat="44.13169" lon="4.65508">
        <ele>133</ele>
        <time>2016-03-07T14:31:57Z</time>
      </trkpt>
      <trkpt lat="44.13213" lon="4.6552">
        <ele>133</ele>
        <time>2016-03-07T14:33:57Z</time>
      </trkpt>
      <trkpt lat="44.13237" lon="4.65527">
        <ele>133</ele>
        <time>2016-03-07T14:35:57Z</time>
      </trkpt>
      <trkpt lat="44.13257" lon="4.65532">
        <ele>132</ele>
        <time>2016-03-07T14:37:57Z</time>
      </trkpt>
      <trkpt lat="44.13261" lon="4.65525">
        <ele>134</ele>
        <time>2016-03-07T14:39:57Z</time>
      </trkpt>
      <trkpt lat="44.13262" lon="4.65523">
        <ele>134</ele>
        <time>2016-03-07T14:41:57Z</time>
      </trkpt>
      <trkpt lat="44.13265" lon="4.6552">
        <ele>135</ele>
        <time>2016-03-07T14:43:57Z</time>
      </trkpt>
      <trkpt lat="44.13272" lon="4.65516">
        <ele>135</ele>
        <time>2016-03-07T14:45:57Z</time>
      </trkpt>
      <trkpt lat="44.13276" lon="4.65514">
        <ele>136</ele>
        <time>2016-03-07T14:47:57Z</time>
      </trkpt>
      <trkpt lat="44.13282" lon="4.65513">
        <ele>136</ele>
        <time>2016-03-07T14:49:57Z</time>
      </trkpt>
      <trkpt lat="44.13286" lon="4.65511">
        <ele>136</ele>
        <time>2016-03-07T14:51:57Z</time>
      </trkpt>
      <trkpt lat="44.13294" lon="4.65505">
        <ele>137</ele>
        <time>2016-03-07T14:53:57Z</time>
      </trkpt>
      <trkpt lat="44.13303" lon="4.65501">
        <ele>138</ele>
        <time>2016-03-07T14:55:57Z</time>
      </trkpt>
      <trkpt lat="44.13317" lon="4.6549">
        <ele>142</ele>
        <time>2016-03-07T14:57:57Z</time>
      </trkpt>
      <trkpt lat="44.13325" lon="4.65485">
        <ele>144</ele>
        <time>2016-03-07T14:59:57Z</time>
      </trkpt>
      <trkpt lat="44.13332" lon="4.65481">
        <ele>145</ele>
        <time>2016-03-07T15:01:57Z</time>
      </trkpt>
      <trkpt lat="44.13334" lon="4.65478">
        <ele>146</ele>
        <time>2016-03-07T15:03:57Z</time>
      </trkpt>
      <trkpt lat="44.13348" lon="4.6547">
        <ele>148</ele>
        <time>2016-03-07T15:05:57Z</time>
      </trkpt>
      <trkpt lat="44.1335" lon="4.65469">
        <ele>148</ele>
        <time>2016-03-07T15:07:57Z</time>
      </trkpt>
      <trkpt lat="44.13353" lon="4.65467">
        <ele>148</ele>
        <time>2016-03-07T15:09:57Z</time>
      </trkpt>
      <trkpt lat="44.13358" lon="4.65463">
        <ele>149</ele>
        <time>2016-03-07T15:11:57Z</time>
      </trkpt>
      <trkpt lat="44.13361" lon="4.65461">
        <ele>150</ele>
        <time>2016-03-07T15:13:57Z</time>
      </trkpt>
      <trkpt lat="44.13373" lon="4.65453">
        <ele>152</ele>
        <time>2016-03-07T15:15:57Z</time>
      </trkpt>
      <trkpt lat="44.13393" lon="4.65437">
        <ele>155</ele>
        <time>2016-03-07T15:17:57Z</time>
      </trkpt>
      <trkpt lat="44.13396" lon="4.65434">
        <ele>156</ele>
        <time>2016-03-07T15:19:57Z</time>
      </trkpt>
      <trkpt lat="44.13403" lon="4.65429">
        <ele>157</ele>
        <time>2016-03-07T15:21:57Z</time>
      </trkpt>
      <trkpt lat="44.13409" lon="4.65423">
        <ele>159</ele>
        <time>2016-03-07T15:23:57Z</time>
      </trkpt>
      <trkpt lat="44.1342" lon="4.65414">
        <ele>160</ele>
        <time>2016-03-07T15:25:57Z</time>
      </trkpt>
      <trkpt lat="44.13425" lon="4.65411">
        <ele>160</ele>
        <time>2016-03-07T15:27:57Z</time>
      </trkpt>
      <trkpt lat="44.13427" lon="4.65408">
        <ele>161</ele>
        <time>2016-03-07T15:29:57Z</time>
      </trkpt>
      <trkpt lat="44.13428" lon="4.65406">
        <ele>161</ele>
        <time>2016-03-07T15:31:57Z</time>
      </trkpt>
      <trkpt lat="44.13433" lon="4.65401">
        <ele>161</ele>
        <time>2016-03-07T15:33:57Z</time>
      </trkpt>
      <trkpt lat="44.13446" lon="4.65385">
        <ele>163</ele>
        <time>2016-03-07T15:35:57Z</time>
      </trkpt>
      <trkpt lat="44.13448" lon="4.65384">
        <ele>163</ele>
        <time>2016-03-07T15:37:57Z</time>
      </trkpt>
      <trkpt lat="44.13454" lon="4.65373">
        <ele>164</ele>
        <time>2016-03-07T15:39:57Z</time>
      </trkpt>
      <trkpt lat="44.13458" lon="4.6537">
        <ele>164</ele>
        <time>2016-03-07T15:41:57Z</time>
      </trkpt>
      <trkpt lat="44.13463" lon="4.65361">
        <ele>165</ele>
        <time>2016-03-07T15:43:57Z</time>
      </trkpt>
      <trkpt lat="44.13465" lon="4.65356">
        <ele>166</ele>
        <time>2016-03-07T15:45:57Z</time>
      </trkpt>
      <trkpt lat="44.1347" lon="4.6535">
        <ele>166</ele>
        <time>2016-03-07T15:47:57Z</time>
      </trkpt>
      <trkpt lat="44.13472" lon="4.65346">
        <ele>166</ele>
        <time>2016-03-07T15:49:57Z</time>
      </trkpt>
      <trkpt lat="44.13474" lon="4.65334">
        <ele>169</ele>
        <time>2016-03-07T15:51:57Z</time>
      </trkpt>
      <trkpt lat="44.13477" lon="4.65328">
        <ele>169</ele>
        <time>2016-03-07T15:53:57Z</time>
      </trkpt>
      <trkpt lat="44.1348" lon="4.65317">
        <ele>170</ele>
        <time>2016-03-07T15:55:57Z</time>
      </trkpt>
      <trkpt lat="44.13481" lon="4.65309">
        <ele>171</ele>
        <time>2016-03-07T15:57:57Z</time>
      </trkpt>
      <trkpt lat="44.13482" lon="4.65302">
        <ele>171</ele>
        <time>2016-03-07T15:59:57Z</time>
      </trkpt>
      <trkpt lat="44.13482" lon="4.65294">
        <ele>173</ele>
        <time>2016-03-07T16:01:57Z</time>
      </trkpt>
      <trkpt lat="44.13484" lon="4.65286">
        <ele>173</ele>
        <time>2016-03-07T16:03:57Z</time>
      </trkpt>
      <trkpt lat="44.13485" lon="4.65279">
        <ele>174</ele>
        <time>2016-03-07T16:05:57Z</time>
      </trkpt>
      <trkpt lat="44.13488" lon="4.65273">
        <ele>174</ele>
        <time>2016-03-07T16:07:57Z</time>
      </trkpt>
      <trkpt lat="44.13489" lon="4.65265">
        <ele>174</ele>
        <time>2016-03-07T16:09:57Z</time>
      </trkpt>
      <trkpt lat="44.13489" lon="4.65259">
        <ele>175</ele>
        <time>2016-03-07T16:11:57Z</time>
      </trkpt>
      <trkpt lat="44.13489" lon="4.65257">
        <ele>176</ele>
        <time>2016-03-07T16:13:57Z</time>
      </trkpt>
      <trkpt lat="44.13489" lon="4.65252">
        <ele>176</ele>
        <time>2016-03-07T16:15:57Z</time>
      </trkpt>
      <trkpt lat="44.13491" lon="4.65241">
        <ele>177</ele>
        <time>2016-03-07T16:17:57Z</time>
      </trkpt>
      <trkpt lat="44.13491" lon="4.65234">
        <ele>178</ele>
        <time>2016-03-07T16:19:57Z</time>
      </trkpt>
      <trkpt lat="44.13492" lon="4.65228">
        <ele>178</ele>
        <time>2016-03-07T16:21:57Z</time>
      </trkpt>
      <trkpt lat="44.13492" lon="4.65226">
        <ele>178</ele>
        <time>2016-03-07T16:23:57Z</time>
      </trkpt>
      <trkpt lat="44.1349" lon="4.65211">
        <ele>181</ele>
        <time>2016-03-07T16:25:57Z</time>
      </trkpt>
      <trkpt lat="44.13486" lon="4.65199">
        <ele>184</ele>
        <time>2016-03-07T16:27:57Z</time>
      </trkpt>
      <trkpt lat="44.13481" lon="4.65188">
        <ele>188</ele>
        <time>2016-03-07T16:29:57Z</time>
      </trkpt>
      <trkpt lat="44.13476" lon="4.65179">
        <ele>190</ele>
        <time>2016-03-07T16:31:57Z</time>
      </trkpt>
      <trkpt lat="44.13473" lon="4.65174">
        <ele>192</ele>
        <time>2016-03-07T16:33:57Z</time>
      </trkpt>
      <trkpt lat="44.13464" lon="4.65161">
        <ele>197</ele>
        <time>2016-03-07T16:35:57Z</time>
      </trkpt>
      <trkpt lat="44.13453" lon="4.65152">
        <ele>201</ele>
        <time>2016-03-07T16:37:57Z</time>
      </trkpt>
      <trkpt lat="44.13448" lon="4.65147">
        <ele>203</ele>
        <time>2016-03-07T16:39:57Z</time>
      </trkpt>
      <trkpt lat="44.13445" lon="4.65145">
        <ele>205</ele>
        <time>2016-03-07T16:41:57Z</time>
      </trkpt>
      <trkpt lat="44.13444" lon="4.65144">
        <ele>205</ele>
        <time>2016-03-07T16:43:57Z</time>
      </trkpt>
      <trkpt lat="44.13441" lon="4.65144">
        <ele>206</ele>
        <time>2016-03-07T16:45:57Z</time>
      </trkpt>
      <trkpt lat="44.13441" lon="4.65144">
        <ele>206</ele>
        <time>2016-03-07T16:47:57Z</time>
      </trkpt>
      <trkpt lat="44.13433" lon="4.65144">
        <ele>208</ele>
        <time>2016-03-07T16:49:57Z</time>
      </trkpt>
      <trkpt lat="44.1343" lon="4.65139">
        <ele>209</ele>
        <time>2016-03-07T16:51:57Z</time>
      </trkpt>
      <trkpt lat="44.13431" lon="4.65139">
        <ele>209</ele>
        <time>2016-03-07T16:53:57Z</time>
      </trkpt>
      <trkpt lat="44.13428" lon="4.65139">
        <ele>210</ele>
        <time>2016-03-07T16:55:57Z</time>
      </trkpt>
      <trkpt lat="44.13426" lon="4.65139">
        <ele>210</ele>
        <time>2016-03-07T16:57:57Z</time>
      </trkpt>
      <trkpt lat="44.13427" lon="4.65139">
        <ele>210</ele>
        <time>2016-03-07T16:59:57Z</time>
      </trkpt>
      <trkpt lat="44.13427" lon="4.65139">
        <ele>210</ele>
        <time>2016-03-07T17:01:57Z</time>
      </trkpt>
      <trkpt lat="44.13428" lon="4.65139">
        <ele>210</ele>
        <time>2016-03-07T17:03:57Z</time>
      </trkpt>
      <trkpt lat="44.13432" lon="4.65136">
        <ele>209</ele>
        <time>2016-03-07T17:05:57Z</time>
      </trkpt>
      <trkpt lat="44.13437" lon="4.65136">
        <ele>207</ele>
        <time>2016-03-07T17:07:57Z</time>
      </trkpt>
      <trkpt lat="44.13439" lon="4.65135">
        <ele>207</ele>
        <time>2016-03-07T17:09:57Z</time>
      </trkpt>
      <trkpt lat="44.13439" lon="4.65134">
        <ele>207</ele>
        <time>2016-03-07T17:11:57Z</time>
      </trkpt>
      <trkpt lat="44.13439" lon="4.65134">
        <ele>207</ele>
        <time>2016-03-07T17:13:57Z</time>
      </trkpt>
      <trkpt lat="44.13435" lon="4.65135">
        <ele>208</ele>
        <time>2016-03-07T17:15:57Z</time>
      </trkpt>
      <trkpt lat="44.1343" lon="4.65137">
        <ele>209</ele>
        <time>2016-03-07T17:17:57Z</time>
      </trkpt>
      <trkpt lat="44.13427" lon="4.65136">
        <ele>210</ele>
        <time>2016-03-07T17:19:57Z</time>
      </trkpt>
      <trkpt lat="44.13427" lon="4.65136">
        <ele>210</ele>
        <time>2016-03-07T17:21:57Z</time>
      </trkpt>
      <trkpt lat="44.13427" lon="4.65136">
        <ele>210</ele>
        <time>2016-03-07T17:23:57Z</time>
      </trkpt>
      <trkpt lat="44.13425" lon="4.65136">
        <ele>211</ele>
        <time>2016-03-07T17:25:57Z</time>
      </trkpt>
      <trkpt lat="44.13422" lon="4.65136">
        <ele>212</ele>
        <time>2016-03-07T17:27:57Z</time>
      </trkpt>
      <trkpt lat="44.13419" lon="4.65134">
        <ele>212</ele>
        <time>2016-03-07T17:29:57Z</time>
      </trkpt>
      <trkpt lat="44.13416" lon="4.65133">
        <ele>213</ele>
        <time>2016-03-07T17:31:57Z</time>
      </trkpt>
      <trkpt lat="44.13414" lon="4.65133">
        <ele>213</ele>
        <time>2016-03-07T17:33:57Z</time>
      </trkpt>
      <trkpt lat="44.1341" lon="4.65133">
        <ele>214</ele>
        <time>2016-03-07T17:35:57Z</time>
      </trkpt>
      <trkpt lat="44.13408" lon="4.65133">
        <ele>214</ele>
        <time>2016-03-07T17:37:57Z</time>
      </trkpt>
      <trkpt lat="44.13405" lon="4.65133">
        <ele>214</ele>
        <time>2016-03-07T17:39:57Z</time>
      </trkpt>
      <trkpt lat="44.13403" lon="4.65132">
        <ele>214</ele>
        <time>2016-03-07T17:41:57Z</time>
      </trkpt>
      <trkpt lat="44.13398" lon="4.65128">
        <ele>215</ele>
        <time>2016-03-07T17:43:57Z</time>
      </trkpt>
      <trkpt lat="44.13396" lon="4.65127">
        <ele>215</ele>
        <time>2016-03-07T17:45:57Z</time>
      </trkpt>
      <trkpt lat="44.13396" lon="4.65126">
        <ele>215</ele>
        <time>2016-03-07T17:47:57Z</time>
      </trkpt>
      <trkpt lat="44.13392" lon="4.65127">
        <ele>215</ele>
        <time>2016-03-07T17:49:57Z</time>
      </trkpt>
      <trkpt lat="44.13383" lon="4.65126">
        <ele>216</ele>
        <time>2016-03-07T17:51:57Z</time>
      </trkpt>
      <trkpt lat="44.13374" lon="4.65126">
        <ele>217</ele>
        <time>2016-03-07T17:53:57Z</time>
      </trkpt>
      <trkpt lat="44.13373" lon="4.65127">
        <ele>217</ele>
        <time>2016-03-07T17:55:57Z</time>
      </trkpt>
      <trkpt lat="44.13367" lon="4.65128">
        <ele>217</ele>
        <time>2016-03-07T17:57:57Z</time>
      </trkpt>
      <trkpt lat="44.13363" lon="4.65126">
        <ele>218</ele>
        <time>2016-03-07T17:59:57Z</time>
      </trkpt>
      <trkpt lat="44.13361" lon="4.65125">
        <ele>218</ele>
        <time>2016-03-07T18:01:57Z</time>
      </trkpt>
      <trkpt lat="44.13356" lon="4.6512">
        <ele>218</ele>
        <time>2016-03-07T18:03:57Z</time>
      </trkpt>
      <trkpt lat="44.13349" lon="4.65117">
        <ele>219</ele>
        <time>2016-03-07T18:05:57Z</time>
      </trkpt>
      <trkpt lat="44.13346" lon="4.65112">
        <ele>219</ele>
        <time>2016-03-07T18:07:57Z</time>
      </trkpt>
      <trkpt lat="44.13346" lon="4.65106">
        <ele>219</ele>
        <time>2016-03-07T18:09:57Z</time>
      </trkpt>
      <trkpt lat="44.13345" lon="4.65092">
        <ele>218</ele>
        <time>2016-03-07T18:11:57Z</time>
      </trkpt>
      <trkpt lat="44.13331" lon="4.65076">
        <ele>219</ele>
        <time>2016-03-07T18:13:57Z</time>
      </trkpt>
      <trkpt lat="44.13328" lon="4.65073">
        <ele>219</ele>
        <time>2016-03-07T18:15:57Z</time>
      </trkpt>
      <trkpt lat="44.13321" lon="4.6507">
        <ele>219</ele>
        <time>2016-03-07T18:17:57Z</time>
      </trkpt>
      <trkpt lat="44.13311" lon="4.65075">
        <ele>219</ele>
        <time>2016-03-07T18:19:57Z</time>
      </trkpt>
      <trkpt lat="44.13308" lon="4.65074">
        <ele>219</ele>
        <time>2016-03-07T18:21:57Z</time>
      </trkpt>
      <trkpt lat="44.13301" lon="4.65071">
        <ele>219</ele>
        <time>2016-03-07T18:23:57Z</time>
      </trkpt>
      <trkpt lat="44.13291" lon="4.65068">
        <ele>220</ele>
        <time>2016-03-07T18:25:57Z</time>
      </trkpt>
      <trkpt lat="44.13287" lon="4.65064">
        <ele>220</ele>
        <time>2016-03-07T18:27:57Z</time>
      </trkpt>
      <trkpt lat="44.13283" lon="4.65062">
        <ele>220</ele>
        <time>2016-03-07T18:29:57Z</time>
      </trkpt>
      <trkpt lat="44.13271" lon="4.6506">
        <ele>220</ele>
        <time>2016-03-07T18:31:57Z</time>
      </trkpt>
      <trkpt lat="44.1326" lon="4.65055">
        <ele>220</ele>
        <time>2016-03-07T18:33:57Z</time>
      </trkpt>
      <trkpt lat="44.13248" lon="4.6506">
        <ele>220</ele>
        <time>2016-03-07T18:35:57Z</time>
      </trkpt>
      <trkpt lat="44.13244" lon="4.65068">
        <ele>221</ele>
        <time>2016-03-07T18:37:57Z</time>
      </trkpt>
      <trkpt lat="44.13243" lon="4.65069">
        <ele>221</ele>
        <time>2016-03-07T18:39:57Z</time>
      </trkpt>
      <trkpt lat="44.13237" lon="4.65066">
        <ele>221</ele>
        <time>2016-03-07T18:41:57Z</time>
      </trkpt>
      <trkpt lat="44.13234" lon="4.65064">
        <ele>221</ele>
        <time>2016-03-07T18:43:57Z</time>
      </trkpt>
      <trkpt lat="44.13233" lon="4.65064">
        <ele>221</ele>
        <time>2016-03-07T18:45:57Z</time>
      </trkpt>
      <trkpt lat="44.13227" lon="4.65067">
        <ele>221</ele>
        <time>2016-03-07T18:47:57Z</time>
      </trkpt>
      <trkpt lat="44.13218" lon="4.65064">
        <ele>221</ele>
        <time>2016-03-07T18:49:57Z</time>
      </trkpt>
      <trkpt lat="44.13211" lon="4.6507">
        <ele>221</ele>
        <time>2016-03-07T18:51:57Z</time>
      </trkpt>
      <trkpt lat="44.13199" lon="4.65066">
        <ele>221</ele>
        <time>2016-03-07T18:53:57Z</time>
      </trkpt>
      <trkpt lat="44.13192" lon="4.65065">
        <ele>221</ele>
        <time>2016-03-07T18:55:57Z</time>
      </trkpt>
      <trkpt lat="44.13186" lon="4.65067">
        <ele>222</ele>
        <time>2016-03-07T18:57:57Z</time>
      </trkpt>
      <trkpt lat="44.13167" lon="4.65061">
        <ele>222</ele>
        <time>2016-03-07T18:59:57Z</time>
      </trkpt>
      <trkpt lat="44.13165" lon="4.65061">
        <ele>222</ele>
        <time>2016-03-07T19:01:57Z</time>
      </trkpt>
      <trkpt lat="44.13158" lon="4.65065">
        <ele>222</ele>
        <time>2016-03-07T19:03:57Z</time>
      </trkpt>
      <trkpt lat="44.13146" lon="4.65076">
        <ele>222</ele>
        <time>2016-03-07T19:05:57Z</time>
      </trkpt>
      <trkpt lat="44.13134" lon="4.65075">
        <ele>222</ele>
        <time>2016-03-07T19:07:57Z</time>
      </trkpt>
      <trkpt lat="44.13123" lon="4.65081">
        <ele>222</ele>
        <time>2016-03-07T19:09:57Z</time>
      </trkpt>
      <trkpt lat="44.1312" lon="4.65094">
        <ele>222</ele>
        <time>2016-03-07T19:11:57Z</time>
      </trkpt>
      <trkpt lat="44.1312" lon="4.651">
        <ele>221</ele>
        <time>2016-03-07T19:13:57Z</time>
      </trkpt>
      <trkpt lat="44.13123" lon="4.65113">
        <ele>221</ele>
        <time>2016-03-07T19:15:57Z</time>
      </trkpt>
      <trkpt lat="44.13124" lon="4.65117">
        <ele>221</ele>
        <time>2016-03-07T19:17:57Z</time>
      </trkpt>
      <trkpt lat="44.13135" lon="4.65139">
        <ele>221</ele>
        <time>2016-03-07T19:19:57Z</time>
      </trkpt>
      <trkpt lat="44.1314" lon="4.65162">
        <ele>221</ele>
        <time>2016-03-07T19:21:57Z</time>
      </trkpt>
      <trkpt lat="44.13138" lon="4.65169">
        <ele>220</ele>
        <time>2016-03-07T19:23:57Z</time>
      </trkpt>
      <trkpt lat="44.13134" lon="4.65177">
        <ele>218</ele>
        <time>2016-03-07T19:25:57Z</time>
      </trkpt>
      <trkpt lat="44.13125" lon="4.65185">
        <ele>216</ele>
        <time>2016-03-07T19:27:57Z</time>
      </trkpt>
      <trkpt lat="44.13123" lon="4.65185">
        <ele>215</ele>
        <time>2016-03-07T19:29:57Z</time>
      </trkpt>
      <trkpt lat="44.13118" lon="4.65184">
        <ele>215</ele>
        <time>2016-03-07T19:31:57Z</time>
      </trkpt>
      <trkpt lat="44.13112" lon="4.6518">
        <ele>215</ele>
        <time>2016-03-07T19:33:57Z</time>
      </trkpt>
      <trkpt lat="44.13112" lon="4.6518">
        <ele>215</ele>
        <time>2016-03-07T19:35:57Z</time>
      </trkpt>
      <trkpt lat="44.13111" lon="4.6518">
        <ele>215</ele>
        <time>2016-03-07T19:37:57Z</time>
      </trkpt>
      <trkpt lat="44.13097" lon="4.65164">
        <ele>217</ele>
        <time>2016-03-07T19:39:57Z</time>
      </trkpt>
      <trkpt lat="44.13095" lon="4.65164">
        <ele>216</ele>
        <time>2016-03-07T19:41:57Z</time>
      </trkpt>
      <trkpt lat="44.1309" lon="4.65163">
        <ele>216</ele>
        <time>2016-03-07T19:43:57Z</time>
      </trkpt>
      <trkpt lat="44.13082" lon="4.65154">
        <ele>216</ele>
        <time>2016-03-07T19:45:57Z</time>
      </trkpt>
      <trkpt lat="44.13079" lon="4.65144">
        <ele>216</ele>
        <time>2016-03-07T19:47:57Z</time>
      </trkpt>
      <trkpt lat="44.13066" lon="4.65143">
        <ele>214</ele>
        <time>2016-03-07T19:49:57Z</time>
      </trkpt>
      <trkpt lat="44.13054" lon="4.65137">
        <ele>214</ele>
        <time>2016-03-07T19:51:57Z</time>
      </trkpt>
      <trkpt lat="44.13049" lon="4.65133">
        <ele>214</ele>
        <time>2016-03-07T19:53:57Z</time>
      </trkpt>
      <trkpt lat="44.13048" lon="4.6513">
        <ele>214</ele>
        <time>2016-03-07T19:55:57Z</time>
      </trkpt>
      <trkpt lat="44.13047" lon="4.65126">
        <ele>214</ele>
        <time>2016-03-07T19:57:57Z</time>
      </trkpt>
      <trkpt lat="44.13048" lon="4.6512">
        <ele>215</ele>
        <time>2016-03-07T19:59:57Z</time>
      </trkpt>
      <trkpt lat="44.13056" lon="4.65112">
        <ele>217</ele>
        <time>2016-03-07T20:01:57Z</time>
      </trkpt>
      <trkpt lat="44.13053" lon="4.65101">
        <ele>219</ele>
        <time>2016-03-07T20:03:57Z</time>
      </trkpt>
      <trkpt lat="44.13055" lon="4.65086">
        <ele>221</ele>
        <time>2016-03-07T20:05:57Z</time>
      </trkpt>
      <trkpt lat="44.13052" lon="4.6507">
        <ele>221</ele>
        <time>2016-03-07T20:07:57Z</time>
      </trkpt>
      <trkpt lat="44.13051" lon="4.65065">
        <ele>221</ele>
        <time>2016-03-07T20:09:57Z</time>
      </trkpt>
      <trkpt lat="44.1305" lon="4.6505">
        <ele>222</ele>
        <time>2016-03-07T20:11:57Z</time>
      </trkpt>
      <trkpt lat="44.13044" lon="4.65041">
        <ele>222</ele>
        <time>2016-03-07T20:13:57Z</time>
      </trkpt>
      <trkpt lat="44.13037" lon="4.65027">
        <ele>222</ele>
        <time>2016-03-07T20:15:57Z</time>
      </trkpt>
      <trkpt lat="44.13036" lon="4.65023">
        <ele>222</ele>
        <time>2016-03-07T20:17:57Z</time>
      </trkpt>
      <trkpt lat="44.13037" lon="4.65019">
        <ele>222</ele>
        <time>2016-03-07T20:19:57Z</time>
      </trkpt>
      <trkpt lat="44.13043" lon="4.64997">
        <ele>222</ele>
        <time>2016-03-07T20:21:57Z</time>
      </trkpt>
      <trkpt lat="44.13055" lon="4.64978">
        <ele>222</ele>
        <time>2016-03-07T20:23:57Z</time>
      </trkpt>
      <trkpt lat="44.13056" lon="4.64966">
        <ele>222</ele>
        <time>2016-03-07T20:25:57Z</time>
      </trkpt>
      <trkpt lat="44.1305" lon="4.64956">
        <ele>222</ele>
        <time>2016-03-07T20:27:57Z</time>
      </trkpt>
      <trkpt lat="44.13047" lon="4.64943">
        <ele>221</ele>
        <time>2016-03-07T20:29:57Z</time>
      </trkpt>
      <trkpt lat="44.13043" lon="4.64927">
        <ele>221</ele>
        <time>2016-03-07T20:31:57Z</time>
      </trkpt>
      <trkpt lat="44.13044" lon="4.64919">
        <ele>221</ele>
        <time>2016-03-07T20:33:57Z</time>
      </trkpt>
      <trkpt lat="44.13042" lon="4.64911">
        <ele>221</ele>
        <time>2016-03-07T20:35:57Z</time>
      </trkpt>
      <trkpt lat="44.13043" lon="4.64896">
        <ele>221</ele>
        <time>2016-03-07T20:37:57Z</time>
      </trkpt>
      <trkpt lat="44.13038" lon="4.64881">
        <ele>220</ele>
        <time>2016-03-07T20:39:57Z</time>
      </trkpt>
      <trkpt lat="44.13037" lon="4.64877">
        <ele>220</ele>
        <time>2016-03-07T20:41:57Z</time>
      </trkpt>
      <trkpt lat="44.13035" lon="4.64864">
        <ele>220</ele>
        <time>2016-03-07T20:43:57Z</time>
      </trkpt>
      <trkpt lat="44.1303" lon="4.64847">
        <ele>220</ele>
        <time>2016-03-07T20:45:57Z</time>
      </trkpt>
      <trkpt lat="44.13026" lon="4.64839">
        <ele>220</ele>
        <time>2016-03-07T20:47:57Z</time>
      </trkpt>
      <trkpt lat="44.13023" lon="4.64836">
        <ele>220</ele>
        <time>2016-03-07T20:49:57Z</time>
      </trkpt>
      <trkpt lat="44.13022" lon="4.64833">
        <ele>220</ele>
        <time>2016-03-07T20:51:57Z</time>
      </trkpt>
      <trkpt lat="44.13017" lon="4.64825">
        <ele>219</ele>
        <time>2016-03-07T20:53:57Z</time>
      </trkpt>
      <trkpt lat="44.13012" lon="4.6482">
        <ele>219</ele>
        <time>2016-03-07T20:55:57Z</time>
      </trkpt>
      <trkpt lat="44.13009" lon="4.64818">
        <ele>219</ele>
        <time>2016-03-07T20:57:57Z</time>
      </trkpt>
      <trkpt lat="44.13" lon="4.6481">
        <ele>219</ele>
        <time>2016-03-07T20:59:57Z</time>
      </trkpt>
      <trkpt lat="44.12995" lon="4.64806">
        <ele>218</ele>
        <time>2016-03-07T21:01:57Z</time>
      </trkpt>
      <trkpt lat="44.12986" lon="4.64798">
        <ele>217</ele>
        <time>2016-03-07T21:03:57Z</time>
      </trkpt>
      <trkpt lat="44.12982" lon="4.64791">
        <ele>216</ele>
        <time>2016-03-07T21:05:57Z</time>
      </trkpt>
      <trkpt lat="44.12977" lon="4.64785">
        <ele>215</ele>
        <time>2016-03-07T21:07:57Z</time>
      </trkpt>
      <trkpt lat="44.12969" lon="4.64772">
        <ele>212</ele>
        <time>2016-03-07T21:09:57Z</time>
      </trkpt>
      <trkpt lat="44.12965" lon="4.6477">
        <ele>211</ele>
        <time>2016-03-07T21:11:57Z</time>
      </trkpt>
      <trkpt lat="44.12952" lon="4.64762">
        <ele>208</ele>
        <time>2016-03-07T21:13:57Z</time>
      </trkpt>
      <trkpt lat="44.1295" lon="4.64762">
        <ele>208</ele>
        <time>2016-03-07T21:15:57Z</time>
      </trkpt>
      <trkpt lat="44.12949" lon="4.64764">
        <ele>208</ele>
        <time>2016-03-07T21:17:57Z</time>
      </trkpt>
      <trkpt lat="44.12947" lon="4.64767">
        <ele>208</ele>
        <time>2016-03-07T21:19:57Z</time>
      </trkpt>
      <trkpt lat="44.12944" lon="4.64778">
        <ele>209</ele>
        <time>2016-03-07T21:21:57Z</time>
      </trkpt>
      <trkpt lat="44.12941" lon="4.64777">
        <ele>208</ele>
        <time>2016-03-07T21:23:57Z</time>
      </trkpt>
      <trkpt lat="44.12938" lon="4.64777">
        <ele>208</ele>
        <time>2016-03-07T21:25:57Z</time>
      </trkpt>
      <trkpt lat="44.12935" lon="4.64789">
        <ele>210</ele>
        <time>2016-03-07T21:27:57Z</time>
      </trkpt>
      <trkpt lat="44.12935" lon="4.64805">
        <ele>213</ele>
        <time>2016-03-07T21:29:57Z</time>
      </trkpt>
      <trkpt lat="44.12933" lon="4.64809">
        <ele>213</ele>
        <time>2016-03-07T21:31:57Z</time>
      </trkpt>
      <trkpt lat="44.12928" lon="4.64811">
        <ele>213</ele>
        <time>2016-03-07T21:33:57Z</time>
      </trkpt>
      <trkpt lat="44.12918" lon="4.64817">
        <ele>214</ele>
        <time>2016-03-07T21:35:57Z</time>
      </trkpt>
      <trkpt lat="44.12911" lon="4.64817">
        <ele>213</ele>
        <time>2016-03-07T21:37:57Z</time>
      </trkpt>
      <trkpt lat="44.12908" lon="4.64819">
        <ele>213</ele>
        <time>2016-03-07T21:39:57Z</time>
      </trkpt>
      <trkpt lat="44.12901" lon="4.64821">
        <ele>213</ele>
        <time>2016-03-07T21:41:57Z</time>
      </trkpt>
      <trkpt lat="44.12893" lon="4.64812">
        <ele>210</ele>
        <time>2016-03-07T21:43:57Z</time>
      </trkpt>
      <trkpt lat="44.12892" lon="4.64812">
        <ele>210</ele>
        <time>2016-03-07T21:45:57Z</time>
      </trkpt>
      <trkpt lat="44.12886" lon="4.64812">
        <ele>209</ele>
        <time>2016-03-07T21:47:57Z</time>
      </trkpt>
      <trkpt lat="44.12879" lon="4.64816">
        <ele>209</ele>
        <time>2016-03-07T21:49:57Z</time>
      </trkpt>
      <trkpt lat="44.12874" lon="4.64818">
        <ele>209</ele>
        <time>2016-03-07T21:51:57Z</time>
      </trkpt>
      <trkpt lat="44.12869" lon="4.6482">
        <ele>209</ele>
        <time>2016-03-07T21:53:57Z</time>
      </trkpt>
      <trkpt lat="44.12869" lon="4.6482">
        <ele>209</ele>
        <time>2016-03-07T21:55:57Z</time>
      </trkpt>
      <trkpt lat="44.12864" lon="4.64822">
        <ele>209</ele>
        <time>2016-03-07T21:57:57Z</time>
      </trkpt>
      <trkpt lat="44.12849" lon="4.64829">
        <ele>209</ele>
        <time>2016-03-07T21:59:57Z</time>
      </trkpt>
      <trkpt lat="44.12838" lon="4.64836">
        <ele>209</ele>
        <time>2016-03-07T22:01:57Z</time>
      </trkpt>
      <trkpt lat="44.12836" lon="4.64837">
        <ele>209</ele>
        <time>2016-03-07T22:03:57Z</time>
      </trkpt>
      <trkpt lat="44.12827" lon="4.64848">
        <ele>210</ele>
        <time>2016-03-07T22:05:57Z</time>
      </trkpt>
      <trkpt lat="44.12827" lon="4.64852">
        <ele>211</ele>
        <time>2016-03-07T22:07:57Z</time>
      </trkpt>
      <trkpt lat="44.12826" lon="4.64857">
        <ele>212</ele>
        <time>2016-03-07T22:09:57Z</time>
      </trkpt>
      <trkpt lat="44.12823" lon="4.64863">
        <ele>213</ele>
        <time>2016-03-07T22:11:57Z</time>
      </trkpt>
      <trkpt lat="44.1282" lon="4.64869">
        <ele>214</ele>
        <time>2016-03-07T22:13:57Z</time>
      </trkpt>
      <trkpt lat="44.12814" lon="4.64873">
        <ele>214</ele>
        <time>2016-03-07T22:15:57Z</time>
      </trkpt>
      <trkpt lat="44.1281" lon="4.64876">
        <ele>215</ele>
        <time>2016-03-07T22:17:57Z</time>
      </trkpt>
      <trkpt lat="44.12809" lon="4.64882">
        <ele>215</ele>
        <time>2016-03-07T22:19:57Z</time>
      </trkpt>
      <trkpt lat="44.12815" lon="4.64882">
        <ele>215</ele>
        <time>2016-03-07T22:21:57Z</time>
      </trkpt>
      <trkpt lat="44.12817" lon="4.6489">
        <ele>216</ele>
        <time>2016-03-07T22:23:57Z</time>
      </trkpt>
      <trkpt lat="44.12819" lon="4.64893">
        <ele>217</ele>
        <time>2016-03-07T22:25:57Z</time>
      </trkpt>
      <trkpt lat="44.12821" lon="4.64897">
        <ele>217</ele>
        <time>2016-03-07T22:27:57Z</time>
      </trkpt>
      <trkpt lat="44.1282" lon="4.64898">
        <ele>217</ele>
        <time>2016-03-07T22:29:57Z</time>
      </trkpt>
      <trkpt lat="44.12816" lon="4.64905">
        <ele>218</ele>
        <time>2016-03-07T22:31:57Z</time>
      </trkpt>
      <trkpt lat="44.12814" lon="4.64909">
        <ele>219</ele>
        <time>2016-03-07T22:33:57Z</time>
      </trkpt>
      <trkpt lat="44.12804" lon="4.64913">
        <ele>220</ele>
        <time>2016-03-07T22:35:57Z</time>
      </trkpt>
      <trkpt lat="44.12796" lon="4.64914">
        <ele>220</ele>
        <time>2016-03-07T22:37:57Z</time>
      </trkpt>
      <trkpt lat="44.12795" lon="4.64914">
        <ele>220</ele>
        <time>2016-03-07T22:39:57Z</time>
      </trkpt>
      <trkpt lat="44.1279" lon="4.64917">
        <ele>220</ele>
        <time>2016-03-07T22:41:57Z</time>
      </trkpt>
      <trkpt lat="44.12783" lon="4.64926">
        <ele>220</ele>
        <time>2016-03-07T22:43:57Z</time>
      </trkpt>
      <trkpt lat="44.12776" lon="4.64932">
        <ele>221</ele>
        <time>2016-03-07T22:45:57Z</time>
      </trkpt>
      <trkpt lat="44.12773" lon="4.64931">
        <ele>221</ele>
        <time>2016-03-07T22:47:57Z</time>
      </trkpt>
      <trkpt lat="44.12762" lon="4.64932">
        <ele>221</ele>
        <time>2016-03-07T22:49:57Z</time>
      </trkpt>
      <trkpt lat="44.12757" lon="4.64934">
        <ele>221</ele>
        <time>2016-03-07T22:51:57Z</time>
      </trkpt>
      <trkpt lat="44.12754" lon="4.64936">
        <ele>221</ele>
        <time>2016-03-07T22:53:57Z</time>
      </trkpt>
      <trkpt lat="44.12744" lon="4.64935">
        <ele>221</ele>
        <time>2016-03-07T22:55:57Z</time>
      </trkpt>
      <trkpt lat="44.12736" lon="4.64929">
        <ele>221</ele>
        <time>2016-03-07T22:57:57Z</time>
      </trkpt>
      <trkpt lat="44.12736" lon="4.64928">
        <ele>221</ele>
        <time>2016-03-07T22:59:57Z</time>
      </trkpt>
      <trkpt lat="44.12735" lon="4.6492">
        <ele>220</ele>
        <time>2016-03-07T23:01:57Z</time>
      </trkpt>
      <trkpt lat="44.12731" lon="4.6491">
        <ele>220</ele>
        <time>2016-03-07T23:03:57Z</time>
      </trkpt>
      <trkpt lat="44.12728" lon="4.64904">
        <ele>220</ele>
        <time>2016-03-07T23:05:57Z</time>
      </trkpt>
      <trkpt lat="44.12723" lon="4.64902">
        <ele>220</ele>
        <time>2016-03-07T23:07:57Z</time>
      </trkpt>
      <trkpt lat="44.12721" lon="4.64901">
        <ele>220</ele>
        <time>2016-03-07T23:09:57Z</time>
      </trkpt>
      <trkpt lat="44.12717" lon="4.64899">
        <ele>220</ele>
        <time>2016-03-07T23:11:57Z</time>
      </trkpt>
      <trkpt lat="44.12712" lon="4.64895">
        <ele>220</ele>
        <time>2016-03-07T23:13:57Z</time>
      </trkpt>
      <trkpt lat="44.12706" lon="4.64896">
        <ele>220</ele>
        <time>2016-03-07T23:15:57Z</time>
      </trkpt>
      <trkpt lat="44.12704" lon="4.64896">
        <ele>220</ele>
        <time>2016-03-07T23:17:57Z</time>
      </trkpt>
      <trkpt lat="44.12682" lon="4.64888">
        <ele>221</ele>
        <time>2016-03-07T23:19:57Z</time>
      </trkpt>
      <trkpt lat="44.12681" lon="4.64884">
        <ele>220</ele>
        <time>2016-03-07T23:21:57Z</time>
      </trkpt>
      <trkpt lat="44.12668" lon="4.64874">
        <ele>221</ele>
        <time>2016-03-07T23:23:57Z</time>
      </trkpt>
      <trkpt lat="44.12661" lon="4.6487">
        <ele>221</ele>
        <time>2016-03-07T23:25:57Z</time>
      </trkpt>
      <trkpt lat="44.12652" lon="4.6486">
        <ele>221</ele>
        <time>2016-03-07T23:27:57Z</time>
      </trkpt>
      <trkpt lat="44.12651" lon="4.64856">
        <ele>221</ele>
        <time>2016-03-07T23:29:57Z</time>
      </trkpt>
      <trkpt lat="44.12648" lon="4.64847">
        <ele>221</ele>
        <time>2016-03-07T23:31:57Z</time>
      </trkpt>
      <trkpt lat="44.12641" lon="4.64837">
        <ele>221</ele>
        <time>2016-03-07T23:33:57Z</time>
      </trkpt>
      <trkpt lat="44.12639" lon="4.64834">
        <ele>221</ele>
        <time>2016-03-07T23:35:57Z</time>
      </trkpt>
      <trkpt lat="44.12626" lon="4.64832">
        <ele>222</ele>
        <time>2016-03-07T23:37:57Z</time>
      </trkpt>
      <trkpt lat="44.12621" lon="4.64825">
        <ele>221</ele>
        <time>2016-03-07T23:39:57Z</time>
      </trkpt>
      <trkpt lat="44.12619" lon="4.64819">
        <ele>221</ele>
        <time>2016-03-07T23:41:57Z</time>
      </trkpt>
      <trkpt lat="44.12617" lon="4.64817">
        <ele>221</ele>
        <time>2016-03-07T23:43:57Z</time>
      </trkpt>
      <trkpt lat="44.12615" lon="4.64811">
        <ele>220</ele>
        <time>2016-03-07T23:45:57Z</time>
      </trkpt>
      <trkpt lat="44.1261" lon="4.64808">
        <ele>220</ele>
        <time>2016-03-07T23:47:57Z</time>
      </trkpt>
      <trkpt lat="44.12608" lon="4.64805">
        <ele>220</ele>
        <time>2016-03-07T23:49:57Z</time>
      </trkpt>
      <trkpt lat="44.12601" lon="4.64799">
        <ele>220</ele>
        <time>2016-03-07T23:51:57Z</time>
      </trkpt>
      <trkpt lat="44.12589" lon="4.64791">
        <ele>220</ele>
        <time>2016-03-07T23:53:57Z</time>
      </trkpt>
      <trkpt lat="44.12582" lon="4.64783">
        <ele>219</ele>
        <time>2016-03-07T23:55:57Z</time>
      </trkpt>
      <trkpt lat="44.12579" lon="4.64775">
        <ele>219</ele>
        <time>2016-03-07T23:57:57Z</time>
      </trkpt>
      <trkpt lat="44.12576" lon="4.64772">
        <ele>218</ele>
        <time>2016-03-07T23:59:57Z</time>
      </trkpt>
      <trkpt lat="44.12574" lon="4.64771">
        <ele>218</ele>
        <time>2016-03-08T00:01:57Z</time>
      </trkpt>
      <trkpt lat="44.12565" lon="4.64768">
        <ele>219</ele>
        <time>2016-03-08T00:03:57Z</time>
      </trkpt>
      <trkpt lat="44.1256" lon="4.64764">
        <ele>218</ele>
        <time>2016-03-08T00:05:57Z</time>
      </trkpt>
      <trkpt lat="44.12555" lon="4.64754">
        <ele>218</ele>
        <time>2016-03-08T00:07:57Z</time>
      </trkpt>
      <trkpt lat="44.12552" lon="4.64752">
        <ele>218</ele>
        <time>2016-03-08T00:09:57Z</time>
      </trkpt>
      <trkpt lat="44.12542" lon="4.6474">
        <ele>218</ele>
        <time>2016-03-08T00:11:57Z</time>
      </trkpt>
      <trkpt lat="44.12541" lon="4.64739">
        <ele>218</ele>
        <time>2016-03-08T00:13:57Z</time>
      </trkpt>
      <trkpt lat="44.12539" lon="4.64739">
        <ele>218</ele>
        <time>2016-03-08T00:15:57Z</time>
      </trkpt>
      <trkpt lat="44.1254" lon="4.64739">
        <ele>218</ele>
        <time>2016-03-08T00:17:57Z</time>
      </trkpt>
      <trkpt lat="44.1254" lon="4.64738">
        <ele>218</ele>
        <time>2016-03-08T00:19:57Z</time>
      </trkpt>
      <trkpt lat="44.12538" lon="4.64735">
        <ele>218</ele>
        <time>2016-03-08T00:21:57Z</time>
      </trkpt>
      <trkpt lat="44.12535" lon="4.64733">
        <ele>218</ele>
        <time>2016-03-08T00:23:57Z</time>
      </trkpt>
      <trkpt lat="44.12529" lon="4.64729">
        <ele>218</ele>
        <time>2016-03-08T00:25:57Z</time>
      </trkpt>
      <trkpt lat="44.12525" lon="4.6473">
        <ele>219</ele>
        <time>2016-03-08T00:27:57Z</time>
      </trkpt>
      <trkpt lat="44.1252" lon="4.64729">
        <ele>219</ele>
        <time>2016-03-08T00:29:57Z</time>
      </trkpt>
      <trkpt lat="44.12519" lon="4.6473">
        <ele>219</ele>
        <time>2016-03-08T00:31:57Z</time>
      </trkpt>
      <trkpt lat="44.12518" lon="4.64731">
        <ele>219</ele>
        <time>2016-03-08T00:33:57Z</time>
      </trkpt>
      <trkpt lat="44.12516" lon="4.64732">
        <ele>219</ele>
        <time>2016-03-08T00:35:57Z</time>
      </trkpt>
      <trkpt lat="44.12512" lon="4.64731">
        <ele>220</ele>
        <time>2016-03-08T00:37:57Z</time>
      </trkpt>
      <trkpt lat="44.12503" lon="4.64732">
        <ele>220</ele>
        <time>2016-03-08T00:39:57Z</time>
      </trkpt>
      <trkpt lat="44.12501" lon="4.64731">
        <ele>221</ele>
        <time>2016-03-08T00:41:57Z</time>
      </trkpt>
      <trkpt lat="44.12497" lon="4.64732">
        <ele>221</ele>
        <time>2016-03-08T00:43:57Z</time>
      </trkpt>
      <trkpt lat="44.12496" lon="4.64732">
        <ele>221</ele>
        <time>2016-03-08T00:45:57Z</time>
      </trkpt>
      <trkpt lat="44.1249" lon="4.64733">
        <ele>221</ele>
        <time>2016-03-08T00:47:57Z</time>
      </trkpt>
      <trkpt lat="44.1248" lon="4.64737">
        <ele>222</ele>
        <time>2016-03-08T00:49:57Z</time>
      </trkpt>
      <trkpt lat="44.12474" lon="4.64738">
        <ele>222</ele>
        <time>2016-03-08T00:51:57Z</time>
      </trkpt>
      <trkpt lat="44.12471" lon="4.6474">
        <ele>222</ele>
        <time>2016-03-08T00:53:57Z</time>
      </trkpt>
      <trkpt lat="44.12469" lon="4.6474">
        <ele>222</ele>
        <time>2016-03-08T00:55:57Z</time>
      </trkpt>
      <trkpt lat="44.12463" lon="4.6474">
        <ele>223</ele>
        <time>2016-03-08T00:57:57Z</time>
      </trkpt>
      <trkpt lat="44.12454" lon="4.64743">
        <ele>223</ele>
        <time>2016-03-08T00:59:57Z</time>
      </trkpt>
      <trkpt lat="44.12449" lon="4.64742">
        <ele>224</ele>
        <time>2016-03-08T01:01:57Z</time>
      </trkpt>
      <trkpt lat="44.12445" lon="4.64743">
        <ele>224</ele>
        <time>2016-03-08T01:03:57Z</time>
      </trkpt>
      <trkpt lat="44.12437" lon="4.64742">
        <ele>225</ele>
        <time>2016-03-08T01:05:57Z</time>
      </trkpt>
      <trkpt lat="44.12432" lon="4.64744">
        <ele>225</ele>
        <time>2016-03-08T01:07:57Z</time>
      </trkpt>
      <trkpt lat="44.12429" lon="4.64744">
        <ele>225</ele>
        <time>2016-03-08T01:09:57Z</time>
      </trkpt>
      <trkpt lat="44.12425" lon="4.64747">
        <ele>225</ele>
        <time>2016-03-08T01:11:57Z</time>
      </trkpt>
      <trkpt lat="44.12419" lon="4.64754">
        <ele>225</ele>
        <time>2016-03-08T01:13:57Z</time>
      </trkpt>
      <trkpt lat="44.12412" lon="4.64757">
        <ele>225</ele>
        <time>2016-03-08T01:15:57Z</time>
      </trkpt>
      <trkpt lat="44.12403" lon="4.64758">
        <ele>226</ele>
        <time>2016-03-08T01:17:57Z</time>
      </trkpt>
      <trkpt lat="44.124" lon="4.64755">
        <ele>226</ele>
        <time>2016-03-08T01:19:57Z</time>
      </trkpt>
      <trkpt lat="44.12399" lon="4.64753">
        <ele>226</ele>
        <time>2016-03-08T01:21:57Z</time>
      </trkpt>
      <trkpt lat="44.12393" lon="4.64752">
        <ele>227</ele>
        <time>2016-03-08T01:23:57Z</time>
      </trkpt>
      <trkpt lat="44.12386" lon="4.64754">
        <ele>228</ele>
        <time>2016-03-08T01:25:57Z</time>
      </trkpt>
      <trkpt lat="44.12379" lon="4.64762">
        <ele>228</ele>
        <time>2016-03-08T01:27:57Z</time>
      </trkpt>
      <trkpt lat="44.12372" lon="4.64765">
        <ele>228</ele>
        <time>2016-03-08T01:29:57Z</time>
      </trkpt>
      <trkpt lat="44.12366" lon="4.64767">
        <ele>229</ele>
        <time>2016-03-08T01:31:57Z</time>
      </trkpt>
      <trkpt lat="44.12361" lon="4.64766">
        <ele>229</ele>
        <time>2016-03-08T01:33:57Z</time>
      </trkpt>
      <trkpt lat="44.12357" lon="4.64765">
        <ele>230</ele>
        <time>2016-03-08T01:35:57Z</time>
      </trkpt>
      <trkpt lat="44.12352" lon="4.64767">
        <ele>230</ele>
        <time>2016-03-08T01:37:57Z</time>
      </trkpt>
      <trkpt lat="44.12349" lon="4.64766">
        <ele>230</ele>
        <time>2016-03-08T01:39:57Z</time>
      </trkpt>
      <trkpt lat="44.12335" lon="4.64771">
        <ele>231</ele>
        <time>2016-03-08T01:41:57Z</time>
      </trkpt>
      <trkpt lat="44.12329" lon="4.64774">
        <ele>231</ele>
        <time>2016-03-08T01:43:57Z</time>
      </trkpt>
      <trkpt lat="44.12323" lon="4.64776">
        <ele>231</ele>
        <time>2016-03-08T01:45:57Z</time>
      </trkpt>
      <trkpt lat="44.12314" lon="4.64775">
        <ele>231</ele>
        <time>2016-03-08T01:47:57Z</time>
      </trkpt>
      <trkpt lat="44.12312" lon="4.64776">
        <ele>231</ele>
        <time>2016-03-08T01:49:57Z</time>
      </trkpt>
      <trkpt lat="44.1231" lon="4.64773">
        <ele>231</ele>
        <time>2016-03-08T01:51:57Z</time>
      </trkpt>
      <trkpt lat="44.12307" lon="4.64765">
        <ele>232</ele>
        <time>2016-03-08T01:53:57Z</time>
      </trkpt>
      <trkpt lat="44.12306" lon="4.64764">
        <ele>232</ele>
        <time>2016-03-08T01:55:57Z</time>
      </trkpt>
      <trkpt lat="44.12303" lon="4.64764">
        <ele>232</ele>
        <time>2016-03-08T01:57:57Z</time>
      </trkpt>
      <trkpt lat="44.12296" lon="4.64765">
        <ele>232</ele>
        <time>2016-03-08T01:59:57Z</time>
      </trkpt>
      <trkpt lat="44.12294" lon="4.64764">
        <ele>232</ele>
        <time>2016-03-08T02:01:57Z</time>
      </trkpt>
      <trkpt lat="44.12288" lon="4.64762">
        <ele>233</ele>
        <time>2016-03-08T02:03:57Z</time>
      </trkpt>
      <trkpt lat="44.12284" lon="4.64759">
        <ele>233</ele>
        <time>2016-03-08T02:05:57Z</time>
      </trkpt>
      <trkpt lat="44.12273" lon="4.64756">
        <ele>234</ele>
        <time>2016-03-08T02:07:57Z</time>
      </trkpt>
      <trkpt lat="44.12262" lon="4.64749">
        <ele>236</ele>
        <time>2016-03-08T02:09:57Z</time>
      </trkpt>
      <trkpt lat="44.12259" lon="4.64749">
        <ele>236</ele>
        <time>2016-03-08T02:11:57Z</time>
      </trkpt>
      <trkpt lat="44.12249" lon="4.64746">
        <ele>236</ele>
        <time>2016-03-08T02:13:57Z</time>
      </trkpt>
      <trkpt lat="44.12237" lon="4.64744">
        <ele>236</ele>
        <time>2016-03-08T02:15:57Z</time>
      </trkpt>
      <trkpt lat="44.12235" lon="4.64743">
        <ele>236</ele>
        <time>2016-03-08T02:17:57Z</time>
      </trkpt>
      <trkpt lat="44.12231" lon="4.6474">
        <ele>236</ele>
        <time>2016-03-08T02:19:57Z</time>
      </trkpt>
      <trkpt lat="44.1223" lon="4.64739">
        <ele>237</ele>
        <time>2016-03-08T02:21:57Z</time>
      </trkpt>
      <trkpt lat="44.12229" lon="4.64734">
        <ele>237</ele>
        <time>2016-03-08T02:23:57Z</time>
      </trkpt>
      <trkpt lat="44.1223" lon="4.64732">
        <ele>237</ele>
        <time>2016-03-08T02:25:57Z</time>
      </trkpt>
      <trkpt lat="44.12229" lon="4.64727">
        <ele>238</ele>
        <time>2016-03-08T02:27:57Z</time>
      </trkpt>
      <trkpt lat="44.12226" lon="4.64723">
        <ele>238</ele>
        <time>2016-03-08T02:29:57Z</time>
      </trkpt>
      <trkpt lat="44.12218" lon="4.64712">
        <ele>240</ele>
        <time>2016-03-08T02:31:57Z</time>
      </trkpt>
      <trkpt lat="44.12217" lon="4.64709">
        <ele>240</ele>
        <time>2016-03-08T02:33:57Z</time>
      </trkpt>
      <trkpt lat="44.12217" lon="4.64703">
        <ele>241</ele>
        <time>2016-03-08T02:35:57Z</time>
      </trkpt>
      <trkpt lat="44.12215" lon="4.64695">
        <ele>242</ele>
        <time>2016-03-08T02:37:57Z</time>
      </trkpt>
      <trkpt lat="44.12213" lon="4.64694">
        <ele>242</ele>
        <time>2016-03-08T02:39:57Z</time>
      </trkpt>
      <trkpt lat="44.12211" lon="4.64692">
        <ele>242</ele>
        <time>2016-03-08T02:41:57Z</time>
      </trkpt>
      <trkpt lat="44.12204" lon="4.64686">
        <ele>243</ele>
        <time>2016-03-08T02:43:57Z</time>
      </trkpt>
      <trkpt lat="44.12203" lon="4.64684">
        <ele>244</ele>
        <time>2016-03-08T02:45:57Z</time>
      </trkpt>
      <trkpt lat="44.12196" lon="4.64679">
        <ele>245</ele>
        <time>2016-03-08T02:47:57Z</time>
      </trkpt>
      <trkpt lat="44.12195" lon="4.64678">
        <ele>245</ele>
        <time>2016-03-08T02:49:57Z</time>
      </trkpt>
      <trkpt lat="44.12191" lon="4.64675">
        <ele>246</ele>
        <time>2016-03-08T02:51:57Z</time>
      </trkpt>
      <trkpt lat="44.12185" lon="4.64668">
        <ele>247</ele>
        <time>2016-03-08T02:53:57Z</time>
      </trkpt>
      <trkpt lat="44.12178" lon="4.64664">
        <ele>248</ele>
        <time>2016-03-08T02:55:57Z</time>
      </trkpt>
      <trkpt lat="44.12172" lon="4.64662">
        <ele>248</ele>
        <time>2016-03-08T02:57:57Z</time>
      </trkpt>
      <trkpt lat="44.12169" lon="4.64661">
        <ele>249</ele>
        <time>2016-03-08T02:59:57Z</time>
      </trkpt>
      <trkpt lat="44.12162" lon="4.64658">
        <ele>249</ele>
        <time>2016-03-08T03:01:57Z</time>
      </trkpt>
      <trkpt lat="44.12159" lon="4.64656">
        <ele>249</ele>
        <time>2016-03-08T03:03:57Z</time>
      </trkpt>
      <trkpt lat="44.12156" lon="4.64654">
        <ele>249</ele>
        <time>2016-03-08T03:05:57Z</time>
      </trkpt>
      <trkpt lat="44.12146" lon="4.64639">
        <ele>250</ele>
        <time>2016-03-08T03:07:57Z</time>
      </trkpt>
      <trkpt lat="44.1214" lon="4.64633">
        <ele>251</ele>
        <time>2016-03-08T03:09:57Z</time>
      </trkpt>
      <trkpt lat="44.12138" lon="4.6463">
        <ele>251</ele>
        <time>2016-03-08T03:11:57Z</time>
      </trkpt>
      <trkpt lat="44.12137" lon="4.64625">
        <ele>252</ele>
        <time>2016-03-08T03:13:57Z</time>
      </trkpt>
      <trkpt lat="44.12136" lon="4.64624">
        <ele>252</ele>
        <time>2016-03-08T03:15:57Z</time>
      </trkpt>
      <trkpt lat="44.12134" lon="4.64618">
        <ele>253</ele>
        <time>2016-03-08T03:17:57Z</time>
      </trkpt>
      <trkpt lat="44.12134" lon="4.64613">
        <ele>254</ele>
        <time>2016-03-08T03:19:57Z</time>
      </trkpt>
      <trkpt lat="44.12133" lon="4.64611">
        <ele>254</ele>
        <time>2016-03-08T03:21:57Z</time>
      </trkpt>
      <trkpt lat="44.12125" lon="4.64603">
        <ele>255</ele>
        <time>2016-03-08T03:23:57Z</time>
      </trkpt>
      <trkpt lat="44.12124" lon="4.64602">
        <ele>255</ele>
        <time>2016-03-08T03:25:57Z</time>
      </trkpt>
      <trkpt lat="44.1212" lon="4.646">
        <ele>255</ele>
        <time>2016-03-08T03:27:57Z</time>
      </trkpt>
      <trkpt lat="44.12112" lon="4.64592">
        <ele>256</ele>
        <time>2016-03-08T03:29:57Z</time>
      </trkpt>
      <trkpt lat="44.12107" lon="4.6459">
        <ele>256</ele>
        <time>2016-03-08T03:31:57Z</time>
      </trkpt>
      <trkpt lat="44.12101" lon="4.64583">
        <ele>258</ele>
        <time>2016-03-08T03:33:57Z</time>
      </trkpt>
      <trkpt lat="44.12097" lon="4.6458">
        <ele>258</ele>
        <time>2016-03-08T03:35:57Z</time>
      </trkpt>
      <trkpt lat="44.12089" lon="4.64576">
        <ele>258</ele>
        <time>2016-03-08T03:37:57Z</time>
      </trkpt>
      <trkpt lat="44.12085" lon="4.64573">
        <ele>258</ele>
        <time>2016-03-08T03:39:57Z</time>
      </trkpt>
      <trkpt lat="44.12074" lon="4.64567">
        <ele>259</ele>
        <time>2016-03-08T03:41:57Z</time>
      </trkpt>
      <trkpt lat="44.12064" lon="4.64564">
        <ele>259</ele>
        <time>2016-03-08T03:43:57Z</time>
      </trkpt>
      <trkpt lat="44.12052" lon="4.64559">
        <ele>260</ele>
        <time>2016-03-08T03:45:57Z</time>
      </trkpt>
      <trkpt lat="44.12042" lon="4.64554">
        <ele>261</ele>
        <time>2016-03-08T03:47:57Z</time>
      </trkpt>
      <trkpt lat="44.12029" lon="4.6455">
        <ele>261</ele>
        <time>2016-03-08T03:49:57Z</time>
      </trkpt>
      <trkpt lat="44.12015" lon="4.64543">
        <ele>262</ele>
        <time>2016-03-08T03:51:57Z</time>
      </trkpt>
      <trkpt lat="44.12004" lon="4.64536">
        <ele>263</ele>
        <time>2016-03-08T03:53:57Z</time>
      </trkpt>
      <trkpt lat="44.11993" lon="4.64528">
        <ele>264</ele>
        <time>2016-03-08T03:55:57Z</time>
      </trkpt>
      <trkpt lat="44.11988" lon="4.6452">
        <ele>264</ele>
        <time>2016-03-08T03:57:57Z</time>
      </trkpt>
      <trkpt lat="44.11985" lon="4.64516">
        <ele>264</ele>
        <time>2016-03-08T03:59:57Z</time>
      </trkpt>
      <trkpt lat="44.11976" lon="4.64507">
        <ele>265</ele>
        <time>2016-03-08T04:01:57Z</time>
      </trkpt>
      <trkpt lat="44.11975" lon="4.64506">
        <ele>265</ele>
        <time>2016-03-08T04:03:57Z</time>
      </trkpt>
      <trkpt lat="44.11975" lon="4.64504">
        <ele>265</ele>
        <time>2016-03-08T04:05:57Z</time>
      </trkpt>
      <trkpt lat="44.11975" lon="4.64503">
        <ele>265</ele>
        <time>2016-03-08T04:07:57Z</time>
      </trkpt>
      <trkpt lat="44.11975" lon="4.64503">
        <ele>265</ele>
        <time>2016-03-08T04:09:57Z</time>
      </trkpt>
      <trkpt lat="44.11975" lon="4.64501">
        <ele>265</ele>
        <time>2016-03-08T04:11:57Z</time>
      </trkpt>
      <trkpt lat="44.11978" lon="4.64495">
        <ele>266</ele>
        <time>2016-03-08T04:13:57Z</time>
      </trkpt>
      <trkpt lat="44.11986" lon="4.64482">
        <ele>268</ele>
        <time>2016-03-08T04:15:57Z</time>
      </trkpt>
      <trkpt lat="44.11986" lon="4.64479">
        <ele>268</ele>
        <time>2016-03-08T04:17:57Z</time>
      </trkpt>
      <trkpt lat="44.11989" lon="4.64467">
        <ele>269</ele>
        <time>2016-03-08T04:19:57Z</time>
      </trkpt>
      <trkpt lat="44.1199" lon="4.64458">
        <ele>270</ele>
        <time>2016-03-08T04:21:57Z</time>
      </trkpt>
      <trkpt lat="44.11991" lon="4.64454">
        <ele>270</ele>
        <time>2016-03-08T04:23:57Z</time>
      </trkpt>
      <trkpt lat="44.12003" lon="4.64423">
        <ele>273</ele>
        <time>2016-03-08T04:25:57Z</time>
      </trkpt>
      <trkpt lat="44.12006" lon="4.64411">
        <ele>273</ele>
        <time>2016-03-08T04:27:57Z</time>
      </trkpt>
      <trkpt lat="44.1201" lon="4.64399">
        <ele>272</ele>
        <time>2016-03-08T04:29:57Z</time>
      </trkpt>
      <trkpt lat="44.1201" lon="4.64395">
        <ele>272</ele>
        <time>2016-03-08T04:31:57Z</time>
      </trkpt>
      <trkpt lat="44.1201" lon="4.64391">
        <ele>272</ele>
        <time>2016-03-08T04:33:57Z</time>
      </trkpt>
      <trkpt lat="44.12014" lon="4.64374">
        <ele>272</ele>
        <time>2016-03-08T04:35:57Z</time>
      </trkpt>
      <trkpt lat="44.12015" lon="4.64356">
        <ele>272</ele>
        <time>2016-03-08T04:37:57Z</time>
      </trkpt>
      <trkpt lat="44.1202" lon="4.64346">
        <ele>272</ele>
        <time>2016-03-08T04:39:57Z</time>
      </trkpt>
      <trkpt lat="44.1202" lon="4.64342">
        <ele>272</ele>
        <time>2016-03-08T04:41:57Z</time>
      </trkpt>
      <trkpt lat="44.12024" lon="4.6432">
        <ele>271</ele>
        <time>2016-03-08T04:43:57Z</time>
      </trkpt>
      <trkpt lat="44.12025" lon="4.64306">
        <ele>271</ele>
        <time>2016-03-08T04:45:57Z</time>
      </trkpt>
      <trkpt lat="44.12026" lon="4.6429">
        <ele>270</ele>
        <time>2016-03-08T04:47:57Z</time>
      </trkpt>
      <trkpt lat="44.12027" lon="4.64282">
        <ele>270</ele>
        <time>2016-03-08T04:49:57Z</time>
      </trkpt>
      <trkpt lat="44.12029" lon="4.6427">
        <ele>270</ele>
        <time>2016-03-08T04:51:57Z</time>
      </trkpt>
      <trkpt lat="44.12035" lon="4.64245">
        <ele>269</ele>
        <time>2016-03-08T04:53:57Z</time>
      </trkpt>
      <trkpt lat="44.12039" lon="4.64223">
        <ele>268</ele>
        <time>2016-03-08T04:55:57Z</time>
      </trkpt>
      <trkpt lat="44.12041" lon="4.64218">
        <ele>267</ele>
        <time>2016-03-08T04:57:57Z</time>
      </trkpt>
      <trkpt lat="44.12046" lon="4.64197">
        <ele>266</ele>
        <time>2016-03-08T04:59:57Z</time>
      </trkpt>
      <trkpt lat="44.12047" lon="4.64193">
        <ele>266</ele>
        <time>2016-03-08T05:01:57Z</time>
      </trkpt>
      <trkpt lat="44.12044" lon="4.64174">
        <ele>266</ele>
        <time>2016-03-08T05:03:57Z</time>
      </trkpt>
      <trkpt lat="44.12044" lon="4.64165">
        <ele>265</ele>
        <time>2016-03-08T05:05:57Z</time>
      </trkpt>
      <trkpt lat="44.12045" lon="4.64153">
        <ele>265</ele>
        <time>2016-03-08T05:07:57Z</time>
      </trkpt>
      <trkpt lat="44.12044" lon="4.64148">
        <ele>265</ele>
        <time>2016-03-08T05:09:57Z</time>
      </trkpt>
      <trkpt lat="44.12042" lon="4.6413">
        <ele>265</ele>
        <time>2016-03-08T05:11:57Z</time>
      </trkpt>
      <trkpt lat="44.12042" lon="4.64126">
        <ele>265</ele>
        <time>2016-03-08T05:13:57Z</time>
      </trkpt>
      <trkpt lat="44.12044" lon="4.64109">
        <ele>264</ele>
        <time>2016-03-08T05:15:57Z</time>
      </trkpt>
      <trkpt lat="44.12043" lon="4.64105">
        <ele>264</ele>
        <time>2016-03-08T05:17:57Z</time>
      </trkpt>
      <trkpt lat="44.12044" lon="4.64102">
        <ele>264</ele>
        <time>2016-03-08T05:19:57Z</time>
      </trkpt>
      <trkpt lat="44.12044" lon="4.64102">
        <ele>264</ele>
        <time>2016-03-08T05:21:57Z</time>
      </trkpt>
      <trkpt lat="44.12045" lon="4.64097">
        <ele>264</ele>
        <time>2016-03-08T05:23:57Z</time>
      </trkpt>
      <trkpt lat="44.12045" lon="4.64095">
        <ele>264</ele>
        <time>2016-03-08T05:25:57Z</time>
      </trkpt>
      <trkpt lat="44.12053" lon="4.64079">
        <ele>263</ele>
        <time>2016-03-08T05:27:57Z</time>
      </trkpt>
      <trkpt lat="44.12066" lon="4.64065">
        <ele>262</ele>
        <time>2016-03-08T05:29:57Z</time>
      </trkpt>
      <trkpt lat="44.12079" lon="4.64054">
        <ele>262</ele>
        <time>2016-03-08T05:31:57Z</time>
      </trkpt>
      <trkpt lat="44.12083" lon="4.64049">
        <ele>262</ele>
        <time>2016-03-08T05:33:57Z</time>
      </trkpt>
      <trkpt lat="44.12084" lon="4.6404">
        <ele>263</ele>
        <time>2016-03-08T05:35:57Z</time>
      </trkpt>
      <trkpt lat="44.12093" lon="4.6403">
        <ele>263</ele>
        <time>2016-03-08T05:37:57Z</time>
      </trkpt>
      <trkpt lat="44.12108" lon="4.64023">
        <ele>263</ele>
        <time>2016-03-08T05:39:57Z</time>
      </trkpt>
      <trkpt lat="44.12112" lon="4.6402">
        <ele>263</ele>
        <time>2016-03-08T05:41:57Z</time>
      </trkpt>
      <trkpt lat="44.12119" lon="4.64017">
        <ele>263</ele>
        <time>2016-03-08T05:43:57Z</time>
      </trkpt>
      <trkpt lat="44.12123" lon="4.64019">
        <ele>263</ele>
        <time>2016-03-08T05:45:57Z</time>
      </trkpt>
      <trkpt lat="44.1213" lon="4.64027">
        <ele>262</ele>
        <time>2016-03-08T05:47:57Z</time>
      </trkpt>
      <trkpt lat="44.12138" lon="4.64036">
        <ele>262</ele>
        <time>2016-03-08T05:49:57Z</time>
      </trkpt>
      <trkpt lat="44.12147" lon="4.64044">
        <ele>262</ele>
        <time>2016-03-08T05:51:57Z</time>
      </trkpt>
      <trkpt lat="44.12161" lon="4.64052">
        <ele>261</ele>
        <time>2016-03-08T05:53:57Z</time>
      </trkpt>
      <trkpt lat="44.12181" lon="4.64068">
        <ele>260</ele>
        <time>2016-03-08T05:55:57Z</time>
      </trkpt>
      <trkpt lat="44.122" lon="4.6408">
        <ele>259</ele>
        <time>2016-03-08T05:57:57Z</time>
      </trkpt>
      <trkpt lat="44.12211" lon="4.64086">
        <ele>258</ele>
        <time>2016-03-08T05:59:57Z</time>
      </trkpt>
      <trkpt lat="44.12218" lon="4.64087">
        <ele>257</ele>
        <time>2016-03-08T06:01:57Z</time>
      </trkpt>
      <trkpt lat="44.12222" lon="4.64089">
        <ele>257</ele>
        <time>2016-03-08T06:03:57Z</time>
      </trkpt>
      <trkpt lat="44.12231" lon="4.64095">
        <ele>256</ele>
        <time>2016-03-08T06:05:57Z</time>
      </trkpt>
      <trkpt lat="44.12253" lon="4.64102">
        <ele>254</ele>
        <time>2016-03-08T06:07:57Z</time>
      </trkpt>
      <trkpt lat="44.12259" lon="4.64104">
        <ele>254</ele>
        <time>2016-03-08T06:09:57Z</time>
      </trkpt>
      <trkpt lat="44.12265" lon="4.64106">
        <ele>254</ele>
        <time>2016-03-08T06:11:57Z</time>
      </trkpt>
      <trkpt lat="44.12271" lon="4.64107">
        <ele>254</ele>
        <time>2016-03-08T06:13:57Z</time>
      </trkpt>
      <trkpt lat="44.12284" lon="4.64109">
        <ele>254</ele>
        <time>2016-03-08T06:15:57Z</time>
      </trkpt>
      <trkpt lat="44.1229" lon="4.6411">
        <ele>254</ele>
        <time>2016-03-08T06:17:57Z</time>
      </trkpt>
      <trkpt lat="44.12307" lon="4.64116">
        <ele>253</ele>
        <time>2016-03-08T06:19:57Z</time>
      </trkpt>
      <trkpt lat="44.12325" lon="4.64125">
        <ele>252</ele>
        <time>2016-03-08T06:21:57Z</time>
      </trkpt>
      <trkpt lat="44.12337" lon="4.64128">
        <ele>251</ele>
        <time>2016-03-08T06:23:57Z</time>
      </trkpt>
      <trkpt lat="44.12354" lon="4.64127">
        <ele>252</ele>
        <time>2016-03-08T06:25:57Z</time>
      </trkpt>
      <trkpt lat="44.12362" lon="4.64133">
        <ele>252</ele>
        <time>2016-03-08T06:27:57Z</time>
      </trkpt>
      <trkpt lat="44.12372" lon="4.64139">
        <ele>251</ele>
        <time>2016-03-08T06:29:57Z</time>
      </trkpt>
      <trkpt lat="44.12387" lon="4.64147">
        <ele>251</ele>
        <time>2016-03-08T06:31:57Z</time>
      </trkpt>
      <trkpt lat="44.12392" lon="4.64148">
        <ele>251</ele>
        <time>2016-03-08T06:33:57Z</time>
      </trkpt>
      <trkpt lat="44.12403" lon="4.64151">
        <ele>252</ele>
        <time>2016-03-08T06:35:57Z</time>
      </trkpt>
      <trkpt lat="44.12416" lon="4.6416">
        <ele>252</ele>
        <time>2016-03-08T06:37:57Z</time>
      </trkpt>
      <trkpt lat="44.12425" lon="4.64167">
        <ele>251</ele>
        <time>2016-03-08T06:39:57Z</time>
      </trkpt>
      <trkpt lat="44.12431" lon="4.6417">
        <ele>251</ele>
        <time>2016-03-08T06:41:57Z</time>
      </trkpt>
      <trkpt lat="44.12447" lon="4.64179">
        <ele>251</ele>
        <time>2016-03-08T06:43:57Z</time>
      </trkpt>
      <trkpt lat="44.12452" lon="4.64182">
        <ele>251</ele>
        <time>2016-03-08T06:45:57Z</time>
      </trkpt>
      <trkpt lat="44.12462" lon="4.64201">
        <ele>249</ele>
        <time>2016-03-08T06:47:57Z</time>
      </trkpt>
      <trkpt lat="44.12466" lon="4.64208">
        <ele>249</ele>
        <time>2016-03-08T06:49:57Z</time>
      </trkpt>
      <trkpt lat="44.1248" lon="4.64229">
        <ele>248</ele>
        <time>2016-03-08T06:51:57Z</time>
      </trkpt>
      <trkpt lat="44.12489" lon="4.64242">
        <ele>248</ele>
        <time>2016-03-08T06:53:57Z</time>
      </trkpt>
      <trkpt lat="44.125" lon="4.64254">
        <ele>248</ele>
        <time>2016-03-08T06:55:57Z</time>
      </trkpt>
      <trkpt lat="44.1251" lon="4.64268">
        <ele>247</ele>
        <time>2016-03-08T06:57:57Z</time>
      </trkpt>
      <trkpt lat="44.12525" lon="4.64287">
        <ele>245</ele>
        <time>2016-03-08T06:59:57Z</time>
      </trkpt>
      <trkpt lat="44.1254" lon="4.64302">
        <ele>245</ele>
        <time>2016-03-08T07:01:57Z</time>
      </trkpt>
      <trkpt lat="44.12564" lon="4.6432">
        <ele>246</ele>
        <time>2016-03-08T07:03:57Z</time>
      </trkpt>
      <trkpt lat="44.12574" lon="4.64327">
        <ele>247</ele>
        <time>2016-03-08T07:05:57Z</time>
      </trkpt>
      <trkpt lat="44.126" lon="4.6434">
        <ele>248</ele>
        <time>2016-03-08T07:07:57Z</time>
      </trkpt>
      <trkpt lat="44.12607" lon="4.64341">
        <ele>248</ele>
        <time>2016-03-08T07:09:57Z</time>
      </trkpt>
      <trkpt lat="44.12619" lon="4.64344">
        <ele>249</ele>
        <time>2016-03-08T07:11:57Z</time>
      </trkpt>
      <trkpt lat="44.12621" lon="4.64344">
        <ele>249</ele>
        <time>2016-03-08T07:13:57Z</time>
      </trkpt>
      <trkpt lat="44.12626" lon="4.64345">
        <ele>249</ele>
        <time>2016-03-08T07:15:57Z</time>
      </trkpt>
      <trkpt lat="44.12631" lon="4.64342">
        <ele>249</ele>
        <time>2016-03-08T07:17:57Z</time>
      </trkpt>
      <trkpt lat="44.12635" lon="4.64338">
        <ele>250</ele>
        <time>2016-03-08T07:19:57Z</time>
      </trkpt>
      <trkpt lat="44.1264" lon="4.64333">
        <ele>251</ele>
        <time>2016-03-08T07:21:57Z</time>
      </trkpt>
      <trkpt lat="44.12641" lon="4.64331">
        <ele>251</ele>
        <time>2016-03-08T07:23:57Z</time>
      </trkpt>
      <trkpt lat="44.12643" lon="4.64329">
        <ele>251</ele>
        <time>2016-03-08T07:25:57Z</time>
      </trkpt>
      <trkpt lat="44.12658" lon="4.64332">
        <ele>252</ele>
        <time>2016-03-08T07:27:57Z</time>
      </trkpt>
      <trkpt lat="44.12662" lon="4.64313">
        <ele>252</ele>
        <time>2016-03-08T07:29:57Z</time>
      </trkpt>
      <trkpt lat="44.12666" lon="4.64308">
        <ele>252</ele>
        <time>2016-03-08T07:31:57Z</time>
      </trkpt>
      <trkpt lat="44.12674" lon="4.64306">
        <ele>252</ele>
        <time>2016-03-08T07:33:57Z</time>
      </trkpt>
      <trkpt lat="44.12683" lon="4.64293">
        <ele>252</ele>
        <time>2016-03-08T07:35:57Z</time>
      </trkpt>
      <trkpt lat="44.12681" lon="4.64282">
        <ele>253</ele>
        <time>2016-03-08T07:37:57Z</time>
      </trkpt>
      <trkpt lat="44.12676" lon="4.6427">
        <ele>253</ele>
        <time>2016-03-08T07:39:57Z</time>
      </trkpt>
      <trkpt lat="44.12675" lon="4.64266">
        <ele>253</ele>
        <time>2016-03-08T07:41:57Z</time>
      </trkpt>
      <trkpt lat="44.12669" lon="4.64251">
        <ele>253</ele>
        <time>2016-03-08T07:43:57Z</time>
      </trkpt>
      <trkpt lat="44.12662" lon="4.64248">
        <ele>253</ele>
        <time>2016-03-08T07:45:57Z</time>
      </trkpt>
      <trkpt lat="44.12652" lon="4.64232">
        <ele>253</ele>
        <time>2016-03-08T07:47:57Z</time>
      </trkpt>
      <trkpt lat="44.12644" lon="4.64213">
        <ele>253</ele>
        <time>2016-03-08T07:49:57Z</time>
      </trkpt>
      <trkpt lat="44.12641" lon="4.64209">
        <ele>253</ele>
        <time>2016-03-08T07:51:57Z</time>
      </trkpt>
      <trkpt lat="44.12629" lon="4.64197">
        <ele>253</ele>
        <time>2016-03-08T07:53:57Z</time>
      </trkpt>
      <trkpt lat="44.12619" lon="4.64189">
        <ele>254</ele>
        <time>2016-03-08T07:55:57Z</time>
      </trkpt>
      <trkpt lat="44.12609" lon="4.64178">
        <ele>254</ele>
        <time>2016-03-08T07:57:57Z</time>
      </trkpt>
      <trkpt lat="44.12595" lon="4.64146">
        <ele>255</ele>
        <time>2016-03-08T07:59:57Z</time>
      </trkpt>
      <trkpt lat="44.12588" lon="4.6412">
        <ele>255</ele>
        <time>2016-03-08T08:01:57Z</time>
      </trkpt>
      <trkpt lat="44.12588" lon="4.64117">
        <ele>255</ele>
        <time>2016-03-08T08:03:57Z</time>
      </trkpt>
      <trkpt lat="44.12584" lon="4.64114">
        <ele>255</ele>
        <time>2016-03-08T08:05:57Z</time>
      </trkpt>
      <trkpt lat="44.12583" lon="4.64108">
        <ele>255</ele>
        <time>2016-03-08T08:07:57Z</time>
      </trkpt>
      <trkpt lat="44.12582" lon="4.64104">
        <ele>255</ele>
        <time>2016-03-08T08:09:57Z</time>
      </trkpt>
      <trkpt lat="44.12578" lon="4.64087">
        <ele>255</ele>
        <time>2016-03-08T08:11:57Z</time>
      </trkpt>
      <trkpt lat="44.12577" lon="4.64084">
        <ele>255</ele>
        <time>2016-03-08T08:13:57Z</time>
      </trkpt>
      <trkpt lat="44.12576" lon="4.64072">
        <ele>255</ele>
        <time>2016-03-08T08:15:57Z</time>
      </trkpt>
      <trkpt lat="44.12577" lon="4.64069">
        <ele>255</ele>
        <time>2016-03-08T08:17:57Z</time>
      </trkpt>
      <trkpt lat="44.12576" lon="4.64063">
        <ele>256</ele>
        <time>2016-03-08T08:19:57Z</time>
      </trkpt>
      <trkpt lat="44.12574" lon="4.64061">
        <ele>256</ele>
        <time>2016-03-08T08:21:57Z</time>
      </trkpt>
      <trkpt lat="44.12563" lon="4.64056">
        <ele>256</ele>
        <time>2016-03-08T08:23:57Z</time>
      </trkpt>
      <trkpt lat="44.1256" lon="4.64053">
        <ele>256</ele>
        <time>2016-03-08T08:25:57Z</time>
      </trkpt>
      <trkpt lat="44.12552" lon="4.64042">
        <ele>256</ele>
        <time>2016-03-08T08:27:57Z</time>
      </trkpt>
      <trkpt lat="44.12552" lon="4.64029">
        <ele>257</ele>
        <time>2016-03-08T08:29:57Z</time>
      </trkpt>
      <trkpt lat="44.12553" lon="4.6402">
        <ele>257</ele>
        <time>2016-03-08T08:31:57Z</time>
      </trkpt>
      <trkpt lat="44.12552" lon="4.64014">
        <ele>257</ele>
        <time>2016-03-08T08:33:57Z</time>
      </trkpt>
      <trkpt lat="44.12555" lon="4.63999">
        <ele>257</ele>
        <time>2016-03-08T08:35:57Z</time>
      </trkpt>
      <trkpt lat="44.1256" lon="4.63989">
        <ele>257</ele>
        <time>2016-03-08T08:37:57Z</time>
      </trkpt>
      <trkpt lat="44.12564" lon="4.63979">
        <ele>256</ele>
        <time>2016-03-08T08:39:57Z</time>
      </trkpt>
      <trkpt lat="44.12563" lon="4.63974">
        <ele>256</ele>
        <time>2016-03-08T08:41:57Z</time>
      </trkpt>
      <trkpt lat="44.12561" lon="4.63962">
        <ele>255</ele>
        <time>2016-03-08T08:43:57Z</time>
      </trkpt>
      <trkpt lat="44.1256" lon="4.63959">
        <ele>255</ele>
        <time>2016-03-08T08:45:57Z</time>
      </trkpt>
      <trkpt lat="44.1256" lon="4.63956">
        <ele>255</ele>
        <time>2016-03-08T08:47:57Z</time>
      </trkpt>
      <trkpt lat="44.12562" lon="4.6395">
        <ele>255</ele>
        <time>2016-03-08T08:49:57Z</time>
      </trkpt>
      <trkpt lat="44.12563" lon="4.63946">
        <ele>255</ele>
        <time>2016-03-08T08:51:57Z</time>
      </trkpt>
      <trkpt lat="44.12561" lon="4.63932">
        <ele>254</ele>
        <time>2016-03-08T08:53:57Z</time>
      </trkpt>
      <trkpt lat="44.1256" lon="4.6392">
        <ele>254</ele>
        <time>2016-03-08T08:55:57Z</time>
      </trkpt>
      <trkpt lat="44.1256" lon="4.63918">
        <ele>254</ele>
        <time>2016-03-08T08:57:57Z</time>
      </trkpt>
      <trkpt lat="44.12553" lon="4.63913">
        <ele>253</ele>
        <time>2016-03-08T08:59:57Z</time>
      </trkpt>
      <trkpt lat="44.12554" lon="4.63902">
        <ele>252</ele>
        <time>2016-03-08T09:01:57Z</time>
      </trkpt>
      <trkpt lat="44.12567" lon="4.63884">
        <ele>250</ele>
        <time>2016-03-08T09:03:57Z</time>
      </trkpt>
      <trkpt lat="44.12572" lon="4.63871">
        <ele>249</ele>
        <time>2016-03-08T09:05:57Z</time>
      </trkpt>
      <trkpt lat="44.12573" lon="4.63866">
        <ele>249</ele>
        <time>2016-03-08T09:07:57Z</time>
      </trkpt>
      <trkpt lat="44.12579" lon="4.6385">
        <ele>247</ele>
        <time>2016-03-08T09:09:57Z</time>
      </trkpt>
      <trkpt lat="44.12582" lon="4.63844">
        <ele>246</ele>
        <time>2016-03-08T09:11:57Z</time>
      </trkpt>
      <trkpt lat="44.12584" lon="4.63834">
        <ele>245</ele>
        <time>2016-03-08T09:13:57Z</time>
      </trkpt>
      <trkpt lat="44.12581" lon="4.63827">
        <ele>245</ele>
        <time>2016-03-08T09:15:57Z</time>
      </trkpt>
      <trkpt lat="44.12575" lon="4.63817">
        <ele>244</ele>
        <time>2016-03-08T09:17:57Z</time>
      </trkpt>
      <trkpt lat="44.12569" lon="4.6381">
        <ele>244</ele>
        <time>2016-03-08T09:19:57Z</time>
      </trkpt>
      <trkpt lat="44.1256" lon="4.63793">
        <ele>243</ele>
        <time>2016-03-08T09:21:57Z</time>
      </trkpt>
      <trkpt lat="44.12556" lon="4.63788">
        <ele>243</ele>
        <time>2016-03-08T09:23:57Z</time>
      </trkpt>
      <trkpt lat="44.12553" lon="4.63784">
        <ele>243</ele>
        <time>2016-03-08T09:25:57Z</time>
      </trkpt>
      <trkpt lat="44.12538" lon="4.63764">
        <ele>242</ele>
        <time>2016-03-08T09:27:57Z</time>
      </trkpt>
      <trkpt lat="44.12534" lon="4.63752">
        <ele>241</ele>
        <time>2016-03-08T09:29:57Z</time>
      </trkpt>
      <trkpt lat="44.12531" lon="4.6374">
        <ele>241</ele>
        <time>2016-03-08T09:31:57Z</time>
      </trkpt>
      <trkpt lat="44.1253" lon="4.6373">
        <ele>241</ele>
        <time>2016-03-08T09:33:57Z</time>
      </trkpt>
      <trkpt lat="44.12527" lon="4.63708">
        <ele>241</ele>
        <time>2016-03-08T09:35:57Z</time>
      </trkpt>
      <trkpt lat="44.12524" lon="4.63696">
        <ele>241</ele>
        <time>2016-03-08T09:37:57Z</time>
      </trkpt>
      <trkpt lat="44.12524" lon="4.63683">
        <ele>241</ele>
        <time>2016-03-08T09:39:57Z</time>
      </trkpt>
      <trkpt lat="44.12525" lon="4.63674">
        <ele>241</ele>
        <time>2016-03-08T09:41:57Z</time>
      </trkpt>
      <trkpt lat="44.1253" lon="4.63668">
        <ele>241</ele>
        <time>2016-03-08T09:43:57Z</time>
      </trkpt>
      <trkpt lat="44.12535" lon="4.6366">
        <ele>241</ele>
        <time>2016-03-08T09:45:57Z</time>
      </trkpt>
      <trkpt lat="44.12541" lon="4.63643">
        <ele>241</ele>
        <time>2016-03-08T09:47:57Z</time>
      </trkpt>
      <trkpt lat="44.12543" lon="4.63637">
        <ele>241</ele>
        <time>2016-03-08T09:49:57Z</time>
      </trkpt>
      <trkpt lat="44.12543" lon="4.63629">
        <ele>241</ele>
        <time>2016-03-08T09:51:57Z</time>
      </trkpt>
      <trkpt lat="44.12545" lon="4.63615">
        <ele>241</ele>
        <time>2016-03-08T09:53:57Z</time>
      </trkpt>
      <trkpt lat="44.12544" lon="4.63608">
        <ele>241</ele>
        <time>2016-03-08T09:55:57Z</time>
      </trkpt>
      <trkpt lat="44.12546" lon="4.63592">
        <ele>241</ele>
        <time>2016-03-08T09:57:57Z</time>
      </trkpt>
      <trkpt lat="44.12552" lon="4.63566">
        <ele>240</ele>
        <time>2016-03-08T09:59:57Z</time>
      </trkpt>
      <trkpt lat="44.12557" lon="4.6355">
        <ele>240</ele>
        <time>2016-03-08T10:01:57Z</time>
      </trkpt>
      <trkpt lat="44.12561" lon="4.63546">
        <ele>239</ele>
        <time>2016-03-08T10:03:57Z</time>
      </trkpt>
      <trkpt lat="44.12577" lon="4.63536">
        <ele>238</ele>
        <time>2016-03-08T10:05:57Z</time>
      </trkpt>
      <trkpt lat="44.12588" lon="4.63526">
        <ele>238</ele>
        <time>2016-03-08T10:07:57Z</time>
      </trkpt>
      <trkpt lat="44.12605" lon="4.63512">
        <ele>237</ele>
        <time>2016-03-08T10:09:57Z</time>
      </trkpt>
      <trkpt lat="44.12611" lon="4.63507">
        <ele>236</ele>
        <time>2016-03-08T10:11:57Z</time>
      </trkpt>
      <trkpt lat="44.12623" lon="4.635">
        <ele>236</ele>
        <time>2016-03-08T10:13:57Z</time>
      </trkpt>
      <trkpt lat="44.12629" lon="4.63496">
        <ele>235</ele>
        <time>2016-03-08T10:15:57Z</time>
      </trkpt>
      <trkpt lat="44.12678" lon="4.63465">
        <ele>233</ele>
        <time>2016-03-08T10:17:57Z</time>
      </trkpt>
      <trkpt lat="44.12684" lon="4.6346">
        <ele>232</ele>
        <time>2016-03-08T10:19:57Z</time>
      </trkpt>
      <trkpt lat="44.12691" lon="4.63456">
        <ele>232</ele>
        <time>2016-03-08T10:21:57Z</time>
      </trkpt>
      <trkpt lat="44.12702" lon="4.63448">
        <ele>232</ele>
        <time>2016-03-08T10:23:57Z</time>
      </trkpt>
      <trkpt lat="44.12707" lon="4.63441">
        <ele>231</ele>
        <time>2016-03-08T10:25:57Z</time>
      </trkpt>
      <trkpt lat="44.12712" lon="4.63437">
        <ele>231</ele>
        <time>2016-03-08T10:27:57Z</time>
      </trkpt>
      <trkpt lat="44.12722" lon="4.63428">
        <ele>231</ele>
        <time>2016-03-08T10:29:57Z</time>
      </trkpt>
      <trkpt lat="44.12727" lon="4.63426">
        <ele>231</ele>
        <time>2016-03-08T10:31:57Z</time>
      </trkpt>
      <trkpt lat="44.12732" lon="4.63427">
        <ele>230</ele>
        <time>2016-03-08T10:33:57Z</time>
      </trkpt>
      <trkpt lat="44.12759" lon="4.6341">
        <ele>230</ele>
        <time>2016-03-08T10:35:57Z</time>
      </trkpt>
      <trkpt lat="44.1277" lon="4.63406">
        <ele>229</ele>
        <time>2016-03-08T10:37:57Z</time>
      </trkpt>
      <trkpt lat="44.12776" lon="4.63403">
        <ele>229</ele>
        <time>2016-03-08T10:39:57Z</time>
      </trkpt>
      <trkpt lat="44.12786" lon="4.63399">
        <ele>228</ele>
        <time>2016-03-08T10:41:57Z</time>
      </trkpt>
      <trkpt lat="44.12796" lon="4.63392">
        <ele>228</ele>
        <time>2016-03-08T10:43:57Z</time>
      </trkpt>
      <trkpt lat="44.1281" lon="4.63376">
        <ele>228</ele>
        <time>2016-03-08T10:45:57Z</time>
      </trkpt>
      <trkpt lat="44.12817" lon="4.63369">
        <ele>228</ele>
        <time>2016-03-08T10:47:57Z</time>
      </trkpt>
      <trkpt lat="44.1282" lon="4.63366">
        <ele>228</ele>
        <time>2016-03-08T10:49:57Z</time>
      </trkpt>
      <trkpt lat="44.12826" lon="4.6336">
        <ele>228</ele>
        <time>2016-03-08T10:51:57Z</time>
      </trkpt>
      <trkpt lat="44.12826" lon="4.63358">
        <ele>228</ele>
        <time>2016-03-08T10:53:57Z</time>
      </trkpt>
      <trkpt lat="44.12822" lon="4.63354">
        <ele>228</ele>
        <time>2016-03-08T10:55:57Z</time>
      </trkpt>
      <trkpt lat="44.1282" lon="4.63353">
        <ele>228</ele>
        <time>2016-03-08T10:57:57Z</time>
      </trkpt>
      <trkpt lat="44.12807" lon="4.63349">
        <ele>229</ele>
        <time>2016-03-08T10:59:57Z</time>
      </trkpt>
      <trkpt lat="44.12791" lon="4.63338">
        <ele>229</ele>
        <time>2016-03-08T11:01:57Z</time>
      </trkpt>
      <trkpt lat="44.12788" lon="4.63335">
        <ele>229</ele>
        <time>2016-03-08T11:03:57Z</time>
      </trkpt>
      <trkpt lat="44.12783" lon="4.63323">
        <ele>228</ele>
        <time>2016-03-08T11:05:57Z</time>
      </trkpt>
      <trkpt lat="44.12781" lon="4.63303">
        <ele>226</ele>
        <time>2016-03-08T11:07:57Z</time>
      </trkpt>
      <trkpt lat="44.12782" lon="4.63299">
        <ele>226</ele>
        <time>2016-03-08T11:09:57Z</time>
      </trkpt>
      <trkpt lat="44.12778" lon="4.63284">
        <ele>225</ele>
        <time>2016-03-08T11:11:57Z</time>
      </trkpt>
      <trkpt lat="44.12776" lon="4.63278">
        <ele>224</ele>
        <time>2016-03-08T11:13:57Z</time>
      </trkpt>
      <trkpt lat="44.12774" lon="4.6327">
        <ele>224</ele>
        <time>2016-03-08T11:15:57Z</time>
      </trkpt>
      <trkpt lat="44.12774" lon="4.63266">
        <ele>223</ele>
        <time>2016-03-08T11:17:57Z</time>
      </trkpt>
      <trkpt lat="44.12773" lon="4.63261">
        <ele>223</ele>
        <time>2016-03-08T11:19:57Z</time>
      </trkpt>
      <trkpt lat="44.12773" lon="4.63258">
        <ele>223</ele>
        <time>2016-03-08T11:21:57Z</time>
      </trkpt>
      <trkpt lat="44.12774" lon="4.63256">
        <ele>223</ele>
        <time>2016-03-08T11:23:57Z</time>
      </trkpt>
      <trkpt lat="44.12772" lon="4.63253">
        <ele>222</ele>
        <time>2016-03-08T11:25:57Z</time>
      </trkpt>
      <trkpt lat="44.12771" lon="4.63251">
        <ele>222</ele>
        <time>2016-03-08T11:27:57Z</time>
      </trkpt>
      <trkpt lat="44.12772" lon="4.6325">
        <ele>222</ele>
        <time>2016-03-08T11:29:57Z</time>
      </trkpt>
      <trkpt lat="44.12781" lon="4.63238">
        <ele>219</ele>
        <time>2016-03-08T11:31:57Z</time>
      </trkpt>
      <trkpt lat="44.12781" lon="4.63236">
        <ele>218</ele>
        <time>2016-03-08T11:33:57Z</time>
      </trkpt>
      <trkpt lat="44.12777" lon="4.63235">
        <ele>218</ele>
        <time>2016-03-08T11:35:57Z</time>
      </trkpt>
      <trkpt lat="44.12773" lon="4.63235">
        <ele>218</ele>
        <time>2016-03-08T11:37:57Z</time>
      </trkpt>
      <trkpt lat="44.12766" lon="4.63236">
        <ele>218</ele>
        <time>2016-03-08T11:39:57Z</time>
      </trkpt>
      <trkpt lat="44.12764" lon="4.63235">
        <ele>218</ele>
        <time>2016-03-08T11:41:57Z</time>
      </trkpt>
      <trkpt lat="44.12763" lon="4.63233">
        <ele>217</ele>
        <time>2016-03-08T11:43:57Z</time>
      </trkpt>
      <trkpt lat="44.12759" lon="4.63228">
        <ele>216</ele>
        <time>2016-03-08T11:45:57Z</time>
      </trkpt>
      <trkpt lat="44.12757" lon="4.63227">
        <ele>216</ele>
        <time>2016-03-08T11:47:57Z</time>
      </trkpt>
      <trkpt lat="44.12753" lon="4.63221">
        <ele>214</ele>
        <time>2016-03-08T11:49:57Z</time>
      </trkpt>
      <trkpt lat="44.12751" lon="4.63217">
        <ele>213</ele>
        <time>2016-03-08T11:51:57Z</time>
      </trkpt>
      <trkpt lat="44.12748" lon="4.63212">
        <ele>212</ele>
        <time>2016-03-08T11:53:57Z</time>
      </trkpt>
      <trkpt lat="44.12744" lon="4.63208">
        <ele>211</ele>
        <time>2016-03-08T11:55:57Z</time>
      </trkpt>
      <trkpt lat="44.12742" lon="4.63207">
        <ele>211</ele>
        <time>2016-03-08T11:57:57Z</time>
      </trkpt>
      <trkpt lat="44.12732" lon="4.632">
        <ele>210</ele>
        <time>2016-03-08T11:59:57Z</time>
      </trkpt>
      <trkpt lat="44.12729" lon="4.63199">
        <ele>210</ele>
        <time>2016-03-08T12:01:57Z</time>
      </trkpt>
      <trkpt lat="44.12726" lon="4.63198">
        <ele>210</ele>
        <time>2016-03-08T12:03:57Z</time>
      </trkpt>
      <trkpt lat="44.12718" lon="4.63195">
        <ele>209</ele>
        <time>2016-03-08T12:05:57Z</time>
      </trkpt>
      <trkpt lat="44.12708" lon="4.63193">
        <ele>210</ele>
        <time>2016-03-08T12:07:57Z</time>
      </trkpt>
      <trkpt lat="44.12704" lon="4.63193">
        <ele>210</ele>
        <time>2016-03-08T12:09:57Z</time>
      </trkpt>
      <trkpt lat="44.12694" lon="4.63197">
        <ele>212</ele>
        <time>2016-03-08T12:11:57Z</time>
      </trkpt>
      <trkpt lat="44.12676" lon="4.63201">
        <ele>214</ele>
        <time>2016-03-08T12:13:57Z</time>
      </trkpt>
      <trkpt lat="44.1267" lon="4.63206">
        <ele>216</ele>
        <time>2016-03-08T12:15:57Z</time>
      </trkpt>
      <trkpt lat="44.12667" lon="4.63208">
        <ele>216</ele>
        <time>2016-03-08T12:17:57Z</time>
      </trkpt>
      <trkpt lat="44.1266" lon="4.63213">
        <ele>218</ele>
        <time>2016-03-08T12:19:57Z</time>
      </trkpt>
      <trkpt lat="44.12649" lon="4.63215">
        <ele>219</ele>
        <time>2016-03-08T12:21:57Z</time>
      </trkpt>
      <trkpt lat="44.12646" lon="4.63212">
        <ele>218</ele>
        <time>2016-03-08T12:23:57Z</time>
      </trkpt>
      <trkpt lat="44.12636" lon="4.63196">
        <ele>216</ele>
        <time>2016-03-08T12:25:57Z</time>
      </trkpt>
      <trkpt lat="44.12633" lon="4.63193">
        <ele>216</ele>
        <time>2016-03-08T12:27:57Z</time>
      </trkpt>
      <trkpt lat="44.12618" lon="4.63184">
        <ele>216</ele>
        <time>2016-03-08T12:29:57Z</time>
      </trkpt>
      <trkpt lat="44.12615" lon="4.63182">
        <ele>216</ele>
        <time>2016-03-08T12:31:57Z</time>
      </trkpt>
      <trkpt lat="44.12607" lon="4.63174">
        <ele>215</ele>
        <time>2016-03-08T12:33:57Z</time>
      </trkpt>
      <trkpt lat="44.12605" lon="4.63171">
        <ele>215</ele>
        <time>2016-03-08T12:35:57Z</time>
      </trkpt>
      <trkpt lat="44.12602" lon="4.6317">
        <ele>215</ele>
        <time>2016-03-08T12:37:57Z</time>
      </trkpt>
      <trkpt lat="44.12597" lon="4.63166">
        <ele>215</ele>
        <time>2016-03-08T12:39:57Z</time>
      </trkpt>
      <trkpt lat="44.12587" lon="4.63162">
        <ele>216</ele>
        <time>2016-03-08T12:41:57Z</time>
      </trkpt>
      <trkpt lat="44.12582" lon="4.63161">
        <ele>217</ele>
        <time>2016-03-08T12:43:57Z</time>
      </trkpt>
      <trkpt lat="44.12579" lon="4.63162">
        <ele>217</ele>
        <time>2016-03-08T12:45:57Z</time>
      </trkpt>
      <trkpt lat="44.12576" lon="4.6316">
        <ele>217</ele>
        <time>2016-03-08T12:47:57Z</time>
      </trkpt>
      <trkpt lat="44.12573" lon="4.63154">
        <ele>217</ele>
        <time>2016-03-08T12:49:57Z</time>
      </trkpt>
      <trkpt lat="44.1257" lon="4.63149">
        <ele>217</ele>
        <time>2016-03-08T12:51:57Z</time>
      </trkpt>
      <trkpt lat="44.12567" lon="4.63147">
        <ele>217</ele>
        <time>2016-03-08T12:53:57Z</time>
      </trkpt>
      <trkpt lat="44.1256" lon="4.63138">
        <ele>216</ele>
        <time>2016-03-08T12:55:57Z</time>
      </trkpt>
      <trkpt lat="44.12555" lon="4.63135">
        <ele>216</ele>
        <time>2016-03-08T12:57:57Z</time>
      </trkpt>
      <trkpt lat="44.12554" lon="4.63133">
        <ele>216</ele>
        <time>2016-03-08T12:59:57Z</time>
      </trkpt>
      <trkpt lat="44.12551" lon="4.6313">
        <ele>216</ele>
        <time>2016-03-08T13:01:57Z</time>
      </trkpt>
      <trkpt lat="44.12546" lon="4.63129">
        <ele>216</ele>
        <time>2016-03-08T13:03:57Z</time>
      </trkpt>
      <trkpt lat="44.12543" lon="4.63127">
        <ele>216</ele>
        <time>2016-03-08T13:05:57Z</time>
      </trkpt>
      <trkpt lat="44.12542" lon="4.63126">
        <ele>216</ele>
        <time>2016-03-08T13:07:57Z</time>
      </trkpt>
      <trkpt lat="44.12541" lon="4.63127">
        <ele>216</ele>
        <time>2016-03-08T13:09:57Z</time>
      </trkpt>
      <trkpt lat="44.12537" lon="4.63128">
        <ele>216</ele>
        <time>2016-03-08T13:11:57Z</time>
      </trkpt>
      <trkpt lat="44.12527" lon="4.63127">
        <ele>216</ele>
        <time>2016-03-08T13:13:57Z</time>
      </trkpt>
      <trkpt lat="44.12526" lon="4.63125">
        <ele>216</ele>
        <time>2016-03-08T13:15:57Z</time>
      </trkpt>
      <trkpt lat="44.12528" lon="4.6312">
        <ele>215</ele>
        <time>2016-03-08T13:17:57Z</time>
      </trkpt>
      <trkpt lat="44.12526" lon="4.63115">
        <ele>215</ele>
        <time>2016-03-08T13:19:57Z</time>
      </trkpt>
      <trkpt lat="44.12526" lon="4.63105">
        <ele>213</ele>
        <time>2016-03-08T13:21:57Z</time>
      </trkpt>
      <trkpt lat="44.1252" lon="4.631">
        <ele>213</ele>
        <time>2016-03-08T13:23:57Z</time>
      </trkpt>
      <trkpt lat="44.12514" lon="4.63103">
        <ele>213</ele>
        <time>2016-03-08T13:25:57Z</time>
      </trkpt>
      <trkpt lat="44.12512" lon="4.63102">
        <ele>213</ele>
        <time>2016-03-08T13:27:57Z</time>
      </trkpt>
      <trkpt lat="44.1251" lon="4.63101">
        <ele>213</ele>
        <time>2016-03-08T13:29:57Z</time>
      </trkpt>
      <trkpt lat="44.12505" lon="4.631">
        <ele>213</ele>
        <time>2016-03-08T13:31:57Z</time>
      </trkpt>
      <trkpt lat="44.12502" lon="4.63103">
        <ele>213</ele>
        <time>2016-03-08T13:33:57Z</time>
      </trkpt>
      <trkpt lat="44.12498" lon="4.63111">
        <ele>215</ele>
        <time>2016-03-08T13:35:57Z</time>
      </trkpt>
      <trkpt lat="44.125" lon="4.63116">
        <ele>215</ele>
        <time>2016-03-08T13:37:57Z</time>
      </trkpt>
      <trkpt lat="44.12501" lon="4.6312">
        <ele>216</ele>
        <time>2016-03-08T13:39:57Z</time>
      </trkpt>
      <trkpt lat="44.12501" lon="4.63123">
        <ele>217</ele>
        <time>2016-03-08T13:41:57Z</time>
      </trkpt>
      <trkpt lat="44.12494" lon="4.63132">
        <ele>218</ele>
        <time>2016-03-08T13:43:57Z</time>
      </trkpt>
      <trkpt lat="44.12489" lon="4.63131">
        <ele>218</ele>
        <time>2016-03-08T13:45:57Z</time>
      </trkpt>
      <trkpt lat="44.12487" lon="4.63131">
        <ele>218</ele>
        <time>2016-03-08T13:47:57Z</time>
      </trkpt>
      <trkpt lat="44.12481" lon="4.63136">
        <ele>219</ele>
        <time>2016-03-08T13:49:57Z</time>
      </trkpt>
      <trkpt lat="44.1248" lon="4.63138">
        <ele>219</ele>
        <time>2016-03-08T13:51:57Z</time>
      </trkpt>
      <trkpt lat="44.12478" lon="4.63147">
        <ele>221</ele>
        <time>2016-03-08T13:53:57Z</time>
      </trkpt>
      <trkpt lat="44.12474" lon="4.63156">
        <ele>222</ele>
        <time>2016-03-08T13:55:57Z</time>
      </trkpt>
      <trkpt lat="44.12465" lon="4.63164">
        <ele>224</ele>
        <time>2016-03-08T13:57:57Z</time>
      </trkpt>
      <trkpt lat="44.12461" lon="4.63166">
        <ele>224</ele>
        <time>2016-03-08T13:59:57Z</time>
      </trkpt>
      <trkpt lat="44.12457" lon="4.63168">
        <ele>225</ele>
        <time>2016-03-08T14:01:57Z</time>
      </trkpt>
      <trkpt lat="44.12453" lon="4.63175">
        <ele>225</ele>
        <time>2016-03-08T14:03:57Z</time>
      </trkpt>
      <trkpt lat="44.12451" lon="4.63177">
        <ele>225</ele>
        <time>2016-03-08T14:05:57Z</time>
      </trkpt>
      <trkpt lat="44.12446" lon="4.63178">
        <ele>226</ele>
        <time>2016-03-08T14:07:57Z</time>
      </trkpt>
      <trkpt lat="44.12439" lon="4.6318">
        <ele>226</ele>
        <time>2016-03-08T14:09:57Z</time>
      </trkpt>
      <trkpt lat="44.12434" lon="4.63188">
        <ele>227</ele>
        <time>2016-03-08T14:11:57Z</time>
      </trkpt>
      <trkpt lat="44.1243" lon="4.63193">
        <ele>227</ele>
        <time>2016-03-08T14:13:57Z</time>
      </trkpt>
      <trkpt lat="44.1243" lon="4.63195">
        <ele>228</ele>
        <time>2016-03-08T14:15:57Z</time>
      </trkpt>
      <trkpt lat="44.12425" lon="4.63201">
        <ele>228</ele>
        <time>2016-03-08T14:17:57Z</time>
      </trkpt>
      <trkpt lat="44.12425" lon="4.63204">
        <ele>229</ele>
        <time>2016-03-08T14:19:57Z</time>
      </trkpt>
      <trkpt lat="44.12419" lon="4.63211">
        <ele>230</ele>
        <time>2016-03-08T14:21:57Z</time>
      </trkpt>
      <trkpt lat="44.12411" lon="4.63216">
        <ele>230</ele>
        <time>2016-03-08T14:23:57Z</time>
      </trkpt>
      <trkpt lat="44.12401" lon="4.63219">
        <ele>231</ele>
        <time>2016-03-08T14:25:57Z</time>
      </trkpt>
      <trkpt lat="44.12391" lon="4.63221">
        <ele>231</ele>
        <time>2016-03-08T14:27:57Z</time>
      </trkpt>
      <trkpt lat="44.12382" lon="4.63216">
        <ele>231</ele>
        <time>2016-03-08T14:29:57Z</time>
      </trkpt>
      <trkpt lat="44.12378" lon="4.63209">
        <ele>230</ele>
        <time>2016-03-08T14:31:57Z</time>
      </trkpt>
      <trkpt lat="44.12374" lon="4.632">
        <ele>229</ele>
        <time>2016-03-08T14:33:57Z</time>
      </trkpt>
      <trkpt lat="44.12372" lon="4.63196">
        <ele>229</ele>
        <time>2016-03-08T14:35:57Z</time>
      </trkpt>
      <trkpt lat="44.12373" lon="4.63193">
        <ele>229</ele>
        <time>2016-03-08T14:37:57Z</time>
      </trkpt>
      <trkpt lat="44.12374" lon="4.63188">
        <ele>229</ele>
        <time>2016-03-08T14:39:57Z</time>
      </trkpt>
      <trkpt lat="44.1237" lon="4.63187">
        <ele>229</ele>
        <time>2016-03-08T14:41:57Z</time>
      </trkpt>
      <trkpt lat="44.12355" lon="4.63187">
        <ele>229</ele>
        <time>2016-03-08T14:43:57Z</time>
      </trkpt>
      <trkpt lat="44.12346" lon="4.63193">
        <ele>230</ele>
        <time>2016-03-08T14:45:57Z</time>
      </trkpt>
      <trkpt lat="44.12343" lon="4.63194">
        <ele>230</ele>
        <time>2016-03-08T14:47:57Z</time>
      </trkpt>
      <trkpt lat="44.12339" lon="4.63198">
        <ele>230</ele>
        <time>2016-03-08T14:49:57Z</time>
      </trkpt>
      <trkpt lat="44.12333" lon="4.63201">
        <ele>230</ele>
        <time>2016-03-08T14:51:57Z</time>
      </trkpt>
      <trkpt lat="44.12318" lon="4.63205">
        <ele>230</ele>
        <time>2016-03-08T14:53:57Z</time>
      </trkpt>
      <trkpt lat="44.12317" lon="4.63204">
        <ele>230</ele>
        <time>2016-03-08T14:55:57Z</time>
      </trkpt>
      <trkpt lat="44.12315" lon="4.63202">
        <ele>230</ele>
        <time>2016-03-08T14:57:57Z</time>
      </trkpt>
      <trkpt lat="44.12316" lon="4.63202">
        <ele>230</ele>
        <time>2016-03-08T14:59:57Z</time>
      </trkpt>
      <trkpt lat="44.12316" lon="4.63201">
        <ele>230</ele>
        <time>2016-03-08T15:01:57Z</time>
      </trkpt>
      <trkpt lat="44.12316" lon="4.63201">
        <ele>230</ele>
        <time>2016-03-08T15:03:57Z</time>
      </trkpt>
      <trkpt lat="44.12314" lon="4.63194">
        <ele>230</ele>
        <time>2016-03-08T15:05:57Z</time>
      </trkpt>
      <trkpt lat="44.12312" lon="4.63188">
        <ele>230</ele>
        <time>2016-03-08T15:07:57Z</time>
      </trkpt>
      <trkpt lat="44.12304" lon="4.63183">
        <ele>230</ele>
        <time>2016-03-08T15:09:57Z</time>
      </trkpt>
      <trkpt lat="44.12296" lon="4.63179">
        <ele>230</ele>
        <time>2016-03-08T15:11:57Z</time>
      </trkpt>
      <trkpt lat="44.12289" lon="4.6317">
        <ele>230</ele>
        <time>2016-03-08T15:13:57Z</time>
      </trkpt>
      <trkpt lat="44.12286" lon="4.63164">
        <ele>229</ele>
        <time>2016-03-08T15:15:57Z</time>
      </trkpt>
      <trkpt lat="44.12287" lon="4.63154">
        <ele>229</ele>
        <time>2016-03-08T15:17:57Z</time>
      </trkpt>
      <trkpt lat="44.12288" lon="4.63152">
        <ele>228</ele>
        <time>2016-03-08T15:19:57Z</time>
      </trkpt>
      <trkpt lat="44.12288" lon="4.63147">
        <ele>228</ele>
        <time>2016-03-08T15:21:57Z</time>
      </trkpt>
      <trkpt lat="44.12281" lon="4.6314">
        <ele>228</ele>
        <time>2016-03-08T15:23:57Z</time>
      </trkpt>
      <trkpt lat="44.12278" lon="4.6313">
        <ele>227</ele>
        <time>2016-03-08T15:25:57Z</time>
      </trkpt>
      <trkpt lat="44.12275" lon="4.63123">
        <ele>227</ele>
        <time>2016-03-08T15:27:57Z</time>
      </trkpt>
      <trkpt lat="44.12275" lon="4.63121">
        <ele>227</ele>
        <time>2016-03-08T15:29:57Z</time>
      </trkpt>
      <trkpt lat="44.12274" lon="4.63116">
        <ele>226</ele>
        <time>2016-03-08T15:31:57Z</time>
      </trkpt>
      <trkpt lat="44.1226" lon="4.63106">
        <ele>227</ele>
        <time>2016-03-08T15:33:57Z</time>
      </trkpt>
      <trkpt lat="44.12254" lon="4.63098">
        <ele>226</ele>
        <time>2016-03-08T15:35:57Z</time>
      </trkpt>
      <trkpt lat="44.12249" lon="4.63088">
        <ele>226</ele>
        <time>2016-03-08T15:37:57Z</time>
      </trkpt>
      <trkpt lat="44.12246" lon="4.6308">
        <ele>226</ele>
        <time>2016-03-08T15:39:57Z</time>
      </trkpt>
      <trkpt lat="44.12248" lon="4.63076">
        <ele>226</ele>
        <time>2016-03-08T15:41:57Z</time>
      </trkpt>
      <trkpt lat="44.12249" lon="4.63073">
        <ele>226</ele>
        <time>2016-03-08T15:43:57Z</time>
      </trkpt>
      <trkpt lat="44.12251" lon="4.63069">
        <ele>226</ele>
        <time>2016-03-08T15:45:57Z</time>
      </trkpt>
      <trkpt lat="44.12251" lon="4.63065">
        <ele>226</ele>
        <time>2016-03-08T15:47:57Z</time>
      </trkpt>
      <trkpt lat="44.1225" lon="4.63061">
        <ele>226</ele>
        <time>2016-03-08T15:49:57Z</time>
      </trkpt>
      <trkpt lat="44.12249" lon="4.63047">
        <ele>226</ele>
        <time>2016-03-08T15:51:57Z</time>
      </trkpt>
      <trkpt lat="44.12246" lon="4.63038">
        <ele>226</ele>
        <time>2016-03-08T15:53:57Z</time>
      </trkpt>
      <trkpt lat="44.12248" lon="4.63023">
        <ele>226</ele>
        <time>2016-03-08T15:55:57Z</time>
      </trkpt>
      <trkpt lat="44.1225" lon="4.63015">
        <ele>226</ele>
        <time>2016-03-08T15:57:57Z</time>
      </trkpt>
      <trkpt lat="44.1226" lon="4.63006">
        <ele>225</ele>
        <time>2016-03-08T15:59:57Z</time>
      </trkpt>
      <trkpt lat="44.12266" lon="4.62991">
        <ele>225</ele>
        <time>2016-03-08T16:01:57Z</time>
      </trkpt>
      <trkpt lat="44.12268" lon="4.62987">
        <ele>225</ele>
        <time>2016-03-08T16:03:57Z</time>
      </trkpt>
      <trkpt lat="44.12279" lon="4.62973">
        <ele>225</ele>
        <time>2016-03-08T16:05:57Z</time>
      </trkpt>
      <trkpt lat="44.12287" lon="4.62965">
        <ele>225</ele>
        <time>2016-03-08T16:07:57Z</time>
      </trkpt>
      <trkpt lat="44.12291" lon="4.62957">
        <ele>225</ele>
        <time>2016-03-08T16:09:57Z</time>
      </trkpt>
      <trkpt lat="44.12292" lon="4.62948">
        <ele>226</ele>
        <time>2016-03-08T16:11:57Z</time>
      </trkpt>
      <trkpt lat="44.12291" lon="4.62946">
        <ele>227</ele>
        <time>2016-03-08T16:13:57Z</time>
      </trkpt>
      <trkpt lat="44.12289" lon="4.62946">
        <ele>227</ele>
        <time>2016-03-08T16:15:57Z</time>
      </trkpt>
      <trkpt lat="44.12285" lon="4.62948">
        <ele>227</ele>
        <time>2016-03-08T16:17:57Z</time>
      </trkpt>
      <trkpt lat="44.12285" lon="4.62941">
        <ele>228</ele>
        <time>2016-03-08T16:19:57Z</time>
      </trkpt>
      <trkpt lat="44.12287" lon="4.62936">
        <ele>228</ele>
        <time>2016-03-08T16:21:57Z</time>
      </trkpt>
      <trkpt lat="44.12291" lon="4.62928">
        <ele>229</ele>
        <time>2016-03-08T16:23:57Z</time>
      </trkpt>
      <trkpt lat="44.12291" lon="4.62928">
        <ele>229</ele>
        <time>2016-03-08T16:25:57Z</time>
      </trkpt>
      <trkpt lat="44.12291" lon="4.62927">
        <ele>229</ele>
        <time>2016-03-08T16:27:57Z</time>
      </trkpt>
      <trkpt lat="44.12291" lon="4.62927">
        <ele>229</ele>
        <time>2016-03-08T16:29:57Z</time>
      </trkpt>
      <trkpt lat="44.12291" lon="4.62926">
        <ele>229</ele>
        <time>2016-03-08T16:31:57Z</time>
      </trkpt>
      <trkpt lat="44.12291" lon="4.62926">
        <ele>229</ele>
        <time>2016-03-08T16:33:57Z</time>
      </trkpt>
      <trkpt lat="44.12291" lon="4.62927">
        <ele>229</ele>
        <time>2016-03-08T16:35:57Z</time>
      </trkpt>
      <trkpt lat="44.12291" lon="4.62927">
        <ele>229</ele>
        <time>2016-03-08T16:37:57Z</time>
      </trkpt>
      <trkpt lat="44.12292" lon="4.62926">
        <ele>229</ele>
        <time>2016-03-08T16:39:57Z</time>
      </trkpt>
      <trkpt lat="44.12294" lon="4.62923">
        <ele>229</ele>
        <time>2016-03-08T16:41:57Z</time>
      </trkpt>
      <trkpt lat="44.12297" lon="4.62912">
        <ele>230</ele>
        <time>2016-03-08T16:43:57Z</time>
      </trkpt>
      <trkpt lat="44.12299" lon="4.62905">
        <ele>230</ele>
        <time>2016-03-08T16:45:57Z</time>
      </trkpt>
      <trkpt lat="44.12303" lon="4.6289">
        <ele>230</ele>
        <time>2016-03-08T16:47:57Z</time>
      </trkpt>
      <trkpt lat="44.12304" lon="4.62886">
        <ele>230</ele>
        <time>2016-03-08T16:49:57Z</time>
      </trkpt>
      <trkpt lat="44.12305" lon="4.62866">
        <ele>230</ele>
        <time>2016-03-08T16:51:57Z</time>
      </trkpt>
      <trkpt lat="44.12304" lon="4.62862">
        <ele>230</ele>
        <time>2016-03-08T16:53:57Z</time>
      </trkpt>
      <trkpt lat="44.123" lon="4.62859">
        <ele>230</ele>
        <time>2016-03-08T16:55:57Z</time>
      </trkpt>
      <trkpt lat="44.12289" lon="4.62854">
        <ele>231</ele>
        <time>2016-03-08T16:57:57Z</time>
      </trkpt>
      <trkpt lat="44.12287" lon="4.62853">
        <ele>231</ele>
        <time>2016-03-08T16:59:57Z</time>
      </trkpt>
      <trkpt lat="44.12274" lon="4.62842">
        <ele>232</ele>
        <time>2016-03-08T17:01:57Z</time>
      </trkpt>
      <trkpt lat="44.12261" lon="4.6284">
        <ele>232</ele>
        <time>2016-03-08T17:03:57Z</time>
      </trkpt>
      <trkpt lat="44.1225" lon="4.62838">
        <ele>233</ele>
        <time>2016-03-08T17:05:57Z</time>
      </trkpt>
      <trkpt lat="44.12236" lon="4.62832">
        <ele>234</ele>
        <time>2016-03-08T17:07:57Z</time>
      </trkpt>
      <trkpt lat="44.12226" lon="4.62835">
        <ele>234</ele>
        <time>2016-03-08T17:09:57Z</time>
      </trkpt>
      <trkpt lat="44.12216" lon="4.62831">
        <ele>235</ele>
        <time>2016-03-08T17:11:57Z</time>
      </trkpt>
      <trkpt lat="44.12213" lon="4.6283">
        <ele>235</ele>
        <time>2016-03-08T17:13:57Z</time>
      </trkpt>
      <trkpt lat="44.12196" lon="4.62821">
        <ele>235</ele>
        <time>2016-03-08T17:15:57Z</time>
      </trkpt>
      <trkpt lat="44.12185" lon="4.62816">
        <ele>236</ele>
        <time>2016-03-08T17:17:57Z</time>
      </trkpt>
      <trkpt lat="44.12174" lon="4.62813">
        <ele>236</ele>
        <time>2016-03-08T17:19:57Z</time>
      </trkpt>
      <trkpt lat="44.12161" lon="4.62807">
        <ele>236</ele>
        <time>2016-03-08T17:21:57Z</time>
      </trkpt>
      <trkpt lat="44.12153" lon="4.62806">
        <ele>236</ele>
        <time>2016-03-08T17:23:57Z</time>
      </trkpt>
      <trkpt lat="44.12149" lon="4.62804">
        <ele>236</ele>
        <time>2016-03-08T17:25:57Z</time>
      </trkpt>
      <trkpt lat="44.12137" lon="4.62802">
        <ele>236</ele>
        <time>2016-03-08T17:27:57Z</time>
      </trkpt>
      <trkpt lat="44.1213" lon="4.62799">
        <ele>236</ele>
        <time>2016-03-08T17:29:57Z</time>
      </trkpt>
      <trkpt lat="44.12125" lon="4.62799">
        <ele>236</ele>
        <time>2016-03-08T17:31:57Z</time>
      </trkpt>
      <trkpt lat="44.12122" lon="4.62797">
        <ele>236</ele>
        <time>2016-03-08T17:33:57Z</time>
      </trkpt>
      <trkpt lat="44.12121" lon="4.62797">
        <ele>236</ele>
        <time>2016-03-08T17:35:57Z</time>
      </trkpt>
      <trkpt lat="44.12093" lon="4.62788">
        <ele>236</ele>
        <time>2016-03-08T17:37:57Z</time>
      </trkpt>
      <trkpt lat="44.12081" lon="4.62783">
        <ele>235</ele>
        <time>2016-03-08T17:39:57Z</time>
      </trkpt>
      <trkpt lat="44.12074" lon="4.62781">
        <ele>234</ele>
        <time>2016-03-08T17:41:57Z</time>
      </trkpt>
      <trkpt lat="44.12057" lon="4.62775">
        <ele>231</ele>
        <time>2016-03-08T17:43:57Z</time>
      </trkpt>
      <trkpt lat="44.12045" lon="4.62773">
        <ele>228</ele>
        <time>2016-03-08T17:45:57Z</time>
      </trkpt>
      <trkpt lat="44.12036" lon="4.62774">
        <ele>227</ele>
        <time>2016-03-08T17:47:57Z</time>
      </trkpt>
      <trkpt lat="44.12034" lon="4.62775">
        <ele>227</ele>
        <time>2016-03-08T17:49:57Z</time>
      </trkpt>
      <trkpt lat="44.12033" lon="4.62775">
        <ele>227</ele>
        <time>2016-03-08T17:51:57Z</time>
      </trkpt>
      <trkpt lat="44.12033" lon="4.62776">
        <ele>227</ele>
        <time>2016-03-08T17:53:57Z</time>
      </trkpt>
      <trkpt lat="44.12031" lon="4.62788">
        <ele>228</ele>
        <time>2016-03-08T17:55:57Z</time>
      </trkpt>
      <trkpt lat="44.1202" lon="4.628">
        <ele>227</ele>
        <time>2016-03-08T17:57:57Z</time>
      </trkpt>
      <trkpt lat="44.12013" lon="4.62804">
        <ele>226</ele>
        <time>2016-03-08T17:59:57Z</time>
      </trkpt>
      <trkpt lat="44.12009" lon="4.62811">
        <ele>226</ele>
        <time>2016-03-08T18:01:57Z</time>
      </trkpt>
      <trkpt lat="44.12011" lon="4.62822">
        <ele>228</ele>
        <time>2016-03-08T18:03:57Z</time>
      </trkpt>
      <trkpt lat="44.12011" lon="4.62844">
        <ele>226</ele>
        <time>2016-03-08T18:05:57Z</time>
      </trkpt>
      <trkpt lat="44.12022" lon="4.62852">
        <ele>227</ele>
        <time>2016-03-08T18:07:57Z</time>
      </trkpt>
      <trkpt lat="44.12056" lon="4.62856">
        <ele>231</ele>
        <time>2016-03-08T18:09:57Z</time>
      </trkpt>
      <trkpt lat="44.12071" lon="4.6286">
        <ele>233</ele>
        <time>2016-03-08T18:11:57Z</time>
      </trkpt>
      <trkpt lat="44.12076" lon="4.62864">
        <ele>234</ele>
        <time>2016-03-08T18:13:57Z</time>
      </trkpt>
      <trkpt lat="44.12083" lon="4.62867">
        <ele>234</ele>
        <time>2016-03-08T18:15:57Z</time>
      </trkpt>
      <trkpt lat="44.1209" lon="4.6289">
        <ele>232</ele>
        <time>2016-03-08T18:17:57Z</time>
      </trkpt>
      <trkpt lat="44.12095" lon="4.62896">
        <ele>232</ele>
        <time>2016-03-08T18:19:57Z</time>
      </trkpt>
      <trkpt lat="44.12098" lon="4.62898">
        <ele>231</ele>
        <time>2016-03-08T18:21:57Z</time>
      </trkpt>
      <trkpt lat="44.12101" lon="4.62898">
        <ele>232</ele>
        <time>2016-03-08T18:23:57Z</time>
      </trkpt>
      <trkpt lat="44.12116" lon="4.629">
        <ele>233</ele>
        <time>2016-03-08T18:25:57Z</time>
      </trkpt>
      <trkpt lat="44.12124" lon="4.62905">
        <ele>233</ele>
        <time>2016-03-08T18:27:57Z</time>
      </trkpt>
      <trkpt lat="44.12128" lon="4.62906">
        <ele>233</ele>
        <time>2016-03-08T18:29:57Z</time>
      </trkpt>
      <trkpt lat="44.12135" lon="4.62912">
        <ele>233</ele>
        <time>2016-03-08T18:31:57Z</time>
      </trkpt>
      <trkpt lat="44.12142" lon="4.6292">
        <ele>233</ele>
        <time>2016-03-08T18:33:57Z</time>
      </trkpt>
      <trkpt lat="44.12146" lon="4.62923">
        <ele>233</ele>
        <time>2016-03-08T18:35:57Z</time>
      </trkpt>
      <trkpt lat="44.12151" lon="4.62926">
        <ele>233</ele>
        <time>2016-03-08T18:37:57Z</time>
      </trkpt>
      <trkpt lat="44.12164" lon="4.62935">
        <ele>233</ele>
        <time>2016-03-08T18:39:57Z</time>
      </trkpt>
      <trkpt lat="44.12166" lon="4.62943">
        <ele>232</ele>
        <time>2016-03-08T18:41:57Z</time>
      </trkpt>
      <trkpt lat="44.12168" lon="4.62952">
        <ele>231</ele>
        <time>2016-03-08T18:43:57Z</time>
      </trkpt>
      <trkpt lat="44.12169" lon="4.62959">
        <ele>230</ele>
        <time>2016-03-08T18:45:57Z</time>
      </trkpt>
      <trkpt lat="44.1217" lon="4.62965">
        <ele>230</ele>
        <time>2016-03-08T18:47:57Z</time>
      </trkpt>
      <trkpt lat="44.12175" lon="4.6299">
        <ele>226</ele>
        <time>2016-03-08T18:49:57Z</time>
      </trkpt>
      <trkpt lat="44.12184" lon="4.63004">
        <ele>225</ele>
        <time>2016-03-08T18:51:57Z</time>
      </trkpt>
      <trkpt lat="44.12186" lon="4.63008">
        <ele>225</ele>
        <time>2016-03-08T18:53:57Z</time>
      </trkpt>
      <trkpt lat="44.12186" lon="4.63011">
        <ele>225</ele>
        <time>2016-03-08T18:55:57Z</time>
      </trkpt>
      <trkpt lat="44.12186" lon="4.63022">
        <ele>224</ele>
        <time>2016-03-08T18:57:57Z</time>
      </trkpt>
      <trkpt lat="44.12185" lon="4.63039">
        <ele>223</ele>
        <time>2016-03-08T18:59:57Z</time>
      </trkpt>
      <trkpt lat="44.12183" lon="4.6304">
        <ele>222</ele>
        <time>2016-03-08T19:01:57Z</time>
      </trkpt>
      <trkpt lat="44.12176" lon="4.6305">
        <ele>221</ele>
        <time>2016-03-08T19:03:57Z</time>
      </trkpt>
      <trkpt lat="44.12173" lon="4.6307">
        <ele>220</ele>
        <time>2016-03-08T19:05:57Z</time>
      </trkpt>
      <trkpt lat="44.12175" lon="4.63076">
        <ele>219</ele>
        <time>2016-03-08T19:07:57Z</time>
      </trkpt>
      <trkpt lat="44.12177" lon="4.63079">
        <ele>219</ele>
        <time>2016-03-08T19:09:57Z</time>
      </trkpt>
      <trkpt lat="44.12186" lon="4.63095">
        <ele>220</ele>
        <time>2016-03-08T19:11:57Z</time>
      </trkpt>
      <trkpt lat="44.12189" lon="4.63096">
        <ele>220</ele>
        <time>2016-03-08T19:13:57Z</time>
      </trkpt>
      <trkpt lat="44.122" lon="4.63105">
        <ele>221</ele>
        <time>2016-03-08T19:15:57Z</time>
      </trkpt>
      <trkpt lat="44.12202" lon="4.63108">
        <ele>221</ele>
        <time>2016-03-08T19:17:57Z</time>
      </trkpt>
      <trkpt lat="44.12211" lon="4.63124">
        <ele>223</ele>
        <time>2016-03-08T19:19:57Z</time>
      </trkpt>
      <trkpt lat="44.12222" lon="4.6314">
        <ele>224</ele>
        <time>2016-03-08T19:21:57Z</time>
      </trkpt>
      <trkpt lat="44.12225" lon="4.63145">
        <ele>225</ele>
        <time>2016-03-08T19:23:57Z</time>
      </trkpt>
      <trkpt lat="44.12225" lon="4.63162">
        <ele>225</ele>
        <time>2016-03-08T19:25:57Z</time>
      </trkpt>
      <trkpt lat="44.12225" lon="4.63168">
        <ele>226</ele>
        <time>2016-03-08T19:27:57Z</time>
      </trkpt>
      <trkpt lat="44.12224" lon="4.63177">
        <ele>226</ele>
        <time>2016-03-08T19:29:57Z</time>
      </trkpt>
      <trkpt lat="44.12224" lon="4.63188">
        <ele>226</ele>
        <time>2016-03-08T19:31:57Z</time>
      </trkpt>
      <trkpt lat="44.1223" lon="4.632">
        <ele>227</ele>
        <time>2016-03-08T19:33:57Z</time>
      </trkpt>
      <trkpt lat="44.12232" lon="4.63205">
        <ele>227</ele>
        <time>2016-03-08T19:35:57Z</time>
      </trkpt>
      <trkpt lat="44.12237" lon="4.63222">
        <ele>229</ele>
        <time>2016-03-08T19:37:57Z</time>
      </trkpt>
      <trkpt lat="44.12239" lon="4.6324">
        <ele>229</ele>
        <time>2016-03-08T19:39:57Z</time>
      </trkpt>
      <trkpt lat="44.12234" lon="4.63265">
        <ele>229</ele>
        <time>2016-03-08T19:41:57Z</time>
      </trkpt>
      <trkpt lat="44.12234" lon="4.63269">
        <ele>230</ele>
        <time>2016-03-08T19:43:57Z</time>
      </trkpt>
      <trkpt lat="44.12232" lon="4.63291">
        <ele>230</ele>
        <time>2016-03-08T19:45:57Z</time>
      </trkpt>
      <trkpt lat="44.12223" lon="4.63302">
        <ele>230</ele>
        <time>2016-03-08T19:47:57Z</time>
      </trkpt>
      <trkpt lat="44.1222" lon="4.63304">
        <ele>230</ele>
        <time>2016-03-08T19:49:57Z</time>
      </trkpt>
      <trkpt lat="44.12214" lon="4.63313">
        <ele>229</ele>
        <time>2016-03-08T19:51:57Z</time>
      </trkpt>
      <trkpt lat="44.12208" lon="4.63329">
        <ele>230</ele>
        <time>2016-03-08T19:53:57Z</time>
      </trkpt>
      <trkpt lat="44.122" lon="4.63342">
        <ele>230</ele>
        <time>2016-03-08T19:55:57Z</time>
      </trkpt>
      <trkpt lat="44.12195" lon="4.63353">
        <ele>230</ele>
        <time>2016-03-08T19:57:57Z</time>
      </trkpt>
      <trkpt lat="44.12193" lon="4.63364">
        <ele>231</ele>
        <time>2016-03-08T19:59:57Z</time>
      </trkpt>
      <trkpt lat="44.12194" lon="4.63376">
        <ele>232</ele>
        <time>2016-03-08T20:01:57Z</time>
      </trkpt>
      <trkpt lat="44.12195" lon="4.63379">
        <ele>232</ele>
        <time>2016-03-08T20:03:57Z</time>
      </trkpt>
      <trkpt lat="44.12197" lon="4.63393">
        <ele>233</ele>
        <time>2016-03-08T20:05:57Z</time>
      </trkpt>
      <trkpt lat="44.12197" lon="4.63398">
        <ele>234</ele>
        <time>2016-03-08T20:07:57Z</time>
      </trkpt>
      <trkpt lat="44.12199" lon="4.63405">
        <ele>234</ele>
        <time>2016-03-08T20:09:57Z</time>
      </trkpt>
      <trkpt lat="44.12202" lon="4.63412">
        <ele>235</ele>
        <time>2016-03-08T20:11:57Z</time>
      </trkpt>
      <trkpt lat="44.12202" lon="4.63421">
        <ele>236</ele>
        <time>2016-03-08T20:13:57Z</time>
      </trkpt>
      <trkpt lat="44.12202" lon="4.63426">
        <ele>236</ele>
        <time>2016-03-08T20:15:57Z</time>
      </trkpt>
      <trkpt lat="44.12203" lon="4.63437">
        <ele>237</ele>
        <time>2016-03-08T20:17:57Z</time>
      </trkpt>
      <trkpt lat="44.12203" lon="4.63447">
        <ele>238</ele>
        <time>2016-03-08T20:19:57Z</time>
      </trkpt>
      <trkpt lat="44.12203" lon="4.63448">
        <ele>238</ele>
        <time>2016-03-08T20:21:57Z</time>
      </trkpt>
      <trkpt lat="44.12204" lon="4.63447">
        <ele>238</ele>
        <time>2016-03-08T20:23:57Z</time>
      </trkpt>
      <trkpt lat="44.12204" lon="4.63449">
        <ele>238</ele>
        <time>2016-03-08T20:25:57Z</time>
      </trkpt>
      <trkpt lat="44.12202" lon="4.63467">
        <ele>239</ele>
        <time>2016-03-08T20:27:57Z</time>
      </trkpt>
      <trkpt lat="44.12201" lon="4.6349">
        <ele>241</ele>
        <time>2016-03-08T20:29:57Z</time>
      </trkpt>
      <trkpt lat="44.12199" lon="4.63494">
        <ele>241</ele>
        <time>2016-03-08T20:31:57Z</time>
      </trkpt>
      <trkpt lat="44.12193" lon="4.63499">
        <ele>241</ele>
        <time>2016-03-08T20:33:57Z</time>
      </trkpt>
      <trkpt lat="44.12191" lon="4.63498">
        <ele>241</ele>
        <time>2016-03-08T20:35:57Z</time>
      </trkpt>
      <trkpt lat="44.12184" lon="4.63497">
        <ele>240</ele>
        <time>2016-03-08T20:37:57Z</time>
      </trkpt>
      <trkpt lat="44.12178" lon="4.63503">
        <ele>241</ele>
        <time>2016-03-08T20:39:57Z</time>
      </trkpt>
      <trkpt lat="44.12171" lon="4.63512">
        <ele>241</ele>
        <time>2016-03-08T20:41:57Z</time>
      </trkpt>
      <trkpt lat="44.12167" lon="4.63516">
        <ele>241</ele>
        <time>2016-03-08T20:43:57Z</time>
      </trkpt>
      <trkpt lat="44.12162" lon="4.63518">
        <ele>241</ele>
        <time>2016-03-08T20:45:57Z</time>
      </trkpt>
      <trkpt lat="44.12147" lon="4.63526">
        <ele>242</ele>
        <time>2016-03-08T20:47:57Z</time>
      </trkpt>
      <trkpt lat="44.12138" lon="4.63533">
        <ele>242</ele>
        <time>2016-03-08T20:49:57Z</time>
      </trkpt>
      <trkpt lat="44.12127" lon="4.63545">
        <ele>243</ele>
        <time>2016-03-08T20:51:57Z</time>
      </trkpt>
      <trkpt lat="44.12125" lon="4.6355">
        <ele>243</ele>
        <time>2016-03-08T20:53:57Z</time>
      </trkpt>
      <trkpt lat="44.12111" lon="4.63558">
        <ele>243</ele>
        <time>2016-03-08T20:55:57Z</time>
      </trkpt>
      <trkpt lat="44.12098" lon="4.63558">
        <ele>243</ele>
        <time>2016-03-08T20:57:57Z</time>
      </trkpt>
      <trkpt lat="44.12091" lon="4.63562">
        <ele>243</ele>
        <time>2016-03-08T20:59:57Z</time>
      </trkpt>
      <trkpt lat="44.12082" lon="4.63573">
        <ele>243</ele>
        <time>2016-03-08T21:01:57Z</time>
      </trkpt>
      <trkpt lat="44.12079" lon="4.63575">
        <ele>243</ele>
        <time>2016-03-08T21:03:57Z</time>
      </trkpt>
      <trkpt lat="44.12076" lon="4.63577">
        <ele>243</ele>
        <time>2016-03-08T21:05:57Z</time>
      </trkpt>
      <trkpt lat="44.12067" lon="4.63586">
        <ele>242</ele>
        <time>2016-03-08T21:07:57Z</time>
      </trkpt>
      <trkpt lat="44.1206" lon="4.63597">
        <ele>241</ele>
        <time>2016-03-08T21:09:57Z</time>
      </trkpt>
      <trkpt lat="44.12057" lon="4.63598">
        <ele>241</ele>
        <time>2016-03-08T21:11:57Z</time>
      </trkpt>
      <trkpt lat="44.12048" lon="4.6361">
        <ele>240</ele>
        <time>2016-03-08T21:13:57Z</time>
      </trkpt>
      <trkpt lat="44.12044" lon="4.63618">
        <ele>240</ele>
        <time>2016-03-08T21:15:57Z</time>
      </trkpt>
      <trkpt lat="44.12036" lon="4.63632">
        <ele>240</ele>
        <time>2016-03-08T21:17:57Z</time>
      </trkpt>
      <trkpt lat="44.12028" lon="4.63647">
        <ele>239</ele>
        <time>2016-03-08T21:19:57Z</time>
      </trkpt>
      <trkpt lat="44.12027" lon="4.63652">
        <ele>239</ele>
        <time>2016-03-08T21:21:57Z</time>
      </trkpt>
      <trkpt lat="44.12019" lon="4.63664">
        <ele>239</ele>
        <time>2016-03-08T21:23:57Z</time>
      </trkpt>
      <trkpt lat="44.12016" lon="4.63672">
        <ele>239</ele>
        <time>2016-03-08T21:25:57Z</time>
      </trkpt>
      <trkpt lat="44.12016" lon="4.63679">
        <ele>239</ele>
        <time>2016-03-08T21:27:57Z</time>
      </trkpt>
      <trkpt lat="44.12015" lon="4.63685">
        <ele>240</ele>
        <time>2016-03-08T21:29:57Z</time>
      </trkpt>
      <trkpt lat="44.12015" lon="4.63689">
        <ele>240</ele>
        <time>2016-03-08T21:31:57Z</time>
      </trkpt>
      <trkpt lat="44.12015" lon="4.63696">
        <ele>240</ele>
        <time>2016-03-08T21:33:57Z</time>
      </trkpt>
      <trkpt lat="44.12019" lon="4.63706">
        <ele>242</ele>
        <time>2016-03-08T21:35:57Z</time>
      </trkpt>
      <trkpt lat="44.12018" lon="4.6371">
        <ele>242</ele>
        <time>2016-03-08T21:37:57Z</time>
      </trkpt>
      <trkpt lat="44.12018" lon="4.63734">
        <ele>243</ele>
        <time>2016-03-08T21:39:57Z</time>
      </trkpt>
      <trkpt lat="44.12015" lon="4.6375">
        <ele>244</ele>
        <time>2016-03-08T21:41:57Z</time>
      </trkpt>
      <trkpt lat="44.12011" lon="4.63773">
        <ele>246</ele>
        <time>2016-03-08T21:43:57Z</time>
      </trkpt>
      <trkpt lat="44.12015" lon="4.63791">
        <ele>249</ele>
        <time>2016-03-08T21:45:57Z</time>
      </trkpt>
      <trkpt lat="44.12015" lon="4.63795">
        <ele>249</ele>
        <time>2016-03-08T21:47:57Z</time>
      </trkpt>
      <trkpt lat="44.12012" lon="4.63803">
        <ele>250</ele>
        <time>2016-03-08T21:49:57Z</time>
      </trkpt>
      <trkpt lat="44.12001" lon="4.63826">
        <ele>251</ele>
        <time>2016-03-08T21:51:57Z</time>
      </trkpt>
      <trkpt lat="44.11991" lon="4.63845">
        <ele>251</ele>
        <time>2016-03-08T21:53:57Z</time>
      </trkpt>
      <trkpt lat="44.11989" lon="4.63848">
        <ele>251</ele>
        <time>2016-03-08T21:55:57Z</time>
      </trkpt>
      <trkpt lat="44.11975" lon="4.63866">
        <ele>251</ele>
        <time>2016-03-08T21:57:57Z</time>
      </trkpt>
      <trkpt lat="44.11965" lon="4.63878">
        <ele>251</ele>
        <time>2016-03-08T21:59:57Z</time>
      </trkpt>
      <trkpt lat="44.11961" lon="4.63885">
        <ele>252</ele>
        <time>2016-03-08T22:01:57Z</time>
      </trkpt>
      <trkpt lat="44.1195" lon="4.63896">
        <ele>252</ele>
        <time>2016-03-08T22:03:57Z</time>
      </trkpt>
      <trkpt lat="44.11936" lon="4.63908">
        <ele>254</ele>
        <time>2016-03-08T22:05:57Z</time>
      </trkpt>
      <trkpt lat="44.11935" lon="4.63912">
        <ele>254</ele>
        <time>2016-03-08T22:07:57Z</time>
      </trkpt>
      <trkpt lat="44.11931" lon="4.63919">
        <ele>255</ele>
        <time>2016-03-08T22:09:57Z</time>
      </trkpt>
      <trkpt lat="44.11923" lon="4.63927">
        <ele>256</ele>
        <time>2016-03-08T22:11:57Z</time>
      </trkpt>
      <trkpt lat="44.11908" lon="4.63937">
        <ele>256</ele>
        <time>2016-03-08T22:13:57Z</time>
      </trkpt>
      <trkpt lat="44.11904" lon="4.63935">
        <ele>256</ele>
        <time>2016-03-08T22:15:57Z</time>
      </trkpt>
      <trkpt lat="44.11904" lon="4.63934">
        <ele>255</ele>
        <time>2016-03-08T22:17:57Z</time>
      </trkpt>
      <trkpt lat="44.11904" lon="4.63934">
        <ele>255</ele>
        <time>2016-03-08T22:19:57Z</time>
      </trkpt>
      <trkpt lat="44.11904" lon="4.63932">
        <ele>255</ele>
        <time>2016-03-08T22:21:57Z</time>
      </trkpt>
      <trkpt lat="44.11901" lon="4.63922">
        <ele>254</ele>
        <time>2016-03-08T22:23:57Z</time>
      </trkpt>
      <trkpt lat="44.11893" lon="4.63923">
        <ele>253</ele>
        <time>2016-03-08T22:25:57Z</time>
      </trkpt>
      <trkpt lat="44.11883" lon="4.6393">
        <ele>254</ele>
        <time>2016-03-08T22:27:57Z</time>
      </trkpt>
      <trkpt lat="44.11875" lon="4.63936">
        <ele>254</ele>
        <time>2016-03-08T22:29:57Z</time>
      </trkpt>
      <trkpt lat="44.11872" lon="4.6394">
        <ele>255</ele>
        <time>2016-03-08T22:31:57Z</time>
      </trkpt>
      <trkpt lat="44.11871" lon="4.63948">
        <ele>256</ele>
        <time>2016-03-08T22:33:57Z</time>
      </trkpt>
      <trkpt lat="44.1187" lon="4.63951">
        <ele>256</ele>
        <time>2016-03-08T22:35:57Z</time>
      </trkpt>
      <trkpt lat="44.11865" lon="4.63954">
        <ele>256</ele>
        <time>2016-03-08T22:37:57Z</time>
      </trkpt>
      <trkpt lat="44.11863" lon="4.63959">
        <ele>257</ele>
        <time>2016-03-08T22:39:57Z</time>
      </trkpt>
      <trkpt lat="44.11862" lon="4.63959">
        <ele>257</ele>
        <time>2016-03-08T22:41:57Z</time>
      </trkpt>
      <trkpt lat="44.11861" lon="4.6396">
        <ele>257</ele>
        <time>2016-03-08T22:43:57Z</time>
      </trkpt>
      <trkpt lat="44.11856" lon="4.6396">
        <ele>257</ele>
        <time>2016-03-08T22:45:57Z</time>
      </trkpt>
      <trkpt lat="44.11854" lon="4.63959">
        <ele>257</ele>
        <time>2016-03-08T22:47:57Z</time>
      </trkpt>
      <trkpt lat="44.11851" lon="4.63964">
        <ele>258</ele>
        <time>2016-03-08T22:49:57Z</time>
      </trkpt>
      <trkpt lat="44.11848" lon="4.63968">
        <ele>258</ele>
        <time>2016-03-08T22:51:57Z</time>
      </trkpt>
      <trkpt lat="44.11845" lon="4.6397">
        <ele>258</ele>
        <time>2016-03-08T22:53:57Z</time>
      </trkpt>
      <trkpt lat="44.11841" lon="4.63969">
        <ele>258</ele>
        <time>2016-03-08T22:55:57Z</time>
      </trkpt>
      <trkpt lat="44.11837" lon="4.63968">
        <ele>258</ele>
        <time>2016-03-08T22:57:57Z</time>
      </trkpt>
      <trkpt lat="44.11827" lon="4.63965">
        <ele>257</ele>
        <time>2016-03-08T22:59:57Z</time>
      </trkpt>
      <trkpt lat="44.11826" lon="4.63965">
        <ele>257</ele>
        <time>2016-03-08T23:01:57Z</time>
      </trkpt>
      <trkpt lat="44.11819" lon="4.63965">
        <ele>258</ele>
        <time>2016-03-08T23:03:57Z</time>
      </trkpt>
      <trkpt lat="44.11811" lon="4.6396">
        <ele>257</ele>
        <time>2016-03-08T23:05:57Z</time>
      </trkpt>
      <trkpt lat="44.11802" lon="4.63957">
        <ele>257</ele>
        <time>2016-03-08T23:07:57Z</time>
      </trkpt>
      <trkpt lat="44.118" lon="4.63955">
        <ele>257</ele>
        <time>2016-03-08T23:09:57Z</time>
      </trkpt>
      <trkpt lat="44.11795" lon="4.63952">
        <ele>257</ele>
        <time>2016-03-08T23:11:57Z</time>
      </trkpt>
      <trkpt lat="44.11791" lon="4.63951">
        <ele>257</ele>
        <time>2016-03-08T23:13:57Z</time>
      </trkpt>
      <trkpt lat="44.11783" lon="4.63941">
        <ele>256</ele>
        <time>2016-03-08T23:15:57Z</time>
      </trkpt>
      <trkpt lat="44.11781" lon="4.63928">
        <ele>255</ele>
        <time>2016-03-08T23:17:57Z</time>
      </trkpt>
      <trkpt lat="44.11777" lon="4.63921">
        <ele>254</ele>
        <time>2016-03-08T23:19:57Z</time>
      </trkpt>
      <trkpt lat="44.11776" lon="4.63915">
        <ele>253</ele>
        <time>2016-03-08T23:21:57Z</time>
      </trkpt>
      <trkpt lat="44.11773" lon="4.639">
        <ele>250</ele>
        <time>2016-03-08T23:23:57Z</time>
      </trkpt>
      <trkpt lat="44.11763" lon="4.63882">
        <ele>247</ele>
        <time>2016-03-08T23:25:57Z</time>
      </trkpt>
      <trkpt lat="44.11761" lon="4.63879">
        <ele>247</ele>
        <time>2016-03-08T23:27:57Z</time>
      </trkpt>
      <trkpt lat="44.11754" lon="4.63878">
        <ele>247</ele>
        <time>2016-03-08T23:29:57Z</time>
      </trkpt>
      <trkpt lat="44.11751" lon="4.63878">
        <ele>248</ele>
        <time>2016-03-08T23:31:57Z</time>
      </trkpt>
      <trkpt lat="44.11747" lon="4.63879">
        <ele>247</ele>
        <time>2016-03-08T23:33:57Z</time>
      </trkpt>
      <trkpt lat="44.11741" lon="4.63881">
        <ele>246</ele>
        <time>2016-03-08T23:35:57Z</time>
      </trkpt>
      <trkpt lat="44.11737" lon="4.63884">
        <ele>246</ele>
        <time>2016-03-08T23:37:57Z</time>
      </trkpt>
      <trkpt lat="44.11727" lon="4.63893">
        <ele>245</ele>
        <time>2016-03-08T23:39:57Z</time>
      </trkpt>
      <trkpt lat="44.11725" lon="4.63897">
        <ele>245</ele>
        <time>2016-03-08T23:41:57Z</time>
      </trkpt>
      <trkpt lat="44.11719" lon="4.63903">
        <ele>245</ele>
        <time>2016-03-08T23:43:57Z</time>
      </trkpt>
      <trkpt lat="44.11717" lon="4.63906">
        <ele>245</ele>
        <time>2016-03-08T23:45:57Z</time>
      </trkpt>
      <trkpt lat="44.11713" lon="4.63912">
        <ele>245</ele>
        <time>2016-03-08T23:47:57Z</time>
      </trkpt>
      <trkpt lat="44.11707" lon="4.63921">
        <ele>245</ele>
        <time>2016-03-08T23:49:57Z</time>
      </trkpt>
      <trkpt lat="44.11704" lon="4.63924">
        <ele>244</ele>
        <time>2016-03-08T23:51:57Z</time>
      </trkpt>
      <trkpt lat="44.11694" lon="4.63937">
        <ele>242</ele>
        <time>2016-03-08T23:53:57Z</time>
      </trkpt>
      <trkpt lat="44.11692" lon="4.63943">
        <ele>242</ele>
        <time>2016-03-08T23:55:57Z</time>
      </trkpt>
      <trkpt lat="44.11686" lon="4.63952">
        <ele>242</ele>
        <time>2016-03-08T23:57:57Z</time>
      </trkpt>
      <trkpt lat="44.11684" lon="4.63954">
        <ele>241</ele>
        <time>2016-03-08T23:59:57Z</time>
      </trkpt>
      <trkpt lat="44.11677" lon="4.63956">
        <ele>240</ele>
        <time>2016-03-09T00:01:57Z</time>
      </trkpt>
      <trkpt lat="44.1167" lon="4.63962">
        <ele>238</ele>
        <time>2016-03-09T00:03:57Z</time>
      </trkpt>
      <trkpt lat="44.11657" lon="4.63973">
        <ele>235</ele>
        <time>2016-03-09T00:05:57Z</time>
      </trkpt>
      <trkpt lat="44.1165" lon="4.63977">
        <ele>233</ele>
        <time>2016-03-09T00:07:57Z</time>
      </trkpt>
      <trkpt lat="44.11647" lon="4.6398">
        <ele>233</ele>
        <time>2016-03-09T00:09:57Z</time>
      </trkpt>
      <trkpt lat="44.11642" lon="4.63984">
        <ele>231</ele>
        <time>2016-03-09T00:11:57Z</time>
      </trkpt>
      <trkpt lat="44.11634" lon="4.63988">
        <ele>229</ele>
        <time>2016-03-09T00:13:57Z</time>
      </trkpt>
      <trkpt lat="44.11628" lon="4.63991">
        <ele>227</ele>
        <time>2016-03-09T00:15:57Z</time>
      </trkpt>
      <trkpt lat="44.11626" lon="4.63992">
        <ele>227</ele>
        <time>2016-03-09T00:17:57Z</time>
      </trkpt>
      <trkpt lat="44.11621" lon="4.63997">
        <ele>225</ele>
        <time>2016-03-09T00:19:57Z</time>
      </trkpt>
      <trkpt lat="44.11618" lon="4.63999">
        <ele>225</ele>
        <time>2016-03-09T00:21:57Z</time>
      </trkpt>
      <trkpt lat="44.11607" lon="4.64012">
        <ele>220</ele>
        <time>2016-03-09T00:23:57Z</time>
      </trkpt>
      <trkpt lat="44.11605" lon="4.64015">
        <ele>220</ele>
        <time>2016-03-09T00:25:57Z</time>
      </trkpt>
      <trkpt lat="44.11604" lon="4.64021">
        <ele>219</ele>
        <time>2016-03-09T00:27:57Z</time>
      </trkpt>
      <trkpt lat="44.11602" lon="4.64034">
        <ele>218</ele>
        <time>2016-03-09T00:29:57Z</time>
      </trkpt>
      <trkpt lat="44.11603" lon="4.64037">
        <ele>218</ele>
        <time>2016-03-09T00:31:57Z</time>
      </trkpt>
      <trkpt lat="44.11608" lon="4.6405">
        <ele>219</ele>
        <time>2016-03-09T00:33:57Z</time>
      </trkpt>
      <trkpt lat="44.11618" lon="4.64065">
        <ele>221</ele>
        <time>2016-03-09T00:35:57Z</time>
      </trkpt>
      <trkpt lat="44.11618" lon="4.64067">
        <ele>221</ele>
        <time>2016-03-09T00:37:57Z</time>
      </trkpt>
      <trkpt lat="44.11618" lon="4.64082">
        <ele>220</ele>
        <time>2016-03-09T00:39:57Z</time>
      </trkpt>
      <trkpt lat="44.11616" lon="4.64086">
        <ele>219</ele>
        <time>2016-03-09T00:41:57Z</time>
      </trkpt>
      <trkpt lat="44.11612" lon="4.64091">
        <ele>217</ele>
        <time>2016-03-09T00:43:57Z</time>
      </trkpt>
      <trkpt lat="44.11609" lon="4.64097">
        <ele>216</ele>
        <time>2016-03-09T00:45:57Z</time>
      </trkpt>
      <trkpt lat="44.11606" lon="4.64101">
        <ele>214</ele>
        <time>2016-03-09T00:47:57Z</time>
      </trkpt>
      <trkpt lat="44.11603" lon="4.64104">
        <ele>213</ele>
        <time>2016-03-09T00:49:57Z</time>
      </trkpt>
      <trkpt lat="44.11601" lon="4.64106">
        <ele>212</ele>
        <time>2016-03-09T00:51:57Z</time>
      </trkpt>
      <trkpt lat="44.11601" lon="4.6411">
        <ele>212</ele>
        <time>2016-03-09T00:53:57Z</time>
      </trkpt>
      <trkpt lat="44.11601" lon="4.64119">
        <ele>211</ele>
        <time>2016-03-09T00:55:57Z</time>
      </trkpt>
      <trkpt lat="44.11603" lon="4.64129">
        <ele>210</ele>
        <time>2016-03-09T00:57:57Z</time>
      </trkpt>
      <trkpt lat="44.11606" lon="4.64134">
        <ele>210</ele>
        <time>2016-03-09T00:59:57Z</time>
      </trkpt>
      <trkpt lat="44.11614" lon="4.64146">
        <ele>210</ele>
        <time>2016-03-09T01:01:57Z</time>
      </trkpt>
      <trkpt lat="44.11613" lon="4.64148">
        <ele>209</ele>
        <time>2016-03-09T01:03:57Z</time>
      </trkpt>
      <trkpt lat="44.11613" lon="4.6415">
        <ele>209</ele>
        <time>2016-03-09T01:05:57Z</time>
      </trkpt>
      <trkpt lat="44.11615" lon="4.64157">
        <ele>208</ele>
        <time>2016-03-09T01:07:57Z</time>
      </trkpt>
      <trkpt lat="44.11614" lon="4.64161">
        <ele>207</ele>
        <time>2016-03-09T01:09:57Z</time>
      </trkpt>
      <trkpt lat="44.11612" lon="4.64174">
        <ele>205</ele>
        <time>2016-03-09T01:11:57Z</time>
      </trkpt>
      <trkpt lat="44.11606" lon="4.64193">
        <ele>201</ele>
        <time>2016-03-09T01:13:57Z</time>
      </trkpt>
      <trkpt lat="44.11604" lon="4.64197">
        <ele>201</ele>
        <time>2016-03-09T01:15:57Z</time>
      </trkpt>
      <trkpt lat="44.11602" lon="4.642">
        <ele>200</ele>
        <time>2016-03-09T01:17:57Z</time>
      </trkpt>
      <trkpt lat="44.11598" lon="4.64199">
        <ele>199</ele>
        <time>2016-03-09T01:19:57Z</time>
      </trkpt>
      <trkpt lat="44.11592" lon="4.642">
        <ele>198</ele>
        <time>2016-03-09T01:21:57Z</time>
      </trkpt>
      <trkpt lat="44.11591" lon="4.64201">
        <ele>198</ele>
        <time>2016-03-09T01:23:57Z</time>
      </trkpt>
      <trkpt lat="44.11588" lon="4.64205">
        <ele>197</ele>
        <time>2016-03-09T01:25:57Z</time>
      </trkpt>
      <trkpt lat="44.11584" lon="4.64209">
        <ele>196</ele>
        <time>2016-03-09T01:27:57Z</time>
      </trkpt>
      <trkpt lat="44.11576" lon="4.64209">
        <ele>196</ele>
        <time>2016-03-09T01:29:57Z</time>
      </trkpt>
      <trkpt lat="44.11572" lon="4.6421">
        <ele>195</ele>
        <time>2016-03-09T01:31:57Z</time>
      </trkpt>
      <trkpt lat="44.11564" lon="4.64206">
        <ele>195</ele>
        <time>2016-03-09T01:33:57Z</time>
      </trkpt>
      <trkpt lat="44.11559" lon="4.642">
        <ele>195</ele>
        <time>2016-03-09T01:35:57Z</time>
      </trkpt>
      <trkpt lat="44.11551" lon="4.64191">
        <ele>196</ele>
        <time>2016-03-09T01:37:57Z</time>
      </trkpt>
      <trkpt lat="44.11543" lon="4.64185">
        <ele>196</ele>
        <time>2016-03-09T01:39:57Z</time>
      </trkpt>
      <trkpt lat="44.11533" lon="4.64175">
        <ele>196</ele>
        <time>2016-03-09T01:41:57Z</time>
      </trkpt>
      <trkpt lat="44.11521" lon="4.6416">
        <ele>195</ele>
        <time>2016-03-09T01:43:57Z</time>
      </trkpt>
      <trkpt lat="44.1152" lon="4.64162">
        <ele>195</ele>
        <time>2016-03-09T01:45:57Z</time>
      </trkpt>
      <trkpt lat="44.1153" lon="4.64173">
        <ele>195</ele>
        <time>2016-03-09T01:47:57Z</time>
      </trkpt>
      <trkpt lat="44.11544" lon="4.64188">
        <ele>196</ele>
        <time>2016-03-09T01:49:57Z</time>
      </trkpt>
      <trkpt lat="44.11553" lon="4.64197">
        <ele>195</ele>
        <time>2016-03-09T01:51:57Z</time>
      </trkpt>
      <trkpt lat="44.11553" lon="4.64199">
        <ele>195</ele>
        <time>2016-03-09T01:53:57Z</time>
      </trkpt>
      <trkpt lat="44.11552" lon="4.64199">
        <ele>195</ele>
        <time>2016-03-09T01:55:57Z</time>
      </trkpt>
      <trkpt lat="44.11552" lon="4.64198">
        <ele>195</ele>
        <time>2016-03-09T01:57:57Z</time>
      </trkpt>
      <trkpt lat="44.11552" lon="4.642">
        <ele>195</ele>
        <time>2016-03-09T01:59:57Z</time>
      </trkpt>
      <trkpt lat="44.11549" lon="4.64206">
        <ele>194</ele>
        <time>2016-03-09T02:01:57Z</time>
      </trkpt>
      <trkpt lat="44.11547" lon="4.64208">
        <ele>194</ele>
        <time>2016-03-09T02:03:57Z</time>
      </trkpt>
      <trkpt lat="44.11547" lon="4.64208">
        <ele>194</ele>
        <time>2016-03-09T02:05:57Z</time>
      </trkpt>
      <trkpt lat="44.11546" lon="4.64208">
        <ele>194</ele>
        <time>2016-03-09T02:07:57Z</time>
      </trkpt>
      <trkpt lat="44.11547" lon="4.64207">
        <ele>194</ele>
        <time>2016-03-09T02:09:57Z</time>
      </trkpt>
      <trkpt lat="44.11546" lon="4.64208">
        <ele>194</ele>
        <time>2016-03-09T02:11:57Z</time>
      </trkpt>
      <trkpt lat="44.11547" lon="4.64207">
        <ele>194</ele>
        <time>2016-03-09T02:13:57Z</time>
      </trkpt>
      <trkpt lat="44.11547" lon="4.64207">
        <ele>194</ele>
        <time>2016-03-09T02:15:57Z</time>
      </trkpt>
      <trkpt lat="44.11549" lon="4.64207">
        <ele>194</ele>
        <time>2016-03-09T02:17:57Z</time>
      </trkpt>
      <trkpt lat="44.1155" lon="4.64207">
        <ele>194</ele>
        <time>2016-03-09T02:19:57Z</time>
      </trkpt>
      <trkpt lat="44.11549" lon="4.64207">
        <ele>194</ele>
        <time>2016-03-09T02:21:57Z</time>
      </trkpt>
      <trkpt lat="44.11548" lon="4.64207">
        <ele>194</ele>
        <time>2016-03-09T02:23:57Z</time>
      </trkpt>
      <trkpt lat="44.1155" lon="4.64206">
        <ele>194</ele>
        <time>2016-03-09T02:25:57Z</time>
      </trkpt>
      <trkpt lat="44.11548" lon="4.64206">
        <ele>194</ele>
        <time>2016-03-09T02:27:57Z</time>
      </trkpt>
      <trkpt lat="44.11549" lon="4.64206">
        <ele>194</ele>
        <time>2016-03-09T02:29:57Z</time>
      </trkpt>
      <trkpt lat="44.11547" lon="4.64206">
        <ele>194</ele>
        <time>2016-03-09T02:31:57Z</time>
      </trkpt>
      <trkpt lat="44.11547" lon="4.64205">
        <ele>194</ele>
        <time>2016-03-09T02:33:57Z</time>
      </trkpt>
      <trkpt lat="44.11547" lon="4.64205">
        <ele>194</ele>
        <time>2016-03-09T02:35:57Z</time>
      </trkpt>
      <trkpt lat="44.11546" lon="4.64205">
        <ele>194</ele>
        <time>2016-03-09T02:37:57Z</time>
      </trkpt>
      <trkpt lat="44.11547" lon="4.64205">
        <ele>194</ele>
        <time>2016-03-09T02:39:57Z</time>
      </trkpt>
      <trkpt lat="44.11546" lon="4.64205">
        <ele>194</ele>
        <time>2016-03-09T02:41:57Z</time>
      </trkpt>
      <trkpt lat="44.11547" lon="4.64205">
        <ele>194</ele>
        <time>2016-03-09T02:43:57Z</time>
      </trkpt>
      <trkpt lat="44.11545" lon="4.64204">
        <ele>194</ele>
        <time>2016-03-09T02:45:57Z</time>
      </trkpt>
      <trkpt lat="44.11549" lon="4.64204">
        <ele>195</ele>
        <time>2016-03-09T02:47:57Z</time>
      </trkpt>
      <trkpt lat="44.1156" lon="4.64205">
        <ele>195</ele>
        <time>2016-03-09T02:49:57Z</time>
      </trkpt>
      <trkpt lat="44.1156" lon="4.64206">
        <ele>195</ele>
        <time>2016-03-09T02:51:57Z</time>
      </trkpt>
      <trkpt lat="44.11559" lon="4.64206">
        <ele>195</ele>
        <time>2016-03-09T02:53:57Z</time>
      </trkpt>
      <trkpt lat="44.11557" lon="4.64206">
        <ele>195</ele>
        <time>2016-03-09T02:55:57Z</time>
      </trkpt>
      <trkpt lat="44.11554" lon="4.64205">
        <ele>195</ele>
        <time>2016-03-09T02:57:57Z</time>
      </trkpt>
      <trkpt lat="44.11554" lon="4.64204">
        <ele>195</ele>
        <time>2016-03-09T02:59:57Z</time>
      </trkpt>
      <trkpt lat="44.11553" lon="4.64204">
        <ele>195</ele>
        <time>2016-03-09T03:01:57Z</time>
      </trkpt>
      <trkpt lat="44.11551" lon="4.64205">
        <ele>195</ele>
        <time>2016-03-09T03:03:57Z</time>
      </trkpt>
      <trkpt lat="44.11551" lon="4.64206">
        <ele>194</ele>
        <time>2016-03-09T03:05:57Z</time>
      </trkpt>
      <trkpt lat="44.11552" lon="4.64206">
        <ele>195</ele>
        <time>2016-03-09T03:07:57Z</time>
      </trkpt>
      <trkpt lat="44.1155" lon="4.64208">
        <ele>194</ele>
        <time>2016-03-09T03:09:57Z</time>
      </trkpt>
      <trkpt lat="44.1155" lon="4.64207">
        <ele>194</ele>
        <time>2016-03-09T03:11:57Z</time>
      </trkpt>
      <trkpt lat="44.11549" lon="4.64209">
        <ele>194</ele>
        <time>2016-03-09T03:13:57Z</time>
      </trkpt>
      <trkpt lat="44.11549" lon="4.64208">
        <ele>194</ele>
        <time>2016-03-09T03:15:57Z</time>
      </trkpt>
      <trkpt lat="44.11549" lon="4.64208">
        <ele>194</ele>
        <time>2016-03-09T03:17:57Z</time>
      </trkpt>
      <trkpt lat="44.1155" lon="4.64209">
        <ele>194</ele>
        <time>2016-03-09T03:19:57Z</time>
      </trkpt>
      <trkpt lat="44.1155" lon="4.64204">
        <ele>195</ele>
        <time>2016-03-09T03:21:57Z</time>
      </trkpt>
      <trkpt lat="44.11546" lon="4.64196">
        <ele>195</ele>
        <time>2016-03-09T03:23:57Z</time>
      </trkpt>
      <trkpt lat="44.11541" lon="4.64192">
        <ele>195</ele>
        <time>2016-03-09T03:25:57Z</time>
      </trkpt>
      <trkpt lat="44.11534" lon="4.64182">
        <ele>195</ele>
        <time>2016-03-09T03:27:57Z</time>
      </trkpt>
      <trkpt lat="44.11522" lon="4.64167">
        <ele>195</ele>
        <time>2016-03-09T03:29:57Z</time>
      </trkpt>
      <trkpt lat="44.11518" lon="4.64172">
        <ele>194</ele>
        <time>2016-03-09T03:31:57Z</time>
      </trkpt>
      <trkpt lat="44.11517" lon="4.64197">
        <ele>193</ele>
        <time>2016-03-09T03:33:57Z</time>
      </trkpt>
      <trkpt lat="44.11516" lon="4.64219">
        <ele>192</ele>
        <time>2016-03-09T03:35:57Z</time>
      </trkpt>
      <trkpt lat="44.11517" lon="4.64258">
        <ele>189</ele>
        <time>2016-03-09T03:37:57Z</time>
      </trkpt>
      <trkpt lat="44.11516" lon="4.64272">
        <ele>188</ele>
        <time>2016-03-09T03:39:57Z</time>
      </trkpt>
      <trkpt lat="44.11509" lon="4.64283">
        <ele>187</ele>
        <time>2016-03-09T03:41:57Z</time>
      </trkpt>
      <trkpt lat="44.11493" lon="4.64296">
        <ele>187</ele>
        <time>2016-03-09T03:43:57Z</time>
      </trkpt>
      <trkpt lat="44.11476" lon="4.64311">
        <ele>187</ele>
        <time>2016-03-09T03:45:57Z</time>
      </trkpt>
      <trkpt lat="44.11472" lon="4.64317">
        <ele>187</ele>
        <time>2016-03-09T03:47:57Z</time>
      </trkpt>
      <trkpt lat="44.11463" lon="4.64328">
        <ele>187</ele>
        <time>2016-03-09T03:49:57Z</time>
      </trkpt>
      <trkpt lat="44.11447" lon="4.64341">
        <ele>187</ele>
        <time>2016-03-09T03:51:57Z</time>
      </trkpt>
      <trkpt lat="44.11428" lon="4.64344">
        <ele>188</ele>
        <time>2016-03-09T03:53:57Z</time>
      </trkpt>
      <trkpt lat="44.11408" lon="4.64346">
        <ele>189</ele>
        <time>2016-03-09T03:55:57Z</time>
      </trkpt>
      <trkpt lat="44.11388" lon="4.64348">
        <ele>189</ele>
        <time>2016-03-09T03:57:57Z</time>
      </trkpt>
      <trkpt lat="44.1138" lon="4.64348">
        <ele>189</ele>
        <time>2016-03-09T03:59:57Z</time>
      </trkpt>
      <trkpt lat="44.11345" lon="4.64346">
        <ele>191</ele>
        <time>2016-03-09T04:01:57Z</time>
      </trkpt>
      <trkpt lat="44.11328" lon="4.64341">
        <ele>192</ele>
        <time>2016-03-09T04:03:57Z</time>
      </trkpt>
      <trkpt lat="44.11314" lon="4.64335">
        <ele>193</ele>
        <time>2016-03-09T04:05:57Z</time>
      </trkpt>
      <trkpt lat="44.11307" lon="4.64336">
        <ele>193</ele>
        <time>2016-03-09T04:07:57Z</time>
      </trkpt>
      <trkpt lat="44.11301" lon="4.64342">
        <ele>192</ele>
        <time>2016-03-09T04:09:57Z</time>
      </trkpt>
      <trkpt lat="44.11283" lon="4.64354">
        <ele>191</ele>
        <time>2016-03-09T04:11:57Z</time>
      </trkpt>
      <trkpt lat="44.11252" lon="4.64358">
        <ele>190</ele>
        <time>2016-03-09T04:13:57Z</time>
      </trkpt>
      <trkpt lat="44.11225" lon="4.64357">
        <ele>191</ele>
        <time>2016-03-09T04:15:57Z</time>
      </trkpt>
      <trkpt lat="44.11198" lon="4.64351">
        <ele>192</ele>
        <time>2016-03-09T04:17:57Z</time>
      </trkpt>
      <trkpt lat="44.11178" lon="4.64348">
        <ele>193</ele>
        <time>2016-03-09T04:19:57Z</time>
      </trkpt>
      <trkpt lat="44.11153" lon="4.64345">
        <ele>193</ele>
        <time>2016-03-09T04:21:57Z</time>
      </trkpt>
      <trkpt lat="44.11122" lon="4.64333">
        <ele>194</ele>
        <time>2016-03-09T04:23:57Z</time>
      </trkpt>
      <trkpt lat="44.11119" lon="4.64332">
        <ele>194</ele>
        <time>2016-03-09T04:25:57Z</time>
      </trkpt>
      <trkpt lat="44.11106" lon="4.64332">
        <ele>194</ele>
        <time>2016-03-09T04:27:57Z</time>
      </trkpt>
      <trkpt lat="44.11098" lon="4.64332">
        <ele>194</ele>
        <time>2016-03-09T04:29:57Z</time>
      </trkpt>
      <trkpt lat="44.11082" lon="4.64332">
        <ele>194</ele>
        <time>2016-03-09T04:31:57Z</time>
      </trkpt>
      <trkpt lat="44.11073" lon="4.64334">
        <ele>194</ele>
        <time>2016-03-09T04:33:57Z</time>
      </trkpt>
      <trkpt lat="44.11065" lon="4.64337">
        <ele>194</ele>
        <time>2016-03-09T04:35:57Z</time>
      </trkpt>
      <trkpt lat="44.11056" lon="4.64339">
        <ele>194</ele>
        <time>2016-03-09T04:37:57Z</time>
      </trkpt>
      <trkpt lat="44.11047" lon="4.6434">
        <ele>194</ele>
        <time>2016-03-09T04:39:57Z</time>
      </trkpt>
      <trkpt lat="44.11031" lon="4.6434">
        <ele>194</ele>
        <time>2016-03-09T04:41:57Z</time>
      </trkpt>
      <trkpt lat="44.11018" lon="4.64338">
        <ele>195</ele>
        <time>2016-03-09T04:43:57Z</time>
      </trkpt>
      <trkpt lat="44.11005" lon="4.64332">
        <ele>196</ele>
        <time>2016-03-09T04:45:57Z</time>
      </trkpt>
      <trkpt lat="44.1099" lon="4.64328">
        <ele>196</ele>
        <time>2016-03-09T04:47:57Z</time>
      </trkpt>
      <trkpt lat="44.10979" lon="4.64322">
        <ele>195</ele>
        <time>2016-03-09T04:49:57Z</time>
      </trkpt>
      <trkpt lat="44.10978" lon="4.64322">
        <ele>195</ele>
        <time>2016-03-09T04:51:57Z</time>
      </trkpt>
      <trkpt lat="44.10978" lon="4.64322">
        <ele>195</ele>
        <time>2016-03-09T04:53:57Z</time>
      </trkpt>
      <trkpt lat="44.10978" lon="4.64323">
        <ele>195</ele>
        <time>2016-03-09T04:55:57Z</time>
      </trkpt>
      <trkpt lat="44.10979" lon="4.64323">
        <ele>195</ele>
        <time>2016-03-09T04:57:57Z</time>
      </trkpt>
      <trkpt lat="44.10979" lon="4.64323">
        <ele>195</ele>
        <time>2016-03-09T04:59:57Z</time>
      </trkpt>
      <trkpt lat="44.10979" lon="4.64323">
        <ele>195</ele>
        <time>2016-03-09T05:01:57Z</time>
      </trkpt>
      <trkpt lat="44.10982" lon="4.64326">
        <ele>195</ele>
        <time>2016-03-09T05:03:57Z</time>
      </trkpt>
      <trkpt lat="44.1098" lon="4.64333">
        <ele>195</ele>
        <time>2016-03-09T05:05:57Z</time>
      </trkpt>
      <trkpt lat="44.1098" lon="4.6434">
        <ele>194</ele>
        <time>2016-03-09T05:07:57Z</time>
      </trkpt>
      <trkpt lat="44.10981" lon="4.64344">
        <ele>193</ele>
        <time>2016-03-09T05:09:57Z</time>
      </trkpt>
      <trkpt lat="44.10982" lon="4.64348">
        <ele>193</ele>
        <time>2016-03-09T05:11:57Z</time>
      </trkpt>
      <trkpt lat="44.10982" lon="4.6436">
        <ele>191</ele>
        <time>2016-03-09T05:13:57Z</time>
      </trkpt>
      <trkpt lat="44.10981" lon="4.64365">
        <ele>190</ele>
        <time>2016-03-09T05:15:57Z</time>
      </trkpt>
      <trkpt lat="44.10977" lon="4.64373">
        <ele>188</ele>
        <time>2016-03-09T05:17:57Z</time>
      </trkpt>
      <trkpt lat="44.1097" lon="4.64375">
        <ele>188</ele>
        <time>2016-03-09T05:19:57Z</time>
      </trkpt>
      <trkpt lat="44.10967" lon="4.64378">
        <ele>187</ele>
        <time>2016-03-09T05:21:57Z</time>
      </trkpt>
      <trkpt lat="44.10964" lon="4.64382">
        <ele>186</ele>
        <time>2016-03-09T05:23:57Z</time>
      </trkpt>
      <trkpt lat="44.10962" lon="4.64385">
        <ele>186</ele>
        <time>2016-03-09T05:25:57Z</time>
      </trkpt>
      <trkpt lat="44.10959" lon="4.64387">
        <ele>185</ele>
        <time>2016-03-09T05:27:57Z</time>
      </trkpt>
      <trkpt lat="44.10954" lon="4.64386">
        <ele>185</ele>
        <time>2016-03-09T05:29:57Z</time>
      </trkpt>
      <trkpt lat="44.10946" lon="4.64391">
        <ele>184</ele>
        <time>2016-03-09T05:31:57Z</time>
      </trkpt>
      <trkpt lat="44.10942" lon="4.64394">
        <ele>184</ele>
        <time>2016-03-09T05:33:57Z</time>
      </trkpt>
      <trkpt lat="44.1094" lon="4.64397">
        <ele>183</ele>
        <time>2016-03-09T05:35:57Z</time>
      </trkpt>
      <trkpt lat="44.1094" lon="4.64398">
        <ele>183</ele>
        <time>2016-03-09T05:37:57Z</time>
      </trkpt>
      <trkpt lat="44.10942" lon="4.644">
        <ele>183</ele>
        <time>2016-03-09T05:39:57Z</time>
      </trkpt>
      <trkpt lat="44.1095" lon="4.64405">
        <ele>182</ele>
        <time>2016-03-09T05:41:57Z</time>
      </trkpt>
      <trkpt lat="44.10948" lon="4.64407">
        <ele>182</ele>
        <time>2016-03-09T05:43:57Z</time>
      </trkpt>
      <trkpt lat="44.10946" lon="4.64414">
        <ele>180</ele>
        <time>2016-03-09T05:45:57Z</time>
      </trkpt>
      <trkpt lat="44.10946" lon="4.64416">
        <ele>180</ele>
        <time>2016-03-09T05:47:57Z</time>
      </trkpt>
      <trkpt lat="44.10947" lon="4.64424">
        <ele>179</ele>
        <time>2016-03-09T05:49:57Z</time>
      </trkpt>
      <trkpt lat="44.10947" lon="4.64428">
        <ele>178</ele>
        <time>2016-03-09T05:51:57Z</time>
      </trkpt>
      <trkpt lat="44.10947" lon="4.6443">
        <ele>177</ele>
        <time>2016-03-09T05:53:57Z</time>
      </trkpt>
      <trkpt lat="44.10947" lon="4.64433">
        <ele>177</ele>
        <time>2016-03-09T05:55:57Z</time>
      </trkpt>
      <trkpt lat="44.10946" lon="4.64436">
        <ele>176</ele>
        <time>2016-03-09T05:57:57Z</time>
      </trkpt>
      <trkpt lat="44.10944" lon="4.64438">
        <ele>176</ele>
        <time>2016-03-09T05:59:57Z</time>
      </trkpt>
      <trkpt lat="44.10942" lon="4.6444">
        <ele>175</ele>
        <time>2016-03-09T06:01:57Z</time>
      </trkpt>
      <trkpt lat="44.10942" lon="4.64441">
        <ele>175</ele>
        <time>2016-03-09T06:03:57Z</time>
      </trkpt>
      <trkpt lat="44.10942" lon="4.64442">
        <ele>175</ele>
        <time>2016-03-09T06:05:57Z</time>
      </trkpt>
      <trkpt lat="44.10941" lon="4.64442">
        <ele>175</ele>
        <time>2016-03-09T06:07:57Z</time>
      </trkpt>
      <trkpt lat="44.10934" lon="4.6445">
        <ele>173</ele>
        <time>2016-03-09T06:09:57Z</time>
      </trkpt>
      <trkpt lat="44.10935" lon="4.64467">
        <ele>169</ele>
        <time>2016-03-09T06:11:57Z</time>
      </trkpt>
      <trkpt lat="44.10936" lon="4.64475">
        <ele>168</ele>
        <time>2016-03-09T06:13:57Z</time>
      </trkpt>
      <trkpt lat="44.10941" lon="4.64485">
        <ele>166</ele>
        <time>2016-03-09T06:15:57Z</time>
      </trkpt>
      <trkpt lat="44.10943" lon="4.64493">
        <ele>164</ele>
        <time>2016-03-09T06:17:57Z</time>
      </trkpt>
      <trkpt lat="44.10942" lon="4.64499">
        <ele>163</ele>
        <time>2016-03-09T06:19:57Z</time>
      </trkpt>
      <trkpt lat="44.1094" lon="4.64503">
        <ele>162</ele>
        <time>2016-03-09T06:21:57Z</time>
      </trkpt>
      <trkpt lat="44.10937" lon="4.64506">
        <ele>161</ele>
        <time>2016-03-09T06:23:57Z</time>
      </trkpt>
      <trkpt lat="44.1093" lon="4.64509">
        <ele>160</ele>
        <time>2016-03-09T06:25:57Z</time>
      </trkpt>
      <trkpt lat="44.1092" lon="4.64516">
        <ele>158</ele>
        <time>2016-03-09T06:27:57Z</time>
      </trkpt>
      <trkpt lat="44.10916" lon="4.64518">
        <ele>158</ele>
        <time>2016-03-09T06:29:57Z</time>
      </trkpt>
      <trkpt lat="44.10912" lon="4.64518">
        <ele>157</ele>
        <time>2016-03-09T06:31:57Z</time>
      </trkpt>
      <trkpt lat="44.109" lon="4.64514">
        <ele>158</ele>
        <time>2016-03-09T06:33:57Z</time>
      </trkpt>
      <trkpt lat="44.10888" lon="4.64513">
        <ele>157</ele>
        <time>2016-03-09T06:35:57Z</time>
      </trkpt>
      <trkpt lat="44.10876" lon="4.64516">
        <ele>156</ele>
        <time>2016-03-09T06:37:57Z</time>
      </trkpt>
      <trkpt lat="44.10874" lon="4.64524">
        <ele>154</ele>
        <time>2016-03-09T06:39:57Z</time>
      </trkpt>
      <trkpt lat="44.10872" lon="4.64529">
        <ele>152</ele>
        <time>2016-03-09T06:41:57Z</time>
      </trkpt>
      <trkpt lat="44.10872" lon="4.64533">
        <ele>151</ele>
        <time>2016-03-09T06:43:57Z</time>
      </trkpt>
      <trkpt lat="44.10872" lon="4.64539">
        <ele>150</ele>
        <time>2016-03-09T06:45:57Z</time>
      </trkpt>
      <trkpt lat="44.10872" lon="4.64544">
        <ele>149</ele>
        <time>2016-03-09T06:47:57Z</time>
      </trkpt>
      <trkpt lat="44.10871" lon="4.64547">
        <ele>148</ele>
        <time>2016-03-09T06:49:57Z</time>
      </trkpt>
      <trkpt lat="44.10871" lon="4.64547">
        <ele>148</ele>
        <time>2016-03-09T06:51:57Z</time>
      </trkpt>
      <trkpt lat="44.10867" lon="4.64553">
        <ele>146</ele>
        <time>2016-03-09T06:53:57Z</time>
      </trkpt>
      <trkpt lat="44.10867" lon="4.64553">
        <ele>146</ele>
        <time>2016-03-09T06:55:57Z</time>
      </trkpt>
      <trkpt lat="44.10867" lon="4.64553">
        <ele>146</ele>
        <time>2016-03-09T06:57:57Z</time>
      </trkpt>
      <trkpt lat="44.10867" lon="4.64553">
        <ele>146</ele>
        <time>2016-03-09T06:59:57Z</time>
      </trkpt>
      <trkpt lat="44.10867" lon="4.64552">
        <ele>147</ele>
        <time>2016-03-09T07:01:57Z</time>
      </trkpt>
      <trkpt lat="44.10867" lon="4.64552">
        <ele>147</ele>
        <time>2016-03-09T07:03:57Z</time>
      </trkpt>
      <trkpt lat="44.10867" lon="4.64553">
        <ele>146</ele>
        <time>2016-03-09T07:05:57Z</time>
      </trkpt>
      <trkpt lat="44.10867" lon="4.64553">
        <ele>146</ele>
        <time>2016-03-09T07:07:57Z</time>
      </trkpt>
      <trkpt lat="44.10867" lon="4.64553">
        <ele>146</ele>
        <time>2016-03-09T07:09:57Z</time>
      </trkpt>
      <trkpt lat="44.10866" lon="4.64554">
        <ele>146</ele>
        <time>2016-03-09T07:11:57Z</time>
      </trkpt>
      <trkpt lat="44.10864" lon="4.64555">
        <ele>146</ele>
        <time>2016-03-09T07:13:57Z</time>
      </trkpt>
      <trkpt lat="44.10865" lon="4.64554">
        <ele>146</ele>
        <time>2016-03-09T07:15:57Z</time>
      </trkpt>
      <trkpt lat="44.10864" lon="4.64554">
        <ele>146</ele>
        <time>2016-03-09T07:17:57Z</time>
      </trkpt>
      <trkpt lat="44.10864" lon="4.6456">
        <ele>144</ele>
        <time>2016-03-09T07:19:57Z</time>
      </trkpt>
      <trkpt lat="44.1086" lon="4.64566">
        <ele>143</ele>
        <time>2016-03-09T07:21:57Z</time>
      </trkpt>
      <trkpt lat="44.10857" lon="4.64569">
        <ele>142</ele>
        <time>2016-03-09T07:23:57Z</time>
      </trkpt>
      <trkpt lat="44.10855" lon="4.64572">
        <ele>141</ele>
        <time>2016-03-09T07:25:57Z</time>
      </trkpt>
      <trkpt lat="44.10852" lon="4.64581">
        <ele>139</ele>
        <time>2016-03-09T07:27:57Z</time>
      </trkpt>
      <trkpt lat="44.10852" lon="4.64586">
        <ele>138</ele>
        <time>2016-03-09T07:29:57Z</time>
      </trkpt>
      <trkpt lat="44.1085" lon="4.6459">
        <ele>137</ele>
        <time>2016-03-09T07:31:57Z</time>
      </trkpt>
      <trkpt lat="44.1085" lon="4.64592">
        <ele>136</ele>
        <time>2016-03-09T07:33:57Z</time>
      </trkpt>
      <trkpt lat="44.1085" lon="4.64594">
        <ele>136</ele>
        <time>2016-03-09T07:35:57Z</time>
      </trkpt>
      <trkpt lat="44.10848" lon="4.6459">
        <ele>137</ele>
        <time>2016-03-09T07:37:57Z</time>
      </trkpt>
      <trkpt lat="44.10845" lon="4.64588">
        <ele>137</ele>
        <time>2016-03-09T07:39:57Z</time>
      </trkpt>
      <trkpt lat="44.10843" lon="4.64589">
        <ele>136</ele>
        <time>2016-03-09T07:41:57Z</time>
      </trkpt>
      <trkpt lat="44.10843" lon="4.64589">
        <ele>136</ele>
        <time>2016-03-09T07:43:57Z</time>
      </trkpt>
      <trkpt lat="44.10826" lon="4.64604">
        <ele>133</ele>
        <time>2016-03-09T07:45:57Z</time>
      </trkpt>
      <trkpt lat="44.10823" lon="4.64608">
        <ele>132</ele>
        <time>2016-03-09T07:47:57Z</time>
      </trkpt>
      <trkpt lat="44.10818" lon="4.64613">
        <ele>131</ele>
        <time>2016-03-09T07:49:57Z</time>
      </trkpt>
      <trkpt lat="44.10808" lon="4.64623">
        <ele>129</ele>
        <time>2016-03-09T07:51:57Z</time>
      </trkpt>
      <trkpt lat="44.10803" lon="4.6463">
        <ele>128</ele>
        <time>2016-03-09T07:53:57Z</time>
      </trkpt>
      <trkpt lat="44.10799" lon="4.64636">
        <ele>127</ele>
        <time>2016-03-09T07:55:57Z</time>
      </trkpt>
      <trkpt lat="44.10796" lon="4.64641">
        <ele>125</ele>
        <time>2016-03-09T07:57:57Z</time>
      </trkpt>
      <trkpt lat="44.10793" lon="4.64652">
        <ele>123</ele>
        <time>2016-03-09T07:59:57Z</time>
      </trkpt>
      <trkpt lat="44.1079" lon="4.64664">
        <ele>121</ele>
        <time>2016-03-09T08:01:57Z</time>
      </trkpt>
      <trkpt lat="44.10789" lon="4.64666">
        <ele>120</ele>
        <time>2016-03-09T08:03:57Z</time>
      </trkpt>
      <trkpt lat="44.10787" lon="4.64666">
        <ele>120</ele>
        <time>2016-03-09T08:05:57Z</time>
      </trkpt>
      <trkpt lat="44.10778" lon="4.64673">
        <ele>119</ele>
        <time>2016-03-09T08:07:57Z</time>
      </trkpt>
      <trkpt lat="44.10774" lon="4.64677">
        <ele>118</ele>
        <time>2016-03-09T08:09:57Z</time>
      </trkpt>
      <trkpt lat="44.10755" lon="4.6469">
        <ele>116</ele>
        <time>2016-03-09T08:11:57Z</time>
      </trkpt>
      <trkpt lat="44.10743" lon="4.64701">
        <ele>114</ele>
        <time>2016-03-09T08:13:57Z</time>
      </trkpt>
      <trkpt lat="44.10732" lon="4.64706">
        <ele>114</ele>
        <time>2016-03-09T08:15:57Z</time>
      </trkpt>
      <trkpt lat="44.10728" lon="4.64709">
        <ele>113</ele>
        <time>2016-03-09T08:17:57Z</time>
      </trkpt>
      <trkpt lat="44.10725" lon="4.6471">
        <ele>113</ele>
        <time>2016-03-09T08:19:57Z</time>
      </trkpt>
      <trkpt lat="44.10722" lon="4.64713">
        <ele>113</ele>
        <time>2016-03-09T08:21:57Z</time>
      </trkpt>
      <trkpt lat="44.10722" lon="4.64715">
        <ele>113</ele>
        <time>2016-03-09T08:23:57Z</time>
      </trkpt>
      <trkpt lat="44.10724" lon="4.64718">
        <ele>112</ele>
        <time>2016-03-09T08:25:57Z</time>
      </trkpt>
      <trkpt lat="44.10728" lon="4.64713">
        <ele>113</ele>
        <time>2016-03-09T08:27:57Z</time>
      </trkpt>
      <trkpt lat="44.10729" lon="4.64709">
        <ele>113</ele>
        <time>2016-03-09T08:29:57Z</time>
      </trkpt>
      <trkpt lat="44.10734" lon="4.64697">
        <ele>115</ele>
        <time>2016-03-09T08:31:57Z</time>
      </trkpt>
      <trkpt lat="44.10734" lon="4.64687">
        <ele>116</ele>
        <time>2016-03-09T08:33:57Z</time>
      </trkpt>
      <trkpt lat="44.10734" lon="4.64685">
        <ele>116</ele>
        <time>2016-03-09T08:35:57Z</time>
      </trkpt>
      <trkpt lat="44.10729" lon="4.64677">
        <ele>117</ele>
        <time>2016-03-09T08:37:57Z</time>
      </trkpt>
      <trkpt lat="44.10726" lon="4.64668">
        <ele>118</ele>
        <time>2016-03-09T08:39:57Z</time>
      </trkpt>
      <trkpt lat="44.10725" lon="4.64667">
        <ele>118</ele>
        <time>2016-03-09T08:41:57Z</time>
      </trkpt>
      <trkpt lat="44.10719" lon="4.6466">
        <ele>120</ele>
        <time>2016-03-09T08:43:57Z</time>
      </trkpt>
      <trkpt lat="44.10715" lon="4.64655">
        <ele>120</ele>
        <time>2016-03-09T08:45:57Z</time>
      </trkpt>
      <trkpt lat="44.10712" lon="4.64652">
        <ele>121</ele>
        <time>2016-03-09T08:47:57Z</time>
      </trkpt>
      <trkpt lat="44.10711" lon="4.64651">
        <ele>121</ele>
        <time>2016-03-09T08:49:57Z</time>
      </trkpt>
      <trkpt lat="44.10706" lon="4.64646">
        <ele>122</ele>
        <time>2016-03-09T08:51:57Z</time>
      </trkpt>
      <trkpt lat="44.10705" lon="4.64644">
        <ele>122</ele>
        <time>2016-03-09T08:53:57Z</time>
      </trkpt>
      <trkpt lat="44.10702" lon="4.64637">
        <ele>123</ele>
        <time>2016-03-09T08:55:57Z</time>
      </trkpt>
      <trkpt lat="44.10696" lon="4.64625">
        <ele>125</ele>
        <time>2016-03-09T08:57:57Z</time>
      </trkpt>
      <trkpt lat="44.10695" lon="4.64623">
        <ele>126</ele>
        <time>2016-03-09T08:59:57Z</time>
      </trkpt>
      <trkpt lat="44.10691" lon="4.64614">
        <ele>127</ele>
        <time>2016-03-09T09:01:57Z</time>
      </trkpt>
      <trkpt lat="44.10688" lon="4.64608">
        <ele>128</ele>
        <time>2016-03-09T09:03:57Z</time>
      </trkpt>
      <trkpt lat="44.10686" lon="4.64601">
        <ele>129</ele>
        <time>2016-03-09T09:05:57Z</time>
      </trkpt>
      <trkpt lat="44.10685" lon="4.64597">
        <ele>129</ele>
        <time>2016-03-09T09:07:57Z</time>
      </trkpt>
      <trkpt lat="44.10682" lon="4.64591">
        <ele>130</ele>
        <time>2016-03-09T09:09:57Z</time>
      </trkpt>
      <trkpt lat="44.1068" lon="4.64584">
        <ele>131</ele>
        <time>2016-03-09T09:11:57Z</time>
      </trkpt>
      <trkpt lat="44.1068" lon="4.64582">
        <ele>132</ele>
        <time>2016-03-09T09:13:57Z</time>
      </trkpt>
      <trkpt lat="44.10678" lon="4.64574">
        <ele>133</ele>
        <time>2016-03-09T09:15:57Z</time>
      </trkpt>
      <trkpt lat="44.10677" lon="4.64571">
        <ele>133</ele>
        <time>2016-03-09T09:17:57Z</time>
      </trkpt>
      <trkpt lat="44.10675" lon="4.64566">
        <ele>134</ele>
        <time>2016-03-09T09:19:57Z</time>
      </trkpt>
      <trkpt lat="44.10674" lon="4.64561">
        <ele>135</ele>
        <time>2016-03-09T09:21:57Z</time>
      </trkpt>
      <trkpt lat="44.10674" lon="4.64547">
        <ele>137</ele>
        <time>2016-03-09T09:23:57Z</time>
      </trkpt>
      <trkpt lat="44.10673" lon="4.64544">
        <ele>137</ele>
        <time>2016-03-09T09:25:57Z</time>
      </trkpt>
      <trkpt lat="44.10674" lon="4.6454">
        <ele>138</ele>
        <time>2016-03-09T09:27:57Z</time>
      </trkpt>
      <trkpt lat="44.10673" lon="4.64534">
        <ele>139</ele>
        <time>2016-03-09T09:29:57Z</time>
      </trkpt>
      <trkpt lat="44.10673" lon="4.6453">
        <ele>140</ele>
        <time>2016-03-09T09:31:57Z</time>
      </trkpt>
      <trkpt lat="44.10672" lon="4.64528">
        <ele>140</ele>
        <time>2016-03-09T09:33:57Z</time>
      </trkpt>
      <trkpt lat="44.1067" lon="4.64524">
        <ele>140</ele>
        <time>2016-03-09T09:35:57Z</time>
      </trkpt>
      <trkpt lat="44.10669" lon="4.64514">
        <ele>142</ele>
        <time>2016-03-09T09:37:57Z</time>
      </trkpt>
      <trkpt lat="44.10669" lon="4.64512">
        <ele>142</ele>
        <time>2016-03-09T09:39:57Z</time>
      </trkpt>
      <trkpt lat="44.10668" lon="4.64506">
        <ele>143</ele>
        <time>2016-03-09T09:41:57Z</time>
      </trkpt>
      <trkpt lat="44.10666" lon="4.64502">
        <ele>144</ele>
        <time>2016-03-09T09:43:57Z</time>
      </trkpt>
      <trkpt lat="44.10665" lon="4.64495">
        <ele>145</ele>
        <time>2016-03-09T09:45:57Z</time>
      </trkpt>
      <trkpt lat="44.10661" lon="4.64487">
        <ele>146</ele>
        <time>2016-03-09T09:47:57Z</time>
      </trkpt>
      <trkpt lat="44.1066" lon="4.64484">
        <ele>146</ele>
        <time>2016-03-09T09:49:57Z</time>
      </trkpt>
      <trkpt lat="44.10658" lon="4.64479">
        <ele>147</ele>
        <time>2016-03-09T09:51:57Z</time>
      </trkpt>
      <trkpt lat="44.10657" lon="4.64475">
        <ele>148</ele>
        <time>2016-03-09T09:53:57Z</time>
      </trkpt>
      <trkpt lat="44.10653" lon="4.64465">
        <ele>149</ele>
        <time>2016-03-09T09:55:57Z</time>
      </trkpt>
      <trkpt lat="44.10653" lon="4.64463">
        <ele>149</ele>
        <time>2016-03-09T09:57:57Z</time>
      </trkpt>
      <trkpt lat="44.10647" lon="4.64449">
        <ele>151</ele>
        <time>2016-03-09T09:59:57Z</time>
      </trkpt>
      <trkpt lat="44.10645" lon="4.64441">
        <ele>152</ele>
        <time>2016-03-09T10:01:57Z</time>
      </trkpt>
      <trkpt lat="44.10645" lon="4.64432">
        <ele>154</ele>
        <time>2016-03-09T10:03:57Z</time>
      </trkpt>
      <trkpt lat="44.10646" lon="4.64428">
        <ele>155</ele>
        <time>2016-03-09T10:05:57Z</time>
      </trkpt>
      <trkpt lat="44.10648" lon="4.64411">
        <ele>157</ele>
        <time>2016-03-09T10:07:57Z</time>
      </trkpt>
      <trkpt lat="44.10649" lon="4.64405">
        <ele>158</ele>
        <time>2016-03-09T10:09:57Z</time>
      </trkpt>
      <trkpt lat="44.10649" lon="4.64403">
        <ele>158</ele>
        <time>2016-03-09T10:11:57Z</time>
      </trkpt>
      <trkpt lat="44.10651" lon="4.64393">
        <ele>159</ele>
        <time>2016-03-09T10:13:57Z</time>
      </trkpt>
      <trkpt lat="44.10652" lon="4.64391">
        <ele>159</ele>
        <time>2016-03-09T10:15:57Z</time>
      </trkpt>
      <trkpt lat="44.10654" lon="4.6438">
        <ele>160</ele>
        <time>2016-03-09T10:17:57Z</time>
      </trkpt>
      <trkpt lat="44.10658" lon="4.64368">
        <ele>161</ele>
        <time>2016-03-09T10:19:57Z</time>
      </trkpt>
      <trkpt lat="44.1066" lon="4.64364">
        <ele>162</ele>
        <time>2016-03-09T10:21:57Z</time>
      </trkpt>
      <trkpt lat="44.10662" lon="4.6436">
        <ele>162</ele>
        <time>2016-03-09T10:23:57Z</time>
      </trkpt>
      <trkpt lat="44.10668" lon="4.64348">
        <ele>164</ele>
        <time>2016-03-09T10:25:57Z</time>
      </trkpt>
      <trkpt lat="44.1067" lon="4.64345">
        <ele>165</ele>
        <time>2016-03-09T10:27:57Z</time>
      </trkpt>
      <trkpt lat="44.10676" lon="4.64334">
        <ele>166</ele>
        <time>2016-03-09T10:29:57Z</time>
      </trkpt>
      <trkpt lat="44.10679" lon="4.64328">
        <ele>166</ele>
        <time>2016-03-09T10:31:57Z</time>
      </trkpt>
      <trkpt lat="44.10683" lon="4.64317">
        <ele>167</ele>
        <time>2016-03-09T10:33:57Z</time>
      </trkpt>
      <trkpt lat="44.10687" lon="4.64303">
        <ele>167</ele>
        <time>2016-03-09T10:35:57Z</time>
      </trkpt>
      <trkpt lat="44.10692" lon="4.6429">
        <ele>167</ele>
        <time>2016-03-09T10:37:57Z</time>
      </trkpt>
      <trkpt lat="44.10697" lon="4.64279">
        <ele>168</ele>
        <time>2016-03-09T10:39:57Z</time>
      </trkpt>
      <trkpt lat="44.10701" lon="4.64273">
        <ele>168</ele>
        <time>2016-03-09T10:41:57Z</time>
      </trkpt>
      <trkpt lat="44.10708" lon="4.64259">
        <ele>169</ele>
        <time>2016-03-09T10:43:57Z</time>
      </trkpt>
      <trkpt lat="44.10715" lon="4.64244">
        <ele>170</ele>
        <time>2016-03-09T10:45:57Z</time>
      </trkpt>
      <trkpt lat="44.10717" lon="4.64241">
        <ele>170</ele>
        <time>2016-03-09T10:47:57Z</time>
      </trkpt>
      <trkpt lat="44.10716" lon="4.64241">
        <ele>169</ele>
        <time>2016-03-09T10:49:57Z</time>
      </trkpt>
      <trkpt lat="44.10717" lon="4.6424">
        <ele>170</ele>
        <time>2016-03-09T10:51:57Z</time>
      </trkpt>
      <trkpt lat="44.10717" lon="4.64242">
        <ele>170</ele>
        <time>2016-03-09T10:53:57Z</time>
      </trkpt>
      <trkpt lat="44.10717" lon="4.64242">
        <ele>170</ele>
        <time>2016-03-09T10:55:57Z</time>
      </trkpt>
      <trkpt lat="44.10717" lon="4.64241">
        <ele>170</ele>
        <time>2016-03-09T10:57:57Z</time>
      </trkpt>
      <trkpt lat="44.10718" lon="4.6424">
        <ele>170</ele>
        <time>2016-03-09T10:59:57Z</time>
      </trkpt>
      <trkpt lat="44.10723" lon="4.64237">
        <ele>170</ele>
        <time>2016-03-09T11:01:57Z</time>
      </trkpt>
      <trkpt lat="44.10728" lon="4.64227">
        <ele>170</ele>
        <time>2016-03-09T11:03:57Z</time>
      </trkpt>
      <trkpt lat="44.1073" lon="4.64225">
        <ele>170</ele>
        <time>2016-03-09T11:05:57Z</time>
      </trkpt>
      <trkpt lat="44.10731" lon="4.64223">
        <ele>170</ele>
        <time>2016-03-09T11:07:57Z</time>
      </trkpt>
      <trkpt lat="44.10737" lon="4.64208">
        <ele>170</ele>
        <time>2016-03-09T11:09:57Z</time>
      </trkpt>
      <trkpt lat="44.10747" lon="4.64195">
        <ele>171</ele>
        <time>2016-03-09T11:11:57Z</time>
      </trkpt>
      <trkpt lat="44.10758" lon="4.64187">
        <ele>172</ele>
        <time>2016-03-09T11:13:57Z</time>
      </trkpt>
      <trkpt lat="44.10763" lon="4.64185">
        <ele>172</ele>
        <time>2016-03-09T11:15:57Z</time>
      </trkpt>
      <trkpt lat="44.10772" lon="4.6418">
        <ele>174</ele>
        <time>2016-03-09T11:17:57Z</time>
      </trkpt>
      <trkpt lat="44.10774" lon="4.64177">
        <ele>174</ele>
        <time>2016-03-09T11:19:57Z</time>
      </trkpt>
      <trkpt lat="44.10775" lon="4.64174">
        <ele>174</ele>
        <time>2016-03-09T11:21:57Z</time>
      </trkpt>
      <trkpt lat="44.10778" lon="4.64169">
        <ele>174</ele>
        <time>2016-03-09T11:23:57Z</time>
      </trkpt>
      <trkpt lat="44.10781" lon="4.64164">
        <ele>174</ele>
        <time>2016-03-09T11:25:57Z</time>
      </trkpt>
      <trkpt lat="44.10792" lon="4.64147">
        <ele>174</ele>
        <time>2016-03-09T11:27:57Z</time>
      </trkpt>
      <trkpt lat="44.108" lon="4.64137">
        <ele>175</ele>
        <time>2016-03-09T11:29:57Z</time>
      </trkpt>
      <trkpt lat="44.10808" lon="4.64126">
        <ele>176</ele>
        <time>2016-03-09T11:31:57Z</time>
      </trkpt>
      <trkpt lat="44.10812" lon="4.64121">
        <ele>176</ele>
        <time>2016-03-09T11:33:57Z</time>
      </trkpt>
      <trkpt lat="44.10825" lon="4.64105">
        <ele>178</ele>
        <time>2016-03-09T11:35:57Z</time>
      </trkpt>
      <trkpt lat="44.10845" lon="4.64095">
        <ele>181</ele>
        <time>2016-03-09T11:37:57Z</time>
      </trkpt>
      <trkpt lat="44.10855" lon="4.64087">
        <ele>182</ele>
        <time>2016-03-09T11:39:57Z</time>
      </trkpt>
      <trkpt lat="44.10861" lon="4.6408">
        <ele>183</ele>
        <time>2016-03-09T11:41:57Z</time>
      </trkpt>
      <trkpt lat="44.10866" lon="4.64072">
        <ele>183</ele>
        <time>2016-03-09T11:43:57Z</time>
      </trkpt>
      <trkpt lat="44.10874" lon="4.6405">
        <ele>183</ele>
        <time>2016-03-09T11:45:57Z</time>
      </trkpt>
      <trkpt lat="44.10879" lon="4.64047">
        <ele>184</ele>
        <time>2016-03-09T11:47:57Z</time>
      </trkpt>
      <trkpt lat="44.10885" lon="4.64047">
        <ele>185</ele>
        <time>2016-03-09T11:49:57Z</time>
      </trkpt>
      <trkpt lat="44.10887" lon="4.64048">
        <ele>185</ele>
        <time>2016-03-09T11:51:57Z</time>
      </trkpt>
      <trkpt lat="44.10902" lon="4.64048">
        <ele>188</ele>
        <time>2016-03-09T11:53:57Z</time>
      </trkpt>
      <trkpt lat="44.10912" lon="4.64042">
        <ele>189</ele>
        <time>2016-03-09T11:55:57Z</time>
      </trkpt>
      <trkpt lat="44.10932" lon="4.64022">
        <ele>189</ele>
        <time>2016-03-09T11:57:57Z</time>
      </trkpt>
      <trkpt lat="44.1094" lon="4.64019">
        <ele>189</ele>
        <time>2016-03-09T11:59:57Z</time>
      </trkpt>
      <trkpt lat="44.10952" lon="4.64014">
        <ele>190</ele>
        <time>2016-03-09T12:01:57Z</time>
      </trkpt>
      <trkpt lat="44.10959" lon="4.64012">
        <ele>190</ele>
        <time>2016-03-09T12:03:57Z</time>
      </trkpt>
      <trkpt lat="44.10971" lon="4.64011">
        <ele>190</ele>
        <time>2016-03-09T12:05:57Z</time>
      </trkpt>
      <trkpt lat="44.10975" lon="4.64011">
        <ele>190</ele>
        <time>2016-03-09T12:07:57Z</time>
      </trkpt>
      <trkpt lat="44.1099" lon="4.64015">
        <ele>191</ele>
        <time>2016-03-09T12:09:57Z</time>
      </trkpt>
      <trkpt lat="44.11001" lon="4.64013">
        <ele>191</ele>
        <time>2016-03-09T12:11:57Z</time>
      </trkpt>
      <trkpt lat="44.11001" lon="4.64013">
        <ele>191</ele>
        <time>2016-03-09T12:13:57Z</time>
      </trkpt>
      <trkpt lat="44.11" lon="4.64013">
        <ele>191</ele>
        <time>2016-03-09T12:15:57Z</time>
      </trkpt>
      <trkpt lat="44.11" lon="4.64013">
        <ele>191</ele>
        <time>2016-03-09T12:17:57Z</time>
      </trkpt>
      <trkpt lat="44.11" lon="4.64013">
        <ele>191</ele>
        <time>2016-03-09T12:19:57Z</time>
      </trkpt>
      <trkpt lat="44.11" lon="4.64013">
        <ele>191</ele>
        <time>2016-03-09T12:21:57Z</time>
      </trkpt>
      <trkpt lat="44.11001" lon="4.64014">
        <ele>191</ele>
        <time>2016-03-09T12:23:57Z</time>
      </trkpt>
      <trkpt lat="44.11007" lon="4.64015">
        <ele>192</ele>
        <time>2016-03-09T12:25:57Z</time>
      </trkpt>
      <trkpt lat="44.11028" lon="4.6402">
        <ele>193</ele>
        <time>2016-03-09T12:27:57Z</time>
      </trkpt>
      <trkpt lat="44.11052" lon="4.64023">
        <ele>193</ele>
        <time>2016-03-09T12:29:57Z</time>
      </trkpt>
      <trkpt lat="44.11082" lon="4.64029">
        <ele>194</ele>
        <time>2016-03-09T12:31:57Z</time>
      </trkpt>
      <trkpt lat="44.11105" lon="4.64031">
        <ele>194</ele>
        <time>2016-03-09T12:33:57Z</time>
      </trkpt>
      <trkpt lat="44.1113" lon="4.64035">
        <ele>194</ele>
        <time>2016-03-09T12:35:57Z</time>
      </trkpt>
      <trkpt lat="44.11144" lon="4.64047">
        <ele>193</ele>
        <time>2016-03-09T12:37:57Z</time>
      </trkpt>
      <trkpt lat="44.11163" lon="4.64058">
        <ele>193</ele>
        <time>2016-03-09T12:39:57Z</time>
      </trkpt>
      <trkpt lat="44.11175" lon="4.64062">
        <ele>193</ele>
        <time>2016-03-09T12:41:57Z</time>
      </trkpt>
      <trkpt lat="44.11194" lon="4.64068">
        <ele>192</ele>
        <time>2016-03-09T12:43:57Z</time>
      </trkpt>
      <trkpt lat="44.11224" lon="4.64077">
        <ele>192</ele>
        <time>2016-03-09T12:45:57Z</time>
      </trkpt>
      <trkpt lat="44.11233" lon="4.64078">
        <ele>192</ele>
        <time>2016-03-09T12:47:57Z</time>
      </trkpt>
      <trkpt lat="44.11237" lon="4.64078">
        <ele>192</ele>
        <time>2016-03-09T12:49:57Z</time>
      </trkpt>
      <trkpt lat="44.11244" lon="4.64073">
        <ele>192</ele>
        <time>2016-03-09T12:51:57Z</time>
      </trkpt>
      <trkpt lat="44.11252" lon="4.64053">
        <ele>193</ele>
        <time>2016-03-09T12:53:57Z</time>
      </trkpt>
      <trkpt lat="44.11252" lon="4.64042">
        <ele>193</ele>
        <time>2016-03-09T12:55:57Z</time>
      </trkpt>
      <trkpt lat="44.11255" lon="4.64031">
        <ele>193</ele>
        <time>2016-03-09T12:57:57Z</time>
      </trkpt>
      <trkpt lat="44.11257" lon="4.64027">
        <ele>193</ele>
        <time>2016-03-09T12:59:57Z</time>
      </trkpt>
      <trkpt lat="44.11268" lon="4.64027">
        <ele>193</ele>
        <time>2016-03-09T13:01:57Z</time>
      </trkpt>
      <trkpt lat="44.11279" lon="4.64032">
        <ele>192</ele>
        <time>2016-03-09T13:03:57Z</time>
      </trkpt>
      <trkpt lat="44.11283" lon="4.64035">
        <ele>192</ele>
        <time>2016-03-09T13:05:57Z</time>
      </trkpt>
      <trkpt lat="44.11287" lon="4.64037">
        <ele>192</ele>
        <time>2016-03-09T13:07:57Z</time>
      </trkpt>
      <trkpt lat="44.113" lon="4.64042">
        <ele>191</ele>
        <time>2016-03-09T13:09:57Z</time>
      </trkpt>
      <trkpt lat="44.11308" lon="4.64046">
        <ele>191</ele>
        <time>2016-03-09T13:11:57Z</time>
      </trkpt>
      <trkpt lat="44.11313" lon="4.64048">
        <ele>191</ele>
        <time>2016-03-09T13:13:57Z</time>
      </trkpt>
      <trkpt lat="44.11317" lon="4.6405">
        <ele>191</ele>
        <time>2016-03-09T13:15:57Z</time>
      </trkpt>
      <trkpt lat="44.11327" lon="4.64052">
        <ele>191</ele>
        <time>2016-03-09T13:17:57Z</time>
      </trkpt>
      <trkpt lat="44.11337" lon="4.64057">
        <ele>191</ele>
        <time>2016-03-09T13:19:57Z</time>
      </trkpt>
      <trkpt lat="44.11344" lon="4.64063">
        <ele>190</ele>
        <time>2016-03-09T13:21:57Z</time>
      </trkpt>
      <trkpt lat="44.11355" lon="4.64075">
        <ele>190</ele>
        <time>2016-03-09T13:23:57Z</time>
      </trkpt>
      <trkpt lat="44.11359" lon="4.64078">
        <ele>190</ele>
        <time>2016-03-09T13:25:57Z</time>
      </trkpt>
      <trkpt lat="44.11382" lon="4.64098">
        <ele>190</ele>
        <time>2016-03-09T13:27:57Z</time>
      </trkpt>
      <trkpt lat="44.11392" lon="4.64121">
        <ele>190</ele>
        <time>2016-03-09T13:29:57Z</time>
      </trkpt>
      <trkpt lat="44.11404" lon="4.64172">
        <ele>191</ele>
        <time>2016-03-09T13:31:57Z</time>
      </trkpt>
      <trkpt lat="44.11416" lon="4.64178">
        <ele>190</ele>
        <time>2016-03-09T13:33:57Z</time>
      </trkpt>
      <trkpt lat="44.11425" lon="4.64175">
        <ele>191</ele>
        <time>2016-03-09T13:35:57Z</time>
      </trkpt>
      <trkpt lat="44.11444" lon="4.64171">
        <ele>191</ele>
        <time>2016-03-09T13:37:57Z</time>
      </trkpt>
      <trkpt lat="44.11474" lon="4.64166">
        <ele>192</ele>
        <time>2016-03-09T13:39:57Z</time>
      </trkpt>
      <trkpt lat="44.11495" lon="4.64165">
        <ele>193</ele>
        <time>2016-03-09T13:41:57Z</time>
      </trkpt>
      <trkpt lat="44.11507" lon="4.64154">
        <ele>194</ele>
        <time>2016-03-09T13:43:57Z</time>
      </trkpt>
      <trkpt lat="44.11506" lon="4.64148">
        <ele>195</ele>
        <time>2016-03-09T13:45:57Z</time>
      </trkpt>
      <trkpt lat="44.11504" lon="4.64143">
        <ele>195</ele>
        <time>2016-03-09T13:47:57Z</time>
      </trkpt>
      <trkpt lat="44.11496" lon="4.64123">
        <ele>195</ele>
        <time>2016-03-09T13:49:57Z</time>
      </trkpt>
      <trkpt lat="44.11496" lon="4.64095">
        <ele>196</ele>
        <time>2016-03-09T13:51:57Z</time>
      </trkpt>
      <trkpt lat="44.11498" lon="4.64081">
        <ele>197</ele>
        <time>2016-03-09T13:53:57Z</time>
      </trkpt>
      <trkpt lat="44.11499" lon="4.64077">
        <ele>197</ele>
        <time>2016-03-09T13:55:57Z</time>
      </trkpt>
      <trkpt lat="44.11505" lon="4.64062">
        <ele>198</ele>
        <time>2016-03-09T13:57:57Z</time>
      </trkpt>
      <trkpt lat="44.11511" lon="4.64056">
        <ele>199</ele>
        <time>2016-03-09T13:59:57Z</time>
      </trkpt>
      <trkpt lat="44.11515" lon="4.64054">
        <ele>200</ele>
        <time>2016-03-09T14:01:57Z</time>
      </trkpt>
      <trkpt lat="44.11525" lon="4.64058">
        <ele>201</ele>
        <time>2016-03-09T14:03:57Z</time>
      </trkpt>
      <trkpt lat="44.11529" lon="4.64061">
        <ele>202</ele>
        <time>2016-03-09T14:05:57Z</time>
      </trkpt>
      <trkpt lat="44.11543" lon="4.64068">
        <ele>204</ele>
        <time>2016-03-09T14:07:57Z</time>
      </trkpt>
      <trkpt lat="44.1156" lon="4.64075">
        <ele>207</ele>
        <time>2016-03-09T14:09:57Z</time>
      </trkpt>
      <trkpt lat="44.11572" lon="4.64071">
        <ele>209</ele>
        <time>2016-03-09T14:11:57Z</time>
      </trkpt>
      <trkpt lat="44.11573" lon="4.64068">
        <ele>209</ele>
        <time>2016-03-09T14:13:57Z</time>
      </trkpt>
      <trkpt lat="44.11577" lon="4.64052">
        <ele>210</ele>
        <time>2016-03-09T14:15:57Z</time>
      </trkpt>
      <trkpt lat="44.11579" lon="4.64044">
        <ele>211</ele>
        <time>2016-03-09T14:17:57Z</time>
      </trkpt>
      <trkpt lat="44.11585" lon="4.64033">
        <ele>212</ele>
        <time>2016-03-09T14:19:57Z</time>
      </trkpt>
      <trkpt lat="44.11593" lon="4.6402">
        <ele>215</ele>
        <time>2016-03-09T14:21:57Z</time>
      </trkpt>
      <trkpt lat="44.11594" lon="4.64018">
        <ele>216</ele>
        <time>2016-03-09T14:23:57Z</time>
      </trkpt>
      <trkpt lat="44.11595" lon="4.64012">
        <ele>216</ele>
        <time>2016-03-09T14:25:57Z</time>
      </trkpt>
      <trkpt lat="44.11598" lon="4.64002">
        <ele>218</ele>
        <time>2016-03-09T14:27:57Z</time>
      </trkpt>
      <trkpt lat="44.116" lon="4.63991">
        <ele>218</ele>
        <time>2016-03-09T14:29:57Z</time>
      </trkpt>
      <trkpt lat="44.116" lon="4.63989">
        <ele>218</ele>
        <time>2016-03-09T14:31:57Z</time>
      </trkpt>
      <trkpt lat="44.116" lon="4.6399">
        <ele>218</ele>
        <time>2016-03-09T14:33:57Z</time>
      </trkpt>
      <trkpt lat="44.11601" lon="4.63984">
        <ele>218</ele>
        <time>2016-03-09T14:35:57Z</time>
      </trkpt>
      <trkpt lat="44.11614" lon="4.63937">
        <ele>219</ele>
        <time>2016-03-09T14:37:57Z</time>
      </trkpt>
      <trkpt lat="44.11627" lon="4.63901">
        <ele>220</ele>
        <time>2016-03-09T14:39:57Z</time>
      </trkpt>
      <trkpt lat="44.11647" lon="4.63852">
        <ele>218</ele>
        <time>2016-03-09T14:41:57Z</time>
      </trkpt>
      <trkpt lat="44.11656" lon="4.63828">
        <ele>217</ele>
        <time>2016-03-09T14:43:57Z</time>
      </trkpt>
      <trkpt lat="44.11663" lon="4.63812">
        <ele>215</ele>
        <time>2016-03-09T14:45:57Z</time>
      </trkpt>
      <trkpt lat="44.11668" lon="4.63795">
        <ele>212</ele>
        <time>2016-03-09T14:47:57Z</time>
      </trkpt>
      <trkpt lat="44.11671" lon="4.63787">
        <ele>211</ele>
        <time>2016-03-09T14:49:57Z</time>
      </trkpt>
      <trkpt lat="44.11674" lon="4.63775">
        <ele>209</ele>
        <time>2016-03-09T14:51:57Z</time>
      </trkpt>
      <trkpt lat="44.11675" lon="4.63768">
        <ele>208</ele>
        <time>2016-03-09T14:53:57Z</time>
      </trkpt>
      <trkpt lat="44.11676" lon="4.63761">
        <ele>206</ele>
        <time>2016-03-09T14:55:57Z</time>
      </trkpt>
      <trkpt lat="44.11677" lon="4.63754">
        <ele>205</ele>
        <time>2016-03-09T14:57:57Z</time>
      </trkpt>
      <trkpt lat="44.11679" lon="4.63746">
        <ele>203</ele>
        <time>2016-03-09T14:59:57Z</time>
      </trkpt>
      <trkpt lat="44.11682" lon="4.63738">
        <ele>202</ele>
        <time>2016-03-09T15:01:57Z</time>
      </trkpt>
      <trkpt lat="44.11685" lon="4.6373">
        <ele>200</ele>
        <time>2016-03-09T15:03:57Z</time>
      </trkpt>
      <trkpt lat="44.11694" lon="4.63719">
        <ele>199</ele>
        <time>2016-03-09T15:05:57Z</time>
      </trkpt>
      <trkpt lat="44.117" lon="4.63717">
        <ele>199</ele>
        <time>2016-03-09T15:07:57Z</time>
      </trkpt>
      <trkpt lat="44.11708" lon="4.6371">
        <ele>198</ele>
        <time>2016-03-09T15:09:57Z</time>
      </trkpt>
      <trkpt lat="44.11712" lon="4.63706">
        <ele>197</ele>
        <time>2016-03-09T15:11:57Z</time>
      </trkpt>
      <trkpt lat="44.11715" lon="4.637">
        <ele>196</ele>
        <time>2016-03-09T15:13:57Z</time>
      </trkpt>
      <trkpt lat="44.11719" lon="4.63691">
        <ele>194</ele>
        <time>2016-03-09T15:15:57Z</time>
      </trkpt>
      <trkpt lat="44.11723" lon="4.63684">
        <ele>192</ele>
        <time>2016-03-09T15:17:57Z</time>
      </trkpt>
      <trkpt lat="44.11723" lon="4.63681">
        <ele>192</ele>
        <time>2016-03-09T15:19:57Z</time>
      </trkpt>
      <trkpt lat="44.1172" lon="4.63673">
        <ele>189</ele>
        <time>2016-03-09T15:21:57Z</time>
      </trkpt>
      <trkpt lat="44.11718" lon="4.63668">
        <ele>188</ele>
        <time>2016-03-09T15:23:57Z</time>
      </trkpt>
      <trkpt lat="44.11717" lon="4.63653">
        <ele>186</ele>
        <time>2016-03-09T15:25:57Z</time>
      </trkpt>
      <trkpt lat="44.11716" lon="4.63632">
        <ele>182</ele>
        <time>2016-03-09T15:27:57Z</time>
      </trkpt>
      <trkpt lat="44.1172" lon="4.63623">
        <ele>181</ele>
        <time>2016-03-09T15:29:57Z</time>
      </trkpt>
      <trkpt lat="44.11721" lon="4.63618">
        <ele>180</ele>
        <time>2016-03-09T15:31:57Z</time>
      </trkpt>
      <trkpt lat="44.11723" lon="4.63612">
        <ele>179</ele>
        <time>2016-03-09T15:33:57Z</time>
      </trkpt>
      <trkpt lat="44.11725" lon="4.63608">
        <ele>179</ele>
        <time>2016-03-09T15:35:57Z</time>
      </trkpt>
      <trkpt lat="44.11732" lon="4.63602">
        <ele>178</ele>
        <time>2016-03-09T15:37:57Z</time>
      </trkpt>
      <trkpt lat="44.11739" lon="4.63593">
        <ele>177</ele>
        <time>2016-03-09T15:39:57Z</time>
      </trkpt>
      <trkpt lat="44.11742" lon="4.63588">
        <ele>176</ele>
        <time>2016-03-09T15:41:57Z</time>
      </trkpt>
      <trkpt lat="44.11742" lon="4.63574">
        <ele>174</ele>
        <time>2016-03-09T15:43:57Z</time>
      </trkpt>
      <trkpt lat="44.11739" lon="4.63567">
        <ele>173</ele>
        <time>2016-03-09T15:45:57Z</time>
      </trkpt>
      <trkpt lat="44.11737" lon="4.63558">
        <ele>172</ele>
        <time>2016-03-09T15:47:57Z</time>
      </trkpt>
      <trkpt lat="44.11736" lon="4.63551">
        <ele>172</ele>
        <time>2016-03-09T15:49:57Z</time>
      </trkpt>
      <trkpt lat="44.11737" lon="4.63535">
        <ele>170</ele>
        <time>2016-03-09T15:51:57Z</time>
      </trkpt>
      <trkpt lat="44.11737" lon="4.63528">
        <ele>169</ele>
        <time>2016-03-09T15:53:57Z</time>
      </trkpt>
      <trkpt lat="44.1174" lon="4.63522">
        <ele>168</ele>
        <time>2016-03-09T15:55:57Z</time>
      </trkpt>
      <trkpt lat="44.11745" lon="4.63521">
        <ele>168</ele>
        <time>2016-03-09T15:57:57Z</time>
      </trkpt>
      <trkpt lat="44.11745" lon="4.6352">
        <ele>168</ele>
        <time>2016-03-09T15:59:57Z</time>
      </trkpt>
      <trkpt lat="44.11747" lon="4.6352">
        <ele>168</ele>
        <time>2016-03-09T16:01:57Z</time>
      </trkpt>
      <trkpt lat="44.11757" lon="4.63518">
        <ele>168</ele>
        <time>2016-03-09T16:03:57Z</time>
      </trkpt>
      <trkpt lat="44.11773" lon="4.63516">
        <ele>170</ele>
        <time>2016-03-09T16:05:57Z</time>
      </trkpt>
      <trkpt lat="44.1179" lon="4.63526">
        <ele>172</ele>
        <time>2016-03-09T16:07:57Z</time>
      </trkpt>
      <trkpt lat="44.11798" lon="4.63526">
        <ele>172</ele>
        <time>2016-03-09T16:09:57Z</time>
      </trkpt>
      <trkpt lat="44.11807" lon="4.63526">
        <ele>173</ele>
        <time>2016-03-09T16:11:57Z</time>
      </trkpt>
      <trkpt lat="44.11811" lon="4.63526">
        <ele>173</ele>
        <time>2016-03-09T16:13:57Z</time>
      </trkpt>
      <trkpt lat="44.11813" lon="4.63526">
        <ele>174</ele>
        <time>2016-03-09T16:15:57Z</time>
      </trkpt>
      <trkpt lat="44.11823" lon="4.63526">
        <ele>174</ele>
        <time>2016-03-09T16:17:57Z</time>
      </trkpt>
      <trkpt lat="44.11826" lon="4.63527">
        <ele>175</ele>
        <time>2016-03-09T16:19:57Z</time>
      </trkpt>
      <trkpt lat="44.11835" lon="4.63523">
        <ele>175</ele>
        <time>2016-03-09T16:21:57Z</time>
      </trkpt>
      <trkpt lat="44.1184" lon="4.63523">
        <ele>176</ele>
        <time>2016-03-09T16:23:57Z</time>
      </trkpt>
      <trkpt lat="44.11844" lon="4.63522">
        <ele>177</ele>
        <time>2016-03-09T16:25:57Z</time>
      </trkpt>
      <trkpt lat="44.11848" lon="4.63511">
        <ele>177</ele>
        <time>2016-03-09T16:27:57Z</time>
      </trkpt>
      <trkpt lat="44.11852" lon="4.63495">
        <ele>177</ele>
        <time>2016-03-09T16:29:57Z</time>
      </trkpt>
      <trkpt lat="44.11848" lon="4.63492">
        <ele>176</ele>
        <time>2016-03-09T16:31:57Z</time>
      </trkpt>
      <trkpt lat="44.11843" lon="4.63492">
        <ele>175</ele>
        <time>2016-03-09T16:33:57Z</time>
      </trkpt>
      <trkpt lat="44.11834" lon="4.63489">
        <ele>173</ele>
        <time>2016-03-09T16:35:57Z</time>
      </trkpt>
      <trkpt lat="44.1183" lon="4.63482">
        <ele>172</ele>
        <time>2016-03-09T16:37:57Z</time>
      </trkpt>
      <trkpt lat="44.11831" lon="4.63477">
        <ele>172</ele>
        <time>2016-03-09T16:39:57Z</time>
      </trkpt>
      <trkpt lat="44.11837" lon="4.63456">
        <ele>172</ele>
        <time>2016-03-09T16:41:57Z</time>
      </trkpt>
      <trkpt lat="44.11847" lon="4.63427">
        <ele>173</ele>
        <time>2016-03-09T16:43:57Z</time>
      </trkpt>
      <trkpt lat="44.11851" lon="4.63411">
        <ele>173</ele>
        <time>2016-03-09T16:45:57Z</time>
      </trkpt>
      <trkpt lat="44.11853" lon="4.63404">
        <ele>173</ele>
        <time>2016-03-09T16:47:57Z</time>
      </trkpt>
      <trkpt lat="44.11854" lon="4.63388">
        <ele>172</ele>
        <time>2016-03-09T16:49:57Z</time>
      </trkpt>
      <trkpt lat="44.1186" lon="4.63356">
        <ele>171</ele>
        <time>2016-03-09T16:51:57Z</time>
      </trkpt>
      <trkpt lat="44.11869" lon="4.63319">
        <ele>170</ele>
        <time>2016-03-09T16:53:57Z</time>
      </trkpt>
      <trkpt lat="44.1187" lon="4.63299">
        <ele>169</ele>
        <time>2016-03-09T16:55:57Z</time>
      </trkpt>
      <trkpt lat="44.11872" lon="4.63288">
        <ele>169</ele>
        <time>2016-03-09T16:57:57Z</time>
      </trkpt>
      <trkpt lat="44.11876" lon="4.63279">
        <ele>169</ele>
        <time>2016-03-09T16:59:57Z</time>
      </trkpt>
      <trkpt lat="44.11884" lon="4.6326">
        <ele>168</ele>
        <time>2016-03-09T17:01:57Z</time>
      </trkpt>
      <trkpt lat="44.11889" lon="4.63253">
        <ele>169</ele>
        <time>2016-03-09T17:03:57Z</time>
      </trkpt>
      <trkpt lat="44.11909" lon="4.63226">
        <ele>168</ele>
        <time>2016-03-09T17:05:57Z</time>
      </trkpt>
      <trkpt lat="44.11914" lon="4.6322">
        <ele>168</ele>
        <time>2016-03-09T17:07:57Z</time>
      </trkpt>
      <trkpt lat="44.11925" lon="4.63209">
        <ele>168</ele>
        <time>2016-03-09T17:09:57Z</time>
      </trkpt>
      <trkpt lat="44.11933" lon="4.63206">
        <ele>168</ele>
        <time>2016-03-09T17:11:57Z</time>
      </trkpt>
      <trkpt lat="44.11944" lon="4.63208">
        <ele>169</ele>
        <time>2016-03-09T17:13:57Z</time>
      </trkpt>
      <trkpt lat="44.11956" lon="4.63198">
        <ele>169</ele>
        <time>2016-03-09T17:15:57Z</time>
      </trkpt>
      <trkpt lat="44.11964" lon="4.63188">
        <ele>168</ele>
        <time>2016-03-09T17:17:57Z</time>
      </trkpt>
      <trkpt lat="44.11973" lon="4.6318">
        <ele>167</ele>
        <time>2016-03-09T17:19:57Z</time>
      </trkpt>
      <trkpt lat="44.11989" lon="4.63175">
        <ele>168</ele>
        <time>2016-03-09T17:21:57Z</time>
      </trkpt>
      <trkpt lat="44.11997" lon="4.63177">
        <ele>169</ele>
        <time>2016-03-09T17:23:57Z</time>
      </trkpt>
      <trkpt lat="44.12006" lon="4.63177">
        <ele>170</ele>
        <time>2016-03-09T17:25:57Z</time>
      </trkpt>
      <trkpt lat="44.12009" lon="4.63178">
        <ele>171</ele>
        <time>2016-03-09T17:27:57Z</time>
      </trkpt>
      <trkpt lat="44.12017" lon="4.63183">
        <ele>173</ele>
        <time>2016-03-09T17:29:57Z</time>
      </trkpt>
      <trkpt lat="44.12026" lon="4.632">
        <ele>178</ele>
        <time>2016-03-09T17:31:57Z</time>
      </trkpt>
      <trkpt lat="44.12032" lon="4.63202">
        <ele>179</ele>
        <time>2016-03-09T17:33:57Z</time>
      </trkpt>
      <trkpt lat="44.12039" lon="4.63205">
        <ele>181</ele>
        <time>2016-03-09T17:35:57Z</time>
      </trkpt>
      <trkpt lat="44.12044" lon="4.63209">
        <ele>182</ele>
        <time>2016-03-09T17:37:57Z</time>
      </trkpt>
      <trkpt lat="44.12052" lon="4.63222">
        <ele>185</ele>
        <time>2016-03-09T17:39:57Z</time>
      </trkpt>
      <trkpt lat="44.12054" lon="4.63223">
        <ele>185</ele>
        <time>2016-03-09T17:41:57Z</time>
      </trkpt>
      <trkpt lat="44.12056" lon="4.63223">
        <ele>185</ele>
        <time>2016-03-09T17:43:57Z</time>
      </trkpt>
      <trkpt lat="44.12061" lon="4.63222">
        <ele>186</ele>
        <time>2016-03-09T17:45:57Z</time>
      </trkpt>
      <trkpt lat="44.12057" lon="4.6321">
        <ele>184</ele>
        <time>2016-03-09T17:47:57Z</time>
      </trkpt>
      <trkpt lat="44.12057" lon="4.63202">
        <ele>184</ele>
        <time>2016-03-09T17:49:57Z</time>
      </trkpt>
      <trkpt lat="44.12059" lon="4.63196">
        <ele>184</ele>
        <time>2016-03-09T17:51:57Z</time>
      </trkpt>
      <trkpt lat="44.12059" lon="4.63188">
        <ele>183</ele>
        <time>2016-03-09T17:53:57Z</time>
      </trkpt>
      <trkpt lat="44.12061" lon="4.63173">
        <ele>182</ele>
        <time>2016-03-09T17:55:57Z</time>
      </trkpt>
      <trkpt lat="44.12061" lon="4.63165">
        <ele>182</ele>
        <time>2016-03-09T17:57:57Z</time>
      </trkpt>
      <trkpt lat="44.12062" lon="4.63152">
        <ele>182</ele>
        <time>2016-03-09T17:59:57Z</time>
      </trkpt>
      <trkpt lat="44.12063" lon="4.63133">
        <ele>183</ele>
        <time>2016-03-09T18:01:57Z</time>
      </trkpt>
      <trkpt lat="44.12062" lon="4.63119">
        <ele>184</ele>
        <time>2016-03-09T18:03:57Z</time>
      </trkpt>
      <trkpt lat="44.12062" lon="4.63108">
        <ele>184</ele>
        <time>2016-03-09T18:05:57Z</time>
      </trkpt>
      <trkpt lat="44.12064" lon="4.63103">
        <ele>185</ele>
        <time>2016-03-09T18:07:57Z</time>
      </trkpt>
      <trkpt lat="44.12065" lon="4.63097">
        <ele>185</ele>
        <time>2016-03-09T18:09:57Z</time>
      </trkpt>
      <trkpt lat="44.12066" lon="4.63091">
        <ele>186</ele>
        <time>2016-03-09T18:11:57Z</time>
      </trkpt>
      <trkpt lat="44.12067" lon="4.63084">
        <ele>186</ele>
        <time>2016-03-09T18:13:57Z</time>
      </trkpt>
      <trkpt lat="44.12066" lon="4.63078">
        <ele>187</ele>
        <time>2016-03-09T18:15:57Z</time>
      </trkpt>
      <trkpt lat="44.12054" lon="4.63061">
        <ele>187</ele>
        <time>2016-03-09T18:17:57Z</time>
      </trkpt>
      <trkpt lat="44.12049" lon="4.63056">
        <ele>187</ele>
        <time>2016-03-09T18:19:57Z</time>
      </trkpt>
      <trkpt lat="44.12036" lon="4.63048">
        <ele>185</ele>
        <time>2016-03-09T18:21:57Z</time>
      </trkpt>
      <trkpt lat="44.12021" lon="4.63042">
        <ele>183</ele>
        <time>2016-03-09T18:23:57Z</time>
      </trkpt>
      <trkpt lat="44.11997" lon="4.63033">
        <ele>180</ele>
        <time>2016-03-09T18:25:57Z</time>
      </trkpt>
      <trkpt lat="44.11982" lon="4.63028">
        <ele>179</ele>
        <time>2016-03-09T18:27:57Z</time>
      </trkpt>
      <trkpt lat="44.11975" lon="4.63027">
        <ele>178</ele>
        <time>2016-03-09T18:29:57Z</time>
      </trkpt>
      <trkpt lat="44.11969" lon="4.63025">
        <ele>177</ele>
        <time>2016-03-09T18:31:57Z</time>
      </trkpt>
      <trkpt lat="44.11964" lon="4.63023">
        <ele>177</ele>
        <time>2016-03-09T18:33:57Z</time>
      </trkpt>
      <trkpt lat="44.11957" lon="4.63013">
        <ele>178</ele>
        <time>2016-03-09T18:35:57Z</time>
      </trkpt>
      <trkpt lat="44.11948" lon="4.63008">
        <ele>177</ele>
        <time>2016-03-09T18:37:57Z</time>
      </trkpt>
      <trkpt lat="44.11945" lon="4.63007">
        <ele>177</ele>
        <time>2016-03-09T18:39:57Z</time>
      </trkpt>
      <trkpt lat="44.11945" lon="4.63008">
        <ele>177</ele>
        <time>2016-03-09T18:41:57Z</time>
      </trkpt>
      <trkpt lat="44.11944" lon="4.63008">
        <ele>177</ele>
        <time>2016-03-09T18:43:57Z</time>
      </trkpt>
      <trkpt lat="44.11934" lon="4.63004">
        <ele>176</ele>
        <time>2016-03-09T18:45:57Z</time>
      </trkpt>
      <trkpt lat="44.11916" lon="4.62997">
        <ele>175</ele>
        <time>2016-03-09T18:47:57Z</time>
      </trkpt>
      <trkpt lat="44.11914" lon="4.62995">
        <ele>175</ele>
        <time>2016-03-09T18:49:57Z</time>
      </trkpt>
      <trkpt lat="44.11905" lon="4.62981">
        <ele>177</ele>
        <time>2016-03-09T18:51:57Z</time>
      </trkpt>
      <trkpt lat="44.11891" lon="4.62973">
        <ele>177</ele>
        <time>2016-03-09T18:53:57Z</time>
      </trkpt>
      <trkpt lat="44.11888" lon="4.62969">
        <ele>177</ele>
        <time>2016-03-09T18:55:57Z</time>
      </trkpt>
      <trkpt lat="44.1187" lon="4.6296">
        <ele>177</ele>
        <time>2016-03-09T18:57:57Z</time>
      </trkpt>
      <trkpt lat="44.11865" lon="4.62958">
        <ele>177</ele>
        <time>2016-03-09T18:59:57Z</time>
      </trkpt>
      <trkpt lat="44.11855" lon="4.62955">
        <ele>176</ele>
        <time>2016-03-09T19:01:57Z</time>
      </trkpt>
      <trkpt lat="44.11852" lon="4.62953">
        <ele>176</ele>
        <time>2016-03-09T19:03:57Z</time>
      </trkpt>
      <trkpt lat="44.11838" lon="4.6294">
        <ele>176</ele>
        <time>2016-03-09T19:05:57Z</time>
      </trkpt>
      <trkpt lat="44.11838" lon="4.62929">
        <ele>178</ele>
        <time>2016-03-09T19:07:57Z</time>
      </trkpt>
      <trkpt lat="44.11838" lon="4.62925">
        <ele>178</ele>
        <time>2016-03-09T19:09:57Z</time>
      </trkpt>
      <trkpt lat="44.11838" lon="4.62921">
        <ele>179</ele>
        <time>2016-03-09T19:11:57Z</time>
      </trkpt>
      <trkpt lat="44.11837" lon="4.62914">
        <ele>180</ele>
        <time>2016-03-09T19:13:57Z</time>
      </trkpt>
      <trkpt lat="44.11804" lon="4.62889">
        <ele>177</ele>
        <time>2016-03-09T19:15:57Z</time>
      </trkpt>
      <trkpt lat="44.11796" lon="4.62886">
        <ele>176</ele>
        <time>2016-03-09T19:17:57Z</time>
      </trkpt>
      <trkpt lat="44.1179" lon="4.62881">
        <ele>176</ele>
        <time>2016-03-09T19:19:57Z</time>
      </trkpt>
      <trkpt lat="44.11784" lon="4.62875">
        <ele>176</ele>
        <time>2016-03-09T19:21:57Z</time>
      </trkpt>
      <trkpt lat="44.1178" lon="4.62874">
        <ele>175</ele>
        <time>2016-03-09T19:23:57Z</time>
      </trkpt>
      <trkpt lat="44.11769" lon="4.62874">
        <ele>174</ele>
        <time>2016-03-09T19:25:57Z</time>
      </trkpt>
      <trkpt lat="44.11751" lon="4.6287">
        <ele>172</ele>
        <time>2016-03-09T19:27:57Z</time>
      </trkpt>
      <trkpt lat="44.11749" lon="4.62872">
        <ele>172</ele>
        <time>2016-03-09T19:29:57Z</time>
      </trkpt>
      <trkpt lat="44.11748" lon="4.62877">
        <ele>172</ele>
        <time>2016-03-09T19:31:57Z</time>
      </trkpt>
      <trkpt lat="44.11749" lon="4.6288">
        <ele>172</ele>
        <time>2016-03-09T19:33:57Z</time>
      </trkpt>
      <trkpt lat="44.11754" lon="4.62894">
        <ele>172</ele>
        <time>2016-03-09T19:35:57Z</time>
      </trkpt>
      <trkpt lat="44.11756" lon="4.62899">
        <ele>171</ele>
        <time>2016-03-09T19:37:57Z</time>
      </trkpt>
      <trkpt lat="44.11771" lon="4.62927">
        <ele>171</ele>
        <time>2016-03-09T19:39:57Z</time>
      </trkpt>
      <trkpt lat="44.11774" lon="4.62932">
        <ele>171</ele>
        <time>2016-03-09T19:41:57Z</time>
      </trkpt>
      <trkpt lat="44.11791" lon="4.62947">
        <ele>171</ele>
        <time>2016-03-09T19:43:57Z</time>
      </trkpt>
      <trkpt lat="44.11805" lon="4.62958">
        <ele>170</ele>
        <time>2016-03-09T19:45:57Z</time>
      </trkpt>
      <trkpt lat="44.11815" lon="4.62963">
        <ele>170</ele>
        <time>2016-03-09T19:47:57Z</time>
      </trkpt>
      <trkpt lat="44.11825" lon="4.6297">
        <ele>170</ele>
        <time>2016-03-09T19:49:57Z</time>
      </trkpt>
      <trkpt lat="44.11838" lon="4.62984">
        <ele>169</ele>
        <time>2016-03-09T19:51:57Z</time>
      </trkpt>
      <trkpt lat="44.11845" lon="4.63015">
        <ele>165</ele>
        <time>2016-03-09T19:53:57Z</time>
      </trkpt>
      <trkpt lat="44.11845" lon="4.63026">
        <ele>164</ele>
        <time>2016-03-09T19:55:57Z</time>
      </trkpt>
      <trkpt lat="44.11846" lon="4.63068">
        <ele>159</ele>
        <time>2016-03-09T19:57:57Z</time>
      </trkpt>
      <trkpt lat="44.11854" lon="4.63098">
        <ele>158</ele>
        <time>2016-03-09T19:59:57Z</time>
      </trkpt>
      <trkpt lat="44.11858" lon="4.63108">
        <ele>158</ele>
        <time>2016-03-09T20:01:57Z</time>
      </trkpt>
      <trkpt lat="44.11862" lon="4.63117">
        <ele>158</ele>
        <time>2016-03-09T20:03:57Z</time>
      </trkpt>
      <trkpt lat="44.11867" lon="4.63134">
        <ele>158</ele>
        <time>2016-03-09T20:05:57Z</time>
      </trkpt>
      <trkpt lat="44.11868" lon="4.63143">
        <ele>158</ele>
        <time>2016-03-09T20:07:57Z</time>
      </trkpt>
      <trkpt lat="44.1186" lon="4.63161">
        <ele>157</ele>
        <time>2016-03-09T20:09:57Z</time>
      </trkpt>
      <trkpt lat="44.11856" lon="4.63167">
        <ele>157</ele>
        <time>2016-03-09T20:11:57Z</time>
      </trkpt>
      <trkpt lat="44.11838" lon="4.6319">
        <ele>157</ele>
        <time>2016-03-09T20:13:57Z</time>
      </trkpt>
      <trkpt lat="44.11824" lon="4.63206">
        <ele>157</ele>
        <time>2016-03-09T20:15:57Z</time>
      </trkpt>
      <trkpt lat="44.11812" lon="4.6322">
        <ele>158</ele>
        <time>2016-03-09T20:17:57Z</time>
      </trkpt>
      <trkpt lat="44.11795" lon="4.63236">
        <ele>158</ele>
        <time>2016-03-09T20:19:57Z</time>
      </trkpt>
      <trkpt lat="44.11792" lon="4.63239">
        <ele>158</ele>
        <time>2016-03-09T20:21:57Z</time>
      </trkpt>
      <trkpt lat="44.11785" lon="4.63255">
        <ele>159</ele>
        <time>2016-03-09T20:23:57Z</time>
      </trkpt>
      <trkpt lat="44.11776" lon="4.63275">
        <ele>159</ele>
        <time>2016-03-09T20:25:57Z</time>
      </trkpt>
      <trkpt lat="44.11772" lon="4.63283">
        <ele>159</ele>
        <time>2016-03-09T20:27:57Z</time>
      </trkpt>
      <trkpt lat="44.11766" lon="4.63298">
        <ele>159</ele>
        <time>2016-03-09T20:29:57Z</time>
      </trkpt>
      <trkpt lat="44.11758" lon="4.63315">
        <ele>159</ele>
        <time>2016-03-09T20:31:57Z</time>
      </trkpt>
      <trkpt lat="44.11757" lon="4.6332">
        <ele>159</ele>
        <time>2016-03-09T20:33:57Z</time>
      </trkpt>
      <trkpt lat="44.11753" lon="4.63331">
        <ele>159</ele>
        <time>2016-03-09T20:35:57Z</time>
      </trkpt>
      <trkpt lat="44.11745" lon="4.63344">
        <ele>160</ele>
        <time>2016-03-09T20:37:57Z</time>
      </trkpt>
      <trkpt lat="44.11741" lon="4.63366">
        <ele>161</ele>
        <time>2016-03-09T20:39:57Z</time>
      </trkpt>
      <trkpt lat="44.11741" lon="4.63386">
        <ele>162</ele>
        <time>2016-03-09T20:41:57Z</time>
      </trkpt>
      <trkpt lat="44.1174" lon="4.63397">
        <ele>163</ele>
        <time>2016-03-09T20:43:57Z</time>
      </trkpt>
      <trkpt lat="44.11736" lon="4.63415">
        <ele>164</ele>
        <time>2016-03-09T20:45:57Z</time>
      </trkpt>
      <trkpt lat="44.11728" lon="4.63448">
        <ele>165</ele>
        <time>2016-03-09T20:47:57Z</time>
      </trkpt>
      <trkpt lat="44.11727" lon="4.63455">
        <ele>165</ele>
        <time>2016-03-09T20:49:57Z</time>
      </trkpt>
      <trkpt lat="44.11722" lon="4.63467">
        <ele>165</ele>
        <time>2016-03-09T20:51:57Z</time>
      </trkpt>
      <trkpt lat="44.11719" lon="4.63479">
        <ele>166</ele>
        <time>2016-03-09T20:53:57Z</time>
      </trkpt>
      <trkpt lat="44.11709" lon="4.63493">
        <ele>166</ele>
        <time>2016-03-09T20:55:57Z</time>
      </trkpt>
      <trkpt lat="44.11706" lon="4.63499">
        <ele>166</ele>
        <time>2016-03-09T20:57:57Z</time>
      </trkpt>
      <trkpt lat="44.11705" lon="4.63503">
        <ele>167</ele>
        <time>2016-03-09T20:59:57Z</time>
      </trkpt>
      <trkpt lat="44.117" lon="4.63504">
        <ele>167</ele>
        <time>2016-03-09T21:01:57Z</time>
      </trkpt>
      <trkpt lat="44.11697" lon="4.63505">
        <ele>167</ele>
        <time>2016-03-09T21:03:57Z</time>
      </trkpt>
      <trkpt lat="44.11693" lon="4.6351">
        <ele>168</ele>
        <time>2016-03-09T21:05:57Z</time>
      </trkpt>
      <trkpt lat="44.11681" lon="4.63515">
        <ele>168</ele>
        <time>2016-03-09T21:07:57Z</time>
      </trkpt>
      <trkpt lat="44.11662" lon="4.63525">
        <ele>170</ele>
        <time>2016-03-09T21:09:57Z</time>
      </trkpt>
      <trkpt lat="44.11646" lon="4.63538">
        <ele>172</ele>
        <time>2016-03-09T21:11:57Z</time>
      </trkpt>
      <trkpt lat="44.11644" lon="4.6354">
        <ele>172</ele>
        <time>2016-03-09T21:13:57Z</time>
      </trkpt>
      <trkpt lat="44.1163" lon="4.63556">
        <ele>174</ele>
        <time>2016-03-09T21:15:57Z</time>
      </trkpt>
      <trkpt lat="44.11618" lon="4.6357">
        <ele>175</ele>
        <time>2016-03-09T21:17:57Z</time>
      </trkpt>
      <trkpt lat="44.11615" lon="4.63574">
        <ele>176</ele>
        <time>2016-03-09T21:19:57Z</time>
      </trkpt>
      <trkpt lat="44.1161" lon="4.63584">
        <ele>176</ele>
        <time>2016-03-09T21:21:57Z</time>
      </trkpt>
      <trkpt lat="44.11605" lon="4.63593">
        <ele>177</ele>
        <time>2016-03-09T21:23:57Z</time>
      </trkpt>
      <trkpt lat="44.11599" lon="4.63601">
        <ele>178</ele>
        <time>2016-03-09T21:25:57Z</time>
      </trkpt>
      <trkpt lat="44.11584" lon="4.63617">
        <ele>180</ele>
        <time>2016-03-09T21:27:57Z</time>
      </trkpt>
      <trkpt lat="44.11577" lon="4.63627">
        <ele>181</ele>
        <time>2016-03-09T21:29:57Z</time>
      </trkpt>
      <trkpt lat="44.11567" lon="4.63638">
        <ele>182</ele>
        <time>2016-03-09T21:31:57Z</time>
      </trkpt>
      <trkpt lat="44.11563" lon="4.63644">
        <ele>182</ele>
        <time>2016-03-09T21:33:57Z</time>
      </trkpt>
      <trkpt lat="44.11558" lon="4.63657">
        <ele>183</ele>
        <time>2016-03-09T21:35:57Z</time>
      </trkpt>
      <trkpt lat="44.11556" lon="4.63661">
        <ele>183</ele>
        <time>2016-03-09T21:37:57Z</time>
      </trkpt>
      <trkpt lat="44.11551" lon="4.63675">
        <ele>184</ele>
        <time>2016-03-09T21:39:57Z</time>
      </trkpt>
      <trkpt lat="44.11544" lon="4.6369">
        <ele>185</ele>
        <time>2016-03-09T21:41:57Z</time>
      </trkpt>
      <trkpt lat="44.11525" lon="4.63723">
        <ele>186</ele>
        <time>2016-03-09T21:43:57Z</time>
      </trkpt>
      <trkpt lat="44.11519" lon="4.63739">
        <ele>187</ele>
        <time>2016-03-09T21:45:57Z</time>
      </trkpt>
      <trkpt lat="44.11509" lon="4.63772">
        <ele>188</ele>
        <time>2016-03-09T21:47:57Z</time>
      </trkpt>
      <trkpt lat="44.11499" lon="4.63809">
        <ele>189</ele>
        <time>2016-03-09T21:49:57Z</time>
      </trkpt>
      <trkpt lat="44.11492" lon="4.63834">
        <ele>190</ele>
        <time>2016-03-09T21:51:57Z</time>
      </trkpt>
      <trkpt lat="44.11483" lon="4.63886">
        <ele>192</ele>
        <time>2016-03-09T21:53:57Z</time>
      </trkpt>
      <trkpt lat="44.11481" lon="4.63898">
        <ele>193</ele>
        <time>2016-03-09T21:55:57Z</time>
      </trkpt>
      <trkpt lat="44.11473" lon="4.63961">
        <ele>194</ele>
        <time>2016-03-09T21:57:57Z</time>
      </trkpt>
      <trkpt lat="44.11473" lon="4.63968">
        <ele>194</ele>
        <time>2016-03-09T21:59:57Z</time>
      </trkpt>
      <trkpt lat="44.11474" lon="4.64007">
        <ele>195</ele>
        <time>2016-03-09T22:01:57Z</time>
      </trkpt>
      <trkpt lat="44.11479" lon="4.64046">
        <ele>195</ele>
        <time>2016-03-09T22:03:57Z</time>
      </trkpt>
      <trkpt lat="44.11479" lon="4.64068">
        <ele>195</ele>
        <time>2016-03-09T22:05:57Z</time>
      </trkpt>
      <trkpt lat="44.11481" lon="4.64082">
        <ele>195</ele>
        <time>2016-03-09T22:07:57Z</time>
      </trkpt>
      <trkpt lat="44.11491" lon="4.64115">
        <ele>195</ele>
        <time>2016-03-09T22:09:57Z</time>
      </trkpt>
      <trkpt lat="44.11506" lon="4.6415">
        <ele>194</ele>
        <time>2016-03-09T22:11:57Z</time>
      </trkpt>
      <trkpt lat="44.11514" lon="4.64162">
        <ele>195</ele>
        <time>2016-03-09T22:13:57Z</time>
      </trkpt>
      <trkpt lat="44.11514" lon="4.64164">
        <ele>194</ele>
        <time>2016-03-09T22:15:57Z</time>
      </trkpt>
      <trkpt lat="44.11516" lon="4.64164">
        <ele>195</ele>
        <time>2016-03-09T22:17:57Z</time>
      </trkpt>
      <trkpt lat="44.11525" lon="4.64174">
        <ele>195</ele>
        <time>2016-03-09T22:19:57Z</time>
      </trkpt>
      <trkpt lat="44.11537" lon="4.64189">
        <ele>195</ele>
        <time>2016-03-09T22:21:57Z</time>
      </trkpt>
      <trkpt lat="44.11543" lon="4.64193">
        <ele>195</ele>
        <time>2016-03-09T22:23:57Z</time>
      </trkpt>
      <trkpt lat="44.11552" lon="4.64203">
        <ele>195</ele>
        <time>2016-03-09T22:25:57Z</time>
      </trkpt>
      <trkpt lat="44.11559" lon="4.64214">
        <ele>194</ele>
        <time>2016-03-09T22:27:57Z</time>
      </trkpt>
      <trkpt lat="44.11563" lon="4.64221">
        <ele>194</ele>
        <time>2016-03-09T22:29:57Z</time>
      </trkpt>
      <trkpt lat="44.11566" lon="4.64226">
        <ele>193</ele>
        <time>2016-03-09T22:31:57Z</time>
      </trkpt>
      <trkpt lat="44.11568" lon="4.64222">
        <ele>194</ele>
        <time>2016-03-09T22:33:57Z</time>
      </trkpt>
      <trkpt lat="44.11563" lon="4.64216">
        <ele>194</ele>
        <time>2016-03-09T22:35:57Z</time>
      </trkpt>
      <trkpt lat="44.11561" lon="4.64214">
        <ele>194</ele>
        <time>2016-03-09T22:37:57Z</time>
      </trkpt>
      <trkpt lat="44.11546" lon="4.64195">
        <ele>195</ele>
        <time>2016-03-09T22:39:57Z</time>
      </trkpt>
      <trkpt lat="44.11538" lon="4.64186">
        <ele>195</ele>
        <time>2016-03-09T22:41:57Z</time>
      </trkpt>
      <trkpt lat="44.11519" lon="4.64165">
        <ele>195</ele>
        <time>2016-03-09T22:43:57Z</time>
      </trkpt>
      <trkpt lat="44.11508" lon="4.64152">
        <ele>195</ele>
        <time>2016-03-09T22:45:57Z</time>
      </trkpt>
      <trkpt lat="44.11498" lon="4.64135">
        <ele>194</ele>
        <time>2016-03-09T22:47:57Z</time>
      </trkpt>
      <trkpt lat="44.11492" lon="4.6412">
        <ele>195</ele>
        <time>2016-03-09T22:49:57Z</time>
      </trkpt>
      <trkpt lat="44.11492" lon="4.64119">
        <ele>195</ele>
        <time>2016-03-09T22:51:57Z</time>
      </trkpt>
      <trkpt lat="44.11492" lon="4.64119">
        <ele>195</ele>
        <time>2016-03-09T22:53:57Z</time>
      </trkpt>
      <trkpt lat="44.11492" lon="4.64118">
        <ele>195</ele>
        <time>2016-03-09T22:55:57Z</time>
      </trkpt>
      <trkpt lat="44.11492" lon="4.64117">
        <ele>195</ele>
        <time>2016-03-09T22:57:57Z</time>
      </trkpt>
      <trkpt lat="44.11492" lon="4.64117">
        <ele>195</ele>
        <time>2016-03-09T22:59:57Z</time>
      </trkpt>
      <trkpt lat="44.11491" lon="4.64118">
        <ele>195</ele>
        <time>2016-03-09T23:01:57Z</time>
      </trkpt>
      <trkpt lat="44.11491" lon="4.64119">
        <ele>195</ele>
        <time>2016-03-09T23:03:57Z</time>
      </trkpt>
      <trkpt lat="44.11491" lon="4.64119">
        <ele>195</ele>
        <time>2016-03-09T23:05:57Z</time>
      </trkpt>
      <trkpt lat="44.11491" lon="4.64119">
        <ele>195</ele>
        <time>2016-03-09T23:07:57Z</time>
      </trkpt>
      <trkpt lat="44.1149" lon="4.64118">
        <ele>195</ele>
        <time>2016-03-09T23:09:57Z</time>
      </trkpt>
      <trkpt lat="44.1149" lon="4.64117">
        <ele>195</ele>
        <time>2016-03-09T23:11:57Z</time>
      </trkpt>
      <trkpt lat="44.1149" lon="4.64117">
        <ele>195</ele>
        <time>2016-03-09T23:13:57Z</time>
      </trkpt>
      <trkpt lat="44.1149" lon="4.64117">
        <ele>195</ele>
        <time>2016-03-09T23:15:57Z</time>
      </trkpt>
      <trkpt lat="44.1149" lon="4.64116">
        <ele>195</ele>
        <time>2016-03-09T23:17:57Z</time>
      </trkpt>
      <trkpt lat="44.11491" lon="4.64117">
        <ele>195</ele>
        <time>2016-03-09T23:19:57Z</time>
      </trkpt>
      <trkpt lat="44.11494" lon="4.64128">
        <ele>194</ele>
        <time>2016-03-09T23:21:57Z</time>
      </trkpt>
      <trkpt lat="44.11505" lon="4.64152">
        <ele>194</ele>
        <time>2016-03-09T23:23:57Z</time>
      </trkpt>
      <trkpt lat="44.11508" lon="4.64156">
        <ele>194</ele>
        <time>2016-03-09T23:25:57Z</time>
      </trkpt>
      <trkpt lat="44.11512" lon="4.6416">
        <ele>195</ele>
        <time>2016-03-09T23:27:57Z</time>
      </trkpt>
      <trkpt lat="44.11523" lon="4.64173">
        <ele>195</ele>
        <time>2016-03-09T23:29:57Z</time>
      </trkpt>
      <trkpt lat="44.1155" lon="4.64201">
        <ele>195</ele>
        <time>2016-03-09T23:31:57Z</time>
      </trkpt>
      <trkpt lat="44.11558" lon="4.64212">
        <ele>194</ele>
        <time>2016-03-09T23:33:57Z</time>
      </trkpt>
      <trkpt lat="44.11563" lon="4.64218">
        <ele>194</ele>
        <time>2016-03-09T23:35:57Z</time>
      </trkpt>
      <trkpt lat="44.11568" lon="4.64223">
        <ele>194</ele>
        <time>2016-03-09T23:37:57Z</time>
      </trkpt>
      <trkpt lat="44.11594" lon="4.64239">
        <ele>194</ele>
        <time>2016-03-09T23:39:57Z</time>
      </trkpt>
      <trkpt lat="44.11625" lon="4.6426">
        <ele>195</ele>
        <time>2016-03-09T23:41:57Z</time>
      </trkpt>
      <trkpt lat="44.11637" lon="4.64271">
        <ele>195</ele>
        <time>2016-03-09T23:43:57Z</time>
      </trkpt>
      <trkpt lat="44.11643" lon="4.6428">
        <ele>195</ele>
        <time>2016-03-09T23:45:57Z</time>
      </trkpt>
      <trkpt lat="44.11657" lon="4.64304">
        <ele>194</ele>
        <time>2016-03-09T23:47:57Z</time>
      </trkpt>
      <trkpt lat="44.11661" lon="4.64316">
        <ele>194</ele>
        <time>2016-03-09T23:49:57Z</time>
      </trkpt>
      <trkpt lat="44.11666" lon="4.64334">
        <ele>193</ele>
        <time>2016-03-09T23:51:57Z</time>
      </trkpt>
      <trkpt lat="44.1167" lon="4.64346">
        <ele>193</ele>
        <time>2016-03-09T23:53:57Z</time>
      </trkpt>
      <trkpt lat="44.11677" lon="4.64365">
        <ele>194</ele>
        <time>2016-03-09T23:55:57Z</time>
      </trkpt>
      <trkpt lat="44.11681" lon="4.6437">
        <ele>195</ele>
        <time>2016-03-09T23:57:57Z</time>
      </trkpt>
      <trkpt lat="44.11687" lon="4.64387">
        <ele>195</ele>
        <time>2016-03-09T23:59:57Z</time>
      </trkpt>
      <trkpt lat="44.11689" lon="4.64393">
        <ele>195</ele>
        <time>2016-03-10T00:01:57Z</time>
      </trkpt>
      <trkpt lat="44.11692" lon="4.64406">
        <ele>195</ele>
        <time>2016-03-10T00:03:57Z</time>
      </trkpt>
      <trkpt lat="44.11697" lon="4.64418">
        <ele>195</ele>
        <time>2016-03-10T00:05:57Z</time>
      </trkpt>
      <trkpt lat="44.11711" lon="4.6445">
        <ele>196</ele>
        <time>2016-03-10T00:07:57Z</time>
      </trkpt>
      <trkpt lat="44.1172" lon="4.64468">
        <ele>196</ele>
        <time>2016-03-10T00:09:57Z</time>
      </trkpt>
      <trkpt lat="44.11724" lon="4.64482">
        <ele>195</ele>
        <time>2016-03-10T00:11:57Z</time>
      </trkpt>
      <trkpt lat="44.11726" lon="4.64489">
        <ele>195</ele>
        <time>2016-03-10T00:13:57Z</time>
      </trkpt>
      <trkpt lat="44.11729" lon="4.64496">
        <ele>195</ele>
        <time>2016-03-10T00:15:57Z</time>
      </trkpt>
      <trkpt lat="44.11749" lon="4.64557">
        <ele>194</ele>
        <time>2016-03-10T00:17:57Z</time>
      </trkpt>
      <trkpt lat="44.11757" lon="4.64583">
        <ele>195</ele>
        <time>2016-03-10T00:19:57Z</time>
      </trkpt>
      <trkpt lat="44.11757" lon="4.6459">
        <ele>195</ele>
        <time>2016-03-10T00:21:57Z</time>
      </trkpt>
      <trkpt lat="44.11754" lon="4.64625">
        <ele>194</ele>
        <time>2016-03-10T00:23:57Z</time>
      </trkpt>
      <trkpt lat="44.11751" lon="4.64638">
        <ele>193</ele>
        <time>2016-03-10T00:25:57Z</time>
      </trkpt>
      <trkpt lat="44.11745" lon="4.6465">
        <ele>192</ele>
        <time>2016-03-10T00:27:57Z</time>
      </trkpt>
      <trkpt lat="44.11737" lon="4.6466">
        <ele>192</ele>
        <time>2016-03-10T00:29:57Z</time>
      </trkpt>
      <trkpt lat="44.11729" lon="4.64669">
        <ele>191</ele>
        <time>2016-03-10T00:31:57Z</time>
      </trkpt>
      <trkpt lat="44.11724" lon="4.64674">
        <ele>191</ele>
        <time>2016-03-10T00:33:57Z</time>
      </trkpt>
      <trkpt lat="44.11702" lon="4.64698">
        <ele>192</ele>
        <time>2016-03-10T00:35:57Z</time>
      </trkpt>
      <trkpt lat="44.11691" lon="4.64713">
        <ele>193</ele>
        <time>2016-03-10T00:37:57Z</time>
      </trkpt>
      <trkpt lat="44.11677" lon="4.6473">
        <ele>194</ele>
        <time>2016-03-10T00:39:57Z</time>
      </trkpt>
      <trkpt lat="44.11666" lon="4.64741">
        <ele>195</ele>
        <time>2016-03-10T00:41:57Z</time>
      </trkpt>
      <trkpt lat="44.11661" lon="4.6475">
        <ele>195</ele>
        <time>2016-03-10T00:43:57Z</time>
      </trkpt>
      <trkpt lat="44.11653" lon="4.64767">
        <ele>197</ele>
        <time>2016-03-10T00:45:57Z</time>
      </trkpt>
      <trkpt lat="44.11648" lon="4.64777">
        <ele>198</ele>
        <time>2016-03-10T00:47:57Z</time>
      </trkpt>
      <trkpt lat="44.1164" lon="4.64795">
        <ele>200</ele>
        <time>2016-03-10T00:49:57Z</time>
      </trkpt>
      <trkpt lat="44.11639" lon="4.64799">
        <ele>200</ele>
        <time>2016-03-10T00:51:57Z</time>
      </trkpt>
      <trkpt lat="44.11636" lon="4.64809">
        <ele>201</ele>
        <time>2016-03-10T00:53:57Z</time>
      </trkpt>
      <trkpt lat="44.11633" lon="4.64818">
        <ele>202</ele>
        <time>2016-03-10T00:55:57Z</time>
      </trkpt>
      <trkpt lat="44.11631" lon="4.64822">
        <ele>202</ele>
        <time>2016-03-10T00:57:57Z</time>
      </trkpt>
      <trkpt lat="44.11627" lon="4.64839">
        <ele>204</ele>
        <time>2016-03-10T00:59:57Z</time>
      </trkpt>
      <trkpt lat="44.11619" lon="4.64861">
        <ele>205</ele>
        <time>2016-03-10T01:01:57Z</time>
      </trkpt>
      <trkpt lat="44.11615" lon="4.64874">
        <ele>206</ele>
        <time>2016-03-10T01:03:57Z</time>
      </trkpt>
      <trkpt lat="44.11604" lon="4.64895">
        <ele>206</ele>
        <time>2016-03-10T01:05:57Z</time>
      </trkpt>
      <trkpt lat="44.11584" lon="4.64919">
        <ele>205</ele>
        <time>2016-03-10T01:07:57Z</time>
      </trkpt>
      <trkpt lat="44.11571" lon="4.64935">
        <ele>205</ele>
        <time>2016-03-10T01:09:57Z</time>
      </trkpt>
      <trkpt lat="44.11568" lon="4.64938">
        <ele>205</ele>
        <time>2016-03-10T01:11:57Z</time>
      </trkpt>
      <trkpt lat="44.11555" lon="4.64961">
        <ele>207</ele>
        <time>2016-03-10T01:13:57Z</time>
      </trkpt>
      <trkpt lat="44.11544" lon="4.64972">
        <ele>206</ele>
        <time>2016-03-10T01:15:57Z</time>
      </trkpt>
      <trkpt lat="44.1154" lon="4.64977">
        <ele>206</ele>
        <time>2016-03-10T01:17:57Z</time>
      </trkpt>
      <trkpt lat="44.11531" lon="4.64986">
        <ele>206</ele>
        <time>2016-03-10T01:19:57Z</time>
      </trkpt>
      <trkpt lat="44.1153" lon="4.64986">
        <ele>205</ele>
        <time>2016-03-10T01:21:57Z</time>
      </trkpt>
      <trkpt lat="44.11529" lon="4.64984">
        <ele>205</ele>
        <time>2016-03-10T01:23:57Z</time>
      </trkpt>
      <trkpt lat="44.11528" lon="4.64986">
        <ele>205</ele>
        <time>2016-03-10T01:25:57Z</time>
      </trkpt>
      <trkpt lat="44.11528" lon="4.64986">
        <ele>205</ele>
        <time>2016-03-10T01:27:57Z</time>
      </trkpt>
      <trkpt lat="44.11528" lon="4.64986">
        <ele>205</ele>
        <time>2016-03-10T01:29:57Z</time>
      </trkpt>
      <trkpt lat="44.11527" lon="4.64982">
        <ele>205</ele>
        <time>2016-03-10T01:31:57Z</time>
      </trkpt>
      <trkpt lat="44.1152" lon="4.64972">
        <ele>203</ele>
        <time>2016-03-10T01:33:57Z</time>
      </trkpt>
      <trkpt lat="44.11515" lon="4.6497">
        <ele>202</ele>
        <time>2016-03-10T01:35:57Z</time>
      </trkpt>
      <trkpt lat="44.11501" lon="4.64964">
        <ele>199</ele>
        <time>2016-03-10T01:37:57Z</time>
      </trkpt>
      <trkpt lat="44.11492" lon="4.64955">
        <ele>198</ele>
        <time>2016-03-10T01:39:57Z</time>
      </trkpt>
      <trkpt lat="44.11481" lon="4.64947">
        <ele>197</ele>
        <time>2016-03-10T01:41:57Z</time>
      </trkpt>
      <trkpt lat="44.11452" lon="4.6493">
        <ele>194</ele>
        <time>2016-03-10T01:43:57Z</time>
      </trkpt>
      <trkpt lat="44.11442" lon="4.64924">
        <ele>192</ele>
        <time>2016-03-10T01:45:57Z</time>
      </trkpt>
      <trkpt lat="44.11432" lon="4.64921">
        <ele>191</ele>
        <time>2016-03-10T01:47:57Z</time>
      </trkpt>
      <trkpt lat="44.11421" lon="4.64919">
        <ele>191</ele>
        <time>2016-03-10T01:49:57Z</time>
      </trkpt>
      <trkpt lat="44.11416" lon="4.64921">
        <ele>190</ele>
        <time>2016-03-10T01:51:57Z</time>
      </trkpt>
      <trkpt lat="44.11409" lon="4.64922">
        <ele>189</ele>
        <time>2016-03-10T01:53:57Z</time>
      </trkpt>
      <trkpt lat="44.11402" lon="4.64921">
        <ele>188</ele>
        <time>2016-03-10T01:55:57Z</time>
      </trkpt>
      <trkpt lat="44.11395" lon="4.64922">
        <ele>188</ele>
        <time>2016-03-10T01:57:57Z</time>
      </trkpt>
      <trkpt lat="44.11373" lon="4.64918">
        <ele>184</ele>
        <time>2016-03-10T01:59:57Z</time>
      </trkpt>
      <trkpt lat="44.11368" lon="4.64918">
        <ele>184</ele>
        <time>2016-03-10T02:01:57Z</time>
      </trkpt>
      <trkpt lat="44.11358" lon="4.64924">
        <ele>183</ele>
        <time>2016-03-10T02:03:57Z</time>
      </trkpt>
      <trkpt lat="44.11351" lon="4.64925">
        <ele>182</ele>
        <time>2016-03-10T02:05:57Z</time>
      </trkpt>
      <trkpt lat="44.11346" lon="4.64932">
        <ele>181</ele>
        <time>2016-03-10T02:07:57Z</time>
      </trkpt>
      <trkpt lat="44.11339" lon="4.64936">
        <ele>181</ele>
        <time>2016-03-10T02:09:57Z</time>
      </trkpt>
      <trkpt lat="44.11336" lon="4.64938">
        <ele>180</ele>
        <time>2016-03-10T02:11:57Z</time>
      </trkpt>
      <trkpt lat="44.11334" lon="4.6494">
        <ele>180</ele>
        <time>2016-03-10T02:13:57Z</time>
      </trkpt>
      <trkpt lat="44.11327" lon="4.64954">
        <ele>179</ele>
        <time>2016-03-10T02:15:57Z</time>
      </trkpt>
      <trkpt lat="44.11325" lon="4.64964">
        <ele>179</ele>
        <time>2016-03-10T02:17:57Z</time>
      </trkpt>
      <trkpt lat="44.11316" lon="4.64983">
        <ele>178</ele>
        <time>2016-03-10T02:19:57Z</time>
      </trkpt>
      <trkpt lat="44.11314" lon="4.64995">
        <ele>178</ele>
        <time>2016-03-10T02:21:57Z</time>
      </trkpt>
      <trkpt lat="44.11305" lon="4.65026">
        <ele>177</ele>
        <time>2016-03-10T02:23:57Z</time>
      </trkpt>
      <trkpt lat="44.11302" lon="4.65028">
        <ele>176</ele>
        <time>2016-03-10T02:25:57Z</time>
      </trkpt>
      <trkpt lat="44.113" lon="4.6503">
        <ele>176</ele>
        <time>2016-03-10T02:27:57Z</time>
      </trkpt>
      <trkpt lat="44.11298" lon="4.65032">
        <ele>176</ele>
        <time>2016-03-10T02:29:57Z</time>
      </trkpt>
      <trkpt lat="44.11296" lon="4.65041">
        <ele>176</ele>
        <time>2016-03-10T02:31:57Z</time>
      </trkpt>
      <trkpt lat="44.11295" lon="4.65046">
        <ele>176</ele>
        <time>2016-03-10T02:33:57Z</time>
      </trkpt>
      <trkpt lat="44.11291" lon="4.65049">
        <ele>175</ele>
        <time>2016-03-10T02:35:57Z</time>
      </trkpt>
      <trkpt lat="44.11288" lon="4.6505">
        <ele>175</ele>
        <time>2016-03-10T02:37:57Z</time>
      </trkpt>
      <trkpt lat="44.11281" lon="4.65055">
        <ele>174</ele>
        <time>2016-03-10T02:39:57Z</time>
      </trkpt>
      <trkpt lat="44.1127" lon="4.65064">
        <ele>174</ele>
        <time>2016-03-10T02:41:57Z</time>
      </trkpt>
      <trkpt lat="44.11266" lon="4.65077">
        <ele>174</ele>
        <time>2016-03-10T02:43:57Z</time>
      </trkpt>
      <trkpt lat="44.11261" lon="4.65086">
        <ele>174</ele>
        <time>2016-03-10T02:45:57Z</time>
      </trkpt>
      <trkpt lat="44.11257" lon="4.65091">
        <ele>173</ele>
        <time>2016-03-10T02:47:57Z</time>
      </trkpt>
      <trkpt lat="44.11252" lon="4.65092">
        <ele>173</ele>
        <time>2016-03-10T02:49:57Z</time>
      </trkpt>
      <trkpt lat="44.11248" lon="4.65093">
        <ele>172</ele>
        <time>2016-03-10T02:51:57Z</time>
      </trkpt>
      <trkpt lat="44.11232" lon="4.65099">
        <ele>171</ele>
        <time>2016-03-10T02:53:57Z</time>
      </trkpt>
      <trkpt lat="44.11229" lon="4.65103">
        <ele>171</ele>
        <time>2016-03-10T02:55:57Z</time>
      </trkpt>
      <trkpt lat="44.11224" lon="4.65107">
        <ele>170</ele>
        <time>2016-03-10T02:57:57Z</time>
      </trkpt>
      <trkpt lat="44.11216" lon="4.65113">
        <ele>170</ele>
        <time>2016-03-10T02:59:57Z</time>
      </trkpt>
      <trkpt lat="44.11209" lon="4.65114">
        <ele>169</ele>
        <time>2016-03-10T03:01:57Z</time>
      </trkpt>
      <trkpt lat="44.11203" lon="4.65116">
        <ele>169</ele>
        <time>2016-03-10T03:03:57Z</time>
      </trkpt>
      <trkpt lat="44.11201" lon="4.65117">
        <ele>169</ele>
        <time>2016-03-10T03:05:57Z</time>
      </trkpt>
      <trkpt lat="44.11198" lon="4.65117">
        <ele>169</ele>
        <time>2016-03-10T03:07:57Z</time>
      </trkpt>
      <trkpt lat="44.11185" lon="4.65119">
        <ele>168</ele>
        <time>2016-03-10T03:09:57Z</time>
      </trkpt>
      <trkpt lat="44.11166" lon="4.65131">
        <ele>167</ele>
        <time>2016-03-10T03:11:57Z</time>
      </trkpt>
      <trkpt lat="44.11154" lon="4.65147">
        <ele>168</ele>
        <time>2016-03-10T03:13:57Z</time>
      </trkpt>
      <trkpt lat="44.11142" lon="4.65168">
        <ele>168</ele>
        <time>2016-03-10T03:15:57Z</time>
      </trkpt>
      <trkpt lat="44.11138" lon="4.65175">
        <ele>168</ele>
        <time>2016-03-10T03:17:57Z</time>
      </trkpt>
      <trkpt lat="44.1113" lon="4.65185">
        <ele>167</ele>
        <time>2016-03-10T03:19:57Z</time>
      </trkpt>
      <trkpt lat="44.11128" lon="4.65192">
        <ele>166</ele>
        <time>2016-03-10T03:21:57Z</time>
      </trkpt>
      <trkpt lat="44.11125" lon="4.65205">
        <ele>165</ele>
        <time>2016-03-10T03:23:57Z</time>
      </trkpt>
      <trkpt lat="44.11126" lon="4.65212">
        <ele>164</ele>
        <time>2016-03-10T03:25:57Z</time>
      </trkpt>
      <trkpt lat="44.11127" lon="4.65218">
        <ele>164</ele>
        <time>2016-03-10T03:27:57Z</time>
      </trkpt>
      <trkpt lat="44.11127" lon="4.65224">
        <ele>163</ele>
        <time>2016-03-10T03:29:57Z</time>
      </trkpt>
      <trkpt lat="44.11123" lon="4.65233">
        <ele>163</ele>
        <time>2016-03-10T03:31:57Z</time>
      </trkpt>
      <trkpt lat="44.11123" lon="4.6524">
        <ele>162</ele>
        <time>2016-03-10T03:33:57Z</time>
      </trkpt>
      <trkpt lat="44.11121" lon="4.65244">
        <ele>162</ele>
        <time>2016-03-10T03:35:57Z</time>
      </trkpt>
      <trkpt lat="44.1112" lon="4.65245">
        <ele>162</ele>
        <time>2016-03-10T03:37:57Z</time>
      </trkpt>
      <trkpt lat="44.11118" lon="4.65245">
        <ele>162</ele>
        <time>2016-03-10T03:39:57Z</time>
      </trkpt>
      <trkpt lat="44.11106" lon="4.65249">
        <ele>162</ele>
        <time>2016-03-10T03:41:57Z</time>
      </trkpt>
      <trkpt lat="44.11102" lon="4.65249">
        <ele>162</ele>
        <time>2016-03-10T03:43:57Z</time>
      </trkpt>
      <trkpt lat="44.11098" lon="4.65248">
        <ele>163</ele>
        <time>2016-03-10T03:45:57Z</time>
      </trkpt>
      <trkpt lat="44.11095" lon="4.65247">
        <ele>163</ele>
        <time>2016-03-10T03:47:57Z</time>
      </trkpt>
      <trkpt lat="44.11076" lon="4.65254">
        <ele>161</ele>
        <time>2016-03-10T03:49:57Z</time>
      </trkpt>
      <trkpt lat="44.11073" lon="4.65254">
        <ele>161</ele>
        <time>2016-03-10T03:51:57Z</time>
      </trkpt>
      <trkpt lat="44.11072" lon="4.65253">
        <ele>161</ele>
        <time>2016-03-10T03:53:57Z</time>
      </trkpt>
      <trkpt lat="44.11066" lon="4.65255">
        <ele>160</ele>
        <time>2016-03-10T03:55:57Z</time>
      </trkpt>
      <trkpt lat="44.11057" lon="4.65246">
        <ele>159</ele>
        <time>2016-03-10T03:57:57Z</time>
      </trkpt>
      <trkpt lat="44.11054" lon="4.65246">
        <ele>159</ele>
        <time>2016-03-10T03:59:57Z</time>
      </trkpt>
      <trkpt lat="44.11046" lon="4.65242">
        <ele>158</ele>
        <time>2016-03-10T04:01:57Z</time>
      </trkpt>
      <trkpt lat="44.11044" lon="4.6524">
        <ele>157</ele>
        <time>2016-03-10T04:03:57Z</time>
      </trkpt>
      <trkpt lat="44.11042" lon="4.65229">
        <ele>158</ele>
        <time>2016-03-10T04:05:57Z</time>
      </trkpt>
      <trkpt lat="44.1103" lon="4.6522">
        <ele>157</ele>
        <time>2016-03-10T04:07:57Z</time>
      </trkpt>
      <trkpt lat="44.11018" lon="4.65216">
        <ele>155</ele>
        <time>2016-03-10T04:09:57Z</time>
      </trkpt>
      <trkpt lat="44.11015" lon="4.65217">
        <ele>155</ele>
        <time>2016-03-10T04:11:57Z</time>
      </trkpt>
      <trkpt lat="44.11014" lon="4.65218">
        <ele>154</ele>
        <time>2016-03-10T04:13:57Z</time>
      </trkpt>
      <trkpt lat="44.11014" lon="4.65218">
        <ele>154</ele>
        <time>2016-03-10T04:15:57Z</time>
      </trkpt>
      <trkpt lat="44.11014" lon="4.65222">
        <ele>154</ele>
        <time>2016-03-10T04:17:57Z</time>
      </trkpt>
      <trkpt lat="44.11012" lon="4.65232">
        <ele>153</ele>
        <time>2016-03-10T04:19:57Z</time>
      </trkpt>
      <trkpt lat="44.11012" lon="4.65237">
        <ele>153</ele>
        <time>2016-03-10T04:21:57Z</time>
      </trkpt>
      <trkpt lat="44.11011" lon="4.65251">
        <ele>152</ele>
        <time>2016-03-10T04:23:57Z</time>
      </trkpt>
      <trkpt lat="44.11011" lon="4.65258">
        <ele>151</ele>
        <time>2016-03-10T04:25:57Z</time>
      </trkpt>
      <trkpt lat="44.1101" lon="4.65273">
        <ele>149</ele>
        <time>2016-03-10T04:27:57Z</time>
      </trkpt>
      <trkpt lat="44.11009" lon="4.65291">
        <ele>147</ele>
        <time>2016-03-10T04:29:57Z</time>
      </trkpt>
      <trkpt lat="44.11009" lon="4.65309">
        <ele>145</ele>
        <time>2016-03-10T04:31:57Z</time>
      </trkpt>
      <trkpt lat="44.11012" lon="4.65317">
        <ele>145</ele>
        <time>2016-03-10T04:33:57Z</time>
      </trkpt>
      <trkpt lat="44.11023" lon="4.65343">
        <ele>143</ele>
        <time>2016-03-10T04:35:57Z</time>
      </trkpt>
      <trkpt lat="44.11028" lon="4.65357">
        <ele>143</ele>
        <time>2016-03-10T04:37:57Z</time>
      </trkpt>
      <trkpt lat="44.11027" lon="4.65364">
        <ele>142</ele>
        <time>2016-03-10T04:39:57Z</time>
      </trkpt>
      <trkpt lat="44.11029" lon="4.65374">
        <ele>142</ele>
        <time>2016-03-10T04:41:57Z</time>
      </trkpt>
      <trkpt lat="44.11043" lon="4.65363">
        <ele>144</ele>
        <time>2016-03-10T04:43:57Z</time>
      </trkpt>
      <trkpt lat="44.11068" lon="4.65344">
        <ele>147</ele>
        <time>2016-03-10T04:45:57Z</time>
      </trkpt>
      <trkpt lat="44.1112" lon="4.6531">
        <ele>153</ele>
        <time>2016-03-10T04:47:57Z</time>
      </trkpt>
      <trkpt lat="44.11152" lon="4.6529">
        <ele>155</ele>
        <time>2016-03-10T04:49:57Z</time>
      </trkpt>
      <trkpt lat="44.11182" lon="4.65252">
        <ele>160</ele>
        <time>2016-03-10T04:51:57Z</time>
      </trkpt>
      <trkpt lat="44.11212" lon="4.65215">
        <ele>164</ele>
        <time>2016-03-10T04:53:57Z</time>
      </trkpt>
      <trkpt lat="44.11236" lon="4.65193">
        <ele>166</ele>
        <time>2016-03-10T04:55:57Z</time>
      </trkpt>
      <trkpt lat="44.11256" lon="4.65171">
        <ele>169</ele>
        <time>2016-03-10T04:57:57Z</time>
      </trkpt>
      <trkpt lat="44.11269" lon="4.6515">
        <ele>170</ele>
        <time>2016-03-10T04:59:57Z</time>
      </trkpt>
      <trkpt lat="44.11286" lon="4.65127">
        <ele>172</ele>
        <time>2016-03-10T05:01:57Z</time>
      </trkpt>
      <trkpt lat="44.11311" lon="4.6511">
        <ele>174</ele>
        <time>2016-03-10T05:03:57Z</time>
      </trkpt>
      <trkpt lat="44.1135" lon="4.65107">
        <ele>177</ele>
        <time>2016-03-10T05:05:57Z</time>
      </trkpt>
      <trkpt lat="44.1141" lon="4.65106">
        <ele>184</ele>
        <time>2016-03-10T05:07:57Z</time>
      </trkpt>
      <trkpt lat="44.11426" lon="4.65089">
        <ele>189</ele>
        <time>2016-03-10T05:09:57Z</time>
      </trkpt>
      <trkpt lat="44.11439" lon="4.65073">
        <ele>192</ele>
        <time>2016-03-10T05:11:57Z</time>
      </trkpt>
      <trkpt lat="44.11473" lon="4.65048">
        <ele>196</ele>
        <time>2016-03-10T05:13:57Z</time>
      </trkpt>
      <trkpt lat="44.11518" lon="4.6501">
        <ele>204</ele>
        <time>2016-03-10T05:15:57Z</time>
      </trkpt>
    </trkseg>
  </trk>
</gpx>